<?xml version="1.0" encoding="UTF-8" standalone="no" ?>
<gpx xmlns="http://www.topografix.com/GPX/1/1" xmlns:xsi="http://www.w3.org/2001/XMLSchema-instance" xsi:schemaLocation="http://www.topografix.com/GPX/1/1 http://www.topografix.com/GPX/1/1/gpx.xsd" version="1.1" creator="VisuGPX - https://www.visugpx.com">
  <metadata>
    <name>St Parize le Chatel , le bois de bord </name>
    <desc><![CDATA[Super , très peu de route , et beaucoup de jonquilles ]]></desc>
  </metadata>
  <trk>
    <name><![CDATA[St Parize le Chatel , le bois de bord _1]]></name>
    <trkseg>
      <trkpt lat="46.8535" lon="3.17537">
        <ele>239.86875915527</ele>
        <time>2016-02-07T07:58:10.000Z</time>
      </trkpt>
      <trkpt lat="46.85351" lon="3.17541">
        <ele>239.8522644043</ele>
        <time>2016-02-07T07:58:15.000Z</time>
      </trkpt>
      <trkpt lat="46.85353" lon="3.17546">
        <ele>239.8304901123</ele>
        <time>2016-02-07T07:58:17.000Z</time>
      </trkpt>
      <trkpt lat="46.85356" lon="3.17551">
        <ele>239.81323242188</ele>
        <time>2016-02-07T07:58:18.000Z</time>
      </trkpt>
      <trkpt lat="46.85356" lon="3.17553">
        <ele>239.79780578613</ele>
        <time>2016-02-07T07:58:19.000Z</time>
      </trkpt>
      <trkpt lat="46.85356" lon="3.17555">
        <ele>239.76596069336</ele>
        <time>2016-02-07T07:58:20.000Z</time>
      </trkpt>
      <trkpt lat="46.85356" lon="3.17559">
        <ele>239.72555541992</ele>
        <time>2016-02-07T07:58:20.000Z</time>
      </trkpt>
      <trkpt lat="46.85355" lon="3.17563">
        <ele>239.6820526123</ele>
        <time>2016-02-07T07:58:22.000Z</time>
      </trkpt>
      <trkpt lat="46.85355" lon="3.17566">
        <ele>239.63388061523</ele>
        <time>2016-02-07T07:58:25.000Z</time>
      </trkpt>
      <trkpt lat="46.85354" lon="3.17567">
        <ele>239.58657836914</ele>
        <time>2016-02-07T07:58:36.000Z</time>
      </trkpt>
      <trkpt lat="46.85353" lon="3.1757">
        <ele>239.52993774414</ele>
        <time>2016-02-07T07:58:38.000Z</time>
      </trkpt>
      <trkpt lat="46.85352" lon="3.17576">
        <ele>239.46975708008</ele>
        <time>2016-02-07T07:58:53.000Z</time>
      </trkpt>
      <trkpt lat="46.85352" lon="3.1758">
        <ele>239.41084289551</ele>
        <time>2016-02-07T07:58:54.000Z</time>
      </trkpt>
      <trkpt lat="46.85352" lon="3.17584">
        <ele>239.35005187988</ele>
        <time>2016-02-07T07:58:55.000Z</time>
      </trkpt>
      <trkpt lat="46.85352" lon="3.1759">
        <ele>239.29130554199</ele>
        <time>2016-02-07T07:58:55.000Z</time>
      </trkpt>
      <trkpt lat="46.85352" lon="3.17595">
        <ele>239.24531555176</ele>
        <time>2016-02-07T07:58:56.000Z</time>
      </trkpt>
      <trkpt lat="46.85352" lon="3.17595">
        <ele>239.24531555176</ele>
        <time>2016-02-07T07:59:40.000Z</time>
      </trkpt>
      <trkpt lat="46.85353" lon="3.17599">
        <ele>239.21684265137</ele>
        <time>2016-02-07T07:59:49.000Z</time>
      </trkpt>
      <trkpt lat="46.85353" lon="3.17605">
        <ele>239.1965637207</ele>
        <time>2016-02-07T07:59:52.000Z</time>
      </trkpt>
      <trkpt lat="46.85353" lon="3.17607">
        <ele>239.18661499023</ele>
        <time>2016-02-07T07:59:52.000Z</time>
      </trkpt>
      <trkpt lat="46.85352" lon="3.17609">
        <ele>239.17724609375</ele>
        <time>2016-02-07T07:59:53.000Z</time>
      </trkpt>
      <trkpt lat="46.85352" lon="3.17615">
        <ele>239.16572570801</ele>
        <time>2016-02-07T07:59:53.000Z</time>
      </trkpt>
      <trkpt lat="46.85352" lon="3.17619">
        <ele>239.15356445312</ele>
        <time>2016-02-07T07:59:54.000Z</time>
      </trkpt>
      <trkpt lat="46.85352" lon="3.17621">
        <ele>239.14404296875</ele>
        <time>2016-02-07T07:59:54.000Z</time>
      </trkpt>
      <trkpt lat="46.85351" lon="3.17632">
        <ele>239.1283416748</ele>
        <time>2016-02-07T07:59:54.000Z</time>
      </trkpt>
      <trkpt lat="46.8535" lon="3.17638">
        <ele>239.1106262207</ele>
        <time>2016-02-07T07:59:54.000Z</time>
      </trkpt>
      <trkpt lat="46.8535" lon="3.17641">
        <ele>239.09530639648</ele>
        <time>2016-02-07T07:59:54.000Z</time>
      </trkpt>
      <trkpt lat="46.85349" lon="3.17645">
        <ele>239.07849121094</ele>
        <time>2016-02-07T07:59:54.000Z</time>
      </trkpt>
      <trkpt lat="46.85347" lon="3.1765">
        <ele>239.05989074707</ele>
        <time>2016-02-07T07:59:55.000Z</time>
      </trkpt>
      <trkpt lat="46.85345" lon="3.17656">
        <ele>239.0458984375</ele>
        <time>2016-02-07T07:59:55.000Z</time>
      </trkpt>
      <trkpt lat="46.85345" lon="3.17661">
        <ele>239.03373718262</ele>
        <time>2016-02-07T07:59:55.000Z</time>
      </trkpt>
      <trkpt lat="46.85344" lon="3.17666">
        <ele>239.02139282227</ele>
        <time>2016-02-07T07:59:55.000Z</time>
      </trkpt>
      <trkpt lat="46.85344" lon="3.17672">
        <ele>239.0029296875</ele>
        <time>2016-02-07T07:59:55.000Z</time>
      </trkpt>
      <trkpt lat="46.85345" lon="3.17675">
        <ele>238.98149108887</ele>
        <time>2016-02-07T07:59:55.000Z</time>
      </trkpt>
      <trkpt lat="46.85345" lon="3.17678">
        <ele>238.95895385742</ele>
        <time>2016-02-07T07:59:56.000Z</time>
      </trkpt>
      <trkpt lat="46.85348" lon="3.17682">
        <ele>238.93374633789</ele>
        <time>2016-02-07T07:59:56.000Z</time>
      </trkpt>
      <trkpt lat="46.85351" lon="3.17687">
        <ele>238.90493774414</ele>
        <time>2016-02-07T07:59:56.000Z</time>
      </trkpt>
      <trkpt lat="46.85353" lon="3.17693">
        <ele>238.88090515137</ele>
        <time>2016-02-07T07:59:56.000Z</time>
      </trkpt>
      <trkpt lat="46.85355" lon="3.17695">
        <ele>238.86340332031</ele>
        <time>2016-02-07T07:59:56.000Z</time>
      </trkpt>
      <trkpt lat="46.85357" lon="3.17694">
        <ele>238.85409545898</ele>
        <time>2016-02-07T07:59:57.000Z</time>
      </trkpt>
      <trkpt lat="46.85359" lon="3.17692">
        <ele>238.85444641113</ele>
        <time>2016-02-07T07:59:57.000Z</time>
      </trkpt>
      <trkpt lat="46.85362" lon="3.17693">
        <ele>238.86386108398</ele>
        <time>2016-02-07T07:59:59.000Z</time>
      </trkpt>
      <trkpt lat="46.85366" lon="3.17694">
        <ele>238.88296508789</ele>
        <time>2016-02-07T08:00:01.000Z</time>
      </trkpt>
      <trkpt lat="46.85365" lon="3.17695">
        <ele>238.89926147461</ele>
        <time>2016-02-07T08:00:03.000Z</time>
      </trkpt>
      <trkpt lat="46.85363" lon="3.17694">
        <ele>238.90908813477</ele>
        <time>2016-02-07T08:00:06.000Z</time>
      </trkpt>
      <trkpt lat="46.85362" lon="3.17694">
        <ele>238.91128540039</ele>
        <time>2016-02-07T08:00:08.000Z</time>
      </trkpt>
      <trkpt lat="46.85359" lon="3.17694">
        <ele>238.90531921387</ele>
        <time>2016-02-07T08:00:11.000Z</time>
      </trkpt>
      <trkpt lat="46.85356" lon="3.17695">
        <ele>238.88818359375</ele>
        <time>2016-02-07T08:00:14.000Z</time>
      </trkpt>
      <trkpt lat="46.85354" lon="3.17694">
        <ele>238.87162780762</ele>
        <time>2016-02-07T08:00:16.000Z</time>
      </trkpt>
      <trkpt lat="46.85351" lon="3.17689">
        <ele>238.85885620117</ele>
        <time>2016-02-07T08:00:19.000Z</time>
      </trkpt>
      <trkpt lat="46.8535" lon="3.17686">
        <ele>238.8518371582</ele>
        <time>2016-02-07T08:00:21.000Z</time>
      </trkpt>
      <trkpt lat="46.85347" lon="3.17681">
        <ele>238.85446166992</ele>
        <time>2016-02-07T08:00:24.000Z</time>
      </trkpt>
      <trkpt lat="46.85345" lon="3.17676">
        <ele>238.86929321289</ele>
        <time>2016-02-07T08:00:27.000Z</time>
      </trkpt>
      <trkpt lat="46.85342" lon="3.1767">
        <ele>238.89501953125</ele>
        <time>2016-02-07T08:00:30.000Z</time>
      </trkpt>
      <trkpt lat="46.85341" lon="3.17667">
        <ele>238.92610168457</ele>
        <time>2016-02-07T08:00:32.000Z</time>
      </trkpt>
      <trkpt lat="46.8534" lon="3.17661">
        <ele>238.95491027832</ele>
        <time>2016-02-07T08:00:35.000Z</time>
      </trkpt>
      <trkpt lat="46.85339" lon="3.17657">
        <ele>238.97904968262</ele>
        <time>2016-02-07T08:00:37.000Z</time>
      </trkpt>
      <trkpt lat="46.85339" lon="3.17652">
        <ele>238.99783325195</ele>
        <time>2016-02-07T08:00:40.000Z</time>
      </trkpt>
      <trkpt lat="46.85338" lon="3.17648">
        <ele>239.00720214844</ele>
        <time>2016-02-07T08:00:42.000Z</time>
      </trkpt>
      <trkpt lat="46.85337" lon="3.17643">
        <ele>239.00967407227</ele>
        <time>2016-02-07T08:00:45.000Z</time>
      </trkpt>
      <trkpt lat="46.85336" lon="3.17639">
        <ele>239.01089477539</ele>
        <time>2016-02-07T08:00:48.000Z</time>
      </trkpt>
      <trkpt lat="46.85337" lon="3.17638">
        <ele>239.01235961914</ele>
        <time>2016-02-07T08:01:01.000Z</time>
      </trkpt>
      <trkpt lat="46.85337" lon="3.17636">
        <ele>239.01322937012</ele>
        <time>2016-02-07T08:01:12.000Z</time>
      </trkpt>
      <trkpt lat="46.85336" lon="3.1763">
        <ele>239.01374816895</ele>
        <time>2016-02-07T08:01:15.000Z</time>
      </trkpt>
      <trkpt lat="46.85335" lon="3.17628">
        <ele>239.0129699707</ele>
        <time>2016-02-07T08:01:17.000Z</time>
      </trkpt>
      <trkpt lat="46.85334" lon="3.17625">
        <ele>239.0111541748</ele>
        <time>2016-02-07T08:01:19.000Z</time>
      </trkpt>
      <trkpt lat="46.85332" lon="3.17623">
        <ele>239.00936889648</ele>
        <time>2016-02-07T08:01:21.000Z</time>
      </trkpt>
      <trkpt lat="46.85329" lon="3.17623">
        <ele>239.01142883301</ele>
        <time>2016-02-07T08:01:24.000Z</time>
      </trkpt>
      <trkpt lat="46.85327" lon="3.17623">
        <ele>239.01724243164</ele>
        <time>2016-02-07T08:01:26.000Z</time>
      </trkpt>
      <trkpt lat="46.85323" lon="3.17622">
        <ele>239.0297088623</ele>
        <time>2016-02-07T08:01:29.000Z</time>
      </trkpt>
      <trkpt lat="46.8532" lon="3.17623">
        <ele>239.04862976074</ele>
        <time>2016-02-07T08:01:32.000Z</time>
      </trkpt>
      <trkpt lat="46.85315" lon="3.17624">
        <ele>239.07040405273</ele>
        <time>2016-02-07T08:01:35.000Z</time>
      </trkpt>
      <trkpt lat="46.85312" lon="3.17624">
        <ele>239.09326171875</ele>
        <time>2016-02-07T08:01:37.000Z</time>
      </trkpt>
      <trkpt lat="46.85308" lon="3.17622">
        <ele>239.1198425293</ele>
        <time>2016-02-07T08:01:40.000Z</time>
      </trkpt>
      <trkpt lat="46.85306" lon="3.17622">
        <ele>239.14517211914</ele>
        <time>2016-02-07T08:01:42.000Z</time>
      </trkpt>
      <trkpt lat="46.85302" lon="3.17622">
        <ele>239.17207336426</ele>
        <time>2016-02-07T08:01:45.000Z</time>
      </trkpt>
      <trkpt lat="46.853" lon="3.17622">
        <ele>239.19772338867</ele>
        <time>2016-02-07T08:01:47.000Z</time>
      </trkpt>
      <trkpt lat="46.85298" lon="3.17624">
        <ele>239.21574401855</ele>
        <time>2016-02-07T08:01:49.000Z</time>
      </trkpt>
      <trkpt lat="46.85297" lon="3.17628">
        <ele>239.21586608887</ele>
        <time>2016-02-07T08:01:52.000Z</time>
      </trkpt>
      <trkpt lat="46.85297" lon="3.17631">
        <ele>239.20169067383</ele>
        <time>2016-02-07T08:01:54.000Z</time>
      </trkpt>
      <trkpt lat="46.85297" lon="3.17633">
        <ele>239.17358398438</ele>
        <time>2016-02-07T08:01:56.000Z</time>
      </trkpt>
      <trkpt lat="46.85297" lon="3.17636">
        <ele>239.13497924805</ele>
        <time>2016-02-07T08:01:59.000Z</time>
      </trkpt>
      <trkpt lat="46.85296" lon="3.17637">
        <ele>239.09419250488</ele>
        <time>2016-02-07T08:02:01.000Z</time>
      </trkpt>
      <trkpt lat="46.85295" lon="3.17642">
        <ele>239.04922485352</ele>
        <time>2016-02-07T08:02:03.000Z</time>
      </trkpt>
      <trkpt lat="46.85296" lon="3.17645">
        <ele>239.00338745117</ele>
        <time>2016-02-07T08:02:05.000Z</time>
      </trkpt>
      <trkpt lat="46.85297" lon="3.17654">
        <ele>238.93827819824</ele>
        <time>2016-02-07T08:02:08.000Z</time>
      </trkpt>
      <trkpt lat="46.85298" lon="3.17659">
        <ele>238.86767578125</ele>
        <time>2016-02-07T08:02:10.000Z</time>
      </trkpt>
      <trkpt lat="46.85298" lon="3.17665">
        <ele>238.78219604492</ele>
        <time>2016-02-07T08:02:13.000Z</time>
      </trkpt>
      <trkpt lat="46.85299" lon="3.1767">
        <ele>238.69857788086</ele>
        <time>2016-02-07T08:02:16.000Z</time>
      </trkpt>
      <trkpt lat="46.85299" lon="3.17675">
        <ele>238.61059570312</ele>
        <time>2016-02-07T08:02:19.000Z</time>
      </trkpt>
      <trkpt lat="46.853" lon="3.17679">
        <ele>238.53630065918</ele>
        <time>2016-02-07T08:02:21.000Z</time>
      </trkpt>
      <trkpt lat="46.853" lon="3.1768">
        <ele>238.47041320801</ele>
        <time>2016-02-07T08:02:23.000Z</time>
      </trkpt>
      <trkpt lat="46.853" lon="3.17686">
        <ele>238.40316772461</ele>
        <time>2016-02-07T08:02:26.000Z</time>
      </trkpt>
      <trkpt lat="46.853" lon="3.17694">
        <ele>238.32263183594</ele>
        <time>2016-02-07T08:02:29.000Z</time>
      </trkpt>
      <trkpt lat="46.853" lon="3.17697">
        <ele>238.2487487793</ele>
        <time>2016-02-07T08:02:31.000Z</time>
      </trkpt>
      <trkpt lat="46.853" lon="3.17702">
        <ele>238.17175292969</ele>
        <time>2016-02-07T08:02:33.000Z</time>
      </trkpt>
      <trkpt lat="46.85298" lon="3.17708">
        <ele>238.07035827637</ele>
        <time>2016-02-07T08:02:36.000Z</time>
      </trkpt>
      <trkpt lat="46.85297" lon="3.17713">
        <ele>237.9709777832</ele>
        <time>2016-02-07T08:02:39.000Z</time>
      </trkpt>
      <trkpt lat="46.85297" lon="3.17721">
        <ele>237.87112426758</ele>
        <time>2016-02-07T08:02:42.000Z</time>
      </trkpt>
      <trkpt lat="46.85298" lon="3.17725">
        <ele>237.77145385742</ele>
        <time>2016-02-07T08:02:44.000Z</time>
      </trkpt>
      <trkpt lat="46.85299" lon="3.17727">
        <ele>237.68293762207</ele>
        <time>2016-02-07T08:02:46.000Z</time>
      </trkpt>
      <trkpt lat="46.85299" lon="3.17733">
        <ele>237.60261535645</ele>
        <time>2016-02-07T08:02:49.000Z</time>
      </trkpt>
      <trkpt lat="46.85299" lon="3.17736">
        <ele>237.5329284668</ele>
        <time>2016-02-07T08:02:51.000Z</time>
      </trkpt>
      <trkpt lat="46.85299" lon="3.17743">
        <ele>237.46670532227</ele>
        <time>2016-02-07T08:02:54.000Z</time>
      </trkpt>
      <trkpt lat="46.85299" lon="3.17746">
        <ele>237.39697265625</ele>
        <time>2016-02-07T08:02:56.000Z</time>
      </trkpt>
      <trkpt lat="46.85298" lon="3.1775">
        <ele>237.31571960449</ele>
        <time>2016-02-07T08:02:59.000Z</time>
      </trkpt>
      <trkpt lat="46.85298" lon="3.17756">
        <ele>237.26216125488</ele>
        <time>2016-02-07T08:03:02.000Z</time>
      </trkpt>
      <trkpt lat="46.85299" lon="3.17763">
        <ele>237.22680664062</ele>
        <time>2016-02-07T08:03:05.000Z</time>
      </trkpt>
      <trkpt lat="46.85299" lon="3.17767">
        <ele>237.21846008301</ele>
        <time>2016-02-07T08:03:07.000Z</time>
      </trkpt>
      <trkpt lat="46.85299" lon="3.1777">
        <ele>237.2250213623</ele>
        <time>2016-02-07T08:03:10.000Z</time>
      </trkpt>
      <trkpt lat="46.85299" lon="3.17775">
        <ele>237.25141906738</ele>
        <time>2016-02-07T08:03:12.000Z</time>
      </trkpt>
      <trkpt lat="46.85299" lon="3.17779">
        <ele>237.27584838867</ele>
        <time>2016-02-07T08:03:14.000Z</time>
      </trkpt>
      <trkpt lat="46.85298" lon="3.17783">
        <ele>237.29243469238</ele>
        <time>2016-02-07T08:03:16.000Z</time>
      </trkpt>
      <trkpt lat="46.85297" lon="3.17788">
        <ele>237.30583190918</ele>
        <time>2016-02-07T08:03:19.000Z</time>
      </trkpt>
      <trkpt lat="46.85297" lon="3.17795">
        <ele>237.32357788086</ele>
        <time>2016-02-07T08:03:22.000Z</time>
      </trkpt>
      <trkpt lat="46.85297" lon="3.17802">
        <ele>237.34359741211</ele>
        <time>2016-02-07T08:03:25.000Z</time>
      </trkpt>
      <trkpt lat="46.85297" lon="3.17806">
        <ele>237.36349487305</ele>
        <time>2016-02-07T08:03:27.000Z</time>
      </trkpt>
      <trkpt lat="46.85297" lon="3.17809">
        <ele>237.38468933105</ele>
        <time>2016-02-07T08:03:29.000Z</time>
      </trkpt>
      <trkpt lat="46.85296" lon="3.17814">
        <ele>237.40937805176</ele>
        <time>2016-02-07T08:03:32.000Z</time>
      </trkpt>
      <trkpt lat="46.85296" lon="3.1782">
        <ele>237.43240356445</ele>
        <time>2016-02-07T08:03:35.000Z</time>
      </trkpt>
      <trkpt lat="46.85295" lon="3.17827">
        <ele>237.45565795898</ele>
        <time>2016-02-07T08:03:38.000Z</time>
      </trkpt>
      <trkpt lat="46.85295" lon="3.17833">
        <ele>237.48178100586</ele>
        <time>2016-02-07T08:03:41.000Z</time>
      </trkpt>
      <trkpt lat="46.85295" lon="3.17836">
        <ele>237.4956817627</ele>
        <time>2016-02-07T08:03:43.000Z</time>
      </trkpt>
      <trkpt lat="46.85295" lon="3.1784">
        <ele>237.4955291748</ele>
        <time>2016-02-07T08:03:45.000Z</time>
      </trkpt>
      <trkpt lat="46.85295" lon="3.17844">
        <ele>237.48002624512</ele>
        <time>2016-02-07T08:03:47.000Z</time>
      </trkpt>
      <trkpt lat="46.85295" lon="3.17849">
        <ele>237.4440612793</ele>
        <time>2016-02-07T08:03:50.000Z</time>
      </trkpt>
      <trkpt lat="46.85295" lon="3.17853">
        <ele>237.3921661377</ele>
        <time>2016-02-07T08:03:52.000Z</time>
      </trkpt>
      <trkpt lat="46.85294" lon="3.17859">
        <ele>237.33303833008</ele>
        <time>2016-02-07T08:03:55.000Z</time>
      </trkpt>
      <trkpt lat="46.85294" lon="3.17865">
        <ele>237.26821899414</ele>
        <time>2016-02-07T08:03:58.000Z</time>
      </trkpt>
      <trkpt lat="46.85294" lon="3.1787">
        <ele>237.20004272461</ele>
        <time>2016-02-07T08:04:01.000Z</time>
      </trkpt>
      <trkpt lat="46.85294" lon="3.17877">
        <ele>237.13037109375</ele>
        <time>2016-02-07T08:04:04.000Z</time>
      </trkpt>
      <trkpt lat="46.85295" lon="3.17881">
        <ele>237.05783081055</ele>
        <time>2016-02-07T08:04:06.000Z</time>
      </trkpt>
      <trkpt lat="46.85294" lon="3.17888">
        <ele>236.98481750488</ele>
        <time>2016-02-07T08:04:09.000Z</time>
      </trkpt>
      <trkpt lat="46.85294" lon="3.17892">
        <ele>236.91653442383</ele>
        <time>2016-02-07T08:04:11.000Z</time>
      </trkpt>
      <trkpt lat="46.85295" lon="3.17898">
        <ele>236.84477233887</ele>
        <time>2016-02-07T08:04:14.000Z</time>
      </trkpt>
      <trkpt lat="46.85295" lon="3.17902">
        <ele>236.77865600586</ele>
        <time>2016-02-07T08:04:16.000Z</time>
      </trkpt>
      <trkpt lat="46.85294" lon="3.17908">
        <ele>236.70980834961</ele>
        <time>2016-02-07T08:04:19.000Z</time>
      </trkpt>
      <trkpt lat="46.85294" lon="3.17912">
        <ele>236.6474609375</ele>
        <time>2016-02-07T08:04:21.000Z</time>
      </trkpt>
      <trkpt lat="46.85294" lon="3.17917">
        <ele>236.58413696289</ele>
        <time>2016-02-07T08:04:24.000Z</time>
      </trkpt>
      <trkpt lat="46.85292" lon="3.17921">
        <ele>236.53298950195</ele>
        <time>2016-02-07T08:04:27.000Z</time>
      </trkpt>
      <trkpt lat="46.85291" lon="3.17923">
        <ele>236.48942565918</ele>
        <time>2016-02-07T08:04:29.000Z</time>
      </trkpt>
      <trkpt lat="46.85291" lon="3.17926">
        <ele>236.45529174805</ele>
        <time>2016-02-07T08:04:32.000Z</time>
      </trkpt>
      <trkpt lat="46.8529" lon="3.17927">
        <ele>236.4306640625</ele>
        <time>2016-02-07T08:04:34.000Z</time>
      </trkpt>
      <trkpt lat="46.85288" lon="3.1793">
        <ele>236.41564941406</ele>
        <time>2016-02-07T08:04:37.000Z</time>
      </trkpt>
      <trkpt lat="46.85286" lon="3.17931">
        <ele>236.40629577637</ele>
        <time>2016-02-07T08:04:39.000Z</time>
      </trkpt>
      <trkpt lat="46.85282" lon="3.17932">
        <ele>236.40718078613</ele>
        <time>2016-02-07T08:04:42.000Z</time>
      </trkpt>
      <trkpt lat="46.85279" lon="3.17932">
        <ele>236.41979980469</ele>
        <time>2016-02-07T08:04:44.000Z</time>
      </trkpt>
      <trkpt lat="46.85273" lon="3.17932">
        <ele>236.44714355469</ele>
        <time>2016-02-07T08:04:47.000Z</time>
      </trkpt>
      <trkpt lat="46.8527" lon="3.17932">
        <ele>236.48596191406</ele>
        <time>2016-02-07T08:04:49.000Z</time>
      </trkpt>
      <trkpt lat="46.85267" lon="3.17931">
        <ele>236.52998352051</ele>
        <time>2016-02-07T08:04:51.000Z</time>
      </trkpt>
      <trkpt lat="46.85263" lon="3.17931">
        <ele>236.57775878906</ele>
        <time>2016-02-07T08:04:54.000Z</time>
      </trkpt>
      <trkpt lat="46.85261" lon="3.17929">
        <ele>236.62756347656</ele>
        <time>2016-02-07T08:04:56.000Z</time>
      </trkpt>
      <trkpt lat="46.85256" lon="3.17928">
        <ele>236.67607116699</ele>
        <time>2016-02-07T08:04:59.000Z</time>
      </trkpt>
      <trkpt lat="46.85252" lon="3.17927">
        <ele>236.73149108887</ele>
        <time>2016-02-07T08:05:02.000Z</time>
      </trkpt>
      <trkpt lat="46.85247" lon="3.17926">
        <ele>236.78442382812</ele>
        <time>2016-02-07T08:05:05.000Z</time>
      </trkpt>
      <trkpt lat="46.85244" lon="3.17926">
        <ele>236.82406616211</ele>
        <time>2016-02-07T08:05:08.000Z</time>
      </trkpt>
      <trkpt lat="46.8524" lon="3.17926">
        <ele>236.85140991211</ele>
        <time>2016-02-07T08:05:11.000Z</time>
      </trkpt>
      <trkpt lat="46.85237" lon="3.17926">
        <ele>236.86616516113</ele>
        <time>2016-02-07T08:05:13.000Z</time>
      </trkpt>
      <trkpt lat="46.85235" lon="3.17925">
        <ele>236.8671875</ele>
        <time>2016-02-07T08:05:15.000Z</time>
      </trkpt>
      <trkpt lat="46.85233" lon="3.17923">
        <ele>236.8681640625</ele>
        <time>2016-02-07T08:05:17.000Z</time>
      </trkpt>
      <trkpt lat="46.8523" lon="3.17922">
        <ele>236.87394714355</ele>
        <time>2016-02-07T08:05:20.000Z</time>
      </trkpt>
      <trkpt lat="46.85226" lon="3.1792">
        <ele>236.88925170898</ele>
        <time>2016-02-07T08:05:23.000Z</time>
      </trkpt>
      <trkpt lat="46.85223" lon="3.1792">
        <ele>236.90661621094</ele>
        <time>2016-02-07T08:05:26.000Z</time>
      </trkpt>
      <trkpt lat="46.85218" lon="3.17919">
        <ele>236.92276000977</ele>
        <time>2016-02-07T08:05:29.000Z</time>
      </trkpt>
      <trkpt lat="46.85215" lon="3.17919">
        <ele>236.93598937988</ele>
        <time>2016-02-07T08:05:32.000Z</time>
      </trkpt>
      <trkpt lat="46.85211" lon="3.17917">
        <ele>236.9524230957</ele>
        <time>2016-02-07T08:05:35.000Z</time>
      </trkpt>
      <trkpt lat="46.85207" lon="3.17916">
        <ele>236.96601867676</ele>
        <time>2016-02-07T08:05:38.000Z</time>
      </trkpt>
      <trkpt lat="46.85205" lon="3.17915">
        <ele>236.97738647461</ele>
        <time>2016-02-07T08:05:40.000Z</time>
      </trkpt>
      <trkpt lat="46.85204" lon="3.17915">
        <ele>236.9875793457</ele>
        <time>2016-02-07T08:05:42.000Z</time>
      </trkpt>
      <trkpt lat="46.852" lon="3.17913">
        <ele>236.9967956543</ele>
        <time>2016-02-07T08:05:45.000Z</time>
      </trkpt>
      <trkpt lat="46.85196" lon="3.17912">
        <ele>237</ele>
        <time>2016-02-07T08:05:49.000Z</time>
      </trkpt>
      <trkpt lat="46.85192" lon="3.17911">
        <ele>237</ele>
        <time>2016-02-07T08:05:51.000Z</time>
      </trkpt>
      <trkpt lat="46.85188" lon="3.17911">
        <ele>237</ele>
        <time>2016-02-07T08:05:54.000Z</time>
      </trkpt>
      <trkpt lat="46.85186" lon="3.1791">
        <ele>237</ele>
        <time>2016-02-07T08:05:56.000Z</time>
      </trkpt>
      <trkpt lat="46.85181" lon="3.17909">
        <ele>237</ele>
        <time>2016-02-07T08:05:59.000Z</time>
      </trkpt>
      <trkpt lat="46.85178" lon="3.17908">
        <ele>237</ele>
        <time>2016-02-07T08:06:01.000Z</time>
      </trkpt>
      <trkpt lat="46.85175" lon="3.17907">
        <ele>237</ele>
        <time>2016-02-07T08:06:04.000Z</time>
      </trkpt>
      <trkpt lat="46.8517" lon="3.17907">
        <ele>237</ele>
        <time>2016-02-07T08:06:07.000Z</time>
      </trkpt>
      <trkpt lat="46.85167" lon="3.17906">
        <ele>237.00015258789</ele>
        <time>2016-02-07T08:06:10.000Z</time>
      </trkpt>
      <trkpt lat="46.85162" lon="3.17905">
        <ele>237.00296020508</ele>
        <time>2016-02-07T08:06:13.000Z</time>
      </trkpt>
      <trkpt lat="46.8516" lon="3.17905">
        <ele>237.00778198242</ele>
        <time>2016-02-07T08:06:15.000Z</time>
      </trkpt>
      <trkpt lat="46.85155" lon="3.17905">
        <ele>237.01553344727</ele>
        <time>2016-02-07T08:06:18.000Z</time>
      </trkpt>
      <trkpt lat="46.85151" lon="3.17904">
        <ele>237.02725219727</ele>
        <time>2016-02-07T08:06:22.000Z</time>
      </trkpt>
      <trkpt lat="46.85147" lon="3.17903">
        <ele>237.04238891602</ele>
        <time>2016-02-07T08:06:25.000Z</time>
      </trkpt>
      <trkpt lat="46.85144" lon="3.17903">
        <ele>237.05766296387</ele>
        <time>2016-02-07T08:06:30.000Z</time>
      </trkpt>
      <trkpt lat="46.8514" lon="3.17902">
        <ele>237.07597351074</ele>
        <time>2016-02-07T08:06:31.000Z</time>
      </trkpt>
      <trkpt lat="46.85137" lon="3.17901">
        <ele>237.0951385498</ele>
        <time>2016-02-07T08:06:32.000Z</time>
      </trkpt>
      <trkpt lat="46.85134" lon="3.17901">
        <ele>237.1128692627</ele>
        <time>2016-02-07T08:06:34.000Z</time>
      </trkpt>
      <trkpt lat="46.8513" lon="3.17899">
        <ele>237.13374328613</ele>
        <time>2016-02-07T08:06:37.000Z</time>
      </trkpt>
      <trkpt lat="46.85128" lon="3.17898">
        <ele>237.15646362305</ele>
        <time>2016-02-07T08:06:42.000Z</time>
      </trkpt>
      <trkpt lat="46.85124" lon="3.17896">
        <ele>237.18305969238</ele>
        <time>2016-02-07T08:06:49.000Z</time>
      </trkpt>
      <trkpt lat="46.85122" lon="3.17895">
        <ele>237.21328735352</ele>
        <time>2016-02-07T08:06:49.000Z</time>
      </trkpt>
      <trkpt lat="46.85119" lon="3.17892">
        <ele>237.25112915039</ele>
        <time>2016-02-07T08:06:50.000Z</time>
      </trkpt>
      <trkpt lat="46.85117" lon="3.17891">
        <ele>237.28730773926</ele>
        <time>2016-02-07T08:06:50.000Z</time>
      </trkpt>
      <trkpt lat="46.85115" lon="3.1789">
        <ele>237.32507324219</ele>
        <time>2016-02-07T08:06:50.000Z</time>
      </trkpt>
      <trkpt lat="46.85112" lon="3.17888">
        <ele>237.3642578125</ele>
        <time>2016-02-07T08:06:52.000Z</time>
      </trkpt>
      <trkpt lat="46.85108" lon="3.17886">
        <ele>237.41122436523</ele>
        <time>2016-02-07T08:06:55.000Z</time>
      </trkpt>
      <trkpt lat="46.85104" lon="3.17883">
        <ele>237.46577453613</ele>
        <time>2016-02-07T08:06:58.000Z</time>
      </trkpt>
      <trkpt lat="46.85101" lon="3.17881">
        <ele>237.52763366699</ele>
        <time>2016-02-07T08:07:01.000Z</time>
      </trkpt>
      <trkpt lat="46.85097" lon="3.17879">
        <ele>237.6011505127</ele>
        <time>2016-02-07T08:07:05.000Z</time>
      </trkpt>
      <trkpt lat="46.85094" lon="3.17878">
        <ele>237.67581176758</ele>
        <time>2016-02-07T08:07:06.000Z</time>
      </trkpt>
      <trkpt lat="46.85091" lon="3.17876">
        <ele>237.74638366699</ele>
        <time>2016-02-07T08:07:08.000Z</time>
      </trkpt>
      <trkpt lat="46.85089" lon="3.17875">
        <ele>237.81167602539</ele>
        <time>2016-02-07T08:07:10.000Z</time>
      </trkpt>
      <trkpt lat="46.85086" lon="3.17872">
        <ele>237.88578796387</ele>
        <time>2016-02-07T08:07:13.000Z</time>
      </trkpt>
      <trkpt lat="46.85082" lon="3.17869">
        <ele>237.95947265625</ele>
        <time>2016-02-07T08:07:16.000Z</time>
      </trkpt>
      <trkpt lat="46.8508" lon="3.17866">
        <ele>238.03005981445</ele>
        <time>2016-02-07T08:07:18.000Z</time>
      </trkpt>
      <trkpt lat="46.85078" lon="3.17864">
        <ele>238.09452819824</ele>
        <time>2016-02-07T08:07:21.000Z</time>
      </trkpt>
      <trkpt lat="46.85073" lon="3.1786">
        <ele>238.1533203125</ele>
        <time>2016-02-07T08:07:24.000Z</time>
      </trkpt>
      <trkpt lat="46.8507" lon="3.17858">
        <ele>238.19360351562</ele>
        <time>2016-02-07T08:07:34.000Z</time>
      </trkpt>
      <trkpt lat="46.85067" lon="3.17855">
        <ele>238.22436523438</ele>
        <time>2016-02-07T08:07:35.000Z</time>
      </trkpt>
      <trkpt lat="46.85065" lon="3.17854">
        <ele>238.24938964844</ele>
        <time>2016-02-07T08:07:35.000Z</time>
      </trkpt>
      <trkpt lat="46.85062" lon="3.17852">
        <ele>238.2685546875</ele>
        <time>2016-02-07T08:07:35.000Z</time>
      </trkpt>
      <trkpt lat="46.85059" lon="3.1785">
        <ele>238.28356933594</ele>
        <time>2016-02-07T08:07:36.000Z</time>
      </trkpt>
      <trkpt lat="46.85056" lon="3.17848">
        <ele>238.29809570312</ele>
        <time>2016-02-07T08:07:39.000Z</time>
      </trkpt>
      <trkpt lat="46.85053" lon="3.17844">
        <ele>238.31591796875</ele>
        <time>2016-02-07T08:07:42.000Z</time>
      </trkpt>
      <trkpt lat="46.85049" lon="3.17841">
        <ele>238.33825683594</ele>
        <time>2016-02-07T08:07:45.000Z</time>
      </trkpt>
      <trkpt lat="46.85046" lon="3.17839">
        <ele>238.36267089844</ele>
        <time>2016-02-07T08:07:48.000Z</time>
      </trkpt>
      <trkpt lat="46.85042" lon="3.17836">
        <ele>238.39086914062</ele>
        <time>2016-02-07T08:07:51.000Z</time>
      </trkpt>
      <trkpt lat="46.85039" lon="3.17832">
        <ele>238.42422485352</ele>
        <time>2016-02-07T08:07:55.000Z</time>
      </trkpt>
      <trkpt lat="46.85037" lon="3.1783">
        <ele>238.45458984375</ele>
        <time>2016-02-07T08:07:56.000Z</time>
      </trkpt>
      <trkpt lat="46.85035" lon="3.17828">
        <ele>238.48266601562</ele>
        <time>2016-02-07T08:07:58.000Z</time>
      </trkpt>
      <trkpt lat="46.85032" lon="3.17825">
        <ele>238.52001953125</ele>
        <time>2016-02-07T08:08:01.000Z</time>
      </trkpt>
      <trkpt lat="46.85029" lon="3.17822">
        <ele>238.56103515625</ele>
        <time>2016-02-07T08:08:03.000Z</time>
      </trkpt>
      <trkpt lat="46.85027" lon="3.17819">
        <ele>238.61172485352</ele>
        <time>2016-02-07T08:08:06.000Z</time>
      </trkpt>
      <trkpt lat="46.85025" lon="3.17816">
        <ele>238.67123413086</ele>
        <time>2016-02-07T08:08:09.000Z</time>
      </trkpt>
      <trkpt lat="46.85022" lon="3.17812">
        <ele>238.75065612793</ele>
        <time>2016-02-07T08:08:12.000Z</time>
      </trkpt>
      <trkpt lat="46.8502" lon="3.1781">
        <ele>238.83610534668</ele>
        <time>2016-02-07T08:08:14.000Z</time>
      </trkpt>
      <trkpt lat="46.85017" lon="3.17805">
        <ele>238.95217895508</ele>
        <time>2016-02-07T08:08:17.000Z</time>
      </trkpt>
      <trkpt lat="46.85014" lon="3.17801">
        <ele>239.08877563477</ele>
        <time>2016-02-07T08:08:20.000Z</time>
      </trkpt>
      <trkpt lat="46.8501" lon="3.17797">
        <ele>239.24194335938</ele>
        <time>2016-02-07T08:08:23.000Z</time>
      </trkpt>
      <trkpt lat="46.85008" lon="3.17794">
        <ele>239.40319824219</ele>
        <time>2016-02-07T08:08:26.000Z</time>
      </trkpt>
      <trkpt lat="46.85006" lon="3.17792">
        <ele>239.57470703125</ele>
        <time>2016-02-07T08:08:28.000Z</time>
      </trkpt>
      <trkpt lat="46.85003" lon="3.17789">
        <ele>239.74043273926</ele>
        <time>2016-02-07T08:08:30.000Z</time>
      </trkpt>
      <trkpt lat="46.85" lon="3.17786">
        <ele>239.91360473633</ele>
        <time>2016-02-07T08:08:33.000Z</time>
      </trkpt>
      <trkpt lat="46.84998" lon="3.17783">
        <ele>240.08993530273</ele>
        <time>2016-02-07T08:08:36.000Z</time>
      </trkpt>
      <trkpt lat="46.84996" lon="3.17779">
        <ele>240.27543640137</ele>
        <time>2016-02-07T08:08:39.000Z</time>
      </trkpt>
      <trkpt lat="46.84992" lon="3.17775">
        <ele>240.4905090332</ele>
        <time>2016-02-07T08:08:43.000Z</time>
      </trkpt>
      <trkpt lat="46.8499" lon="3.17772">
        <ele>240.70687866211</ele>
        <time>2016-02-07T08:08:44.000Z</time>
      </trkpt>
      <trkpt lat="46.84988" lon="3.17769">
        <ele>240.92109680176</ele>
        <time>2016-02-07T08:08:47.000Z</time>
      </trkpt>
      <trkpt lat="46.84986" lon="3.17767">
        <ele>241.12580871582</ele>
        <time>2016-02-07T08:08:49.000Z</time>
      </trkpt>
      <trkpt lat="46.84983" lon="3.17765">
        <ele>241.31994628906</ele>
        <time>2016-02-07T08:08:51.000Z</time>
      </trkpt>
      <trkpt lat="46.84981" lon="3.17761">
        <ele>241.50361633301</ele>
        <time>2016-02-07T08:08:54.000Z</time>
      </trkpt>
      <trkpt lat="46.84978" lon="3.17757">
        <ele>241.71347045898</ele>
        <time>2016-02-07T08:08:57.000Z</time>
      </trkpt>
      <trkpt lat="46.84974" lon="3.17753">
        <ele>241.93942260742</ele>
        <time>2016-02-07T08:09:00.000Z</time>
      </trkpt>
      <trkpt lat="46.84971" lon="3.17749">
        <ele>242.18859863281</ele>
        <time>2016-02-07T08:09:03.000Z</time>
      </trkpt>
      <trkpt lat="46.84968" lon="3.17746">
        <ele>242.46267700195</ele>
        <time>2016-02-07T08:09:06.000Z</time>
      </trkpt>
      <trkpt lat="46.84965" lon="3.17743">
        <ele>242.74638366699</ele>
        <time>2016-02-07T08:09:09.000Z</time>
      </trkpt>
      <trkpt lat="46.84961" lon="3.17739">
        <ele>243.04072570801</ele>
        <time>2016-02-07T08:09:12.000Z</time>
      </trkpt>
      <trkpt lat="46.84958" lon="3.17736">
        <ele>243.32626342773</ele>
        <time>2016-02-07T08:09:14.000Z</time>
      </trkpt>
      <trkpt lat="46.84955" lon="3.17733">
        <ele>243.62155151367</ele>
        <time>2016-02-07T08:09:17.000Z</time>
      </trkpt>
      <trkpt lat="46.84952" lon="3.17731">
        <ele>243.90644836426</ele>
        <time>2016-02-07T08:09:20.000Z</time>
      </trkpt>
      <trkpt lat="46.84948" lon="3.17728">
        <ele>244.1901550293</ele>
        <time>2016-02-07T08:09:23.000Z</time>
      </trkpt>
      <trkpt lat="46.84946" lon="3.17726">
        <ele>244.43893432617</ele>
        <time>2016-02-07T08:09:25.000Z</time>
      </trkpt>
      <trkpt lat="46.84942" lon="3.17723">
        <ele>244.70454406738</ele>
        <time>2016-02-07T08:09:28.000Z</time>
      </trkpt>
      <trkpt lat="46.8494" lon="3.17721">
        <ele>244.95251464844</ele>
        <time>2016-02-07T08:09:30.000Z</time>
      </trkpt>
      <trkpt lat="46.84937" lon="3.17718">
        <ele>245.21337890625</ele>
        <time>2016-02-07T08:09:33.000Z</time>
      </trkpt>
      <trkpt lat="46.84933" lon="3.17715">
        <ele>245.47891235352</ele>
        <time>2016-02-07T08:09:36.000Z</time>
      </trkpt>
      <trkpt lat="46.84931" lon="3.17713">
        <ele>245.74125671387</ele>
        <time>2016-02-07T08:09:39.000Z</time>
      </trkpt>
      <trkpt lat="46.84929" lon="3.17711">
        <ele>245.9873046875</ele>
        <time>2016-02-07T08:09:40.000Z</time>
      </trkpt>
      <trkpt lat="46.84926" lon="3.17709">
        <ele>246.22250366211</ele>
        <time>2016-02-07T08:09:42.000Z</time>
      </trkpt>
      <trkpt lat="46.84923" lon="3.17706">
        <ele>246.46659851074</ele>
        <time>2016-02-07T08:09:45.000Z</time>
      </trkpt>
      <trkpt lat="46.84919" lon="3.17703">
        <ele>246.72424316406</ele>
        <time>2016-02-07T08:09:48.000Z</time>
      </trkpt>
      <trkpt lat="46.84915" lon="3.17701">
        <ele>246.96862792969</ele>
        <time>2016-02-07T08:09:51.000Z</time>
      </trkpt>
      <trkpt lat="46.84911" lon="3.17698">
        <ele>247.17585754395</ele>
        <time>2016-02-07T08:09:54.000Z</time>
      </trkpt>
      <trkpt lat="46.84908" lon="3.17695">
        <ele>247.36470031738</ele>
        <time>2016-02-07T08:09:57.000Z</time>
      </trkpt>
      <trkpt lat="46.84907" lon="3.17694">
        <ele>247.49641418457</ele>
        <time>2016-02-07T08:09:59.000Z</time>
      </trkpt>
      <trkpt lat="46.84905" lon="3.17693">
        <ele>247.55776977539</ele>
        <time>2016-02-07T08:10:01.000Z</time>
      </trkpt>
      <trkpt lat="46.84904" lon="3.17691">
        <ele>247.59989929199</ele>
        <time>2016-02-07T08:10:03.000Z</time>
      </trkpt>
      <trkpt lat="46.84902" lon="3.1769">
        <ele>247.63618469238</ele>
        <time>2016-02-07T08:10:06.000Z</time>
      </trkpt>
      <trkpt lat="46.84901" lon="3.17689">
        <ele>247.67074584961</ele>
        <time>2016-02-07T08:10:16.000Z</time>
      </trkpt>
      <trkpt lat="46.849" lon="3.17687">
        <ele>247.71127319336</ele>
        <time>2016-02-07T08:10:19.000Z</time>
      </trkpt>
      <trkpt lat="46.84897" lon="3.17684">
        <ele>247.77365112305</ele>
        <time>2016-02-07T08:10:22.000Z</time>
      </trkpt>
      <trkpt lat="46.84894" lon="3.17682">
        <ele>247.84257507324</ele>
        <time>2016-02-07T08:10:24.000Z</time>
      </trkpt>
      <trkpt lat="46.84892" lon="3.17681">
        <ele>247.90219116211</ele>
        <time>2016-02-07T08:10:26.000Z</time>
      </trkpt>
      <trkpt lat="46.84888" lon="3.17679">
        <ele>247.95869445801</ele>
        <time>2016-02-07T08:10:29.000Z</time>
      </trkpt>
      <trkpt lat="46.84885" lon="3.17676">
        <ele>248.00997924805</ele>
        <time>2016-02-07T08:10:32.000Z</time>
      </trkpt>
      <trkpt lat="46.84882" lon="3.17673">
        <ele>248.06503295898</ele>
        <time>2016-02-07T08:10:35.000Z</time>
      </trkpt>
      <trkpt lat="46.84879" lon="3.17671">
        <ele>248.12240600586</ele>
        <time>2016-02-07T08:10:37.000Z</time>
      </trkpt>
      <trkpt lat="46.84876" lon="3.17668">
        <ele>248.21084594727</ele>
        <time>2016-02-07T08:10:40.000Z</time>
      </trkpt>
      <trkpt lat="46.84873" lon="3.17665">
        <ele>248.30502319336</ele>
        <time>2016-02-07T08:10:43.000Z</time>
      </trkpt>
      <trkpt lat="46.8487" lon="3.17662">
        <ele>248.39653015137</ele>
        <time>2016-02-07T08:10:46.000Z</time>
      </trkpt>
      <trkpt lat="46.84867" lon="3.1766">
        <ele>248.45553588867</ele>
        <time>2016-02-07T08:10:48.000Z</time>
      </trkpt>
      <trkpt lat="46.84865" lon="3.17659">
        <ele>248.50227355957</ele>
        <time>2016-02-07T08:10:50.000Z</time>
      </trkpt>
      <trkpt lat="46.8486" lon="3.17656">
        <ele>248.51860046387</ele>
        <time>2016-02-07T08:10:54.000Z</time>
      </trkpt>
      <trkpt lat="46.84858" lon="3.17655">
        <ele>248.52275085449</ele>
        <time>2016-02-07T08:10:55.000Z</time>
      </trkpt>
      <trkpt lat="46.84855" lon="3.17653">
        <ele>248.52282714844</ele>
        <time>2016-02-07T08:10:58.000Z</time>
      </trkpt>
      <trkpt lat="46.84852" lon="3.17651">
        <ele>248.53410339355</ele>
        <time>2016-02-07T08:11:00.000Z</time>
      </trkpt>
      <trkpt lat="46.84849" lon="3.17648">
        <ele>248.57231140137</ele>
        <time>2016-02-07T08:11:03.000Z</time>
      </trkpt>
      <trkpt lat="46.84846" lon="3.17645">
        <ele>248.63459777832</ele>
        <time>2016-02-07T08:11:06.000Z</time>
      </trkpt>
      <trkpt lat="46.84843" lon="3.17642">
        <ele>248.72500610352</ele>
        <time>2016-02-07T08:11:09.000Z</time>
      </trkpt>
      <trkpt lat="46.84841" lon="3.17639">
        <ele>248.83386230469</ele>
        <time>2016-02-07T08:11:11.000Z</time>
      </trkpt>
      <trkpt lat="46.84838" lon="3.17637">
        <ele>248.95584106445</ele>
        <time>2016-02-07T08:11:13.000Z</time>
      </trkpt>
      <trkpt lat="46.84835" lon="3.17634">
        <ele>249.09628295898</ele>
        <time>2016-02-07T08:11:16.000Z</time>
      </trkpt>
      <trkpt lat="46.84833" lon="3.17632">
        <ele>249.23649597168</ele>
        <time>2016-02-07T08:11:18.000Z</time>
      </trkpt>
      <trkpt lat="46.84829" lon="3.17628">
        <ele>249.36459350586</ele>
        <time>2016-02-07T08:11:21.000Z</time>
      </trkpt>
      <trkpt lat="46.84827" lon="3.17626">
        <ele>249.47692871094</ele>
        <time>2016-02-07T08:11:23.000Z</time>
      </trkpt>
      <trkpt lat="46.84825" lon="3.17625">
        <ele>249.57531738281</ele>
        <time>2016-02-07T08:11:25.000Z</time>
      </trkpt>
      <trkpt lat="46.84821" lon="3.17622">
        <ele>249.63427734375</ele>
        <time>2016-02-07T08:11:28.000Z</time>
      </trkpt>
      <trkpt lat="46.84819" lon="3.1762">
        <ele>249.67561340332</ele>
        <time>2016-02-07T08:11:30.000Z</time>
      </trkpt>
      <trkpt lat="46.84816" lon="3.17617">
        <ele>249.71322631836</ele>
        <time>2016-02-07T08:11:33.000Z</time>
      </trkpt>
      <trkpt lat="46.84813" lon="3.17616">
        <ele>249.73233032227</ele>
        <time>2016-02-07T08:11:36.000Z</time>
      </trkpt>
      <trkpt lat="46.8481" lon="3.17614">
        <ele>249.75028991699</ele>
        <time>2016-02-07T08:11:38.000Z</time>
      </trkpt>
      <trkpt lat="46.84806" lon="3.17611">
        <ele>249.76998901367</ele>
        <time>2016-02-07T08:11:41.000Z</time>
      </trkpt>
      <trkpt lat="46.84804" lon="3.17609">
        <ele>249.79289245605</ele>
        <time>2016-02-07T08:11:43.000Z</time>
      </trkpt>
      <trkpt lat="46.84801" lon="3.17607">
        <ele>249.80085754395</ele>
        <time>2016-02-07T08:11:46.000Z</time>
      </trkpt>
      <trkpt lat="46.84799" lon="3.17605">
        <ele>249.82504272461</ele>
        <time>2016-02-07T08:11:48.000Z</time>
      </trkpt>
      <trkpt lat="46.84795" lon="3.17603">
        <ele>249.85131835938</ele>
        <time>2016-02-07T08:11:51.000Z</time>
      </trkpt>
      <trkpt lat="46.84792" lon="3.176">
        <ele>249.87185668945</ele>
        <time>2016-02-07T08:11:54.000Z</time>
      </trkpt>
      <trkpt lat="46.84789" lon="3.17598">
        <ele>249.88436889648</ele>
        <time>2016-02-07T08:11:57.000Z</time>
      </trkpt>
      <trkpt lat="46.84785" lon="3.17596">
        <ele>249.89350891113</ele>
        <time>2016-02-07T08:12:00.000Z</time>
      </trkpt>
      <trkpt lat="46.84783" lon="3.17594">
        <ele>249.90068054199</ele>
        <time>2016-02-07T08:12:02.000Z</time>
      </trkpt>
      <trkpt lat="46.8478" lon="3.17591">
        <ele>249.912109375</ele>
        <time>2016-02-07T08:12:04.000Z</time>
      </trkpt>
      <trkpt lat="46.84778" lon="3.1759">
        <ele>249.92158508301</ele>
        <time>2016-02-07T08:12:06.000Z</time>
      </trkpt>
      <trkpt lat="46.84776" lon="3.17588">
        <ele>249.93103027344</ele>
        <time>2016-02-07T08:12:08.000Z</time>
      </trkpt>
      <trkpt lat="46.84773" lon="3.17586">
        <ele>249.94668579102</ele>
        <time>2016-02-07T08:12:11.000Z</time>
      </trkpt>
      <trkpt lat="46.84771" lon="3.17584">
        <ele>249.96194458008</ele>
        <time>2016-02-07T08:12:13.000Z</time>
      </trkpt>
      <trkpt lat="46.84767" lon="3.17581">
        <ele>249.95097351074</ele>
        <time>2016-02-07T08:12:16.000Z</time>
      </trkpt>
      <trkpt lat="46.84764" lon="3.1758">
        <ele>249.92268371582</ele>
        <time>2016-02-07T08:12:18.000Z</time>
      </trkpt>
      <trkpt lat="46.84761" lon="3.17577">
        <ele>249.87692260742</ele>
        <time>2016-02-07T08:12:21.000Z</time>
      </trkpt>
      <trkpt lat="46.84757" lon="3.17574">
        <ele>249.81066894531</ele>
        <time>2016-02-07T08:12:24.000Z</time>
      </trkpt>
      <trkpt lat="46.84753" lon="3.17571">
        <ele>249.73153686523</ele>
        <time>2016-02-07T08:12:27.000Z</time>
      </trkpt>
      <trkpt lat="46.84749" lon="3.17568">
        <ele>249.66117858887</ele>
        <time>2016-02-07T08:12:30.000Z</time>
      </trkpt>
      <trkpt lat="46.84747" lon="3.17566">
        <ele>249.6139831543</ele>
        <time>2016-02-07T08:12:32.000Z</time>
      </trkpt>
      <trkpt lat="46.84745" lon="3.17564">
        <ele>249.58541870117</ele>
        <time>2016-02-07T08:12:34.000Z</time>
      </trkpt>
      <trkpt lat="46.84741" lon="3.17562">
        <ele>249.58023071289</ele>
        <time>2016-02-07T08:12:37.000Z</time>
      </trkpt>
      <trkpt lat="46.84737" lon="3.1756">
        <ele>249.58322143555</ele>
        <time>2016-02-07T08:12:40.000Z</time>
      </trkpt>
      <trkpt lat="46.84734" lon="3.17559">
        <ele>249.58976745605</ele>
        <time>2016-02-07T08:12:42.000Z</time>
      </trkpt>
      <trkpt lat="46.8473" lon="3.17557">
        <ele>249.58700561523</ele>
        <time>2016-02-07T08:12:45.000Z</time>
      </trkpt>
      <trkpt lat="46.84726" lon="3.17555">
        <ele>249.57695007324</ele>
        <time>2016-02-07T08:12:48.000Z</time>
      </trkpt>
      <trkpt lat="46.84723" lon="3.17554">
        <ele>249.55781555176</ele>
        <time>2016-02-07T08:12:50.000Z</time>
      </trkpt>
      <trkpt lat="46.84719" lon="3.17553">
        <ele>249.52767944336</ele>
        <time>2016-02-07T08:12:53.000Z</time>
      </trkpt>
      <trkpt lat="46.84715" lon="3.17552">
        <ele>249.4892578125</ele>
        <time>2016-02-07T08:12:56.000Z</time>
      </trkpt>
      <trkpt lat="46.84711" lon="3.17551">
        <ele>249.44766235352</ele>
        <time>2016-02-07T08:12:59.000Z</time>
      </trkpt>
      <trkpt lat="46.84709" lon="3.1755">
        <ele>249.40571594238</ele>
        <time>2016-02-07T08:13:04.000Z</time>
      </trkpt>
      <trkpt lat="46.84705" lon="3.17548">
        <ele>249.35563659668</ele>
        <time>2016-02-07T08:13:08.000Z</time>
      </trkpt>
      <trkpt lat="46.84702" lon="3.17547">
        <ele>249.31172180176</ele>
        <time>2016-02-07T08:13:08.000Z</time>
      </trkpt>
      <trkpt lat="46.847" lon="3.17546">
        <ele>249.2746887207</ele>
        <time>2016-02-07T08:13:09.000Z</time>
      </trkpt>
      <trkpt lat="46.84696" lon="3.17543">
        <ele>249.23835754395</ele>
        <time>2016-02-07T08:13:12.000Z</time>
      </trkpt>
      <trkpt lat="46.84693" lon="3.17543">
        <ele>249.19673156738</ele>
        <time>2016-02-07T08:13:14.000Z</time>
      </trkpt>
      <trkpt lat="46.8469" lon="3.17542">
        <ele>249.1530456543</ele>
        <time>2016-02-07T08:13:17.000Z</time>
      </trkpt>
      <trkpt lat="46.84687" lon="3.17542">
        <ele>249.1042175293</ele>
        <time>2016-02-07T08:13:19.000Z</time>
      </trkpt>
      <trkpt lat="46.84685" lon="3.17541">
        <ele>249.05334472656</ele>
        <time>2016-02-07T08:13:22.000Z</time>
      </trkpt>
      <trkpt lat="46.84681" lon="3.17538">
        <ele>249.00039672852</ele>
        <time>2016-02-07T08:13:25.000Z</time>
      </trkpt>
      <trkpt lat="46.84678" lon="3.17536">
        <ele>248.94633483887</ele>
        <time>2016-02-07T08:13:27.000Z</time>
      </trkpt>
      <trkpt lat="46.84675" lon="3.17535">
        <ele>248.8971862793</ele>
        <time>2016-02-07T08:13:29.000Z</time>
      </trkpt>
      <trkpt lat="46.84672" lon="3.17533">
        <ele>248.84826660156</ele>
        <time>2016-02-07T08:13:31.000Z</time>
      </trkpt>
      <trkpt lat="46.84667" lon="3.17532">
        <ele>248.78210449219</ele>
        <time>2016-02-07T08:13:34.000Z</time>
      </trkpt>
      <trkpt lat="46.84665" lon="3.17529">
        <ele>248.73083496094</ele>
        <time>2016-02-07T08:13:36.000Z</time>
      </trkpt>
      <trkpt lat="46.8466" lon="3.17525">
        <ele>248.70217895508</ele>
        <time>2016-02-07T08:13:39.000Z</time>
      </trkpt>
      <trkpt lat="46.84656" lon="3.17522">
        <ele>248.68867492676</ele>
        <time>2016-02-07T08:13:42.000Z</time>
      </trkpt>
      <trkpt lat="46.84654" lon="3.1752">
        <ele>248.6919708252</ele>
        <time>2016-02-07T08:13:44.000Z</time>
      </trkpt>
      <trkpt lat="46.84652" lon="3.17517">
        <ele>248.72587585449</ele>
        <time>2016-02-07T08:13:46.000Z</time>
      </trkpt>
      <trkpt lat="46.84649" lon="3.17514">
        <ele>248.76208496094</ele>
        <time>2016-02-07T08:13:49.000Z</time>
      </trkpt>
      <trkpt lat="46.84647" lon="3.17512">
        <ele>248.79284667969</ele>
        <time>2016-02-07T08:13:51.000Z</time>
      </trkpt>
      <trkpt lat="46.84644" lon="3.17511">
        <ele>248.82019042969</ele>
        <time>2016-02-07T08:13:53.000Z</time>
      </trkpt>
      <trkpt lat="46.84641" lon="3.17508">
        <ele>248.84875488281</ele>
        <time>2016-02-07T08:13:56.000Z</time>
      </trkpt>
      <trkpt lat="46.84639" lon="3.17507">
        <ele>248.875</ele>
        <time>2016-02-07T08:13:58.000Z</time>
      </trkpt>
      <trkpt lat="46.84637" lon="3.17505">
        <ele>248.8974609375</ele>
        <time>2016-02-07T08:14:00.000Z</time>
      </trkpt>
      <trkpt lat="46.84633" lon="3.17503">
        <ele>248.9189453125</ele>
        <time>2016-02-07T08:14:03.000Z</time>
      </trkpt>
      <trkpt lat="46.8463" lon="3.17502">
        <ele>248.94136047363</ele>
        <time>2016-02-07T08:14:05.000Z</time>
      </trkpt>
      <trkpt lat="46.84628" lon="3.175">
        <ele>248.96040344238</ele>
        <time>2016-02-07T08:14:07.000Z</time>
      </trkpt>
      <trkpt lat="46.84624" lon="3.17499">
        <ele>248.97860717773</ele>
        <time>2016-02-07T08:14:10.000Z</time>
      </trkpt>
      <trkpt lat="46.84621" lon="3.17496">
        <ele>248.99795532227</ele>
        <time>2016-02-07T08:14:13.000Z</time>
      </trkpt>
      <trkpt lat="46.84618" lon="3.17495">
        <ele>249.01553344727</ele>
        <time>2016-02-07T08:14:17.000Z</time>
      </trkpt>
      <trkpt lat="46.84613" lon="3.17493">
        <ele>249.03158569336</ele>
        <time>2016-02-07T08:14:19.000Z</time>
      </trkpt>
      <trkpt lat="46.8461" lon="3.17492">
        <ele>249.04544067383</ele>
        <time>2016-02-07T08:14:22.000Z</time>
      </trkpt>
      <trkpt lat="46.84607" lon="3.17491">
        <ele>249.05574035645</ele>
        <time>2016-02-07T08:14:24.000Z</time>
      </trkpt>
      <trkpt lat="46.84605" lon="3.1749">
        <ele>249.06039428711</ele>
        <time>2016-02-07T08:14:27.000Z</time>
      </trkpt>
      <trkpt lat="46.84601" lon="3.17487">
        <ele>249.06343078613</ele>
        <time>2016-02-07T08:14:29.000Z</time>
      </trkpt>
      <trkpt lat="46.84598" lon="3.17485">
        <ele>249.06376647949</ele>
        <time>2016-02-07T08:14:32.000Z</time>
      </trkpt>
      <trkpt lat="46.84595" lon="3.17485">
        <ele>249.0611114502</ele>
        <time>2016-02-07T08:14:34.000Z</time>
      </trkpt>
      <trkpt lat="46.8459" lon="3.17484">
        <ele>249.05477905273</ele>
        <time>2016-02-07T08:14:37.000Z</time>
      </trkpt>
      <trkpt lat="46.84586" lon="3.17482">
        <ele>249.04495239258</ele>
        <time>2016-02-07T08:14:42.000Z</time>
      </trkpt>
      <trkpt lat="46.84582" lon="3.17481">
        <ele>249.00634765625</ele>
        <time>2016-02-07T08:14:45.000Z</time>
      </trkpt>
      <trkpt lat="46.84578" lon="3.17478">
        <ele>248.91796875</ele>
        <time>2016-02-07T08:14:46.000Z</time>
      </trkpt>
      <trkpt lat="46.84576" lon="3.17477">
        <ele>248.78816223145</ele>
        <time>2016-02-07T08:14:48.000Z</time>
      </trkpt>
      <trkpt lat="46.84573" lon="3.17476">
        <ele>248.6311340332</ele>
        <time>2016-02-07T08:14:50.000Z</time>
      </trkpt>
      <trkpt lat="46.8457" lon="3.17474">
        <ele>248.42878723145</ele>
        <time>2016-02-07T08:14:52.000Z</time>
      </trkpt>
      <trkpt lat="46.84567" lon="3.17472">
        <ele>248.20742797852</ele>
        <time>2016-02-07T08:14:55.000Z</time>
      </trkpt>
      <trkpt lat="46.84565" lon="3.1747">
        <ele>248.01362609863</ele>
        <time>2016-02-07T08:14:57.000Z</time>
      </trkpt>
      <trkpt lat="46.84563" lon="3.17468">
        <ele>247.82844543457</ele>
        <time>2016-02-07T08:14:59.000Z</time>
      </trkpt>
      <trkpt lat="46.84559" lon="3.17465">
        <ele>247.62348937988</ele>
        <time>2016-02-07T08:15:02.000Z</time>
      </trkpt>
      <trkpt lat="46.84555" lon="3.17461">
        <ele>247.41403198242</ele>
        <time>2016-02-07T08:15:05.000Z</time>
      </trkpt>
      <trkpt lat="46.84552" lon="3.17457">
        <ele>247.2184753418</ele>
        <time>2016-02-07T08:15:08.000Z</time>
      </trkpt>
      <trkpt lat="46.8455" lon="3.17453">
        <ele>247.01333618164</ele>
        <time>2016-02-07T08:15:11.000Z</time>
      </trkpt>
      <trkpt lat="46.84548" lon="3.17447">
        <ele>246.83682250977</ele>
        <time>2016-02-07T08:15:14.000Z</time>
      </trkpt>
      <trkpt lat="46.84547" lon="3.17442">
        <ele>246.69926452637</ele>
        <time>2016-02-07T08:15:17.000Z</time>
      </trkpt>
      <trkpt lat="46.84546" lon="3.17435">
        <ele>246.61442565918</ele>
        <time>2016-02-07T08:15:20.000Z</time>
      </trkpt>
      <trkpt lat="46.84542" lon="3.1743">
        <ele>246.53840637207</ele>
        <time>2016-02-07T08:15:23.000Z</time>
      </trkpt>
      <trkpt lat="46.8454" lon="3.17424">
        <ele>246.47811889648</ele>
        <time>2016-02-07T08:15:26.000Z</time>
      </trkpt>
      <trkpt lat="46.84539" lon="3.17421">
        <ele>246.41598510742</ele>
        <time>2016-02-07T08:15:28.000Z</time>
      </trkpt>
      <trkpt lat="46.84538" lon="3.17416">
        <ele>246.36918640137</ele>
        <time>2016-02-07T08:15:31.000Z</time>
      </trkpt>
      <trkpt lat="46.84536" lon="3.17411">
        <ele>246.31591796875</ele>
        <time>2016-02-07T08:15:34.000Z</time>
      </trkpt>
      <trkpt lat="46.84535" lon="3.17407">
        <ele>246.28173828125</ele>
        <time>2016-02-07T08:15:37.000Z</time>
      </trkpt>
      <trkpt lat="46.84534" lon="3.17402">
        <ele>246.26078796387</ele>
        <time>2016-02-07T08:15:40.000Z</time>
      </trkpt>
      <trkpt lat="46.84532" lon="3.17397">
        <ele>246.23571777344</ele>
        <time>2016-02-07T08:15:43.000Z</time>
      </trkpt>
      <trkpt lat="46.84531" lon="3.17393">
        <ele>246.20317077637</ele>
        <time>2016-02-07T08:15:45.000Z</time>
      </trkpt>
      <trkpt lat="46.8453" lon="3.17388">
        <ele>246.18461608887</ele>
        <time>2016-02-07T08:15:47.000Z</time>
      </trkpt>
      <trkpt lat="46.84528" lon="3.17382">
        <ele>246.16247558594</ele>
        <time>2016-02-07T08:15:50.000Z</time>
      </trkpt>
      <trkpt lat="46.84528" lon="3.17377">
        <ele>246.14897155762</ele>
        <time>2016-02-07T08:15:52.000Z</time>
      </trkpt>
      <trkpt lat="46.84527" lon="3.17374">
        <ele>246.14643859863</ele>
        <time>2016-02-07T08:15:54.000Z</time>
      </trkpt>
      <trkpt lat="46.84526" lon="3.1737">
        <ele>246.14799499512</ele>
        <time>2016-02-07T08:15:57.000Z</time>
      </trkpt>
      <trkpt lat="46.84526" lon="3.17367">
        <ele>246.14457702637</ele>
        <time>2016-02-07T08:15:59.000Z</time>
      </trkpt>
      <trkpt lat="46.84525" lon="3.17361">
        <ele>246.14888000488</ele>
        <time>2016-02-07T08:16:02.000Z</time>
      </trkpt>
      <trkpt lat="46.84523" lon="3.1736">
        <ele>246.13793945312</ele>
        <time>2016-02-07T08:16:05.000Z</time>
      </trkpt>
      <trkpt lat="46.84521" lon="3.17358">
        <ele>246.09745788574</ele>
        <time>2016-02-07T08:16:08.000Z</time>
      </trkpt>
      <trkpt lat="46.8452" lon="3.17357">
        <ele>246.04399108887</ele>
        <time>2016-02-07T08:16:11.000Z</time>
      </trkpt>
      <trkpt lat="46.84518" lon="3.17356">
        <ele>245.97636413574</ele>
        <time>2016-02-07T08:16:13.000Z</time>
      </trkpt>
      <trkpt lat="46.84516" lon="3.17355">
        <ele>245.89025878906</ele>
        <time>2016-02-07T08:16:15.000Z</time>
      </trkpt>
      <trkpt lat="46.84512" lon="3.17352">
        <ele>245.77583312988</ele>
        <time>2016-02-07T08:16:18.000Z</time>
      </trkpt>
      <trkpt lat="46.84511" lon="3.1735">
        <ele>245.68354797363</ele>
        <time>2016-02-07T08:16:20.000Z</time>
      </trkpt>
      <trkpt lat="46.84509" lon="3.17348">
        <ele>245.57514953613</ele>
        <time>2016-02-07T08:16:23.000Z</time>
      </trkpt>
      <trkpt lat="46.84504" lon="3.17346">
        <ele>245.42378234863</ele>
        <time>2016-02-07T08:16:26.000Z</time>
      </trkpt>
      <trkpt lat="46.84501" lon="3.17346">
        <ele>245.25451660156</ele>
        <time>2016-02-07T08:16:29.000Z</time>
      </trkpt>
      <trkpt lat="46.84497" lon="3.17346">
        <ele>245.09866333008</ele>
        <time>2016-02-07T08:16:32.000Z</time>
      </trkpt>
      <trkpt lat="46.84495" lon="3.17346">
        <ele>244.93563842773</ele>
        <time>2016-02-07T08:16:34.000Z</time>
      </trkpt>
      <trkpt lat="46.84492" lon="3.17347">
        <ele>244.78173828125</ele>
        <time>2016-02-07T08:16:39.000Z</time>
      </trkpt>
      <trkpt lat="46.84489" lon="3.1735">
        <ele>244.65396118164</ele>
        <time>2016-02-07T08:16:39.000Z</time>
      </trkpt>
      <trkpt lat="46.84485" lon="3.17353">
        <ele>244.52416992188</ele>
        <time>2016-02-07T08:16:44.000Z</time>
      </trkpt>
      <trkpt lat="46.84481" lon="3.17356">
        <ele>244.38774108887</ele>
        <time>2016-02-07T08:16:45.000Z</time>
      </trkpt>
      <trkpt lat="46.84479" lon="3.17358">
        <ele>244.24150085449</ele>
        <time>2016-02-07T08:16:47.000Z</time>
      </trkpt>
      <trkpt lat="46.84478" lon="3.1736">
        <ele>244.103515625</ele>
        <time>2016-02-07T08:16:49.000Z</time>
      </trkpt>
      <trkpt lat="46.84473" lon="3.17364">
        <ele>243.95568847656</ele>
        <time>2016-02-07T08:16:51.000Z</time>
      </trkpt>
      <trkpt lat="46.84472" lon="3.17365">
        <ele>243.82963562012</ele>
        <time>2016-02-07T08:16:54.000Z</time>
      </trkpt>
      <trkpt lat="46.84469" lon="3.17366">
        <ele>243.71813964844</ele>
        <time>2016-02-07T08:16:56.000Z</time>
      </trkpt>
      <trkpt lat="46.84466" lon="3.1737">
        <ele>243.59912109375</ele>
        <time>2016-02-07T08:16:59.000Z</time>
      </trkpt>
      <trkpt lat="46.84464" lon="3.17373">
        <ele>243.47082519531</ele>
        <time>2016-02-07T08:17:01.000Z</time>
      </trkpt>
      <trkpt lat="46.84464" lon="3.17374">
        <ele>243.37602233887</ele>
        <time>2016-02-07T08:17:03.000Z</time>
      </trkpt>
      <trkpt lat="46.84461" lon="3.17377">
        <ele>243.27119445801</ele>
        <time>2016-02-07T08:17:05.000Z</time>
      </trkpt>
      <trkpt lat="46.84457" lon="3.17382">
        <ele>243.14526367188</ele>
        <time>2016-02-07T08:17:08.000Z</time>
      </trkpt>
      <trkpt lat="46.84456" lon="3.17384">
        <ele>243.03837585449</ele>
        <time>2016-02-07T08:17:10.000Z</time>
      </trkpt>
      <trkpt lat="46.84454" lon="3.17388">
        <ele>242.93208312988</ele>
        <time>2016-02-07T08:17:13.000Z</time>
      </trkpt>
      <trkpt lat="46.84453" lon="3.1739">
        <ele>242.81343078613</ele>
        <time>2016-02-07T08:17:15.000Z</time>
      </trkpt>
      <trkpt lat="46.8445" lon="3.17392">
        <ele>242.69909667969</ele>
        <time>2016-02-07T08:17:18.000Z</time>
      </trkpt>
      <trkpt lat="46.84448" lon="3.17393">
        <ele>242.60893249512</ele>
        <time>2016-02-07T08:17:21.000Z</time>
      </trkpt>
      <trkpt lat="46.84446" lon="3.17395">
        <ele>242.5107421875</ele>
        <time>2016-02-07T08:17:24.000Z</time>
      </trkpt>
      <trkpt lat="46.84442" lon="3.17397">
        <ele>242.39990234375</ele>
        <time>2016-02-07T08:17:26.000Z</time>
      </trkpt>
      <trkpt lat="46.84439" lon="3.17401">
        <ele>242.27461242676</ele>
        <time>2016-02-07T08:17:29.000Z</time>
      </trkpt>
      <trkpt lat="46.84437" lon="3.17401">
        <ele>242.15766906738</ele>
        <time>2016-02-07T08:17:32.000Z</time>
      </trkpt>
      <trkpt lat="46.84435" lon="3.17403">
        <ele>242.03691101074</ele>
        <time>2016-02-07T08:17:35.000Z</time>
      </trkpt>
      <trkpt lat="46.84433" lon="3.17405">
        <ele>241.91728210449</ele>
        <time>2016-02-07T08:17:37.000Z</time>
      </trkpt>
      <trkpt lat="46.84431" lon="3.17407">
        <ele>241.81181335449</ele>
        <time>2016-02-07T08:17:40.000Z</time>
      </trkpt>
      <trkpt lat="46.84429" lon="3.17409">
        <ele>241.72241210938</ele>
        <time>2016-02-07T08:17:43.000Z</time>
      </trkpt>
      <trkpt lat="46.84426" lon="3.17411">
        <ele>241.62219238281</ele>
        <time>2016-02-07T08:17:46.000Z</time>
      </trkpt>
      <trkpt lat="46.84425" lon="3.17414">
        <ele>241.52265930176</ele>
        <time>2016-02-07T08:17:48.000Z</time>
      </trkpt>
      <trkpt lat="46.84422" lon="3.17416">
        <ele>241.4169921875</ele>
        <time>2016-02-07T08:17:51.000Z</time>
      </trkpt>
      <trkpt lat="46.84419" lon="3.17419">
        <ele>241.29264831543</ele>
        <time>2016-02-07T08:17:54.000Z</time>
      </trkpt>
      <trkpt lat="46.84415" lon="3.17423">
        <ele>241.12612915039</ele>
        <time>2016-02-07T08:17:56.000Z</time>
      </trkpt>
      <trkpt lat="46.84412" lon="3.17425">
        <ele>240.95132446289</ele>
        <time>2016-02-07T08:17:58.000Z</time>
      </trkpt>
      <trkpt lat="46.84409" lon="3.17428">
        <ele>240.75004577637</ele>
        <time>2016-02-07T08:18:01.000Z</time>
      </trkpt>
      <trkpt lat="46.84407" lon="3.1743">
        <ele>240.54238891602</ele>
        <time>2016-02-07T08:18:03.000Z</time>
      </trkpt>
      <trkpt lat="46.84404" lon="3.17435">
        <ele>240.31977844238</ele>
        <time>2016-02-07T08:18:06.000Z</time>
      </trkpt>
      <trkpt lat="46.844" lon="3.1744">
        <ele>240.09216308594</ele>
        <time>2016-02-07T08:18:09.000Z</time>
      </trkpt>
      <trkpt lat="46.84397" lon="3.17443">
        <ele>239.85209655762</ele>
        <time>2016-02-07T08:18:12.000Z</time>
      </trkpt>
      <trkpt lat="46.84396" lon="3.17446">
        <ele>239.62983703613</ele>
        <time>2016-02-07T08:18:15.000Z</time>
      </trkpt>
      <trkpt lat="46.84394" lon="3.17447">
        <ele>239.41304016113</ele>
        <time>2016-02-07T08:18:17.000Z</time>
      </trkpt>
      <trkpt lat="46.84391" lon="3.1745">
        <ele>239.20849609375</ele>
        <time>2016-02-07T08:18:19.000Z</time>
      </trkpt>
      <trkpt lat="46.84389" lon="3.17452">
        <ele>239.0400390625</ele>
        <time>2016-02-07T08:18:21.000Z</time>
      </trkpt>
      <trkpt lat="46.84386" lon="3.17455">
        <ele>238.87707519531</ele>
        <time>2016-02-07T08:18:23.000Z</time>
      </trkpt>
      <trkpt lat="46.84383" lon="3.17457">
        <ele>238.70642089844</ele>
        <time>2016-02-07T08:18:26.000Z</time>
      </trkpt>
      <trkpt lat="46.84381" lon="3.17459">
        <ele>238.53247070312</ele>
        <time>2016-02-07T08:18:29.000Z</time>
      </trkpt>
      <trkpt lat="46.8438" lon="3.17461">
        <ele>238.37463378906</ele>
        <time>2016-02-07T08:18:31.000Z</time>
      </trkpt>
      <trkpt lat="46.84378" lon="3.17462">
        <ele>238.22904968262</ele>
        <time>2016-02-07T08:18:33.000Z</time>
      </trkpt>
      <trkpt lat="46.84375" lon="3.17464">
        <ele>238.08622741699</ele>
        <time>2016-02-07T08:18:36.000Z</time>
      </trkpt>
      <trkpt lat="46.8437" lon="3.17466">
        <ele>237.92475891113</ele>
        <time>2016-02-07T08:18:39.000Z</time>
      </trkpt>
      <trkpt lat="46.84367" lon="3.17468">
        <ele>237.75956726074</ele>
        <time>2016-02-07T08:18:42.000Z</time>
      </trkpt>
      <trkpt lat="46.84364" lon="3.1747">
        <ele>237.57592773438</ele>
        <time>2016-02-07T08:18:45.000Z</time>
      </trkpt>
      <trkpt lat="46.8436" lon="3.17473">
        <ele>237.36518859863</ele>
        <time>2016-02-07T08:18:48.000Z</time>
      </trkpt>
      <trkpt lat="46.84358" lon="3.17474">
        <ele>237.17272949219</ele>
        <time>2016-02-07T08:18:50.000Z</time>
      </trkpt>
      <trkpt lat="46.84357" lon="3.17475">
        <ele>237.01013183594</ele>
        <time>2016-02-07T08:18:53.000Z</time>
      </trkpt>
      <trkpt lat="46.84355" lon="3.17477">
        <ele>236.85395812988</ele>
        <time>2016-02-07T08:18:56.000Z</time>
      </trkpt>
      <trkpt lat="46.84351" lon="3.17482">
        <ele>236.68070983887</ele>
        <time>2016-02-07T08:18:59.000Z</time>
      </trkpt>
      <trkpt lat="46.84348" lon="3.17484">
        <ele>236.50988769531</ele>
        <time>2016-02-07T08:19:02.000Z</time>
      </trkpt>
      <trkpt lat="46.84346" lon="3.17485">
        <ele>236.34069824219</ele>
        <time>2016-02-07T08:19:04.000Z</time>
      </trkpt>
      <trkpt lat="46.84344" lon="3.17487">
        <ele>236.16874694824</ele>
        <time>2016-02-07T08:19:06.000Z</time>
      </trkpt>
      <trkpt lat="46.84342" lon="3.1749">
        <ele>235.98930358887</ele>
        <time>2016-02-07T08:19:08.000Z</time>
      </trkpt>
      <trkpt lat="46.8434" lon="3.17495">
        <ele>235.81864929199</ele>
        <time>2016-02-07T08:19:11.000Z</time>
      </trkpt>
      <trkpt lat="46.84338" lon="3.17496">
        <ele>235.66264343262</ele>
        <time>2016-02-07T08:19:13.000Z</time>
      </trkpt>
      <trkpt lat="46.84335" lon="3.17499">
        <ele>235.48156738281</ele>
        <time>2016-02-07T08:19:16.000Z</time>
      </trkpt>
      <trkpt lat="46.84332" lon="3.17501">
        <ele>235.29043579102</ele>
        <time>2016-02-07T08:19:19.000Z</time>
      </trkpt>
      <trkpt lat="46.84331" lon="3.17505">
        <ele>235.09838867188</ele>
        <time>2016-02-07T08:19:21.000Z</time>
      </trkpt>
      <trkpt lat="46.84328" lon="3.1751">
        <ele>234.90905761719</ele>
        <time>2016-02-07T08:19:24.000Z</time>
      </trkpt>
      <trkpt lat="46.84327" lon="3.17511">
        <ele>234.72583007812</ele>
        <time>2016-02-07T08:19:27.000Z</time>
      </trkpt>
      <trkpt lat="46.84325" lon="3.17513">
        <ele>234.54605102539</ele>
        <time>2016-02-07T08:19:30.000Z</time>
      </trkpt>
      <trkpt lat="46.84323" lon="3.17516">
        <ele>234.36734008789</ele>
        <time>2016-02-07T08:19:32.000Z</time>
      </trkpt>
      <trkpt lat="46.84321" lon="3.17518">
        <ele>234.19303894043</ele>
        <time>2016-02-07T08:19:34.000Z</time>
      </trkpt>
      <trkpt lat="46.84317" lon="3.17523">
        <ele>234.00082397461</ele>
        <time>2016-02-07T08:19:37.000Z</time>
      </trkpt>
      <trkpt lat="46.84315" lon="3.17526">
        <ele>233.79512023926</ele>
        <time>2016-02-07T08:19:39.000Z</time>
      </trkpt>
      <trkpt lat="46.84312" lon="3.17531">
        <ele>233.57284545898</ele>
        <time>2016-02-07T08:19:42.000Z</time>
      </trkpt>
      <trkpt lat="46.8431" lon="3.17535">
        <ele>233.34428405762</ele>
        <time>2016-02-07T08:19:45.000Z</time>
      </trkpt>
      <trkpt lat="46.84309" lon="3.17534">
        <ele>233.13725280762</ele>
        <time>2016-02-07T08:19:47.000Z</time>
      </trkpt>
      <trkpt lat="46.84306" lon="3.17537">
        <ele>232.951171875</ele>
        <time>2016-02-07T08:19:50.000Z</time>
      </trkpt>
      <trkpt lat="46.84303" lon="3.17541">
        <ele>232.74890136719</ele>
        <time>2016-02-07T08:19:53.000Z</time>
      </trkpt>
      <trkpt lat="46.84301" lon="3.17542">
        <ele>232.5827331543</ele>
        <time>2016-02-07T08:19:55.000Z</time>
      </trkpt>
      <trkpt lat="46.84298" lon="3.17541">
        <ele>232.4281463623</ele>
        <time>2016-02-07T08:19:58.000Z</time>
      </trkpt>
      <trkpt lat="46.84296" lon="3.17541">
        <ele>232.26420593262</ele>
        <time>2016-02-07T08:20:01.000Z</time>
      </trkpt>
      <trkpt lat="46.84293" lon="3.17541">
        <ele>232.11279296875</ele>
        <time>2016-02-07T08:20:04.000Z</time>
      </trkpt>
      <trkpt lat="46.84292" lon="3.17543">
        <ele>231.99075317383</ele>
        <time>2016-02-07T08:20:06.000Z</time>
      </trkpt>
      <trkpt lat="46.8429" lon="3.17545">
        <ele>231.85653686523</ele>
        <time>2016-02-07T08:20:09.000Z</time>
      </trkpt>
      <trkpt lat="46.84288" lon="3.17546">
        <ele>231.73522949219</ele>
        <time>2016-02-07T08:20:11.000Z</time>
      </trkpt>
      <trkpt lat="46.84285" lon="3.17546">
        <ele>231.60232543945</ele>
        <time>2016-02-07T08:20:14.000Z</time>
      </trkpt>
      <trkpt lat="46.84283" lon="3.17546">
        <ele>231.47073364258</ele>
        <time>2016-02-07T08:20:17.000Z</time>
      </trkpt>
      <trkpt lat="46.8428" lon="3.17547">
        <ele>231.33573913574</ele>
        <time>2016-02-07T08:20:19.000Z</time>
      </trkpt>
      <trkpt lat="46.84277" lon="3.17548">
        <ele>231.19551086426</ele>
        <time>2016-02-07T08:20:23.000Z</time>
      </trkpt>
      <trkpt lat="46.84276" lon="3.17548">
        <ele>231.056640625</ele>
        <time>2016-02-07T08:20:24.000Z</time>
      </trkpt>
      <trkpt lat="46.84273" lon="3.1755">
        <ele>230.91532897949</ele>
        <time>2016-02-07T08:20:27.000Z</time>
      </trkpt>
      <trkpt lat="46.84273" lon="3.17551">
        <ele>230.7978515625</ele>
        <time>2016-02-07T08:20:30.000Z</time>
      </trkpt>
      <trkpt lat="46.84271" lon="3.17552">
        <ele>230.67768859863</ele>
        <time>2016-02-07T08:20:32.000Z</time>
      </trkpt>
      <trkpt lat="46.84268" lon="3.17553">
        <ele>230.56619262695</ele>
        <time>2016-02-07T08:20:35.000Z</time>
      </trkpt>
      <trkpt lat="46.84263" lon="3.17557">
        <ele>230.40002441406</ele>
        <time>2016-02-07T08:20:38.000Z</time>
      </trkpt>
      <trkpt lat="46.8426" lon="3.17558">
        <ele>230.23530578613</ele>
        <time>2016-02-07T08:20:40.000Z</time>
      </trkpt>
      <trkpt lat="46.84256" lon="3.17559">
        <ele>230.03359985352</ele>
        <time>2016-02-07T08:20:43.000Z</time>
      </trkpt>
      <trkpt lat="46.84254" lon="3.17559">
        <ele>229.8415222168</ele>
        <time>2016-02-07T08:20:46.000Z</time>
      </trkpt>
      <trkpt lat="46.84253" lon="3.17558">
        <ele>229.66760253906</ele>
        <time>2016-02-07T08:20:48.000Z</time>
      </trkpt>
      <trkpt lat="46.84249" lon="3.17558">
        <ele>229.52871704102</ele>
        <time>2016-02-07T08:20:51.000Z</time>
      </trkpt>
      <trkpt lat="46.84246" lon="3.1756">
        <ele>229.40824890137</ele>
        <time>2016-02-07T08:20:53.000Z</time>
      </trkpt>
      <trkpt lat="46.84244" lon="3.17561">
        <ele>229.318359375</ele>
        <time>2016-02-07T08:20:56.000Z</time>
      </trkpt>
      <trkpt lat="46.8424" lon="3.17564">
        <ele>229.21821594238</ele>
        <time>2016-02-07T08:20:59.000Z</time>
      </trkpt>
      <trkpt lat="46.84237" lon="3.17564">
        <ele>229.11820983887</ele>
        <time>2016-02-07T08:21:01.000Z</time>
      </trkpt>
      <trkpt lat="46.84234" lon="3.17565">
        <ele>229.03604125977</ele>
        <time>2016-02-07T08:21:04.000Z</time>
      </trkpt>
      <trkpt lat="46.84233" lon="3.17564">
        <ele>228.96562194824</ele>
        <time>2016-02-07T08:21:07.000Z</time>
      </trkpt>
      <trkpt lat="46.84229" lon="3.17566">
        <ele>228.89099121094</ele>
        <time>2016-02-07T08:21:09.000Z</time>
      </trkpt>
      <trkpt lat="46.84225" lon="3.17567">
        <ele>228.81994628906</ele>
        <time>2016-02-07T08:21:12.000Z</time>
      </trkpt>
      <trkpt lat="46.84223" lon="3.17568">
        <ele>228.74829101562</ele>
        <time>2016-02-07T08:21:14.000Z</time>
      </trkpt>
      <trkpt lat="46.84221" lon="3.17569">
        <ele>228.67825317383</ele>
        <time>2016-02-07T08:21:17.000Z</time>
      </trkpt>
      <trkpt lat="46.84218" lon="3.1757">
        <ele>228.59945678711</ele>
        <time>2016-02-07T08:21:19.000Z</time>
      </trkpt>
      <trkpt lat="46.84215" lon="3.17571">
        <ele>228.51899719238</ele>
        <time>2016-02-07T08:21:22.000Z</time>
      </trkpt>
      <trkpt lat="46.84212" lon="3.17574">
        <ele>228.44018554688</ele>
        <time>2016-02-07T08:21:24.000Z</time>
      </trkpt>
      <trkpt lat="46.8421" lon="3.17575">
        <ele>228.36111450195</ele>
        <time>2016-02-07T08:21:27.000Z</time>
      </trkpt>
      <trkpt lat="46.84208" lon="3.17575">
        <ele>228.28311157227</ele>
        <time>2016-02-07T08:21:30.000Z</time>
      </trkpt>
      <trkpt lat="46.84205" lon="3.17578">
        <ele>228.19418334961</ele>
        <time>2016-02-07T08:21:33.000Z</time>
      </trkpt>
      <trkpt lat="46.84203" lon="3.1758">
        <ele>228.10624694824</ele>
        <time>2016-02-07T08:21:36.000Z</time>
      </trkpt>
      <trkpt lat="46.84199" lon="3.1758">
        <ele>228.021484375</ele>
        <time>2016-02-07T08:21:39.000Z</time>
      </trkpt>
      <trkpt lat="46.84196" lon="3.1758">
        <ele>227.93354797363</ele>
        <time>2016-02-07T08:21:42.000Z</time>
      </trkpt>
      <trkpt lat="46.84193" lon="3.1758">
        <ele>227.84774780273</ele>
        <time>2016-02-07T08:21:45.000Z</time>
      </trkpt>
      <trkpt lat="46.8419" lon="3.17583">
        <ele>227.75881958008</ele>
        <time>2016-02-07T08:21:47.000Z</time>
      </trkpt>
      <trkpt lat="46.84185" lon="3.17586">
        <ele>227.64582824707</ele>
        <time>2016-02-07T08:21:50.000Z</time>
      </trkpt>
      <trkpt lat="46.84182" lon="3.17589">
        <ele>227.5182800293</ele>
        <time>2016-02-07T08:21:53.000Z</time>
      </trkpt>
      <trkpt lat="46.84179" lon="3.1759">
        <ele>227.37837219238</ele>
        <time>2016-02-07T08:21:56.000Z</time>
      </trkpt>
      <trkpt lat="46.84175" lon="3.17592">
        <ele>227.22041320801</ele>
        <time>2016-02-07T08:21:58.000Z</time>
      </trkpt>
      <trkpt lat="46.84174" lon="3.17593">
        <ele>227.07524108887</ele>
        <time>2016-02-07T08:22:00.000Z</time>
      </trkpt>
      <trkpt lat="46.84171" lon="3.17598">
        <ele>226.921875</ele>
        <time>2016-02-07T08:22:03.000Z</time>
      </trkpt>
      <trkpt lat="46.84168" lon="3.176">
        <ele>226.76887512207</ele>
        <time>2016-02-07T08:22:06.000Z</time>
      </trkpt>
      <trkpt lat="46.84166" lon="3.17601">
        <ele>226.62454223633</ele>
        <time>2016-02-07T08:22:09.000Z</time>
      </trkpt>
      <trkpt lat="46.84164" lon="3.17602">
        <ele>226.48861694336</ele>
        <time>2016-02-07T08:22:11.000Z</time>
      </trkpt>
      <trkpt lat="46.8416" lon="3.17603">
        <ele>226.32821655273</ele>
        <time>2016-02-07T08:22:14.000Z</time>
      </trkpt>
      <trkpt lat="46.84159" lon="3.17604">
        <ele>226.20938110352</ele>
        <time>2016-02-07T08:22:16.000Z</time>
      </trkpt>
      <trkpt lat="46.84156" lon="3.17605">
        <ele>226.09262084961</ele>
        <time>2016-02-07T08:22:19.000Z</time>
      </trkpt>
      <trkpt lat="46.84153" lon="3.17607">
        <ele>225.95068359375</ele>
        <time>2016-02-07T08:22:22.000Z</time>
      </trkpt>
      <trkpt lat="46.84151" lon="3.17608">
        <ele>225.80844116211</ele>
        <time>2016-02-07T08:22:24.000Z</time>
      </trkpt>
      <trkpt lat="46.84148" lon="3.17608">
        <ele>225.67663574219</ele>
        <time>2016-02-07T08:22:27.000Z</time>
      </trkpt>
      <trkpt lat="46.84145" lon="3.17609">
        <ele>225.51850891113</ele>
        <time>2016-02-07T08:22:30.000Z</time>
      </trkpt>
      <trkpt lat="46.84141" lon="3.17611">
        <ele>225.33963012695</ele>
        <time>2016-02-07T08:22:32.000Z</time>
      </trkpt>
      <trkpt lat="46.84139" lon="3.17612">
        <ele>225.18545532227</ele>
        <time>2016-02-07T08:22:38.000Z</time>
      </trkpt>
      <trkpt lat="46.84135" lon="3.17614">
        <ele>225.00277709961</ele>
        <time>2016-02-07T08:22:38.000Z</time>
      </trkpt>
      <trkpt lat="46.84133" lon="3.17615">
        <ele>224.81913757324</ele>
        <time>2016-02-07T08:22:39.000Z</time>
      </trkpt>
      <trkpt lat="46.84131" lon="3.17615">
        <ele>224.64559936523</ele>
        <time>2016-02-07T08:22:41.000Z</time>
      </trkpt>
      <trkpt lat="46.84127" lon="3.17617">
        <ele>224.47305297852</ele>
        <time>2016-02-07T08:22:44.000Z</time>
      </trkpt>
      <trkpt lat="46.84124" lon="3.17618">
        <ele>224.27558898926</ele>
        <time>2016-02-07T08:22:47.000Z</time>
      </trkpt>
      <trkpt lat="46.84122" lon="3.1762">
        <ele>224.08187866211</ele>
        <time>2016-02-07T08:22:50.000Z</time>
      </trkpt>
      <trkpt lat="46.84119" lon="3.17621">
        <ele>223.8815612793</ele>
        <time>2016-02-07T08:22:53.000Z</time>
      </trkpt>
      <trkpt lat="46.84117" lon="3.17622">
        <ele>223.67216491699</ele>
        <time>2016-02-07T08:22:55.000Z</time>
      </trkpt>
      <trkpt lat="46.84116" lon="3.17624">
        <ele>223.47412109375</ele>
        <time>2016-02-07T08:22:57.000Z</time>
      </trkpt>
      <trkpt lat="46.84113" lon="3.17625">
        <ele>223.29292297363</ele>
        <time>2016-02-07T08:23:00.000Z</time>
      </trkpt>
      <trkpt lat="46.84111" lon="3.17625">
        <ele>223.13481140137</ele>
        <time>2016-02-07T08:23:02.000Z</time>
      </trkpt>
      <trkpt lat="46.84109" lon="3.17624">
        <ele>223.00773620605</ele>
        <time>2016-02-07T08:23:05.000Z</time>
      </trkpt>
      <trkpt lat="46.84106" lon="3.17624">
        <ele>222.88398742676</ele>
        <time>2016-02-07T08:23:08.000Z</time>
      </trkpt>
      <trkpt lat="46.84104" lon="3.17626">
        <ele>222.75004577637</ele>
        <time>2016-02-07T08:23:10.000Z</time>
      </trkpt>
      <trkpt lat="46.84101" lon="3.17628">
        <ele>222.59426879883</ele>
        <time>2016-02-07T08:23:12.000Z</time>
      </trkpt>
      <trkpt lat="46.84098" lon="3.1763">
        <ele>222.38403320312</ele>
        <time>2016-02-07T08:23:15.000Z</time>
      </trkpt>
      <trkpt lat="46.84094" lon="3.17632">
        <ele>222.10417175293</ele>
        <time>2016-02-07T08:23:18.000Z</time>
      </trkpt>
      <trkpt lat="46.8409" lon="3.17633">
        <ele>221.81790161133</ele>
        <time>2016-02-07T08:23:21.000Z</time>
      </trkpt>
      <trkpt lat="46.84088" lon="3.17634">
        <ele>221.5238494873</ele>
        <time>2016-02-07T08:23:24.000Z</time>
      </trkpt>
      <trkpt lat="46.84085" lon="3.17635">
        <ele>221.23190307617</ele>
        <time>2016-02-07T08:23:27.000Z</time>
      </trkpt>
      <trkpt lat="46.84082" lon="3.17634">
        <ele>221.01689147949</ele>
        <time>2016-02-07T08:23:29.000Z</time>
      </trkpt>
      <trkpt lat="46.84078" lon="3.17633">
        <ele>220.90478515625</ele>
        <time>2016-02-07T08:23:32.000Z</time>
      </trkpt>
      <trkpt lat="46.84073" lon="3.17634">
        <ele>220.83052062988</ele>
        <time>2016-02-07T08:23:36.000Z</time>
      </trkpt>
      <trkpt lat="46.84072" lon="3.17634">
        <ele>220.80578613281</ele>
        <time>2016-02-07T08:23:37.000Z</time>
      </trkpt>
      <trkpt lat="46.84069" lon="3.17635">
        <ele>220.81266784668</ele>
        <time>2016-02-07T08:23:39.000Z</time>
      </trkpt>
      <trkpt lat="46.84066" lon="3.17637">
        <ele>220.79997253418</ele>
        <time>2016-02-07T08:23:41.000Z</time>
      </trkpt>
      <trkpt lat="46.84064" lon="3.17638">
        <ele>220.74429321289</ele>
        <time>2016-02-07T08:23:44.000Z</time>
      </trkpt>
      <trkpt lat="46.84059" lon="3.17639">
        <ele>220.68135070801</ele>
        <time>2016-02-07T08:23:46.000Z</time>
      </trkpt>
      <trkpt lat="46.84056" lon="3.1764">
        <ele>220.60873413086</ele>
        <time>2016-02-07T08:23:49.000Z</time>
      </trkpt>
      <trkpt lat="46.84054" lon="3.17639">
        <ele>220.55879211426</ele>
        <time>2016-02-07T08:23:51.000Z</time>
      </trkpt>
      <trkpt lat="46.84052" lon="3.17641">
        <ele>220.51229858398</ele>
        <time>2016-02-07T08:23:54.000Z</time>
      </trkpt>
      <trkpt lat="46.8405" lon="3.17642">
        <ele>220.45425415039</ele>
        <time>2016-02-07T08:23:57.000Z</time>
      </trkpt>
      <trkpt lat="46.84047" lon="3.17643">
        <ele>220.3942565918</ele>
        <time>2016-02-07T08:24:01.000Z</time>
      </trkpt>
      <trkpt lat="46.84045" lon="3.17644">
        <ele>220.32040405273</ele>
        <time>2016-02-07T08:24:02.000Z</time>
      </trkpt>
      <trkpt lat="46.84044" lon="3.17647">
        <ele>220.19430541992</ele>
        <time>2016-02-07T08:24:05.000Z</time>
      </trkpt>
      <trkpt lat="46.8404" lon="3.17649">
        <ele>220.05659484863</ele>
        <time>2016-02-07T08:24:07.000Z</time>
      </trkpt>
      <trkpt lat="46.84037" lon="3.17649">
        <ele>219.93476867676</ele>
        <time>2016-02-07T08:24:10.000Z</time>
      </trkpt>
      <trkpt lat="46.84035" lon="3.1765">
        <ele>219.8115234375</ele>
        <time>2016-02-07T08:24:15.000Z</time>
      </trkpt>
      <trkpt lat="46.84032" lon="3.1765">
        <ele>219.72677612305</ele>
        <time>2016-02-07T08:24:15.000Z</time>
      </trkpt>
      <trkpt lat="46.84028" lon="3.17651">
        <ele>219.66464233398</ele>
        <time>2016-02-07T08:24:18.000Z</time>
      </trkpt>
      <trkpt lat="46.84026" lon="3.17651">
        <ele>219.63369750977</ele>
        <time>2016-02-07T08:24:20.000Z</time>
      </trkpt>
      <trkpt lat="46.84023" lon="3.17651">
        <ele>219.60319519043</ele>
        <time>2016-02-07T08:24:22.000Z</time>
      </trkpt>
      <trkpt lat="46.84021" lon="3.17652">
        <ele>219.57559204102</ele>
        <time>2016-02-07T08:24:24.000Z</time>
      </trkpt>
      <trkpt lat="46.8402" lon="3.17652">
        <ele>219.54582214355</ele>
        <time>2016-02-07T08:24:27.000Z</time>
      </trkpt>
      <trkpt lat="46.84015" lon="3.17652">
        <ele>219.5279083252</ele>
        <time>2016-02-07T08:24:30.000Z</time>
      </trkpt>
      <trkpt lat="46.84011" lon="3.17654">
        <ele>219.48220825195</ele>
        <time>2016-02-07T08:24:33.000Z</time>
      </trkpt>
      <trkpt lat="46.84008" lon="3.17652">
        <ele>219.48750305176</ele>
        <time>2016-02-07T08:24:35.000Z</time>
      </trkpt>
      <trkpt lat="46.84005" lon="3.17649">
        <ele>219.5659942627</ele>
        <time>2016-02-07T08:24:38.000Z</time>
      </trkpt>
      <trkpt lat="46.84003" lon="3.17647">
        <ele>219.67349243164</ele>
        <time>2016-02-07T08:24:40.000Z</time>
      </trkpt>
      <trkpt lat="46.84001" lon="3.17644">
        <ele>219.87214660645</ele>
        <time>2016-02-07T08:24:43.000Z</time>
      </trkpt>
      <trkpt lat="46.83999" lon="3.17643">
        <ele>220.10713195801</ele>
        <time>2016-02-07T08:24:45.000Z</time>
      </trkpt>
      <trkpt lat="46.83997" lon="3.17643">
        <ele>220.32783508301</ele>
        <time>2016-02-07T08:24:47.000Z</time>
      </trkpt>
      <trkpt lat="46.83994" lon="3.17642">
        <ele>220.51069641113</ele>
        <time>2016-02-07T08:24:50.000Z</time>
      </trkpt>
      <trkpt lat="46.83991" lon="3.17642">
        <ele>220.67851257324</ele>
        <time>2016-02-07T08:24:52.000Z</time>
      </trkpt>
      <trkpt lat="46.8399" lon="3.17642">
        <ele>220.77241516113</ele>
        <time>2016-02-07T08:24:56.000Z</time>
      </trkpt>
      <trkpt lat="46.83987" lon="3.1764">
        <ele>220.8974609375</ele>
        <time>2016-02-07T08:24:58.000Z</time>
      </trkpt>
      <trkpt lat="46.83984" lon="3.1764">
        <ele>221.02046203613</ele>
        <time>2016-02-07T08:25:00.000Z</time>
      </trkpt>
      <trkpt lat="46.83979" lon="3.17638">
        <ele>221.17395019531</ele>
        <time>2016-02-07T08:25:03.000Z</time>
      </trkpt>
      <trkpt lat="46.83976" lon="3.17637">
        <ele>221.33906555176</ele>
        <time>2016-02-07T08:25:05.000Z</time>
      </trkpt>
      <trkpt lat="46.83974" lon="3.17636">
        <ele>221.52861022949</ele>
        <time>2016-02-07T08:25:09.000Z</time>
      </trkpt>
      <trkpt lat="46.83971" lon="3.17635">
        <ele>221.71138000488</ele>
        <time>2016-02-07T08:25:10.000Z</time>
      </trkpt>
      <trkpt lat="46.83968" lon="3.17634">
        <ele>221.91137695312</ele>
        <time>2016-02-07T08:25:13.000Z</time>
      </trkpt>
      <trkpt lat="46.83965" lon="3.17632">
        <ele>222.11405944824</ele>
        <time>2016-02-07T08:25:16.000Z</time>
      </trkpt>
      <trkpt lat="46.83961" lon="3.17631">
        <ele>222.32719421387</ele>
        <time>2016-02-07T08:25:19.000Z</time>
      </trkpt>
      <trkpt lat="46.83958" lon="3.1763">
        <ele>222.53959655762</ele>
        <time>2016-02-07T08:25:22.000Z</time>
      </trkpt>
      <trkpt lat="46.83956" lon="3.17629">
        <ele>222.74946594238</ele>
        <time>2016-02-07T08:25:24.000Z</time>
      </trkpt>
      <trkpt lat="46.83953" lon="3.17628">
        <ele>222.95495605469</ele>
        <time>2016-02-07T08:25:27.000Z</time>
      </trkpt>
      <trkpt lat="46.8395" lon="3.17627">
        <ele>223.12739562988</ele>
        <time>2016-02-07T08:25:29.000Z</time>
      </trkpt>
      <trkpt lat="46.83947" lon="3.17625">
        <ele>223.31547546387</ele>
        <time>2016-02-07T08:25:32.000Z</time>
      </trkpt>
      <trkpt lat="46.83945" lon="3.17625">
        <ele>223.48400878906</ele>
        <time>2016-02-07T08:25:34.000Z</time>
      </trkpt>
      <trkpt lat="46.8394" lon="3.17625">
        <ele>223.64868164062</ele>
        <time>2016-02-07T08:25:37.000Z</time>
      </trkpt>
      <trkpt lat="46.83938" lon="3.17625">
        <ele>223.77502441406</ele>
        <time>2016-02-07T08:25:42.000Z</time>
      </trkpt>
      <trkpt lat="46.83932" lon="3.17627">
        <ele>223.86840820312</ele>
        <time>2016-02-07T08:25:42.000Z</time>
      </trkpt>
      <trkpt lat="46.8393" lon="3.17627">
        <ele>223.91011047363</ele>
        <time>2016-02-07T08:25:45.000Z</time>
      </trkpt>
      <trkpt lat="46.83929" lon="3.17628">
        <ele>223.92150878906</ele>
        <time>2016-02-07T08:25:46.000Z</time>
      </trkpt>
      <trkpt lat="46.83925" lon="3.17632">
        <ele>223.84843444824</ele>
        <time>2016-02-07T08:25:50.000Z</time>
      </trkpt>
      <trkpt lat="46.83922" lon="3.17633">
        <ele>223.76892089844</ele>
        <time>2016-02-07T08:25:51.000Z</time>
      </trkpt>
      <trkpt lat="46.8392" lon="3.17634">
        <ele>223.67070007324</ele>
        <time>2016-02-07T08:25:53.000Z</time>
      </trkpt>
      <trkpt lat="46.83916" lon="3.17638">
        <ele>223.50080871582</ele>
        <time>2016-02-07T08:25:56.000Z</time>
      </trkpt>
      <trkpt lat="46.83914" lon="3.17641">
        <ele>223.29438781738</ele>
        <time>2016-02-07T08:25:58.000Z</time>
      </trkpt>
      <trkpt lat="46.8391" lon="3.17646">
        <ele>223.07295227051</ele>
        <time>2016-02-07T08:26:01.000Z</time>
      </trkpt>
      <trkpt lat="46.83907" lon="3.1765">
        <ele>222.80465698242</ele>
        <time>2016-02-07T08:26:04.000Z</time>
      </trkpt>
      <trkpt lat="46.83905" lon="3.17653">
        <ele>222.50956726074</ele>
        <time>2016-02-07T08:26:06.000Z</time>
      </trkpt>
      <trkpt lat="46.83903" lon="3.17654">
        <ele>222.2712097168</ele>
        <time>2016-02-07T08:26:09.000Z</time>
      </trkpt>
      <trkpt lat="46.83898" lon="3.17656">
        <ele>222.09028625488</ele>
        <time>2016-02-07T08:26:12.000Z</time>
      </trkpt>
      <trkpt lat="46.83896" lon="3.17658">
        <ele>221.95727539062</ele>
        <time>2016-02-07T08:26:14.000Z</time>
      </trkpt>
      <trkpt lat="46.83893" lon="3.17661">
        <ele>221.8603515625</ele>
        <time>2016-02-07T08:26:17.000Z</time>
      </trkpt>
      <trkpt lat="46.83889" lon="3.1766">
        <ele>221.86347961426</ele>
        <time>2016-02-07T08:26:20.000Z</time>
      </trkpt>
      <trkpt lat="46.83885" lon="3.1766">
        <ele>221.91015625</ele>
        <time>2016-02-07T08:26:23.000Z</time>
      </trkpt>
      <trkpt lat="46.83883" lon="3.17659">
        <ele>221.98420715332</ele>
        <time>2016-02-07T08:26:25.000Z</time>
      </trkpt>
      <trkpt lat="46.83881" lon="3.17659">
        <ele>222.09045410156</ele>
        <time>2016-02-07T08:26:28.000Z</time>
      </trkpt>
      <trkpt lat="46.83877" lon="3.17658">
        <ele>222.27575683594</ele>
        <time>2016-02-07T08:26:31.000Z</time>
      </trkpt>
      <trkpt lat="46.83875" lon="3.17655">
        <ele>222.47138977051</ele>
        <time>2016-02-07T08:26:34.000Z</time>
      </trkpt>
      <trkpt lat="46.83871" lon="3.17654">
        <ele>222.67883300781</ele>
        <time>2016-02-07T08:26:36.000Z</time>
      </trkpt>
      <trkpt lat="46.83867" lon="3.17657">
        <ele>222.85751342773</ele>
        <time>2016-02-07T08:26:39.000Z</time>
      </trkpt>
      <trkpt lat="46.83865" lon="3.17657">
        <ele>223.04287719727</ele>
        <time>2016-02-07T08:26:42.000Z</time>
      </trkpt>
      <trkpt lat="46.8386" lon="3.17654">
        <ele>223.24726867676</ele>
        <time>2016-02-07T08:26:45.000Z</time>
      </trkpt>
      <trkpt lat="46.83858" lon="3.17654">
        <ele>223.41445922852</ele>
        <time>2016-02-07T08:26:47.000Z</time>
      </trkpt>
      <trkpt lat="46.83854" lon="3.17653">
        <ele>223.57275390625</ele>
        <time>2016-02-07T08:26:49.000Z</time>
      </trkpt>
      <trkpt lat="46.83851" lon="3.17653">
        <ele>223.7544708252</ele>
        <time>2016-02-07T08:26:52.000Z</time>
      </trkpt>
      <trkpt lat="46.83849" lon="3.17654">
        <ele>223.92280578613</ele>
        <time>2016-02-07T08:26:54.000Z</time>
      </trkpt>
      <trkpt lat="46.83846" lon="3.17658">
        <ele>223.99014282227</ele>
        <time>2016-02-07T08:26:57.000Z</time>
      </trkpt>
      <trkpt lat="46.83844" lon="3.17657">
        <ele>224.05603027344</ele>
        <time>2016-02-07T08:26:59.000Z</time>
      </trkpt>
      <trkpt lat="46.8384" lon="3.17658">
        <ele>224.10610961914</ele>
        <time>2016-02-07T08:27:02.000Z</time>
      </trkpt>
      <trkpt lat="46.83837" lon="3.17659">
        <ele>224.15335083008</ele>
        <time>2016-02-07T08:27:04.000Z</time>
      </trkpt>
      <trkpt lat="46.83834" lon="3.1766">
        <ele>224.20504760742</ele>
        <time>2016-02-07T08:27:06.000Z</time>
      </trkpt>
      <trkpt lat="46.83829" lon="3.17661">
        <ele>224.21125793457</ele>
        <time>2016-02-07T08:27:09.000Z</time>
      </trkpt>
      <trkpt lat="46.83826" lon="3.17662">
        <ele>224.14660644531</ele>
        <time>2016-02-07T08:27:12.000Z</time>
      </trkpt>
      <trkpt lat="46.83824" lon="3.17663">
        <ele>224.01008605957</ele>
        <time>2016-02-07T08:27:14.000Z</time>
      </trkpt>
      <trkpt lat="46.8382" lon="3.17664">
        <ele>223.78218078613</ele>
        <time>2016-02-07T08:27:17.000Z</time>
      </trkpt>
      <trkpt lat="46.83816" lon="3.17663">
        <ele>223.49516296387</ele>
        <time>2016-02-07T08:27:20.000Z</time>
      </trkpt>
      <trkpt lat="46.83813" lon="3.17664">
        <ele>223.23001098633</ele>
        <time>2016-02-07T08:27:22.000Z</time>
      </trkpt>
      <trkpt lat="46.8381" lon="3.17665">
        <ele>222.95878601074</ele>
        <time>2016-02-07T08:27:25.000Z</time>
      </trkpt>
      <trkpt lat="46.83807" lon="3.17665">
        <ele>222.69010925293</ele>
        <time>2016-02-07T08:27:27.000Z</time>
      </trkpt>
      <trkpt lat="46.83804" lon="3.17667">
        <ele>222.41255187988</ele>
        <time>2016-02-07T08:27:30.000Z</time>
      </trkpt>
      <trkpt lat="46.838" lon="3.17667">
        <ele>222.13818359375</ele>
        <time>2016-02-07T08:27:33.000Z</time>
      </trkpt>
      <trkpt lat="46.83796" lon="3.17669">
        <ele>221.80844116211</ele>
        <time>2016-02-07T08:27:36.000Z</time>
      </trkpt>
      <trkpt lat="46.83794" lon="3.1767">
        <ele>221.49140930176</ele>
        <time>2016-02-07T08:27:38.000Z</time>
      </trkpt>
      <trkpt lat="46.83794" lon="3.17671">
        <ele>221.18290710449</ele>
        <time>2016-02-07T08:27:40.000Z</time>
      </trkpt>
      <trkpt lat="46.8379" lon="3.17671">
        <ele>220.89599609375</ele>
        <time>2016-02-07T08:27:43.000Z</time>
      </trkpt>
      <trkpt lat="46.83787" lon="3.17671">
        <ele>220.62112426758</ele>
        <time>2016-02-07T08:27:46.000Z</time>
      </trkpt>
      <trkpt lat="46.83784" lon="3.17672">
        <ele>220.39608764648</ele>
        <time>2016-02-07T08:27:49.000Z</time>
      </trkpt>
      <trkpt lat="46.83782" lon="3.17671">
        <ele>220.19998168945</ele>
        <time>2016-02-07T08:27:51.000Z</time>
      </trkpt>
      <trkpt lat="46.8378" lon="3.1767">
        <ele>220.03451538086</ele>
        <time>2016-02-07T08:27:54.000Z</time>
      </trkpt>
      <trkpt lat="46.83778" lon="3.1767">
        <ele>219.91494750977</ele>
        <time>2016-02-07T08:27:56.000Z</time>
      </trkpt>
      <trkpt lat="46.83777" lon="3.17669">
        <ele>219.82089233398</ele>
        <time>2016-02-07T08:27:59.000Z</time>
      </trkpt>
      <trkpt lat="46.83772" lon="3.17668">
        <ele>219.73672485352</ele>
        <time>2016-02-07T08:28:03.000Z</time>
      </trkpt>
      <trkpt lat="46.8377" lon="3.17666">
        <ele>219.65975952148</ele>
        <time>2016-02-07T08:28:04.000Z</time>
      </trkpt>
      <trkpt lat="46.83768" lon="3.17666">
        <ele>219.5569152832</ele>
        <time>2016-02-07T08:28:06.000Z</time>
      </trkpt>
      <trkpt lat="46.83766" lon="3.17666">
        <ele>219.44143676758</ele>
        <time>2016-02-07T08:28:08.000Z</time>
      </trkpt>
      <trkpt lat="46.83763" lon="3.17665">
        <ele>219.29739379883</ele>
        <time>2016-02-07T08:28:11.000Z</time>
      </trkpt>
      <trkpt lat="46.83762" lon="3.17665">
        <ele>219.16963195801</ele>
        <time>2016-02-07T08:28:13.000Z</time>
      </trkpt>
      <trkpt lat="46.83759" lon="3.17664">
        <ele>219.03242492676</ele>
        <time>2016-02-07T08:28:16.000Z</time>
      </trkpt>
      <trkpt lat="46.83755" lon="3.17662">
        <ele>218.87344360352</ele>
        <time>2016-02-07T08:28:21.000Z</time>
      </trkpt>
      <trkpt lat="46.83752" lon="3.17662">
        <ele>218.69848632812</ele>
        <time>2016-02-07T08:28:22.000Z</time>
      </trkpt>
      <trkpt lat="46.83749" lon="3.17663">
        <ele>218.54130554199</ele>
        <time>2016-02-07T08:28:24.000Z</time>
      </trkpt>
      <trkpt lat="46.83746" lon="3.17663">
        <ele>218.43627929688</ele>
        <time>2016-02-07T08:28:25.000Z</time>
      </trkpt>
      <trkpt lat="46.83742" lon="3.17661">
        <ele>218.38847351074</ele>
        <time>2016-02-07T08:28:28.000Z</time>
      </trkpt>
      <trkpt lat="46.8374" lon="3.17661">
        <ele>218.42111206055</ele>
        <time>2016-02-07T08:28:30.000Z</time>
      </trkpt>
      <trkpt lat="46.83738" lon="3.1766">
        <ele>218.5234375</ele>
        <time>2016-02-07T08:28:32.000Z</time>
      </trkpt>
      <trkpt lat="46.83736" lon="3.1766">
        <ele>218.66931152344</ele>
        <time>2016-02-07T08:28:35.000Z</time>
      </trkpt>
      <trkpt lat="46.83731" lon="3.17661">
        <ele>218.82250976562</ele>
        <time>2016-02-07T08:28:38.000Z</time>
      </trkpt>
      <trkpt lat="46.8373" lon="3.17661">
        <ele>218.94486999512</ele>
        <time>2016-02-07T08:28:40.000Z</time>
      </trkpt>
      <trkpt lat="46.83728" lon="3.17663">
        <ele>219.04911804199</ele>
        <time>2016-02-07T08:28:42.000Z</time>
      </trkpt>
      <trkpt lat="46.83727" lon="3.17663">
        <ele>219.13623046875</ele>
        <time>2016-02-07T08:28:44.000Z</time>
      </trkpt>
      <trkpt lat="46.83722" lon="3.17666">
        <ele>219.22709655762</ele>
        <time>2016-02-07T08:28:47.000Z</time>
      </trkpt>
      <trkpt lat="46.83718" lon="3.17668">
        <ele>219.29513549805</ele>
        <time>2016-02-07T08:28:50.000Z</time>
      </trkpt>
      <trkpt lat="46.83715" lon="3.17669">
        <ele>219.36274719238</ele>
        <time>2016-02-07T08:28:53.000Z</time>
      </trkpt>
      <trkpt lat="46.83713" lon="3.17671">
        <ele>219.42886352539</ele>
        <time>2016-02-07T08:28:56.000Z</time>
      </trkpt>
      <trkpt lat="46.83709" lon="3.17671">
        <ele>219.51657104492</ele>
        <time>2016-02-07T08:29:01.000Z</time>
      </trkpt>
      <trkpt lat="46.83705" lon="3.17674">
        <ele>219.58486938477</ele>
        <time>2016-02-07T08:29:02.000Z</time>
      </trkpt>
      <trkpt lat="46.83704" lon="3.17674">
        <ele>219.65596008301</ele>
        <time>2016-02-07T08:29:04.000Z</time>
      </trkpt>
      <trkpt lat="46.83699" lon="3.17674">
        <ele>219.75981140137</ele>
        <time>2016-02-07T08:29:06.000Z</time>
      </trkpt>
      <trkpt lat="46.83697" lon="3.17676">
        <ele>219.86108398438</ele>
        <time>2016-02-07T08:29:08.000Z</time>
      </trkpt>
      <trkpt lat="46.83694" lon="3.17675">
        <ele>219.96731567383</ele>
        <time>2016-02-07T08:29:11.000Z</time>
      </trkpt>
      <trkpt lat="46.83691" lon="3.17674">
        <ele>220.09902954102</ele>
        <time>2016-02-07T08:29:13.000Z</time>
      </trkpt>
      <trkpt lat="46.83687" lon="3.17674">
        <ele>220.2544708252</ele>
        <time>2016-02-07T08:29:16.000Z</time>
      </trkpt>
      <trkpt lat="46.83683" lon="3.17675">
        <ele>220.39944458008</ele>
        <time>2016-02-07T08:29:19.000Z</time>
      </trkpt>
      <trkpt lat="46.83681" lon="3.17674">
        <ele>220.57174682617</ele>
        <time>2016-02-07T08:29:21.000Z</time>
      </trkpt>
      <trkpt lat="46.83677" lon="3.17674">
        <ele>220.74850463867</ele>
        <time>2016-02-07T08:29:24.000Z</time>
      </trkpt>
      <trkpt lat="46.83675" lon="3.17674">
        <ele>220.92016601562</ele>
        <time>2016-02-07T08:29:26.000Z</time>
      </trkpt>
      <trkpt lat="46.83673" lon="3.17673">
        <ele>221.07971191406</ele>
        <time>2016-02-07T08:29:28.000Z</time>
      </trkpt>
      <trkpt lat="46.83671" lon="3.17672">
        <ele>221.23677062988</ele>
        <time>2016-02-07T08:29:30.000Z</time>
      </trkpt>
      <trkpt lat="46.83665" lon="3.17675">
        <ele>221.38278198242</ele>
        <time>2016-02-07T08:29:34.000Z</time>
      </trkpt>
      <trkpt lat="46.83662" lon="3.17678">
        <ele>221.47480773926</ele>
        <time>2016-02-07T08:29:36.000Z</time>
      </trkpt>
      <trkpt lat="46.83659" lon="3.17679">
        <ele>221.54289245605</ele>
        <time>2016-02-07T08:29:38.000Z</time>
      </trkpt>
      <trkpt lat="46.83654" lon="3.1768">
        <ele>221.60144042969</ele>
        <time>2016-02-07T08:29:41.000Z</time>
      </trkpt>
      <trkpt lat="46.83651" lon="3.17683">
        <ele>221.6198425293</ele>
        <time>2016-02-07T08:29:44.000Z</time>
      </trkpt>
      <trkpt lat="46.83648" lon="3.17683">
        <ele>221.63925170898</ele>
        <time>2016-02-07T08:29:47.000Z</time>
      </trkpt>
      <trkpt lat="46.83644" lon="3.17683">
        <ele>221.6900177002</ele>
        <time>2016-02-07T08:29:50.000Z</time>
      </trkpt>
      <trkpt lat="46.8364" lon="3.17683">
        <ele>221.7600402832</ele>
        <time>2016-02-07T08:29:53.000Z</time>
      </trkpt>
      <trkpt lat="46.83636" lon="3.17683">
        <ele>221.82824707031</ele>
        <time>2016-02-07T08:29:56.000Z</time>
      </trkpt>
      <trkpt lat="46.83633" lon="3.17683">
        <ele>221.91625976562</ele>
        <time>2016-02-07T08:29:58.000Z</time>
      </trkpt>
      <trkpt lat="46.8363" lon="3.17685">
        <ele>221.99429321289</ele>
        <time>2016-02-07T08:30:01.000Z</time>
      </trkpt>
      <trkpt lat="46.83628" lon="3.17685">
        <ele>222.06144714355</ele>
        <time>2016-02-07T08:30:03.000Z</time>
      </trkpt>
      <trkpt lat="46.83626" lon="3.17685">
        <ele>222.11312866211</ele>
        <time>2016-02-07T08:30:05.000Z</time>
      </trkpt>
      <trkpt lat="46.83623" lon="3.17686">
        <ele>222.1575012207</ele>
        <time>2016-02-07T08:30:07.000Z</time>
      </trkpt>
      <trkpt lat="46.8362" lon="3.17687">
        <ele>222.19941711426</ele>
        <time>2016-02-07T08:30:09.000Z</time>
      </trkpt>
      <trkpt lat="46.83617" lon="3.17687">
        <ele>222.25244140625</ele>
        <time>2016-02-07T08:30:12.000Z</time>
      </trkpt>
      <trkpt lat="46.83615" lon="3.17687">
        <ele>222.30500793457</ele>
        <time>2016-02-07T08:30:14.000Z</time>
      </trkpt>
      <trkpt lat="46.83612" lon="3.17687">
        <ele>222.36779785156</ele>
        <time>2016-02-07T08:30:17.000Z</time>
      </trkpt>
      <trkpt lat="46.83611" lon="3.17687">
        <ele>222.42672729492</ele>
        <time>2016-02-07T08:30:20.000Z</time>
      </trkpt>
      <trkpt lat="46.83606" lon="3.17689">
        <ele>222.48745727539</ele>
        <time>2016-02-07T08:30:23.000Z</time>
      </trkpt>
      <trkpt lat="46.83603" lon="3.17691">
        <ele>222.5327911377</ele>
        <time>2016-02-07T08:30:26.000Z</time>
      </trkpt>
      <trkpt lat="46.836" lon="3.17691">
        <ele>222.57827758789</ele>
        <time>2016-02-07T08:30:28.000Z</time>
      </trkpt>
      <trkpt lat="46.83596" lon="3.17692">
        <ele>222.62178039551</ele>
        <time>2016-02-07T08:30:31.000Z</time>
      </trkpt>
      <trkpt lat="46.83594" lon="3.17694">
        <ele>222.66201782227</ele>
        <time>2016-02-07T08:30:33.000Z</time>
      </trkpt>
      <trkpt lat="46.8359" lon="3.17694">
        <ele>222.71264648438</ele>
        <time>2016-02-07T08:30:36.000Z</time>
      </trkpt>
      <trkpt lat="46.83587" lon="3.17693">
        <ele>222.78271484375</ele>
        <time>2016-02-07T08:30:39.000Z</time>
      </trkpt>
      <trkpt lat="46.83584" lon="3.17693">
        <ele>222.85807800293</ele>
        <time>2016-02-07T08:30:42.000Z</time>
      </trkpt>
      <trkpt lat="46.8358" lon="3.17696">
        <ele>222.92802429199</ele>
        <time>2016-02-07T08:30:45.000Z</time>
      </trkpt>
      <trkpt lat="46.83577" lon="3.17696">
        <ele>223.01069641113</ele>
        <time>2016-02-07T08:30:48.000Z</time>
      </trkpt>
      <trkpt lat="46.83575" lon="3.17696">
        <ele>223.09243774414</ele>
        <time>2016-02-07T08:30:50.000Z</time>
      </trkpt>
      <trkpt lat="46.83571" lon="3.17698">
        <ele>223.1633605957</ele>
        <time>2016-02-07T08:30:53.000Z</time>
      </trkpt>
      <trkpt lat="46.83569" lon="3.177">
        <ele>223.22709655762</ele>
        <time>2016-02-07T08:30:55.000Z</time>
      </trkpt>
      <trkpt lat="46.83567" lon="3.177">
        <ele>223.29248046875</ele>
        <time>2016-02-07T08:30:58.000Z</time>
      </trkpt>
      <trkpt lat="46.83564" lon="3.177">
        <ele>223.35600280762</ele>
        <time>2016-02-07T08:31:00.000Z</time>
      </trkpt>
      <trkpt lat="46.8356" lon="3.17701">
        <ele>223.43070983887</ele>
        <time>2016-02-07T08:31:03.000Z</time>
      </trkpt>
      <trkpt lat="46.83558" lon="3.177">
        <ele>223.51200866699</ele>
        <time>2016-02-07T08:31:05.000Z</time>
      </trkpt>
      <trkpt lat="46.83555" lon="3.177">
        <ele>223.61015319824</ele>
        <time>2016-02-07T08:31:07.000Z</time>
      </trkpt>
      <trkpt lat="46.83553" lon="3.177">
        <ele>223.71342468262</ele>
        <time>2016-02-07T08:31:09.000Z</time>
      </trkpt>
      <trkpt lat="46.83549" lon="3.177">
        <ele>223.82788085938</ele>
        <time>2016-02-07T08:31:12.000Z</time>
      </trkpt>
      <trkpt lat="46.83548" lon="3.177">
        <ele>223.91430664062</ele>
        <time>2016-02-07T08:31:14.000Z</time>
      </trkpt>
      <trkpt lat="46.83544" lon="3.17703">
        <ele>223.99084472656</ele>
        <time>2016-02-07T08:31:17.000Z</time>
      </trkpt>
      <trkpt lat="46.83542" lon="3.17703">
        <ele>224.05676269531</ele>
        <time>2016-02-07T08:31:19.000Z</time>
      </trkpt>
      <trkpt lat="46.83539" lon="3.17703">
        <ele>224.12544250488</ele>
        <time>2016-02-07T08:31:21.000Z</time>
      </trkpt>
      <trkpt lat="46.83537" lon="3.17704">
        <ele>224.18843078613</ele>
        <time>2016-02-07T08:31:24.000Z</time>
      </trkpt>
      <trkpt lat="46.83532" lon="3.17705">
        <ele>224.27282714844</ele>
        <time>2016-02-07T08:31:26.000Z</time>
      </trkpt>
      <trkpt lat="46.8353" lon="3.17704">
        <ele>224.36860656738</ele>
        <time>2016-02-07T08:31:28.000Z</time>
      </trkpt>
      <trkpt lat="46.83527" lon="3.17704">
        <ele>224.47187805176</ele>
        <time>2016-02-07T08:31:31.000Z</time>
      </trkpt>
      <trkpt lat="46.83524" lon="3.17703">
        <ele>224.58813476562</ele>
        <time>2016-02-07T08:31:34.000Z</time>
      </trkpt>
      <trkpt lat="46.83523" lon="3.17703">
        <ele>224.69047546387</ele>
        <time>2016-02-07T08:31:36.000Z</time>
      </trkpt>
      <trkpt lat="46.83521" lon="3.17704">
        <ele>224.78276062012</ele>
        <time>2016-02-07T08:31:38.000Z</time>
      </trkpt>
      <trkpt lat="46.83517" lon="3.17703">
        <ele>224.87870788574</ele>
        <time>2016-02-07T08:31:41.000Z</time>
      </trkpt>
      <trkpt lat="46.83516" lon="3.17703">
        <ele>224.96240234375</ele>
        <time>2016-02-07T08:31:43.000Z</time>
      </trkpt>
      <trkpt lat="46.83512" lon="3.17704">
        <ele>225.03218078613</ele>
        <time>2016-02-07T08:31:46.000Z</time>
      </trkpt>
      <trkpt lat="46.83509" lon="3.17704">
        <ele>225.12243652344</ele>
        <time>2016-02-07T08:31:48.000Z</time>
      </trkpt>
      <trkpt lat="46.83508" lon="3.17703">
        <ele>225.21122741699</ele>
        <time>2016-02-07T08:31:50.000Z</time>
      </trkpt>
      <trkpt lat="46.83503" lon="3.17704">
        <ele>225.30920410156</ele>
        <time>2016-02-07T08:31:53.000Z</time>
      </trkpt>
      <trkpt lat="46.83501" lon="3.17705">
        <ele>225.40678405762</ele>
        <time>2016-02-07T08:31:55.000Z</time>
      </trkpt>
      <trkpt lat="46.83498" lon="3.17707">
        <ele>225.47610473633</ele>
        <time>2016-02-07T08:31:57.000Z</time>
      </trkpt>
      <trkpt lat="46.83495" lon="3.17707">
        <ele>225.52372741699</ele>
        <time>2016-02-07T08:32:00.000Z</time>
      </trkpt>
      <trkpt lat="46.83492" lon="3.17707">
        <ele>225.56217956543</ele>
        <time>2016-02-07T08:32:03.000Z</time>
      </trkpt>
      <trkpt lat="46.83488" lon="3.17709">
        <ele>225.5637512207</ele>
        <time>2016-02-07T08:32:06.000Z</time>
      </trkpt>
      <trkpt lat="46.83485" lon="3.17709">
        <ele>225.56205749512</ele>
        <time>2016-02-07T08:32:09.000Z</time>
      </trkpt>
      <trkpt lat="46.83484" lon="3.17709">
        <ele>225.57104492188</ele>
        <time>2016-02-07T08:32:11.000Z</time>
      </trkpt>
      <trkpt lat="46.8348" lon="3.17709">
        <ele>225.5816192627</ele>
        <time>2016-02-07T08:32:13.000Z</time>
      </trkpt>
      <trkpt lat="46.83475" lon="3.1771">
        <ele>225.59298706055</ele>
        <time>2016-02-07T08:32:16.000Z</time>
      </trkpt>
      <trkpt lat="46.83473" lon="3.17711">
        <ele>225.60928344727</ele>
        <time>2016-02-07T08:32:18.000Z</time>
      </trkpt>
      <trkpt lat="46.83471" lon="3.17711">
        <ele>225.62365722656</ele>
        <time>2016-02-07T08:32:20.000Z</time>
      </trkpt>
      <trkpt lat="46.83468" lon="3.17712">
        <ele>225.6423034668</ele>
        <time>2016-02-07T08:32:22.000Z</time>
      </trkpt>
      <trkpt lat="46.83464" lon="3.17712">
        <ele>225.66398620605</ele>
        <time>2016-02-07T08:32:25.000Z</time>
      </trkpt>
      <trkpt lat="46.8346" lon="3.17713">
        <ele>225.69076538086</ele>
        <time>2016-02-07T08:32:28.000Z</time>
      </trkpt>
      <trkpt lat="46.83459" lon="3.17713">
        <ele>225.71821594238</ele>
        <time>2016-02-07T08:32:31.000Z</time>
      </trkpt>
      <trkpt lat="46.83458" lon="3.17714">
        <ele>225.74594116211</ele>
        <time>2016-02-07T08:32:33.000Z</time>
      </trkpt>
      <trkpt lat="46.83455" lon="3.17715">
        <ele>225.77507019043</ele>
        <time>2016-02-07T08:32:36.000Z</time>
      </trkpt>
      <trkpt lat="46.83453" lon="3.17715">
        <ele>225.80146789551</ele>
        <time>2016-02-07T08:32:39.000Z</time>
      </trkpt>
      <trkpt lat="46.83451" lon="3.17718">
        <ele>225.83564758301</ele>
        <time>2016-02-07T08:32:41.000Z</time>
      </trkpt>
      <trkpt lat="46.83449" lon="3.17721">
        <ele>225.88000488281</ele>
        <time>2016-02-07T08:32:44.000Z</time>
      </trkpt>
      <trkpt lat="46.83445" lon="3.17723">
        <ele>225.94718933105</ele>
        <time>2016-02-07T08:32:47.000Z</time>
      </trkpt>
      <trkpt lat="46.83443" lon="3.17724">
        <ele>226.01840209961</ele>
        <time>2016-02-07T08:32:49.000Z</time>
      </trkpt>
      <trkpt lat="46.8344" lon="3.17727">
        <ele>226.11372375488</ele>
        <time>2016-02-07T08:32:52.000Z</time>
      </trkpt>
      <trkpt lat="46.83438" lon="3.17729">
        <ele>226.20889282227</ele>
        <time>2016-02-07T08:32:58.000Z</time>
      </trkpt>
      <trkpt lat="46.8344" lon="3.17733">
        <ele>226.30020141602</ele>
        <time>2016-02-07T08:33:10.000Z</time>
      </trkpt>
      <trkpt lat="46.83438" lon="3.17732">
        <ele>226.37197875977</ele>
        <time>2016-02-07T08:33:12.000Z</time>
      </trkpt>
      <trkpt lat="46.83437" lon="3.1773">
        <ele>226.42626953125</ele>
        <time>2016-02-07T08:33:21.000Z</time>
      </trkpt>
      <trkpt lat="46.83434" lon="3.1773">
        <ele>226.47229003906</ele>
        <time>2016-02-07T08:33:26.000Z</time>
      </trkpt>
      <trkpt lat="46.83433" lon="3.17731">
        <ele>226.51953125</ele>
        <time>2016-02-07T08:33:28.000Z</time>
      </trkpt>
      <trkpt lat="46.83429" lon="3.17733">
        <ele>226.59463500977</ele>
        <time>2016-02-07T08:33:31.000Z</time>
      </trkpt>
      <trkpt lat="46.83427" lon="3.17734">
        <ele>226.67988586426</ele>
        <time>2016-02-07T08:33:33.000Z</time>
      </trkpt>
      <trkpt lat="46.83424" lon="3.17735">
        <ele>226.79731750488</ele>
        <time>2016-02-07T08:33:37.000Z</time>
      </trkpt>
      <trkpt lat="46.83423" lon="3.17736">
        <ele>226.90628051758</ele>
        <time>2016-02-07T08:33:39.000Z</time>
      </trkpt>
      <trkpt lat="46.83418" lon="3.17738">
        <ele>227.05290222168</ele>
        <time>2016-02-07T08:33:42.000Z</time>
      </trkpt>
      <trkpt lat="46.83416" lon="3.17738">
        <ele>227.16069030762</ele>
        <time>2016-02-07T08:33:44.000Z</time>
      </trkpt>
      <trkpt lat="46.83413" lon="3.1774">
        <ele>227.22610473633</ele>
        <time>2016-02-07T08:33:47.000Z</time>
      </trkpt>
      <trkpt lat="46.83411" lon="3.1774">
        <ele>227.25012207031</ele>
        <time>2016-02-07T08:33:49.000Z</time>
      </trkpt>
      <trkpt lat="46.8341" lon="3.17741">
        <ele>227.25390625</ele>
        <time>2016-02-07T08:33:53.000Z</time>
      </trkpt>
      <trkpt lat="46.83408" lon="3.17746">
        <ele>227.20761108398</ele>
        <time>2016-02-07T08:33:54.000Z</time>
      </trkpt>
      <trkpt lat="46.83404" lon="3.1775">
        <ele>227.15121459961</ele>
        <time>2016-02-07T08:33:57.000Z</time>
      </trkpt>
      <trkpt lat="46.834" lon="3.17756">
        <ele>227.03298950195</ele>
        <time>2016-02-07T08:34:02.000Z</time>
      </trkpt>
      <trkpt lat="46.83396" lon="3.1776">
        <ele>226.85604858398</ele>
        <time>2016-02-07T08:34:05.000Z</time>
      </trkpt>
      <trkpt lat="46.83393" lon="3.17764">
        <ele>226.62057495117</ele>
        <time>2016-02-07T08:34:08.000Z</time>
      </trkpt>
      <trkpt lat="46.83392" lon="3.17764">
        <ele>226.35998535156</ele>
        <time>2016-02-07T08:34:10.000Z</time>
      </trkpt>
      <trkpt lat="46.83388" lon="3.1777">
        <ele>226.03198242188</ele>
        <time>2016-02-07T08:34:13.000Z</time>
      </trkpt>
      <trkpt lat="46.83385" lon="3.17773">
        <ele>225.73181152344</ele>
        <time>2016-02-07T08:34:15.000Z</time>
      </trkpt>
      <trkpt lat="46.83382" lon="3.17776">
        <ele>225.44775390625</ele>
        <time>2016-02-07T08:34:20.000Z</time>
      </trkpt>
      <trkpt lat="46.83378" lon="3.17778">
        <ele>225.16271972656</ele>
        <time>2016-02-07T08:34:23.000Z</time>
      </trkpt>
      <trkpt lat="46.83377" lon="3.1778">
        <ele>224.87927246094</ele>
        <time>2016-02-07T08:34:25.000Z</time>
      </trkpt>
      <trkpt lat="46.83374" lon="3.17781">
        <ele>224.630859375</ele>
        <time>2016-02-07T08:34:27.000Z</time>
      </trkpt>
      <trkpt lat="46.83371" lon="3.17786">
        <ele>224.36694335938</ele>
        <time>2016-02-07T08:34:31.000Z</time>
      </trkpt>
      <trkpt lat="46.83369" lon="3.1779">
        <ele>224.12744140625</ele>
        <time>2016-02-07T08:34:33.000Z</time>
      </trkpt>
      <trkpt lat="46.83368" lon="3.17794">
        <ele>223.90515136719</ele>
        <time>2016-02-07T08:34:36.000Z</time>
      </trkpt>
      <trkpt lat="46.83362" lon="3.17796">
        <ele>223.61450195312</ele>
        <time>2016-02-07T08:34:41.000Z</time>
      </trkpt>
      <trkpt lat="46.83361" lon="3.17797">
        <ele>223.34680175781</ele>
        <time>2016-02-07T08:34:44.000Z</time>
      </trkpt>
      <trkpt lat="46.83358" lon="3.17798">
        <ele>223.10217285156</ele>
        <time>2016-02-07T08:34:46.000Z</time>
      </trkpt>
      <trkpt lat="46.83355" lon="3.17799">
        <ele>222.84509277344</ele>
        <time>2016-02-07T08:34:52.000Z</time>
      </trkpt>
      <trkpt lat="46.83354" lon="3.178">
        <ele>222.61535644531</ele>
        <time>2016-02-07T08:34:54.000Z</time>
      </trkpt>
      <trkpt lat="46.83353" lon="3.17801">
        <ele>222.4580078125</ele>
        <time>2016-02-07T08:34:57.000Z</time>
      </trkpt>
      <trkpt lat="46.8335" lon="3.17805">
        <ele>222.25341796875</ele>
        <time>2016-02-07T08:35:00.000Z</time>
      </trkpt>
      <trkpt lat="46.83344" lon="3.17809">
        <ele>222.00756835938</ele>
        <time>2016-02-07T08:35:05.000Z</time>
      </trkpt>
      <trkpt lat="46.83337" lon="3.17812">
        <ele>221.68017578125</ele>
        <time>2016-02-07T08:35:08.000Z</time>
      </trkpt>
      <trkpt lat="46.83331" lon="3.17815">
        <ele>221.31616210938</ele>
        <time>2016-02-07T08:35:11.000Z</time>
      </trkpt>
      <trkpt lat="46.83329" lon="3.17816">
        <ele>220.95962524414</ele>
        <time>2016-02-07T08:35:13.000Z</time>
      </trkpt>
      <trkpt lat="46.83325" lon="3.17819">
        <ele>220.65469360352</ele>
        <time>2016-02-07T08:35:16.000Z</time>
      </trkpt>
      <trkpt lat="46.83321" lon="3.17823">
        <ele>220.42333984375</ele>
        <time>2016-02-07T08:35:19.000Z</time>
      </trkpt>
      <trkpt lat="46.83318" lon="3.17828">
        <ele>220.30110168457</ele>
        <time>2016-02-07T08:35:22.000Z</time>
      </trkpt>
      <trkpt lat="46.83316" lon="3.17829">
        <ele>220.23013305664</ele>
        <time>2016-02-07T08:35:25.000Z</time>
      </trkpt>
      <trkpt lat="46.83313" lon="3.17832">
        <ele>220.15437316895</ele>
        <time>2016-02-07T08:35:27.000Z</time>
      </trkpt>
      <trkpt lat="46.83308" lon="3.17836">
        <ele>220.07528686523</ele>
        <time>2016-02-07T08:35:30.000Z</time>
      </trkpt>
      <trkpt lat="46.83304" lon="3.17838">
        <ele>219.9997253418</ele>
        <time>2016-02-07T08:35:36.000Z</time>
      </trkpt>
      <trkpt lat="46.83301" lon="3.17841">
        <ele>219.92097473145</ele>
        <time>2016-02-07T08:35:39.000Z</time>
      </trkpt>
      <trkpt lat="46.83298" lon="3.17843">
        <ele>219.83847045898</ele>
        <time>2016-02-07T08:35:42.000Z</time>
      </trkpt>
      <trkpt lat="46.83295" lon="3.17844">
        <ele>219.76113891602</ele>
        <time>2016-02-07T08:35:44.000Z</time>
      </trkpt>
      <trkpt lat="46.83293" lon="3.17846">
        <ele>219.68481445312</ele>
        <time>2016-02-07T08:35:48.000Z</time>
      </trkpt>
      <trkpt lat="46.83291" lon="3.17849">
        <ele>219.60327148438</ele>
        <time>2016-02-07T08:35:49.000Z</time>
      </trkpt>
      <trkpt lat="46.83287" lon="3.17854">
        <ele>219.50370788574</ele>
        <time>2016-02-07T08:35:51.000Z</time>
      </trkpt>
      <trkpt lat="46.83282" lon="3.17858">
        <ele>219.37600708008</ele>
        <time>2016-02-07T08:35:54.000Z</time>
      </trkpt>
      <trkpt lat="46.83279" lon="3.17862">
        <ele>219.21899414062</ele>
        <time>2016-02-07T08:35:57.000Z</time>
      </trkpt>
      <trkpt lat="46.83276" lon="3.17865">
        <ele>219.05598449707</ele>
        <time>2016-02-07T08:36:00.000Z</time>
      </trkpt>
      <trkpt lat="46.83274" lon="3.17865">
        <ele>218.91030883789</ele>
        <time>2016-02-07T08:36:02.000Z</time>
      </trkpt>
      <trkpt lat="46.8327" lon="3.17868">
        <ele>218.77055358887</ele>
        <time>2016-02-07T08:36:05.000Z</time>
      </trkpt>
      <trkpt lat="46.83267" lon="3.1787">
        <ele>218.64482116699</ele>
        <time>2016-02-07T08:36:07.000Z</time>
      </trkpt>
      <trkpt lat="46.83265" lon="3.17872">
        <ele>218.53689575195</ele>
        <time>2016-02-07T08:36:10.000Z</time>
      </trkpt>
      <trkpt lat="46.83261" lon="3.17876">
        <ele>218.41018676758</ele>
        <time>2016-02-07T08:36:13.000Z</time>
      </trkpt>
      <trkpt lat="46.83259" lon="3.17877">
        <ele>218.27493286133</ele>
        <time>2016-02-07T08:36:15.000Z</time>
      </trkpt>
      <trkpt lat="46.83256" lon="3.17879">
        <ele>218.14413452148</ele>
        <time>2016-02-07T08:36:18.000Z</time>
      </trkpt>
      <trkpt lat="46.83252" lon="3.17883">
        <ele>217.99096679688</ele>
        <time>2016-02-07T08:36:20.000Z</time>
      </trkpt>
      <trkpt lat="46.83251" lon="3.17883">
        <ele>217.85400390625</ele>
        <time>2016-02-07T08:36:22.000Z</time>
      </trkpt>
      <trkpt lat="46.83249" lon="3.17883">
        <ele>217.75614929199</ele>
        <time>2016-02-07T08:36:25.000Z</time>
      </trkpt>
      <trkpt lat="46.83246" lon="3.17884">
        <ele>217.65727233887</ele>
        <time>2016-02-07T08:36:31.000Z</time>
      </trkpt>
      <trkpt lat="46.83239" lon="3.17891">
        <ele>217.51895141602</ele>
        <time>2016-02-07T08:36:31.000Z</time>
      </trkpt>
      <trkpt lat="46.83234" lon="3.17894">
        <ele>217.40055847168</ele>
        <time>2016-02-07T08:36:34.000Z</time>
      </trkpt>
      <trkpt lat="46.83232" lon="3.17895">
        <ele>217.27572631836</ele>
        <time>2016-02-07T08:36:36.000Z</time>
      </trkpt>
      <trkpt lat="46.83231" lon="3.17894">
        <ele>217.15884399414</ele>
        <time>2016-02-07T08:36:39.000Z</time>
      </trkpt>
      <trkpt lat="46.8323" lon="3.17894">
        <ele>217.05647277832</ele>
        <time>2016-02-07T08:36:42.000Z</time>
      </trkpt>
      <trkpt lat="46.83229" lon="3.17891">
        <ele>217.04606628418</ele>
        <time>2016-02-07T08:36:43.000Z</time>
      </trkpt>
      <trkpt lat="46.8323" lon="3.1789">
        <ele>217.07600402832</ele>
        <time>2016-02-07T08:36:46.000Z</time>
      </trkpt>
      <trkpt lat="46.83229" lon="3.17891">
        <ele>217.10400390625</ele>
        <time>2016-02-07T08:36:52.000Z</time>
      </trkpt>
      <trkpt lat="46.83229" lon="3.17893">
        <ele>217.10908508301</ele>
        <time>2016-02-07T08:36:54.000Z</time>
      </trkpt>
      <trkpt lat="46.83229" lon="3.17895">
        <ele>217.09480285645</ele>
        <time>2016-02-07T08:36:57.000Z</time>
      </trkpt>
      <trkpt lat="46.83228" lon="3.17898">
        <ele>217.03897094727</ele>
        <time>2016-02-07T08:36:59.000Z</time>
      </trkpt>
      <trkpt lat="46.83227" lon="3.17899">
        <ele>216.9593963623</ele>
        <time>2016-02-07T08:37:02.000Z</time>
      </trkpt>
      <trkpt lat="46.83226" lon="3.17899">
        <ele>216.89218139648</ele>
        <time>2016-02-07T08:37:04.000Z</time>
      </trkpt>
      <trkpt lat="46.83226" lon="3.17901">
        <ele>216.82255554199</ele>
        <time>2016-02-07T08:37:13.000Z</time>
      </trkpt>
      <trkpt lat="46.83224" lon="3.17903">
        <ele>216.75679016113</ele>
        <time>2016-02-07T08:37:20.000Z</time>
      </trkpt>
      <trkpt lat="46.83221" lon="3.17905">
        <ele>216.68379211426</ele>
        <time>2016-02-07T08:37:23.000Z</time>
      </trkpt>
      <trkpt lat="46.83219" lon="3.17906">
        <ele>216.61315917969</ele>
        <time>2016-02-07T08:37:26.000Z</time>
      </trkpt>
      <trkpt lat="46.83216" lon="3.17906">
        <ele>216.54455566406</ele>
        <time>2016-02-07T08:37:28.000Z</time>
      </trkpt>
      <trkpt lat="46.83213" lon="3.17906">
        <ele>216.49601745605</ele>
        <time>2016-02-07T08:37:31.000Z</time>
      </trkpt>
      <trkpt lat="46.83211" lon="3.17907">
        <ele>216.4541015625</ele>
        <time>2016-02-07T08:37:33.000Z</time>
      </trkpt>
      <trkpt lat="46.83207" lon="3.17908">
        <ele>216.42610168457</ele>
        <time>2016-02-07T08:37:36.000Z</time>
      </trkpt>
      <trkpt lat="46.83204" lon="3.17909">
        <ele>216.39883422852</ele>
        <time>2016-02-07T08:37:39.000Z</time>
      </trkpt>
      <trkpt lat="46.832" lon="3.1791">
        <ele>216.36157226562</ele>
        <time>2016-02-07T08:37:42.000Z</time>
      </trkpt>
      <trkpt lat="46.83197" lon="3.1791">
        <ele>216.32482910156</ele>
        <time>2016-02-07T08:37:45.000Z</time>
      </trkpt>
      <trkpt lat="46.83195" lon="3.17913">
        <ele>216.26815795898</ele>
        <time>2016-02-07T08:37:48.000Z</time>
      </trkpt>
      <trkpt lat="46.83193" lon="3.17917">
        <ele>216.19563293457</ele>
        <time>2016-02-07T08:37:50.000Z</time>
      </trkpt>
      <trkpt lat="46.83189" lon="3.17921">
        <ele>216.11050415039</ele>
        <time>2016-02-07T08:37:53.000Z</time>
      </trkpt>
      <trkpt lat="46.83186" lon="3.17925">
        <ele>216.01655578613</ele>
        <time>2016-02-07T08:37:56.000Z</time>
      </trkpt>
      <trkpt lat="46.83184" lon="3.17928">
        <ele>215.90744018555</ele>
        <time>2016-02-07T08:37:58.000Z</time>
      </trkpt>
      <trkpt lat="46.83179" lon="3.1793">
        <ele>215.8154296875</ele>
        <time>2016-02-07T08:38:00.000Z</time>
      </trkpt>
      <trkpt lat="46.83178" lon="3.17931">
        <ele>215.74975585938</ele>
        <time>2016-02-07T08:38:03.000Z</time>
      </trkpt>
      <trkpt lat="46.83171" lon="3.17934">
        <ele>215.69140625</ele>
        <time>2016-02-07T08:38:06.000Z</time>
      </trkpt>
      <trkpt lat="46.83168" lon="3.17936">
        <ele>215.63916015625</ele>
        <time>2016-02-07T08:38:09.000Z</time>
      </trkpt>
      <trkpt lat="46.83165" lon="3.17937">
        <ele>215.59518432617</ele>
        <time>2016-02-07T08:38:11.000Z</time>
      </trkpt>
      <trkpt lat="46.83165" lon="3.17939">
        <ele>215.55085754395</ele>
        <time>2016-02-07T08:38:14.000Z</time>
      </trkpt>
      <trkpt lat="46.83163" lon="3.17943">
        <ele>215.48429870605</ele>
        <time>2016-02-07T08:38:16.000Z</time>
      </trkpt>
      <trkpt lat="46.83162" lon="3.17945">
        <ele>215.42178344727</ele>
        <time>2016-02-07T08:38:19.000Z</time>
      </trkpt>
      <trkpt lat="46.83158" lon="3.17951">
        <ele>215.32958984375</ele>
        <time>2016-02-07T08:38:21.000Z</time>
      </trkpt>
      <trkpt lat="46.83157" lon="3.17953">
        <ele>215.23193359375</ele>
        <time>2016-02-07T08:38:24.000Z</time>
      </trkpt>
      <trkpt lat="46.83155" lon="3.17954">
        <ele>215.13366699219</ele>
        <time>2016-02-07T08:38:26.000Z</time>
      </trkpt>
      <trkpt lat="46.83152" lon="3.17957">
        <ele>215.04016113281</ele>
        <time>2016-02-07T08:38:28.000Z</time>
      </trkpt>
      <trkpt lat="46.83151" lon="3.17958">
        <ele>214.9501953125</ele>
        <time>2016-02-07T08:38:31.000Z</time>
      </trkpt>
      <trkpt lat="46.83148" lon="3.17961">
        <ele>214.875</ele>
        <time>2016-02-07T08:38:33.000Z</time>
      </trkpt>
      <trkpt lat="46.83143" lon="3.17964">
        <ele>214.78759765625</ele>
        <time>2016-02-07T08:38:37.000Z</time>
      </trkpt>
      <trkpt lat="46.83139" lon="3.17966">
        <ele>214.69409179688</ele>
        <time>2016-02-07T08:38:39.000Z</time>
      </trkpt>
      <trkpt lat="46.83137" lon="3.17968">
        <ele>214.60290527344</ele>
        <time>2016-02-07T08:38:42.000Z</time>
      </trkpt>
      <trkpt lat="46.83134" lon="3.17972">
        <ele>214.49328613281</ele>
        <time>2016-02-07T08:38:44.000Z</time>
      </trkpt>
      <trkpt lat="46.83132" lon="3.17974">
        <ele>214.39135742188</ele>
        <time>2016-02-07T08:38:46.000Z</time>
      </trkpt>
      <trkpt lat="46.8313" lon="3.17976">
        <ele>214.30395507812</ele>
        <time>2016-02-07T08:38:48.000Z</time>
      </trkpt>
      <trkpt lat="46.83126" lon="3.17976">
        <ele>214.22192382812</ele>
        <time>2016-02-07T08:38:51.000Z</time>
      </trkpt>
      <trkpt lat="46.83125" lon="3.17978">
        <ele>214.14636230469</ele>
        <time>2016-02-07T08:38:54.000Z</time>
      </trkpt>
      <trkpt lat="46.8312" lon="3.17978">
        <ele>214.08435058594</ele>
        <time>2016-02-07T08:38:57.000Z</time>
      </trkpt>
      <trkpt lat="46.83119" lon="3.17978">
        <ele>214.03588867188</ele>
        <time>2016-02-07T08:38:59.000Z</time>
      </trkpt>
      <trkpt lat="46.83116" lon="3.17979">
        <ele>213.98681640625</ele>
        <time>2016-02-07T08:39:02.000Z</time>
      </trkpt>
      <trkpt lat="46.83113" lon="3.1798">
        <ele>213.9404296875</ele>
        <time>2016-02-07T08:39:04.000Z</time>
      </trkpt>
      <trkpt lat="46.83111" lon="3.17981">
        <ele>213.89306640625</ele>
        <time>2016-02-07T08:39:06.000Z</time>
      </trkpt>
      <trkpt lat="46.83109" lon="3.17981">
        <ele>213.84826660156</ele>
        <time>2016-02-07T08:39:09.000Z</time>
      </trkpt>
      <trkpt lat="46.83107" lon="3.17983">
        <ele>213.79541015625</ele>
        <time>2016-02-07T08:39:11.000Z</time>
      </trkpt>
      <trkpt lat="46.83103" lon="3.17986">
        <ele>213.73095703125</ele>
        <time>2016-02-07T08:39:14.000Z</time>
      </trkpt>
      <trkpt lat="46.831" lon="3.17986">
        <ele>213.66589355469</ele>
        <time>2016-02-07T08:39:16.000Z</time>
      </trkpt>
      <trkpt lat="46.83097" lon="3.17991">
        <ele>213.5830078125</ele>
        <time>2016-02-07T08:39:19.000Z</time>
      </trkpt>
      <trkpt lat="46.83093" lon="3.17994">
        <ele>213.48400878906</ele>
        <time>2016-02-07T08:39:22.000Z</time>
      </trkpt>
      <trkpt lat="46.8309" lon="3.17998">
        <ele>213.37097167969</ele>
        <time>2016-02-07T08:39:25.000Z</time>
      </trkpt>
      <trkpt lat="46.83087" lon="3.18001">
        <ele>213.2529296875</ele>
        <time>2016-02-07T08:39:29.000Z</time>
      </trkpt>
      <trkpt lat="46.83086" lon="3.18003">
        <ele>213.12854003906</ele>
        <time>2016-02-07T08:39:31.000Z</time>
      </trkpt>
      <trkpt lat="46.83083" lon="3.18009">
        <ele>212.96716308594</ele>
        <time>2016-02-07T08:39:34.000Z</time>
      </trkpt>
      <trkpt lat="46.83079" lon="3.18013">
        <ele>212.81826782227</ele>
        <time>2016-02-07T08:39:36.000Z</time>
      </trkpt>
      <trkpt lat="46.83076" lon="3.18017">
        <ele>212.66958618164</ele>
        <time>2016-02-07T08:39:39.000Z</time>
      </trkpt>
      <trkpt lat="46.83075" lon="3.18019">
        <ele>212.5403137207</ele>
        <time>2016-02-07T08:39:42.000Z</time>
      </trkpt>
      <trkpt lat="46.83071" lon="3.18028">
        <ele>212.37414550781</ele>
        <time>2016-02-07T08:39:45.000Z</time>
      </trkpt>
      <trkpt lat="46.83068" lon="3.18031">
        <ele>212.26835632324</ele>
        <time>2016-02-07T08:39:48.000Z</time>
      </trkpt>
      <trkpt lat="46.83064" lon="3.18034">
        <ele>212.17265319824</ele>
        <time>2016-02-07T08:39:53.000Z</time>
      </trkpt>
      <trkpt lat="46.83063" lon="3.18035">
        <ele>212.09970092773</ele>
        <time>2016-02-07T08:39:56.000Z</time>
      </trkpt>
      <trkpt lat="46.83061" lon="3.18036">
        <ele>212.03799438477</ele>
        <time>2016-02-07T08:40:05.000Z</time>
      </trkpt>
      <trkpt lat="46.83058" lon="3.18037">
        <ele>212.04556274414</ele>
        <time>2016-02-07T08:40:13.000Z</time>
      </trkpt>
      <trkpt lat="46.83058" lon="3.18037">
        <ele>212.04556274414</ele>
        <time>2016-02-07T08:40:33.000Z</time>
      </trkpt>
      <trkpt lat="46.83056" lon="3.18037">
        <ele>212.07336425781</ele>
        <time>2016-02-07T08:41:08.000Z</time>
      </trkpt>
      <trkpt lat="46.83055" lon="3.18037">
        <ele>212.1051940918</ele>
        <time>2016-02-07T08:41:10.000Z</time>
      </trkpt>
      <trkpt lat="46.83051" lon="3.1804">
        <ele>212.15176391602</ele>
        <time>2016-02-07T08:41:16.000Z</time>
      </trkpt>
      <trkpt lat="46.83048" lon="3.18043">
        <ele>212.19438171387</ele>
        <time>2016-02-07T08:41:20.000Z</time>
      </trkpt>
      <trkpt lat="46.83042" lon="3.18041">
        <ele>212.27388000488</ele>
        <time>2016-02-07T08:41:31.000Z</time>
      </trkpt>
      <trkpt lat="46.83041" lon="3.18041">
        <ele>212.34603881836</ele>
        <time>2016-02-07T08:41:33.000Z</time>
      </trkpt>
      <trkpt lat="46.83032" lon="3.18042">
        <ele>212.4741973877</ele>
        <time>2016-02-07T08:41:36.000Z</time>
      </trkpt>
      <trkpt lat="46.8303" lon="3.1804">
        <ele>212.6254119873</ele>
        <time>2016-02-07T08:41:38.000Z</time>
      </trkpt>
      <trkpt lat="46.83027" lon="3.18035">
        <ele>212.82775878906</ele>
        <time>2016-02-07T08:41:41.000Z</time>
      </trkpt>
      <trkpt lat="46.83026" lon="3.18031">
        <ele>213.00749206543</ele>
        <time>2016-02-07T08:41:43.000Z</time>
      </trkpt>
      <trkpt lat="46.83026" lon="3.18027">
        <ele>213.20695495605</ele>
        <time>2016-02-07T08:41:46.000Z</time>
      </trkpt>
      <trkpt lat="46.83025" lon="3.18026">
        <ele>213.36413574219</ele>
        <time>2016-02-07T08:41:48.000Z</time>
      </trkpt>
      <trkpt lat="46.83023" lon="3.18021">
        <ele>213.52323913574</ele>
        <time>2016-02-07T08:41:51.000Z</time>
      </trkpt>
      <trkpt lat="46.8302" lon="3.18016">
        <ele>213.67810058594</ele>
        <time>2016-02-07T08:41:54.000Z</time>
      </trkpt>
      <trkpt lat="46.83018" lon="3.1801">
        <ele>213.85678100586</ele>
        <time>2016-02-07T08:41:57.000Z</time>
      </trkpt>
      <trkpt lat="46.83017" lon="3.18003">
        <ele>214.04887390137</ele>
        <time>2016-02-07T08:42:00.000Z</time>
      </trkpt>
      <trkpt lat="46.83017" lon="3.17999">
        <ele>214.24629211426</ele>
        <time>2016-02-07T08:42:02.000Z</time>
      </trkpt>
      <trkpt lat="46.83015" lon="3.17995">
        <ele>214.4169921875</ele>
        <time>2016-02-07T08:42:04.000Z</time>
      </trkpt>
      <trkpt lat="46.83013" lon="3.1799">
        <ele>214.55546569824</ele>
        <time>2016-02-07T08:42:07.000Z</time>
      </trkpt>
      <trkpt lat="46.83013" lon="3.17986">
        <ele>214.64555358887</ele>
        <time>2016-02-07T08:42:10.000Z</time>
      </trkpt>
      <trkpt lat="46.83011" lon="3.17979">
        <ele>214.70651245117</ele>
        <time>2016-02-07T08:42:13.000Z</time>
      </trkpt>
      <trkpt lat="46.8301" lon="3.17973">
        <ele>214.75247192383</ele>
        <time>2016-02-07T08:42:16.000Z</time>
      </trkpt>
      <trkpt lat="46.8301" lon="3.17969">
        <ele>214.79023742676</ele>
        <time>2016-02-07T08:42:19.000Z</time>
      </trkpt>
      <trkpt lat="46.83009" lon="3.17966">
        <ele>214.82104492188</ele>
        <time>2016-02-07T08:42:22.000Z</time>
      </trkpt>
      <trkpt lat="46.83007" lon="3.1796">
        <ele>214.85513305664</ele>
        <time>2016-02-07T08:42:26.000Z</time>
      </trkpt>
      <trkpt lat="46.83006" lon="3.17956">
        <ele>214.88175964355</ele>
        <time>2016-02-07T08:42:27.000Z</time>
      </trkpt>
      <trkpt lat="46.83006" lon="3.17952">
        <ele>214.90266418457</ele>
        <time>2016-02-07T08:42:29.000Z</time>
      </trkpt>
      <trkpt lat="46.83005" lon="3.17947">
        <ele>214.92529296875</ele>
        <time>2016-02-07T08:42:31.000Z</time>
      </trkpt>
      <trkpt lat="46.83003" lon="3.17943">
        <ele>214.94563293457</ele>
        <time>2016-02-07T08:42:34.000Z</time>
      </trkpt>
      <trkpt lat="46.83001" lon="3.1794">
        <ele>214.96084594727</ele>
        <time>2016-02-07T08:42:36.000Z</time>
      </trkpt>
      <trkpt lat="46.83" lon="3.17936">
        <ele>214.97720336914</ele>
        <time>2016-02-07T08:42:39.000Z</time>
      </trkpt>
      <trkpt lat="46.82998" lon="3.17931">
        <ele>215.0132598877</ele>
        <time>2016-02-07T08:42:42.000Z</time>
      </trkpt>
      <trkpt lat="46.82997" lon="3.17927">
        <ele>215.04870605469</ele>
        <time>2016-02-07T08:42:44.000Z</time>
      </trkpt>
      <trkpt lat="46.82995" lon="3.17923">
        <ele>215.09997558594</ele>
        <time>2016-02-07T08:42:46.000Z</time>
      </trkpt>
      <trkpt lat="46.82993" lon="3.17918">
        <ele>215.16706848145</ele>
        <time>2016-02-07T08:42:48.000Z</time>
      </trkpt>
      <trkpt lat="46.82993" lon="3.17912">
        <ele>215.26020812988</ele>
        <time>2016-02-07T08:42:51.000Z</time>
      </trkpt>
      <trkpt lat="46.82993" lon="3.17905">
        <ele>215.38076782227</ele>
        <time>2016-02-07T08:42:54.000Z</time>
      </trkpt>
      <trkpt lat="46.82992" lon="3.17901">
        <ele>215.52079772949</ele>
        <time>2016-02-07T08:42:57.000Z</time>
      </trkpt>
      <trkpt lat="46.8299" lon="3.17897">
        <ele>215.68505859375</ele>
        <time>2016-02-07T08:43:00.000Z</time>
      </trkpt>
      <trkpt lat="46.8299" lon="3.17892">
        <ele>215.85551452637</ele>
        <time>2016-02-07T08:43:02.000Z</time>
      </trkpt>
      <trkpt lat="46.82989" lon="3.17886">
        <ele>216.03385925293</ele>
        <time>2016-02-07T08:43:05.000Z</time>
      </trkpt>
      <trkpt lat="46.82989" lon="3.17883">
        <ele>216.18545532227</ele>
        <time>2016-02-07T08:43:07.000Z</time>
      </trkpt>
      <trkpt lat="46.82986" lon="3.17878">
        <ele>216.34774780273</ele>
        <time>2016-02-07T08:43:10.000Z</time>
      </trkpt>
      <trkpt lat="46.82986" lon="3.17873">
        <ele>216.49813842773</ele>
        <time>2016-02-07T08:43:13.000Z</time>
      </trkpt>
      <trkpt lat="46.82985" lon="3.1787">
        <ele>216.64274597168</ele>
        <time>2016-02-07T08:43:15.000Z</time>
      </trkpt>
      <trkpt lat="46.82984" lon="3.17866">
        <ele>216.7718963623</ele>
        <time>2016-02-07T08:43:18.000Z</time>
      </trkpt>
      <trkpt lat="46.82982" lon="3.17864">
        <ele>216.88973999023</ele>
        <time>2016-02-07T08:43:20.000Z</time>
      </trkpt>
      <trkpt lat="46.82981" lon="3.17863">
        <ele>216.98425292969</ele>
        <time>2016-02-07T08:43:23.000Z</time>
      </trkpt>
      <trkpt lat="46.82979" lon="3.17859">
        <ele>217.06582641602</ele>
        <time>2016-02-07T08:43:26.000Z</time>
      </trkpt>
      <trkpt lat="46.82978" lon="3.17852">
        <ele>217.15519714355</ele>
        <time>2016-02-07T08:43:29.000Z</time>
      </trkpt>
      <trkpt lat="46.82976" lon="3.17847">
        <ele>217.24182128906</ele>
        <time>2016-02-07T08:43:32.000Z</time>
      </trkpt>
      <trkpt lat="46.82975" lon="3.17845">
        <ele>217.32788085938</ele>
        <time>2016-02-07T08:43:34.000Z</time>
      </trkpt>
      <trkpt lat="46.82974" lon="3.17841">
        <ele>217.41592407227</ele>
        <time>2016-02-07T08:43:37.000Z</time>
      </trkpt>
      <trkpt lat="46.82973" lon="3.17836">
        <ele>217.50117492676</ele>
        <time>2016-02-07T08:43:40.000Z</time>
      </trkpt>
      <trkpt lat="46.82972" lon="3.17831">
        <ele>217.58047485352</ele>
        <time>2016-02-07T08:43:43.000Z</time>
      </trkpt>
      <trkpt lat="46.82972" lon="3.17826">
        <ele>217.66748046875</ele>
        <time>2016-02-07T08:43:45.000Z</time>
      </trkpt>
      <trkpt lat="46.82971" lon="3.17823">
        <ele>217.76139831543</ele>
        <time>2016-02-07T08:43:47.000Z</time>
      </trkpt>
      <trkpt lat="46.82969" lon="3.1782">
        <ele>217.85986328125</ele>
        <time>2016-02-07T08:43:50.000Z</time>
      </trkpt>
      <trkpt lat="46.82966" lon="3.17817">
        <ele>217.94885253906</ele>
        <time>2016-02-07T08:43:53.000Z</time>
      </trkpt>
      <trkpt lat="46.82964" lon="3.17815">
        <ele>218.02360534668</ele>
        <time>2016-02-07T08:43:55.000Z</time>
      </trkpt>
      <trkpt lat="46.82961" lon="3.17812">
        <ele>218.08467102051</ele>
        <time>2016-02-07T08:43:58.000Z</time>
      </trkpt>
      <trkpt lat="46.8296" lon="3.17805">
        <ele>218.1643371582</ele>
        <time>2016-02-07T08:44:01.000Z</time>
      </trkpt>
      <trkpt lat="46.82957" lon="3.17801">
        <ele>218.24096679688</ele>
        <time>2016-02-07T08:44:04.000Z</time>
      </trkpt>
      <trkpt lat="46.82955" lon="3.17796">
        <ele>218.33340454102</ele>
        <time>2016-02-07T08:44:07.000Z</time>
      </trkpt>
      <trkpt lat="46.82952" lon="3.17793">
        <ele>218.43032836914</ele>
        <time>2016-02-07T08:44:10.000Z</time>
      </trkpt>
      <trkpt lat="46.82951" lon="3.1779">
        <ele>218.52827453613</ele>
        <time>2016-02-07T08:44:12.000Z</time>
      </trkpt>
      <trkpt lat="46.8295" lon="3.17787">
        <ele>218.59928894043</ele>
        <time>2016-02-07T08:44:14.000Z</time>
      </trkpt>
      <trkpt lat="46.82949" lon="3.17782">
        <ele>218.68461608887</ele>
        <time>2016-02-07T08:44:17.000Z</time>
      </trkpt>
      <trkpt lat="46.82949" lon="3.17777">
        <ele>218.77798461914</ele>
        <time>2016-02-07T08:44:20.000Z</time>
      </trkpt>
      <trkpt lat="46.82949" lon="3.17771">
        <ele>218.89218139648</ele>
        <time>2016-02-07T08:44:23.000Z</time>
      </trkpt>
      <trkpt lat="46.82948" lon="3.17768">
        <ele>219.00601196289</ele>
        <time>2016-02-07T08:44:25.000Z</time>
      </trkpt>
      <trkpt lat="46.82946" lon="3.17765">
        <ele>219.11975097656</ele>
        <time>2016-02-07T08:44:28.000Z</time>
      </trkpt>
      <trkpt lat="46.82943" lon="3.17762">
        <ele>219.20657348633</ele>
        <time>2016-02-07T08:44:31.000Z</time>
      </trkpt>
      <trkpt lat="46.82939" lon="3.17761">
        <ele>219.24682617188</ele>
        <time>2016-02-07T08:44:34.000Z</time>
      </trkpt>
      <trkpt lat="46.82938" lon="3.17759">
        <ele>219.26420593262</ele>
        <time>2016-02-07T08:44:36.000Z</time>
      </trkpt>
      <trkpt lat="46.82937" lon="3.17754">
        <ele>219.28768920898</ele>
        <time>2016-02-07T08:44:39.000Z</time>
      </trkpt>
      <trkpt lat="46.82936" lon="3.17752">
        <ele>219.31518554688</ele>
        <time>2016-02-07T08:44:41.000Z</time>
      </trkpt>
      <trkpt lat="46.82937" lon="3.17745">
        <ele>219.39863586426</ele>
        <time>2016-02-07T08:44:44.000Z</time>
      </trkpt>
      <trkpt lat="46.82935" lon="3.1774">
        <ele>219.53945922852</ele>
        <time>2016-02-07T08:44:47.000Z</time>
      </trkpt>
      <trkpt lat="46.82933" lon="3.17735">
        <ele>219.70401000977</ele>
        <time>2016-02-07T08:44:50.000Z</time>
      </trkpt>
      <trkpt lat="46.82932" lon="3.17729">
        <ele>219.8968963623</ele>
        <time>2016-02-07T08:44:53.000Z</time>
      </trkpt>
      <trkpt lat="46.8293" lon="3.17726">
        <ele>220.09292602539</ele>
        <time>2016-02-07T08:44:55.000Z</time>
      </trkpt>
      <trkpt lat="46.82927" lon="3.17724">
        <ele>220.24003601074</ele>
        <time>2016-02-07T08:44:58.000Z</time>
      </trkpt>
      <trkpt lat="46.82928" lon="3.17719">
        <ele>220.39682006836</ele>
        <time>2016-02-07T08:45:00.000Z</time>
      </trkpt>
      <trkpt lat="46.82926" lon="3.17716">
        <ele>220.53817749023</ele>
        <time>2016-02-07T08:45:03.000Z</time>
      </trkpt>
      <trkpt lat="46.82924" lon="3.17712">
        <ele>220.66146850586</ele>
        <time>2016-02-07T08:45:05.000Z</time>
      </trkpt>
      <trkpt lat="46.82921" lon="3.17709">
        <ele>220.79220581055</ele>
        <time>2016-02-07T08:45:08.000Z</time>
      </trkpt>
      <trkpt lat="46.82919" lon="3.17705">
        <ele>220.94021606445</ele>
        <time>2016-02-07T08:45:11.000Z</time>
      </trkpt>
      <trkpt lat="46.82918" lon="3.17702">
        <ele>221.06567382812</ele>
        <time>2016-02-07T08:45:14.000Z</time>
      </trkpt>
      <trkpt lat="46.82917" lon="3.177">
        <ele>221.18901062012</ele>
        <time>2016-02-07T08:45:16.000Z</time>
      </trkpt>
      <trkpt lat="46.82916" lon="3.17693">
        <ele>221.34875488281</ele>
        <time>2016-02-07T08:45:19.000Z</time>
      </trkpt>
      <trkpt lat="46.82916" lon="3.1769">
        <ele>221.51396179199</ele>
        <time>2016-02-07T08:45:21.000Z</time>
      </trkpt>
      <trkpt lat="46.82915" lon="3.17687">
        <ele>221.68237304688</ele>
        <time>2016-02-07T08:45:23.000Z</time>
      </trkpt>
      <trkpt lat="46.82915" lon="3.17683">
        <ele>221.86950683594</ele>
        <time>2016-02-07T08:45:26.000Z</time>
      </trkpt>
      <trkpt lat="46.82913" lon="3.1768">
        <ele>222.07109069824</ele>
        <time>2016-02-07T08:45:28.000Z</time>
      </trkpt>
      <trkpt lat="46.82913" lon="3.17675">
        <ele>222.2565612793</ele>
        <time>2016-02-07T08:45:31.000Z</time>
      </trkpt>
      <trkpt lat="46.82913" lon="3.17671">
        <ele>222.44580078125</ele>
        <time>2016-02-07T08:45:33.000Z</time>
      </trkpt>
      <trkpt lat="46.82912" lon="3.17668">
        <ele>222.64155578613</ele>
        <time>2016-02-07T08:45:36.000Z</time>
      </trkpt>
      <trkpt lat="46.82911" lon="3.17666">
        <ele>222.80618286133</ele>
        <time>2016-02-07T08:45:40.000Z</time>
      </trkpt>
      <trkpt lat="46.82911" lon="3.17666">
        <ele>222.80618286133</ele>
        <time>2016-02-07T08:46:00.000Z</time>
      </trkpt>
      <trkpt lat="46.82913" lon="3.17666">
        <ele>222.93843078613</ele>
        <time>2016-02-07T08:46:16.000Z</time>
      </trkpt>
      <trkpt lat="46.82913" lon="3.17664">
        <ele>223.04013061523</ele>
        <time>2016-02-07T08:46:28.000Z</time>
      </trkpt>
      <trkpt lat="46.82911" lon="3.17664">
        <ele>223.11152648926</ele>
        <time>2016-02-07T08:46:33.000Z</time>
      </trkpt>
      <trkpt lat="46.82909" lon="3.17665">
        <ele>223.14144897461</ele>
        <time>2016-02-07T08:46:39.000Z</time>
      </trkpt>
      <trkpt lat="46.82911" lon="3.17665">
        <ele>223.15560913086</ele>
        <time>2016-02-07T08:46:58.000Z</time>
      </trkpt>
      <trkpt lat="46.82912" lon="3.17665">
        <ele>223.16979980469</ele>
        <time>2016-02-07T08:47:01.000Z</time>
      </trkpt>
      <trkpt lat="46.82913" lon="3.17663">
        <ele>223.17924499512</ele>
        <time>2016-02-07T08:47:11.000Z</time>
      </trkpt>
      <trkpt lat="46.82912" lon="3.17662">
        <ele>223.20028686523</ele>
        <time>2016-02-07T08:47:22.000Z</time>
      </trkpt>
      <trkpt lat="46.82908" lon="3.17667">
        <ele>223.18148803711</ele>
        <time>2016-02-07T08:47:42.000Z</time>
      </trkpt>
      <trkpt lat="46.82905" lon="3.17672">
        <ele>223.13223266602</ele>
        <time>2016-02-07T08:47:52.000Z</time>
      </trkpt>
      <trkpt lat="46.82903" lon="3.17674">
        <ele>223.0764465332</ele>
        <time>2016-02-07T08:47:54.000Z</time>
      </trkpt>
      <trkpt lat="46.82901" lon="3.17672">
        <ele>223.02238464355</ele>
        <time>2016-02-07T08:48:06.000Z</time>
      </trkpt>
      <trkpt lat="46.82899" lon="3.17672">
        <ele>222.96179199219</ele>
        <time>2016-02-07T08:48:09.000Z</time>
      </trkpt>
      <trkpt lat="46.82899" lon="3.1767">
        <ele>222.96203613281</ele>
        <time>2016-02-07T08:48:11.000Z</time>
      </trkpt>
      <trkpt lat="46.82899" lon="3.17668">
        <ele>223.00790405273</ele>
        <time>2016-02-07T08:48:15.000Z</time>
      </trkpt>
      <trkpt lat="46.82899" lon="3.17665">
        <ele>223.0927734375</ele>
        <time>2016-02-07T08:48:17.000Z</time>
      </trkpt>
      <trkpt lat="46.82898" lon="3.17662">
        <ele>223.19177246094</ele>
        <time>2016-02-07T08:48:19.000Z</time>
      </trkpt>
      <trkpt lat="46.82897" lon="3.17658">
        <ele>223.32783508301</ele>
        <time>2016-02-07T08:48:22.000Z</time>
      </trkpt>
      <trkpt lat="46.82896" lon="3.17653">
        <ele>223.4947052002</ele>
        <time>2016-02-07T08:48:25.000Z</time>
      </trkpt>
      <trkpt lat="46.82895" lon="3.17652">
        <ele>223.65852355957</ele>
        <time>2016-02-07T08:48:28.000Z</time>
      </trkpt>
      <trkpt lat="46.82893" lon="3.17646">
        <ele>223.84365844727</ele>
        <time>2016-02-07T08:48:31.000Z</time>
      </trkpt>
      <trkpt lat="46.82891" lon="3.17639">
        <ele>224.06169128418</ele>
        <time>2016-02-07T08:48:34.000Z</time>
      </trkpt>
      <trkpt lat="46.8289" lon="3.17636">
        <ele>224.26127624512</ele>
        <time>2016-02-07T08:48:37.000Z</time>
      </trkpt>
      <trkpt lat="46.8289" lon="3.17631">
        <ele>224.45901489258</ele>
        <time>2016-02-07T08:48:40.000Z</time>
      </trkpt>
      <trkpt lat="46.82889" lon="3.17629">
        <ele>224.66450500488</ele>
        <time>2016-02-07T08:48:42.000Z</time>
      </trkpt>
      <trkpt lat="46.82886" lon="3.17624">
        <ele>224.85165405273</ele>
        <time>2016-02-07T08:48:45.000Z</time>
      </trkpt>
      <trkpt lat="46.82884" lon="3.1762">
        <ele>225.00674438477</ele>
        <time>2016-02-07T08:48:48.000Z</time>
      </trkpt>
      <trkpt lat="46.82884" lon="3.17615">
        <ele>225.17758178711</ele>
        <time>2016-02-07T08:48:50.000Z</time>
      </trkpt>
      <trkpt lat="46.82882" lon="3.17611">
        <ele>225.32987976074</ele>
        <time>2016-02-07T08:48:53.000Z</time>
      </trkpt>
      <trkpt lat="46.82881" lon="3.17607">
        <ele>225.49055480957</ele>
        <time>2016-02-07T08:48:56.000Z</time>
      </trkpt>
      <trkpt lat="46.8288" lon="3.17605">
        <ele>225.62850952148</ele>
        <time>2016-02-07T08:48:58.000Z</time>
      </trkpt>
      <trkpt lat="46.82877" lon="3.17601">
        <ele>225.74592590332</ele>
        <time>2016-02-07T08:49:01.000Z</time>
      </trkpt>
      <trkpt lat="46.82875" lon="3.17596">
        <ele>225.84663391113</ele>
        <time>2016-02-07T08:49:04.000Z</time>
      </trkpt>
      <trkpt lat="46.82873" lon="3.17594">
        <ele>225.92256164551</ele>
        <time>2016-02-07T08:49:06.000Z</time>
      </trkpt>
      <trkpt lat="46.82872" lon="3.1759">
        <ele>225.99714660645</ele>
        <time>2016-02-07T08:49:09.000Z</time>
      </trkpt>
      <trkpt lat="46.82872" lon="3.17584">
        <ele>226.09497070312</ele>
        <time>2016-02-07T08:49:12.000Z</time>
      </trkpt>
      <trkpt lat="46.82868" lon="3.17581">
        <ele>226.17680358887</ele>
        <time>2016-02-07T08:49:15.000Z</time>
      </trkpt>
      <trkpt lat="46.82866" lon="3.17579">
        <ele>226.22952270508</ele>
        <time>2016-02-07T08:49:17.000Z</time>
      </trkpt>
      <trkpt lat="46.82864" lon="3.17576">
        <ele>226.29118347168</ele>
        <time>2016-02-07T08:49:20.000Z</time>
      </trkpt>
      <trkpt lat="46.82863" lon="3.17569">
        <ele>226.36408996582</ele>
        <time>2016-02-07T08:49:22.000Z</time>
      </trkpt>
      <trkpt lat="46.82863" lon="3.17566">
        <ele>226.42346191406</ele>
        <time>2016-02-07T08:49:24.000Z</time>
      </trkpt>
      <trkpt lat="46.82862" lon="3.17562">
        <ele>226.50378417969</ele>
        <time>2016-02-07T08:49:27.000Z</time>
      </trkpt>
      <trkpt lat="46.82859" lon="3.17558">
        <ele>226.59350585938</ele>
        <time>2016-02-07T08:49:30.000Z</time>
      </trkpt>
      <trkpt lat="46.82858" lon="3.17556">
        <ele>226.67526245117</ele>
        <time>2016-02-07T08:49:32.000Z</time>
      </trkpt>
      <trkpt lat="46.82856" lon="3.17552">
        <ele>226.7350769043</ele>
        <time>2016-02-07T08:49:35.000Z</time>
      </trkpt>
      <trkpt lat="46.82855" lon="3.17548">
        <ele>226.79650878906</ele>
        <time>2016-02-07T08:49:38.000Z</time>
      </trkpt>
      <trkpt lat="46.82853" lon="3.17544">
        <ele>226.85549926758</ele>
        <time>2016-02-07T08:49:41.000Z</time>
      </trkpt>
      <trkpt lat="46.82851" lon="3.1754">
        <ele>226.92399597168</ele>
        <time>2016-02-07T08:49:44.000Z</time>
      </trkpt>
      <trkpt lat="46.82847" lon="3.17535">
        <ele>226.99935913086</ele>
        <time>2016-02-07T08:49:47.000Z</time>
      </trkpt>
      <trkpt lat="46.82844" lon="3.17532">
        <ele>227.06571960449</ele>
        <time>2016-02-07T08:49:50.000Z</time>
      </trkpt>
      <trkpt lat="46.82842" lon="3.17528">
        <ele>227.12870788574</ele>
        <time>2016-02-07T08:49:53.000Z</time>
      </trkpt>
      <trkpt lat="46.82841" lon="3.17525">
        <ele>227.18766784668</ele>
        <time>2016-02-07T08:49:56.000Z</time>
      </trkpt>
      <trkpt lat="46.8284" lon="3.17523">
        <ele>227.24404907227</ele>
        <time>2016-02-07T08:49:58.000Z</time>
      </trkpt>
      <trkpt lat="46.82842" lon="3.17521">
        <ele>227.31669616699</ele>
        <time>2016-02-07T08:50:10.000Z</time>
      </trkpt>
      <trkpt lat="46.82841" lon="3.17514">
        <ele>227.42304992676</ele>
        <time>2016-02-07T08:50:13.000Z</time>
      </trkpt>
      <trkpt lat="46.82839" lon="3.17509">
        <ele>227.53666687012</ele>
        <time>2016-02-07T08:50:16.000Z</time>
      </trkpt>
      <trkpt lat="46.82838" lon="3.17506">
        <ele>227.65640258789</ele>
        <time>2016-02-07T08:50:18.000Z</time>
      </trkpt>
      <trkpt lat="46.82836" lon="3.17501">
        <ele>227.78720092773</ele>
        <time>2016-02-07T08:50:21.000Z</time>
      </trkpt>
      <trkpt lat="46.82835" lon="3.17498">
        <ele>227.91645812988</ele>
        <time>2016-02-07T08:50:23.000Z</time>
      </trkpt>
      <trkpt lat="46.82831" lon="3.17491">
        <ele>228.07060241699</ele>
        <time>2016-02-07T08:50:26.000Z</time>
      </trkpt>
      <trkpt lat="46.82829" lon="3.17487">
        <ele>228.23791503906</ele>
        <time>2016-02-07T08:50:28.000Z</time>
      </trkpt>
      <trkpt lat="46.82827" lon="3.17483">
        <ele>228.43154907227</ele>
        <time>2016-02-07T08:50:32.000Z</time>
      </trkpt>
      <trkpt lat="46.82825" lon="3.1748">
        <ele>228.63305664062</ele>
        <time>2016-02-07T08:50:33.000Z</time>
      </trkpt>
      <trkpt lat="46.82824" lon="3.17477">
        <ele>228.83979797363</ele>
        <time>2016-02-07T08:50:35.000Z</time>
      </trkpt>
      <trkpt lat="46.82823" lon="3.17474">
        <ele>229.00680541992</ele>
        <time>2016-02-07T08:50:37.000Z</time>
      </trkpt>
      <trkpt lat="46.82822" lon="3.17471">
        <ele>229.16035461426</ele>
        <time>2016-02-07T08:50:39.000Z</time>
      </trkpt>
      <trkpt lat="46.8282" lon="3.17467">
        <ele>229.30635070801</ele>
        <time>2016-02-07T08:50:42.000Z</time>
      </trkpt>
      <trkpt lat="46.82817" lon="3.17462">
        <ele>229.47094726562</ele>
        <time>2016-02-07T08:50:45.000Z</time>
      </trkpt>
      <trkpt lat="46.82815" lon="3.17459">
        <ele>229.6324005127</ele>
        <time>2016-02-07T08:50:47.000Z</time>
      </trkpt>
      <trkpt lat="46.82814" lon="3.17455">
        <ele>229.80477905273</ele>
        <time>2016-02-07T08:50:50.000Z</time>
      </trkpt>
      <trkpt lat="46.82813" lon="3.17449">
        <ele>229.99617004395</ele>
        <time>2016-02-07T08:50:53.000Z</time>
      </trkpt>
      <trkpt lat="46.82811" lon="3.17445">
        <ele>230.18423461914</ele>
        <time>2016-02-07T08:50:56.000Z</time>
      </trkpt>
      <trkpt lat="46.82808" lon="3.17443">
        <ele>230.33682250977</ele>
        <time>2016-02-07T08:50:59.000Z</time>
      </trkpt>
      <trkpt lat="46.82805" lon="3.17441">
        <ele>230.4820098877</ele>
        <time>2016-02-07T08:51:01.000Z</time>
      </trkpt>
      <trkpt lat="46.82801" lon="3.17437">
        <ele>230.61569213867</ele>
        <time>2016-02-07T08:51:04.000Z</time>
      </trkpt>
      <trkpt lat="46.828" lon="3.17432">
        <ele>230.73764038086</ele>
        <time>2016-02-07T08:51:07.000Z</time>
      </trkpt>
      <trkpt lat="46.82796" lon="3.1743">
        <ele>230.84037780762</ele>
        <time>2016-02-07T08:51:09.000Z</time>
      </trkpt>
      <trkpt lat="46.82793" lon="3.17425">
        <ele>230.95788574219</ele>
        <time>2016-02-07T08:51:12.000Z</time>
      </trkpt>
      <trkpt lat="46.82791" lon="3.17423">
        <ele>231.07360839844</ele>
        <time>2016-02-07T08:51:14.000Z</time>
      </trkpt>
      <trkpt lat="46.82789" lon="3.17421">
        <ele>231.1713104248</ele>
        <time>2016-02-07T08:51:16.000Z</time>
      </trkpt>
      <trkpt lat="46.82787" lon="3.17419">
        <ele>231.24150085449</ele>
        <time>2016-02-07T08:51:18.000Z</time>
      </trkpt>
      <trkpt lat="46.82784" lon="3.17416">
        <ele>231.31318664551</ele>
        <time>2016-02-07T08:51:21.000Z</time>
      </trkpt>
      <trkpt lat="46.82779" lon="3.17414">
        <ele>231.35433959961</ele>
        <time>2016-02-07T08:51:24.000Z</time>
      </trkpt>
      <trkpt lat="46.82777" lon="3.17411">
        <ele>231.38583374023</ele>
        <time>2016-02-07T08:51:26.000Z</time>
      </trkpt>
      <trkpt lat="46.82776" lon="3.17407">
        <ele>231.42282104492</ele>
        <time>2016-02-07T08:51:29.000Z</time>
      </trkpt>
      <trkpt lat="46.82775" lon="3.17404">
        <ele>231.4616394043</ele>
        <time>2016-02-07T08:51:31.000Z</time>
      </trkpt>
      <trkpt lat="46.82774" lon="3.17398">
        <ele>231.50679016113</ele>
        <time>2016-02-07T08:51:35.000Z</time>
      </trkpt>
      <trkpt lat="46.82773" lon="3.17393">
        <ele>231.5690612793</ele>
        <time>2016-02-07T08:51:36.000Z</time>
      </trkpt>
      <trkpt lat="46.82771" lon="3.17389">
        <ele>231.63098144531</ele>
        <time>2016-02-07T08:51:39.000Z</time>
      </trkpt>
      <trkpt lat="46.82769" lon="3.17386">
        <ele>231.68501281738</ele>
        <time>2016-02-07T08:51:42.000Z</time>
      </trkpt>
      <trkpt lat="46.82766" lon="3.17383">
        <ele>231.72932434082</ele>
        <time>2016-02-07T08:51:45.000Z</time>
      </trkpt>
      <trkpt lat="46.82764" lon="3.17379">
        <ele>231.75549316406</ele>
        <time>2016-02-07T08:51:47.000Z</time>
      </trkpt>
      <trkpt lat="46.82764" lon="3.17375">
        <ele>231.77995300293</ele>
        <time>2016-02-07T08:51:50.000Z</time>
      </trkpt>
      <trkpt lat="46.82761" lon="3.17371">
        <ele>231.79753112793</ele>
        <time>2016-02-07T08:51:53.000Z</time>
      </trkpt>
      <trkpt lat="46.8276" lon="3.17368">
        <ele>231.8108215332</ele>
        <time>2016-02-07T08:51:55.000Z</time>
      </trkpt>
      <trkpt lat="46.82759" lon="3.17365">
        <ele>231.830078125</ele>
        <time>2016-02-07T08:51:57.000Z</time>
      </trkpt>
      <trkpt lat="46.82757" lon="3.17361">
        <ele>231.84921264648</ele>
        <time>2016-02-07T08:52:00.000Z</time>
      </trkpt>
      <trkpt lat="46.82756" lon="3.17357">
        <ele>231.85800170898</ele>
        <time>2016-02-07T08:52:03.000Z</time>
      </trkpt>
      <trkpt lat="46.82753" lon="3.17353">
        <ele>231.86088562012</ele>
        <time>2016-02-07T08:52:06.000Z</time>
      </trkpt>
      <trkpt lat="46.82749" lon="3.17352">
        <ele>231.85038757324</ele>
        <time>2016-02-07T08:52:12.000Z</time>
      </trkpt>
      <trkpt lat="46.82745" lon="3.17349">
        <ele>231.84609985352</ele>
        <time>2016-02-07T08:52:13.000Z</time>
      </trkpt>
      <trkpt lat="46.82743" lon="3.17347">
        <ele>231.84481811523</ele>
        <time>2016-02-07T08:52:14.000Z</time>
      </trkpt>
      <trkpt lat="46.82743" lon="3.17343">
        <ele>231.84892272949</ele>
        <time>2016-02-07T08:52:16.000Z</time>
      </trkpt>
      <trkpt lat="46.82745" lon="3.17338">
        <ele>231.86877441406</ele>
        <time>2016-02-07T08:52:19.000Z</time>
      </trkpt>
      <trkpt lat="46.82751" lon="3.17331">
        <ele>231.91667175293</ele>
        <time>2016-02-07T08:52:22.000Z</time>
      </trkpt>
      <trkpt lat="46.82756" lon="3.17328">
        <ele>231.9818572998</ele>
        <time>2016-02-07T08:52:25.000Z</time>
      </trkpt>
      <trkpt lat="46.82759" lon="3.17326">
        <ele>232.05937194824</ele>
        <time>2016-02-07T08:52:28.000Z</time>
      </trkpt>
      <trkpt lat="46.82762" lon="3.17324">
        <ele>232.14079284668</ele>
        <time>2016-02-07T08:52:31.000Z</time>
      </trkpt>
      <trkpt lat="46.82765" lon="3.17323">
        <ele>232.22793579102</ele>
        <time>2016-02-07T08:52:33.000Z</time>
      </trkpt>
      <trkpt lat="46.82769" lon="3.1732">
        <ele>232.3205871582</ele>
        <time>2016-02-07T08:52:36.000Z</time>
      </trkpt>
      <trkpt lat="46.82772" lon="3.17319">
        <ele>232.40487670898</ele>
        <time>2016-02-07T08:52:39.000Z</time>
      </trkpt>
      <trkpt lat="46.82775" lon="3.17318">
        <ele>232.48686218262</ele>
        <time>2016-02-07T08:52:42.000Z</time>
      </trkpt>
      <trkpt lat="46.82778" lon="3.17317">
        <ele>232.57540893555</ele>
        <time>2016-02-07T08:52:44.000Z</time>
      </trkpt>
      <trkpt lat="46.8278" lon="3.17315">
        <ele>232.6510925293</ele>
        <time>2016-02-07T08:52:46.000Z</time>
      </trkpt>
      <trkpt lat="46.82783" lon="3.17312">
        <ele>232.72045898438</ele>
        <time>2016-02-07T08:52:49.000Z</time>
      </trkpt>
      <trkpt lat="46.82786" lon="3.17309">
        <ele>232.77705383301</ele>
        <time>2016-02-07T08:52:51.000Z</time>
      </trkpt>
      <trkpt lat="46.82789" lon="3.17308">
        <ele>232.83393859863</ele>
        <time>2016-02-07T08:52:53.000Z</time>
      </trkpt>
      <trkpt lat="46.82793" lon="3.17303">
        <ele>232.88638305664</ele>
        <time>2016-02-07T08:52:56.000Z</time>
      </trkpt>
      <trkpt lat="46.82797" lon="3.173">
        <ele>232.94575500488</ele>
        <time>2016-02-07T08:52:59.000Z</time>
      </trkpt>
      <trkpt lat="46.828" lon="3.17296">
        <ele>232.99313354492</ele>
        <time>2016-02-07T08:53:02.000Z</time>
      </trkpt>
      <trkpt lat="46.82801" lon="3.17295">
        <ele>233.04037475586</ele>
        <time>2016-02-07T08:53:04.000Z</time>
      </trkpt>
      <trkpt lat="46.82804" lon="3.17291">
        <ele>233.07315063477</ele>
        <time>2016-02-07T08:53:07.000Z</time>
      </trkpt>
      <trkpt lat="46.82806" lon="3.17289">
        <ele>233.09577941895</ele>
        <time>2016-02-07T08:53:09.000Z</time>
      </trkpt>
      <trkpt lat="46.82809" lon="3.17286">
        <ele>233.11459350586</ele>
        <time>2016-02-07T08:53:12.000Z</time>
      </trkpt>
      <trkpt lat="46.82811" lon="3.17283">
        <ele>233.13162231445</ele>
        <time>2016-02-07T08:53:14.000Z</time>
      </trkpt>
      <trkpt lat="46.82814" lon="3.17282">
        <ele>233.15798950195</ele>
        <time>2016-02-07T08:53:16.000Z</time>
      </trkpt>
      <trkpt lat="46.82818" lon="3.17278">
        <ele>233.18319702148</ele>
        <time>2016-02-07T08:53:19.000Z</time>
      </trkpt>
      <trkpt lat="46.8282" lon="3.17274">
        <ele>233.20259094238</ele>
        <time>2016-02-07T08:53:22.000Z</time>
      </trkpt>
      <trkpt lat="46.82823" lon="3.17271">
        <ele>233.21633911133</ele>
        <time>2016-02-07T08:53:25.000Z</time>
      </trkpt>
      <trkpt lat="46.82825" lon="3.1727">
        <ele>233.23303222656</ele>
        <time>2016-02-07T08:53:27.000Z</time>
      </trkpt>
      <trkpt lat="46.82827" lon="3.17268">
        <ele>233.23957824707</ele>
        <time>2016-02-07T08:53:31.000Z</time>
      </trkpt>
      <trkpt lat="46.8283" lon="3.17265">
        <ele>233.2467956543</ele>
        <time>2016-02-07T08:53:32.000Z</time>
      </trkpt>
      <trkpt lat="46.82832" lon="3.17263">
        <ele>233.25955200195</ele>
        <time>2016-02-07T08:53:34.000Z</time>
      </trkpt>
      <trkpt lat="46.82835" lon="3.1726">
        <ele>233.26696777344</ele>
        <time>2016-02-07T08:53:37.000Z</time>
      </trkpt>
      <trkpt lat="46.82837" lon="3.17258">
        <ele>233.27172851562</ele>
        <time>2016-02-07T08:53:39.000Z</time>
      </trkpt>
      <trkpt lat="46.82841" lon="3.17252">
        <ele>233.26428222656</ele>
        <time>2016-02-07T08:53:42.000Z</time>
      </trkpt>
      <trkpt lat="46.82843" lon="3.17249">
        <ele>233.25216674805</ele>
        <time>2016-02-07T08:53:45.000Z</time>
      </trkpt>
      <trkpt lat="46.82845" lon="3.17248">
        <ele>233.24130249023</ele>
        <time>2016-02-07T08:53:47.000Z</time>
      </trkpt>
      <trkpt lat="46.82847" lon="3.17247">
        <ele>233.23303222656</ele>
        <time>2016-02-07T08:53:49.000Z</time>
      </trkpt>
      <trkpt lat="46.8285" lon="3.17245">
        <ele>233.22702026367</ele>
        <time>2016-02-07T08:53:52.000Z</time>
      </trkpt>
      <trkpt lat="46.82854" lon="3.17242">
        <ele>233.22297668457</ele>
        <time>2016-02-07T08:53:55.000Z</time>
      </trkpt>
      <trkpt lat="46.82857" lon="3.1724">
        <ele>233.22854614258</ele>
        <time>2016-02-07T08:53:58.000Z</time>
      </trkpt>
      <trkpt lat="46.82861" lon="3.17238">
        <ele>233.23474121094</ele>
        <time>2016-02-07T08:54:01.000Z</time>
      </trkpt>
      <trkpt lat="46.82864" lon="3.17235">
        <ele>233.24520874023</ele>
        <time>2016-02-07T08:54:04.000Z</time>
      </trkpt>
      <trkpt lat="46.82867" lon="3.17232">
        <ele>233.24526977539</ele>
        <time>2016-02-07T08:54:07.000Z</time>
      </trkpt>
      <trkpt lat="46.82869" lon="3.17229">
        <ele>233.25004577637</ele>
        <time>2016-02-07T08:54:10.000Z</time>
      </trkpt>
      <trkpt lat="46.82871" lon="3.17227">
        <ele>233.23835754395</ele>
        <time>2016-02-07T08:54:12.000Z</time>
      </trkpt>
      <trkpt lat="46.82873" lon="3.17224">
        <ele>233.21878051758</ele>
        <time>2016-02-07T08:54:15.000Z</time>
      </trkpt>
      <trkpt lat="46.82877" lon="3.17223">
        <ele>233.21520996094</ele>
        <time>2016-02-07T08:54:18.000Z</time>
      </trkpt>
      <trkpt lat="46.8288" lon="3.17221">
        <ele>233.22476196289</ele>
        <time>2016-02-07T08:54:20.000Z</time>
      </trkpt>
      <trkpt lat="46.82884" lon="3.1722">
        <ele>233.24584960938</ele>
        <time>2016-02-07T08:54:22.000Z</time>
      </trkpt>
      <trkpt lat="46.82887" lon="3.17217">
        <ele>233.27993774414</ele>
        <time>2016-02-07T08:54:25.000Z</time>
      </trkpt>
      <trkpt lat="46.82889" lon="3.17215">
        <ele>233.3150177002</ele>
        <time>2016-02-07T08:54:28.000Z</time>
      </trkpt>
      <trkpt lat="46.82891" lon="3.17212">
        <ele>233.33085632324</ele>
        <time>2016-02-07T08:54:30.000Z</time>
      </trkpt>
      <trkpt lat="46.82893" lon="3.17211">
        <ele>233.34677124023</ele>
        <time>2016-02-07T08:54:32.000Z</time>
      </trkpt>
      <trkpt lat="46.82896" lon="3.17208">
        <ele>233.3531036377</ele>
        <time>2016-02-07T08:54:35.000Z</time>
      </trkpt>
      <trkpt lat="46.82899" lon="3.17205">
        <ele>233.36172485352</ele>
        <time>2016-02-07T08:54:37.000Z</time>
      </trkpt>
      <trkpt lat="46.82901" lon="3.17203">
        <ele>233.37365722656</ele>
        <time>2016-02-07T08:54:39.000Z</time>
      </trkpt>
      <trkpt lat="46.82906" lon="3.172">
        <ele>233.39791870117</ele>
        <time>2016-02-07T08:54:42.000Z</time>
      </trkpt>
      <trkpt lat="46.8291" lon="3.17197">
        <ele>233.42721557617</ele>
        <time>2016-02-07T08:54:45.000Z</time>
      </trkpt>
      <trkpt lat="46.82912" lon="3.17194">
        <ele>233.45756530762</ele>
        <time>2016-02-07T08:54:47.000Z</time>
      </trkpt>
      <trkpt lat="46.82916" lon="3.17193">
        <ele>233.49838256836</ele>
        <time>2016-02-07T08:54:50.000Z</time>
      </trkpt>
      <trkpt lat="46.8292" lon="3.17191">
        <ele>233.58248901367</ele>
        <time>2016-02-07T08:54:53.000Z</time>
      </trkpt>
      <trkpt lat="46.82922" lon="3.17189">
        <ele>233.66877746582</ele>
        <time>2016-02-07T08:54:55.000Z</time>
      </trkpt>
      <trkpt lat="46.82924" lon="3.17188">
        <ele>233.76431274414</ele>
        <time>2016-02-07T08:54:57.000Z</time>
      </trkpt>
      <trkpt lat="46.82926" lon="3.17186">
        <ele>233.87202453613</ele>
        <time>2016-02-07T08:55:00.000Z</time>
      </trkpt>
      <trkpt lat="46.82928" lon="3.17182">
        <ele>233.98599243164</ele>
        <time>2016-02-07T08:55:04.000Z</time>
      </trkpt>
      <trkpt lat="46.8293" lon="3.1718">
        <ele>234.07223510742</ele>
        <time>2016-02-07T08:55:06.000Z</time>
      </trkpt>
      <trkpt lat="46.82931" lon="3.17179">
        <ele>234.15412902832</ele>
        <time>2016-02-07T08:55:08.000Z</time>
      </trkpt>
      <trkpt lat="46.82935" lon="3.17176">
        <ele>234.25549316406</ele>
        <time>2016-02-07T08:55:13.000Z</time>
      </trkpt>
      <trkpt lat="46.82938" lon="3.17175">
        <ele>234.37678527832</ele>
        <time>2016-02-07T08:55:13.000Z</time>
      </trkpt>
      <trkpt lat="46.8294" lon="3.17174">
        <ele>234.5007019043</ele>
        <time>2016-02-07T08:55:15.000Z</time>
      </trkpt>
      <trkpt lat="46.82943" lon="3.17172">
        <ele>234.64665222168</ele>
        <time>2016-02-07T08:55:18.000Z</time>
      </trkpt>
      <trkpt lat="46.82946" lon="3.1717">
        <ele>234.8212890625</ele>
        <time>2016-02-07T08:55:21.000Z</time>
      </trkpt>
      <trkpt lat="46.82949" lon="3.17168">
        <ele>234.98867797852</ele>
        <time>2016-02-07T08:55:24.000Z</time>
      </trkpt>
      <trkpt lat="46.8295" lon="3.17166">
        <ele>235.13119506836</ele>
        <time>2016-02-07T08:55:26.000Z</time>
      </trkpt>
      <trkpt lat="46.82953" lon="3.17162">
        <ele>235.26626586914</ele>
        <time>2016-02-07T08:55:29.000Z</time>
      </trkpt>
      <trkpt lat="46.82956" lon="3.17159">
        <ele>235.39057922363</ele>
        <time>2016-02-07T08:55:32.000Z</time>
      </trkpt>
      <trkpt lat="46.82961" lon="3.17157">
        <ele>235.53555297852</ele>
        <time>2016-02-07T08:55:35.000Z</time>
      </trkpt>
      <trkpt lat="46.82964" lon="3.17155">
        <ele>235.66885375977</ele>
        <time>2016-02-07T08:55:38.000Z</time>
      </trkpt>
      <trkpt lat="46.82967" lon="3.17152">
        <ele>235.8236541748</ele>
        <time>2016-02-07T08:55:41.000Z</time>
      </trkpt>
      <trkpt lat="46.82971" lon="3.17149">
        <ele>236.00146484375</ele>
        <time>2016-02-07T08:55:44.000Z</time>
      </trkpt>
      <trkpt lat="46.82975" lon="3.17145">
        <ele>236.17236328125</ele>
        <time>2016-02-07T08:55:47.000Z</time>
      </trkpt>
      <trkpt lat="46.82977" lon="3.17144">
        <ele>236.30570983887</ele>
        <time>2016-02-07T08:55:49.000Z</time>
      </trkpt>
      <trkpt lat="46.8298" lon="3.17141">
        <ele>236.44711303711</ele>
        <time>2016-02-07T08:55:52.000Z</time>
      </trkpt>
      <trkpt lat="46.82983" lon="3.17138">
        <ele>236.58349609375</ele>
        <time>2016-02-07T08:55:55.000Z</time>
      </trkpt>
      <trkpt lat="46.82985" lon="3.17136">
        <ele>236.69258117676</ele>
        <time>2016-02-07T08:55:57.000Z</time>
      </trkpt>
      <trkpt lat="46.82988" lon="3.17134">
        <ele>236.79736328125</ele>
        <time>2016-02-07T08:56:01.000Z</time>
      </trkpt>
      <trkpt lat="46.82991" lon="3.17132">
        <ele>236.90966796875</ele>
        <time>2016-02-07T08:56:02.000Z</time>
      </trkpt>
      <trkpt lat="46.82993" lon="3.1713">
        <ele>237.01106262207</ele>
        <time>2016-02-07T08:56:04.000Z</time>
      </trkpt>
      <trkpt lat="46.82997" lon="3.17127">
        <ele>237.11880493164</ele>
        <time>2016-02-07T08:56:08.000Z</time>
      </trkpt>
      <trkpt lat="46.82998" lon="3.17124">
        <ele>237.21203613281</ele>
        <time>2016-02-07T08:56:09.000Z</time>
      </trkpt>
      <trkpt lat="46.83002" lon="3.17121">
        <ele>237.30790710449</ele>
        <time>2016-02-07T08:56:12.000Z</time>
      </trkpt>
      <trkpt lat="46.83005" lon="3.17119">
        <ele>237.39204406738</ele>
        <time>2016-02-07T08:56:15.000Z</time>
      </trkpt>
      <trkpt lat="46.83008" lon="3.17118">
        <ele>237.47729492188</ele>
        <time>2016-02-07T08:56:17.000Z</time>
      </trkpt>
      <trkpt lat="46.8301" lon="3.17117">
        <ele>237.55520629883</ele>
        <time>2016-02-07T08:56:19.000Z</time>
      </trkpt>
      <trkpt lat="46.83014" lon="3.17116">
        <ele>237.6587677002</ele>
        <time>2016-02-07T08:56:22.000Z</time>
      </trkpt>
      <trkpt lat="46.83015" lon="3.17114">
        <ele>237.75756835938</ele>
        <time>2016-02-07T08:56:24.000Z</time>
      </trkpt>
      <trkpt lat="46.83018" lon="3.17114">
        <ele>237.85842895508</ele>
        <time>2016-02-07T08:56:26.000Z</time>
      </trkpt>
      <trkpt lat="46.8302" lon="3.17111">
        <ele>237.95846557617</ele>
        <time>2016-02-07T08:56:29.000Z</time>
      </trkpt>
      <trkpt lat="46.83025" lon="3.17109">
        <ele>238.07116699219</ele>
        <time>2016-02-07T08:56:32.000Z</time>
      </trkpt>
      <trkpt lat="46.83028" lon="3.17107">
        <ele>238.19400024414</ele>
        <time>2016-02-07T08:56:35.000Z</time>
      </trkpt>
      <trkpt lat="46.83032" lon="3.17105">
        <ele>238.33743286133</ele>
        <time>2016-02-07T08:56:38.000Z</time>
      </trkpt>
      <trkpt lat="46.83034" lon="3.17105">
        <ele>238.48735046387</ele>
        <time>2016-02-07T08:56:40.000Z</time>
      </trkpt>
      <trkpt lat="46.83035" lon="3.17105">
        <ele>238.63269042969</ele>
        <time>2016-02-07T08:56:42.000Z</time>
      </trkpt>
      <trkpt lat="46.83037" lon="3.17105">
        <ele>238.75874328613</ele>
        <time>2016-02-07T08:56:44.000Z</time>
      </trkpt>
      <trkpt lat="46.83041" lon="3.17102">
        <ele>238.89859008789</ele>
        <time>2016-02-07T08:56:47.000Z</time>
      </trkpt>
      <trkpt lat="46.83043" lon="3.17099">
        <ele>239.02108764648</ele>
        <time>2016-02-07T08:56:50.000Z</time>
      </trkpt>
      <trkpt lat="46.83047" lon="3.17095">
        <ele>239.16372680664</ele>
        <time>2016-02-07T08:56:53.000Z</time>
      </trkpt>
      <trkpt lat="46.83049" lon="3.17094">
        <ele>239.31616210938</ele>
        <time>2016-02-07T08:56:55.000Z</time>
      </trkpt>
      <trkpt lat="46.83051" lon="3.17092">
        <ele>239.4751739502</ele>
        <time>2016-02-07T08:56:57.000Z</time>
      </trkpt>
      <trkpt lat="46.83055" lon="3.17089">
        <ele>239.63301086426</ele>
        <time>2016-02-07T08:57:01.000Z</time>
      </trkpt>
      <trkpt lat="46.83057" lon="3.17087">
        <ele>239.80488586426</ele>
        <time>2016-02-07T08:57:02.000Z</time>
      </trkpt>
      <trkpt lat="46.83061" lon="3.17085">
        <ele>239.97769165039</ele>
        <time>2016-02-07T08:57:05.000Z</time>
      </trkpt>
      <trkpt lat="46.83062" lon="3.17083">
        <ele>240.14384460449</ele>
        <time>2016-02-07T08:57:08.000Z</time>
      </trkpt>
      <trkpt lat="46.83064" lon="3.1708">
        <ele>240.2816619873</ele>
        <time>2016-02-07T08:57:10.000Z</time>
      </trkpt>
      <trkpt lat="46.83066" lon="3.17076">
        <ele>240.36959838867</ele>
        <time>2016-02-07T08:57:13.000Z</time>
      </trkpt>
      <trkpt lat="46.83069" lon="3.17074">
        <ele>240.44999694824</ele>
        <time>2016-02-07T08:57:16.000Z</time>
      </trkpt>
      <trkpt lat="46.83072" lon="3.17072">
        <ele>240.50537109375</ele>
        <time>2016-02-07T08:57:19.000Z</time>
      </trkpt>
      <trkpt lat="46.83074" lon="3.1707">
        <ele>240.5542755127</ele>
        <time>2016-02-07T08:57:21.000Z</time>
      </trkpt>
      <trkpt lat="46.83076" lon="3.17068">
        <ele>240.61889648438</ele>
        <time>2016-02-07T08:57:23.000Z</time>
      </trkpt>
      <trkpt lat="46.83078" lon="3.17067">
        <ele>240.7048034668</ele>
        <time>2016-02-07T08:57:26.000Z</time>
      </trkpt>
      <trkpt lat="46.8308" lon="3.17066">
        <ele>240.78945922852</ele>
        <time>2016-02-07T08:57:28.000Z</time>
      </trkpt>
      <trkpt lat="46.83083" lon="3.17063">
        <ele>240.86889648438</ele>
        <time>2016-02-07T08:57:31.000Z</time>
      </trkpt>
      <trkpt lat="46.83087" lon="3.1706">
        <ele>240.9150390625</ele>
        <time>2016-02-07T08:57:34.000Z</time>
      </trkpt>
      <trkpt lat="46.83089" lon="3.17059">
        <ele>240.94802856445</ele>
        <time>2016-02-07T08:57:36.000Z</time>
      </trkpt>
      <trkpt lat="46.83094" lon="3.17053">
        <ele>240.93269348145</ele>
        <time>2016-02-07T08:57:39.000Z</time>
      </trkpt>
      <trkpt lat="46.83098" lon="3.17048">
        <ele>240.86611938477</ele>
        <time>2016-02-07T08:57:42.000Z</time>
      </trkpt>
      <trkpt lat="46.83099" lon="3.17047">
        <ele>240.77743530273</ele>
        <time>2016-02-07T08:57:44.000Z</time>
      </trkpt>
      <trkpt lat="46.83103" lon="3.17044">
        <ele>240.70568847656</ele>
        <time>2016-02-07T08:57:47.000Z</time>
      </trkpt>
      <trkpt lat="46.83106" lon="3.17042">
        <ele>240.63288879395</ele>
        <time>2016-02-07T08:57:50.000Z</time>
      </trkpt>
      <trkpt lat="46.83108" lon="3.17041">
        <ele>240.59150695801</ele>
        <time>2016-02-07T08:57:52.000Z</time>
      </trkpt>
      <trkpt lat="46.83111" lon="3.17039">
        <ele>240.57656860352</ele>
        <time>2016-02-07T08:57:55.000Z</time>
      </trkpt>
      <trkpt lat="46.83114" lon="3.17036">
        <ele>240.56103515625</ele>
        <time>2016-02-07T08:57:58.000Z</time>
      </trkpt>
      <trkpt lat="46.83116" lon="3.17034">
        <ele>240.5451965332</ele>
        <time>2016-02-07T08:58:00.000Z</time>
      </trkpt>
      <trkpt lat="46.83119" lon="3.17031">
        <ele>240.51907348633</ele>
        <time>2016-02-07T08:58:03.000Z</time>
      </trkpt>
      <trkpt lat="46.83123" lon="3.17028">
        <ele>240.49768066406</ele>
        <time>2016-02-07T08:58:06.000Z</time>
      </trkpt>
      <trkpt lat="46.83127" lon="3.17025">
        <ele>240.47456359863</ele>
        <time>2016-02-07T08:58:09.000Z</time>
      </trkpt>
      <trkpt lat="46.83129" lon="3.17023">
        <ele>240.46231079102</ele>
        <time>2016-02-07T08:58:11.000Z</time>
      </trkpt>
      <trkpt lat="46.83132" lon="3.17021">
        <ele>240.45307922363</ele>
        <time>2016-02-07T08:58:14.000Z</time>
      </trkpt>
      <trkpt lat="46.83134" lon="3.17018">
        <ele>240.45634460449</ele>
        <time>2016-02-07T08:58:17.000Z</time>
      </trkpt>
      <trkpt lat="46.83137" lon="3.17016">
        <ele>240.45230102539</ele>
        <time>2016-02-07T08:58:20.000Z</time>
      </trkpt>
      <trkpt lat="46.83139" lon="3.17014">
        <ele>240.44844055176</ele>
        <time>2016-02-07T08:58:22.000Z</time>
      </trkpt>
      <trkpt lat="46.8314" lon="3.17012">
        <ele>240.43778991699</ele>
        <time>2016-02-07T08:58:24.000Z</time>
      </trkpt>
      <trkpt lat="46.83143" lon="3.17008">
        <ele>240.42460632324</ele>
        <time>2016-02-07T08:58:27.000Z</time>
      </trkpt>
      <trkpt lat="46.83146" lon="3.17005">
        <ele>240.41098022461</ele>
        <time>2016-02-07T08:58:30.000Z</time>
      </trkpt>
      <trkpt lat="46.83149" lon="3.17003">
        <ele>240.41296386719</ele>
        <time>2016-02-07T08:58:32.000Z</time>
      </trkpt>
      <trkpt lat="46.83151" lon="3.17002">
        <ele>240.42741394043</ele>
        <time>2016-02-07T08:58:34.000Z</time>
      </trkpt>
      <trkpt lat="46.83154" lon="3.17">
        <ele>240.4528503418</ele>
        <time>2016-02-07T08:58:36.000Z</time>
      </trkpt>
      <trkpt lat="46.83157" lon="3.16999">
        <ele>240.49824523926</ele>
        <time>2016-02-07T08:58:39.000Z</time>
      </trkpt>
      <trkpt lat="46.8316" lon="3.16998">
        <ele>240.55123901367</ele>
        <time>2016-02-07T08:58:41.000Z</time>
      </trkpt>
      <trkpt lat="46.83163" lon="3.16996">
        <ele>240.60014343262</ele>
        <time>2016-02-07T08:58:44.000Z</time>
      </trkpt>
      <trkpt lat="46.83165" lon="3.16995">
        <ele>240.64462280273</ele>
        <time>2016-02-07T08:58:46.000Z</time>
      </trkpt>
      <trkpt lat="46.83169" lon="3.16993">
        <ele>240.65957641602</ele>
        <time>2016-02-07T08:58:49.000Z</time>
      </trkpt>
      <trkpt lat="46.83173" lon="3.1699">
        <ele>240.61410522461</ele>
        <time>2016-02-07T08:58:52.000Z</time>
      </trkpt>
      <trkpt lat="46.83176" lon="3.16986">
        <ele>240.51223754883</ele>
        <time>2016-02-07T08:58:55.000Z</time>
      </trkpt>
      <trkpt lat="46.8318" lon="3.16982">
        <ele>240.35095214844</ele>
        <time>2016-02-07T08:58:58.000Z</time>
      </trkpt>
      <trkpt lat="46.83183" lon="3.16979">
        <ele>240.15103149414</ele>
        <time>2016-02-07T08:59:00.000Z</time>
      </trkpt>
      <trkpt lat="46.83186" lon="3.16976">
        <ele>239.9340057373</ele>
        <time>2016-02-07T08:59:03.000Z</time>
      </trkpt>
      <trkpt lat="46.83189" lon="3.16975">
        <ele>239.74328613281</ele>
        <time>2016-02-07T08:59:05.000Z</time>
      </trkpt>
      <trkpt lat="46.83192" lon="3.16972">
        <ele>239.56811523438</ele>
        <time>2016-02-07T08:59:08.000Z</time>
      </trkpt>
      <trkpt lat="46.83194" lon="3.1697">
        <ele>239.41825866699</ele>
        <time>2016-02-07T08:59:11.000Z</time>
      </trkpt>
      <trkpt lat="46.83195" lon="3.16968">
        <ele>239.2825012207</ele>
        <time>2016-02-07T08:59:13.000Z</time>
      </trkpt>
      <trkpt lat="46.83198" lon="3.16964">
        <ele>239.14712524414</ele>
        <time>2016-02-07T08:59:16.000Z</time>
      </trkpt>
      <trkpt lat="46.83199" lon="3.16962">
        <ele>239.01168823242</ele>
        <time>2016-02-07T08:59:18.000Z</time>
      </trkpt>
      <trkpt lat="46.83201" lon="3.16959">
        <ele>238.88459777832</ele>
        <time>2016-02-07T08:59:21.000Z</time>
      </trkpt>
      <trkpt lat="46.83203" lon="3.16958">
        <ele>238.76338195801</ele>
        <time>2016-02-07T08:59:24.000Z</time>
      </trkpt>
      <trkpt lat="46.83205" lon="3.16955">
        <ele>238.63903808594</ele>
        <time>2016-02-07T08:59:26.000Z</time>
      </trkpt>
      <trkpt lat="46.83207" lon="3.16952">
        <ele>238.52827453613</ele>
        <time>2016-02-07T08:59:29.000Z</time>
      </trkpt>
      <trkpt lat="46.83209" lon="3.16951">
        <ele>238.42080688477</ele>
        <time>2016-02-07T08:59:31.000Z</time>
      </trkpt>
      <trkpt lat="46.83212" lon="3.16948">
        <ele>238.3169708252</ele>
        <time>2016-02-07T08:59:34.000Z</time>
      </trkpt>
      <trkpt lat="46.83215" lon="3.16947">
        <ele>238.2138671875</ele>
        <time>2016-02-07T08:59:37.000Z</time>
      </trkpt>
      <trkpt lat="46.83218" lon="3.16945">
        <ele>238.11909484863</ele>
        <time>2016-02-07T08:59:39.000Z</time>
      </trkpt>
      <trkpt lat="46.8322" lon="3.16944">
        <ele>238.04125976562</ele>
        <time>2016-02-07T08:59:41.000Z</time>
      </trkpt>
      <trkpt lat="46.83222" lon="3.16943">
        <ele>237.96774291992</ele>
        <time>2016-02-07T08:59:44.000Z</time>
      </trkpt>
      <trkpt lat="46.83226" lon="3.16942">
        <ele>237.90449523926</ele>
        <time>2016-02-07T08:59:46.000Z</time>
      </trkpt>
      <trkpt lat="46.83229" lon="3.1694">
        <ele>237.84257507324</ele>
        <time>2016-02-07T08:59:48.000Z</time>
      </trkpt>
      <trkpt lat="46.83231" lon="3.16938">
        <ele>237.77841186523</ele>
        <time>2016-02-07T08:59:50.000Z</time>
      </trkpt>
      <trkpt lat="46.83235" lon="3.16935">
        <ele>237.6986541748</ele>
        <time>2016-02-07T08:59:53.000Z</time>
      </trkpt>
      <trkpt lat="46.83239" lon="3.16931">
        <ele>237.60652160645</ele>
        <time>2016-02-07T08:59:56.000Z</time>
      </trkpt>
      <trkpt lat="46.83242" lon="3.1693">
        <ele>237.51823425293</ele>
        <time>2016-02-07T08:59:59.000Z</time>
      </trkpt>
      <trkpt lat="46.83244" lon="3.16928">
        <ele>237.4320526123</ele>
        <time>2016-02-07T09:00:01.000Z</time>
      </trkpt>
      <trkpt lat="46.83247" lon="3.16924">
        <ele>237.34147644043</ele>
        <time>2016-02-07T09:00:05.000Z</time>
      </trkpt>
      <trkpt lat="46.83247" lon="3.16922">
        <ele>237.2681427002</ele>
        <time>2016-02-07T09:00:06.000Z</time>
      </trkpt>
      <trkpt lat="46.83248" lon="3.16921">
        <ele>237.21176147461</ele>
        <time>2016-02-07T09:00:08.000Z</time>
      </trkpt>
      <trkpt lat="46.83253" lon="3.16919">
        <ele>237.15754699707</ele>
        <time>2016-02-07T09:00:11.000Z</time>
      </trkpt>
      <trkpt lat="46.83257" lon="3.16917">
        <ele>237.1205291748</ele>
        <time>2016-02-07T09:00:14.000Z</time>
      </trkpt>
      <trkpt lat="46.83259" lon="3.16916">
        <ele>237.11054992676</ele>
        <time>2016-02-07T09:00:16.000Z</time>
      </trkpt>
      <trkpt lat="46.83264" lon="3.16912">
        <ele>237.13056945801</ele>
        <time>2016-02-07T09:00:19.000Z</time>
      </trkpt>
      <trkpt lat="46.83265" lon="3.16911">
        <ele>237.16458129883</ele>
        <time>2016-02-07T09:00:21.000Z</time>
      </trkpt>
      <trkpt lat="46.83268" lon="3.16908">
        <ele>237.22714233398</ele>
        <time>2016-02-07T09:00:23.000Z</time>
      </trkpt>
      <trkpt lat="46.83271" lon="3.16904">
        <ele>237.30883789062</ele>
        <time>2016-02-07T09:00:25.000Z</time>
      </trkpt>
      <trkpt lat="46.83274" lon="3.16901">
        <ele>237.40731811523</ele>
        <time>2016-02-07T09:00:28.000Z</time>
      </trkpt>
      <trkpt lat="46.83277" lon="3.16898">
        <ele>237.51289367676</ele>
        <time>2016-02-07T09:00:31.000Z</time>
      </trkpt>
      <trkpt lat="46.83279" lon="3.16897">
        <ele>237.62307739258</ele>
        <time>2016-02-07T09:00:33.000Z</time>
      </trkpt>
      <trkpt lat="46.83282" lon="3.16894">
        <ele>237.74111938477</ele>
        <time>2016-02-07T09:00:36.000Z</time>
      </trkpt>
      <trkpt lat="46.83286" lon="3.16892">
        <ele>237.85922241211</ele>
        <time>2016-02-07T09:00:39.000Z</time>
      </trkpt>
      <trkpt lat="46.83287" lon="3.1689">
        <ele>237.9709777832</ele>
        <time>2016-02-07T09:00:41.000Z</time>
      </trkpt>
      <trkpt lat="46.83289" lon="3.16887">
        <ele>238.08093261719</ele>
        <time>2016-02-07T09:00:44.000Z</time>
      </trkpt>
      <trkpt lat="46.8329" lon="3.16886">
        <ele>238.19540405273</ele>
        <time>2016-02-07T09:00:46.000Z</time>
      </trkpt>
      <trkpt lat="46.83293" lon="3.16884">
        <ele>238.30151367188</ele>
        <time>2016-02-07T09:00:49.000Z</time>
      </trkpt>
      <trkpt lat="46.83294" lon="3.16882">
        <ele>238.40437316895</ele>
        <time>2016-02-07T09:00:51.000Z</time>
      </trkpt>
      <trkpt lat="46.83297" lon="3.1688">
        <ele>238.51571655273</ele>
        <time>2016-02-07T09:00:53.000Z</time>
      </trkpt>
      <trkpt lat="46.833" lon="3.16877">
        <ele>238.63398742676</ele>
        <time>2016-02-07T09:00:56.000Z</time>
      </trkpt>
      <trkpt lat="46.83302" lon="3.16876">
        <ele>238.75556945801</ele>
        <time>2016-02-07T09:00:58.000Z</time>
      </trkpt>
      <trkpt lat="46.83303" lon="3.16874">
        <ele>238.87939453125</ele>
        <time>2016-02-07T09:01:00.000Z</time>
      </trkpt>
      <trkpt lat="46.83306" lon="3.16873">
        <ele>239.00765991211</ele>
        <time>2016-02-07T09:01:03.000Z</time>
      </trkpt>
      <trkpt lat="46.83308" lon="3.16871">
        <ele>239.13662719727</ele>
        <time>2016-02-07T09:01:06.000Z</time>
      </trkpt>
      <trkpt lat="46.83311" lon="3.16866">
        <ele>239.29013061523</ele>
        <time>2016-02-07T09:01:09.000Z</time>
      </trkpt>
      <trkpt lat="46.83316" lon="3.16864">
        <ele>239.47900390625</ele>
        <time>2016-02-07T09:01:12.000Z</time>
      </trkpt>
      <trkpt lat="46.8332" lon="3.16863">
        <ele>239.67639160156</ele>
        <time>2016-02-07T09:01:16.000Z</time>
      </trkpt>
      <trkpt lat="46.83323" lon="3.16861">
        <ele>239.88696289062</ele>
        <time>2016-02-07T09:01:17.000Z</time>
      </trkpt>
      <trkpt lat="46.83325" lon="3.16858">
        <ele>240.1157989502</ele>
        <time>2016-02-07T09:01:20.000Z</time>
      </trkpt>
      <trkpt lat="46.83327" lon="3.16855">
        <ele>240.33029174805</ele>
        <time>2016-02-07T09:01:23.000Z</time>
      </trkpt>
      <trkpt lat="46.83331" lon="3.1685">
        <ele>240.55940246582</ele>
        <time>2016-02-07T09:01:27.000Z</time>
      </trkpt>
      <trkpt lat="46.83334" lon="3.16848">
        <ele>240.79374694824</ele>
        <time>2016-02-07T09:01:28.000Z</time>
      </trkpt>
      <trkpt lat="46.83335" lon="3.16845">
        <ele>241.02261352539</ele>
        <time>2016-02-07T09:01:31.000Z</time>
      </trkpt>
      <trkpt lat="46.8334" lon="3.16843">
        <ele>241.24276733398</ele>
        <time>2016-02-07T09:01:34.000Z</time>
      </trkpt>
      <trkpt lat="46.83343" lon="3.16841">
        <ele>241.44026184082</ele>
        <time>2016-02-07T09:01:37.000Z</time>
      </trkpt>
      <trkpt lat="46.83345" lon="3.1684">
        <ele>241.58178710938</ele>
        <time>2016-02-07T09:01:39.000Z</time>
      </trkpt>
      <trkpt lat="46.83347" lon="3.16837">
        <ele>241.71801757812</ele>
        <time>2016-02-07T09:01:42.000Z</time>
      </trkpt>
      <trkpt lat="46.83349" lon="3.16835">
        <ele>241.85327148438</ele>
        <time>2016-02-07T09:01:44.000Z</time>
      </trkpt>
      <trkpt lat="46.83352" lon="3.16831">
        <ele>241.97895812988</ele>
        <time>2016-02-07T09:01:48.000Z</time>
      </trkpt>
      <trkpt lat="46.83353" lon="3.16829">
        <ele>242.09037780762</ele>
        <time>2016-02-07T09:01:49.000Z</time>
      </trkpt>
      <trkpt lat="46.83355" lon="3.16825">
        <ele>242.20671081543</ele>
        <time>2016-02-07T09:01:52.000Z</time>
      </trkpt>
      <trkpt lat="46.83355" lon="3.16823">
        <ele>242.29609680176</ele>
        <time>2016-02-07T09:01:54.000Z</time>
      </trkpt>
      <trkpt lat="46.83355" lon="3.1682">
        <ele>242.3648223877</ele>
        <time>2016-02-07T09:01:57.000Z</time>
      </trkpt>
      <trkpt lat="46.83355" lon="3.16818">
        <ele>242.4130859375</ele>
        <time>2016-02-07T09:01:59.000Z</time>
      </trkpt>
      <trkpt lat="46.83356" lon="3.16818">
        <ele>242.45724487305</ele>
        <time>2016-02-07T09:02:02.000Z</time>
      </trkpt>
      <trkpt lat="46.83356" lon="3.16818">
        <ele>242.45724487305</ele>
        <time>2016-02-07T09:02:22.000Z</time>
      </trkpt>
      <trkpt lat="46.83358" lon="3.16816">
        <ele>242.49209594727</ele>
        <time>2016-02-07T09:02:40.000Z</time>
      </trkpt>
      <trkpt lat="46.83359" lon="3.16814">
        <ele>242.52754211426</ele>
        <time>2016-02-07T09:02:58.000Z</time>
      </trkpt>
      <trkpt lat="46.83359" lon="3.16813">
        <ele>242.55978393555</ele>
        <time>2016-02-07T09:03:06.000Z</time>
      </trkpt>
      <trkpt lat="46.83358" lon="3.16811">
        <ele>242.58840942383</ele>
        <time>2016-02-07T09:03:12.000Z</time>
      </trkpt>
      <trkpt lat="46.8336" lon="3.16811">
        <ele>242.61726379395</ele>
        <time>2016-02-07T09:03:25.000Z</time>
      </trkpt>
      <trkpt lat="46.8336" lon="3.16811">
        <ele>242.61726379395</ele>
        <time>2016-02-07T09:03:50.000Z</time>
      </trkpt>
      <trkpt lat="46.83358" lon="3.1681">
        <ele>242.63786315918</ele>
        <time>2016-02-07T09:03:53.000Z</time>
      </trkpt>
      <trkpt lat="46.83358" lon="3.16812">
        <ele>242.64643859863</ele>
        <time>2016-02-07T09:04:02.000Z</time>
      </trkpt>
      <trkpt lat="46.83358" lon="3.16813">
        <ele>242.6429901123</ele>
        <time>2016-02-07T09:04:02.000Z</time>
      </trkpt>
      <trkpt lat="46.83358" lon="3.16813">
        <ele>242.6429901123</ele>
        <time>2016-02-07T09:04:22.000Z</time>
      </trkpt>
      <trkpt lat="46.83359" lon="3.16814">
        <ele>242.63578796387</ele>
        <time>2016-02-07T09:04:39.000Z</time>
      </trkpt>
      <trkpt lat="46.83359" lon="3.16816">
        <ele>242.61979675293</ele>
        <time>2016-02-07T09:04:41.000Z</time>
      </trkpt>
      <trkpt lat="46.83359" lon="3.16816">
        <ele>242.61979675293</ele>
        <time>2016-02-07T09:05:01.000Z</time>
      </trkpt>
      <trkpt lat="46.8336" lon="3.16814">
        <ele>242.61279296875</ele>
        <time>2016-02-07T09:05:03.000Z</time>
      </trkpt>
      <trkpt lat="46.8336" lon="3.16813">
        <ele>242.61442565918</ele>
        <time>2016-02-07T09:05:06.000Z</time>
      </trkpt>
      <trkpt lat="46.8336" lon="3.16811">
        <ele>242.62785339355</ele>
        <time>2016-02-07T09:05:08.000Z</time>
      </trkpt>
      <trkpt lat="46.8336" lon="3.1681">
        <ele>242.64584350586</ele>
        <time>2016-02-07T09:05:11.000Z</time>
      </trkpt>
      <trkpt lat="46.8336" lon="3.1681">
        <ele>242.64584350586</ele>
        <time>2016-02-07T09:05:31.000Z</time>
      </trkpt>
      <trkpt lat="46.83361" lon="3.16811">
        <ele>242.66621398926</ele>
        <time>2016-02-07T09:05:36.000Z</time>
      </trkpt>
      <trkpt lat="46.83361" lon="3.16811">
        <ele>242.66621398926</ele>
        <time>2016-02-07T09:05:56.000Z</time>
      </trkpt>
      <trkpt lat="46.83358" lon="3.16817">
        <ele>242.65251159668</ele>
        <time>2016-02-07T09:07:30.000Z</time>
      </trkpt>
      <trkpt lat="46.83358" lon="3.16817">
        <ele>242.65251159668</ele>
        <time>2016-02-07T09:07:50.000Z</time>
      </trkpt>
      <trkpt lat="46.83357" lon="3.16817">
        <ele>242.63110351562</ele>
        <time>2016-02-07T09:07:51.000Z</time>
      </trkpt>
      <trkpt lat="46.83357" lon="3.16817">
        <ele>242.63110351562</ele>
        <time>2016-02-07T09:08:11.000Z</time>
      </trkpt>
      <trkpt lat="46.83356" lon="3.16815">
        <ele>242.60595703125</ele>
        <time>2016-02-07T09:08:21.000Z</time>
      </trkpt>
      <trkpt lat="46.83355" lon="3.16814">
        <ele>242.57638549805</ele>
        <time>2016-02-07T09:08:23.000Z</time>
      </trkpt>
      <trkpt lat="46.83355" lon="3.16814">
        <ele>242.57638549805</ele>
        <time>2016-02-07T09:08:43.000Z</time>
      </trkpt>
      <trkpt lat="46.83355" lon="3.16812">
        <ele>242.5550994873</ele>
        <time>2016-02-07T09:09:05.000Z</time>
      </trkpt>
      <trkpt lat="46.83355" lon="3.16812">
        <ele>242.5550994873</ele>
        <time>2016-02-07T09:09:25.000Z</time>
      </trkpt>
      <trkpt lat="46.83356" lon="3.16811">
        <ele>242.56767272949</ele>
        <time>2016-02-07T09:09:30.000Z</time>
      </trkpt>
      <trkpt lat="46.83357" lon="3.1681">
        <ele>242.5905456543</ele>
        <time>2016-02-07T09:09:41.000Z</time>
      </trkpt>
      <trkpt lat="46.83356" lon="3.1681">
        <ele>242.60360717773</ele>
        <time>2016-02-07T09:09:58.000Z</time>
      </trkpt>
      <trkpt lat="46.83357" lon="3.16811">
        <ele>242.61860656738</ele>
        <time>2016-02-07T09:10:10.000Z</time>
      </trkpt>
      <trkpt lat="46.83356" lon="3.16814">
        <ele>242.61921691895</ele>
        <time>2016-02-07T09:10:17.000Z</time>
      </trkpt>
      <trkpt lat="46.83357" lon="3.16817">
        <ele>242.60140991211</ele>
        <time>2016-02-07T09:10:28.000Z</time>
      </trkpt>
      <trkpt lat="46.83357" lon="3.16817">
        <ele>242.60140991211</ele>
        <time>2016-02-07T09:10:48.000Z</time>
      </trkpt>
      <trkpt lat="46.83358" lon="3.16818">
        <ele>242.57621765137</ele>
        <time>2016-02-07T09:10:51.000Z</time>
      </trkpt>
      <trkpt lat="46.83359" lon="3.16818">
        <ele>242.56343078613</ele>
        <time>2016-02-07T09:10:55.000Z</time>
      </trkpt>
      <trkpt lat="46.83361" lon="3.16816">
        <ele>242.56100463867</ele>
        <time>2016-02-07T09:10:58.000Z</time>
      </trkpt>
      <trkpt lat="46.83363" lon="3.16813">
        <ele>242.58271789551</ele>
        <time>2016-02-07T09:11:01.000Z</time>
      </trkpt>
      <trkpt lat="46.83365" lon="3.16812">
        <ele>242.62307739258</ele>
        <time>2016-02-07T09:11:03.000Z</time>
      </trkpt>
      <trkpt lat="46.83368" lon="3.16809">
        <ele>242.68278503418</ele>
        <time>2016-02-07T09:11:06.000Z</time>
      </trkpt>
      <trkpt lat="46.83372" lon="3.16807">
        <ele>242.75679016113</ele>
        <time>2016-02-07T09:11:09.000Z</time>
      </trkpt>
      <trkpt lat="46.83375" lon="3.16806">
        <ele>242.8349609375</ele>
        <time>2016-02-07T09:11:12.000Z</time>
      </trkpt>
      <trkpt lat="46.83377" lon="3.16804">
        <ele>242.91015625</ele>
        <time>2016-02-07T09:11:15.000Z</time>
      </trkpt>
      <trkpt lat="46.83379" lon="3.16802">
        <ele>242.99072265625</ele>
        <time>2016-02-07T09:11:18.000Z</time>
      </trkpt>
      <trkpt lat="46.83382" lon="3.16799">
        <ele>243.07292175293</ele>
        <time>2016-02-07T09:11:21.000Z</time>
      </trkpt>
      <trkpt lat="46.83385" lon="3.16795">
        <ele>243.16069030762</ele>
        <time>2016-02-07T09:11:24.000Z</time>
      </trkpt>
      <trkpt lat="46.83386" lon="3.16794">
        <ele>243.24055480957</ele>
        <time>2016-02-07T09:11:26.000Z</time>
      </trkpt>
      <trkpt lat="46.83387" lon="3.16793">
        <ele>243.31759643555</ele>
        <time>2016-02-07T09:11:29.000Z</time>
      </trkpt>
      <trkpt lat="46.83388" lon="3.16791">
        <ele>243.38725280762</ele>
        <time>2016-02-07T09:11:31.000Z</time>
      </trkpt>
      <trkpt lat="46.8339" lon="3.16791">
        <ele>243.44497680664</ele>
        <time>2016-02-07T09:11:33.000Z</time>
      </trkpt>
      <trkpt lat="46.83392" lon="3.16788">
        <ele>243.49723815918</ele>
        <time>2016-02-07T09:11:37.000Z</time>
      </trkpt>
      <trkpt lat="46.83392" lon="3.16786">
        <ele>243.55171203613</ele>
        <time>2016-02-07T09:11:38.000Z</time>
      </trkpt>
      <trkpt lat="46.83391" lon="3.16785">
        <ele>243.59768676758</ele>
        <time>2016-02-07T09:11:43.000Z</time>
      </trkpt>
      <trkpt lat="46.83388" lon="3.16783">
        <ele>243.6302947998</ele>
        <time>2016-02-07T09:11:45.000Z</time>
      </trkpt>
      <trkpt lat="46.83385" lon="3.16782">
        <ele>243.64767456055</ele>
        <time>2016-02-07T09:11:48.000Z</time>
      </trkpt>
      <trkpt lat="46.83383" lon="3.1678">
        <ele>243.64518737793</ele>
        <time>2016-02-07T09:11:50.000Z</time>
      </trkpt>
      <trkpt lat="46.8338" lon="3.16777">
        <ele>243.63159179688</ele>
        <time>2016-02-07T09:11:53.000Z</time>
      </trkpt>
      <trkpt lat="46.83377" lon="3.16775">
        <ele>243.61465454102</ele>
        <time>2016-02-07T09:11:55.000Z</time>
      </trkpt>
      <trkpt lat="46.83376" lon="3.16773">
        <ele>243.60957336426</ele>
        <time>2016-02-07T09:11:57.000Z</time>
      </trkpt>
      <trkpt lat="46.83375" lon="3.1677">
        <ele>243.61483764648</ele>
        <time>2016-02-07T09:12:00.000Z</time>
      </trkpt>
      <trkpt lat="46.83375" lon="3.16772">
        <ele>243.61462402344</ele>
        <time>2016-02-07T09:12:11.000Z</time>
      </trkpt>
      <trkpt lat="46.83375" lon="3.16774">
        <ele>243.60848999023</ele>
        <time>2016-02-07T09:12:13.000Z</time>
      </trkpt>
      <trkpt lat="46.83376" lon="3.16778">
        <ele>243.59201049805</ele>
        <time>2016-02-07T09:12:16.000Z</time>
      </trkpt>
      <trkpt lat="46.83376" lon="3.16781">
        <ele>243.55863952637</ele>
        <time>2016-02-07T09:12:18.000Z</time>
      </trkpt>
      <trkpt lat="46.83376" lon="3.16785">
        <ele>243.51106262207</ele>
        <time>2016-02-07T09:12:21.000Z</time>
      </trkpt>
      <trkpt lat="46.83376" lon="3.16791">
        <ele>243.44369506836</ele>
        <time>2016-02-07T09:12:24.000Z</time>
      </trkpt>
      <trkpt lat="46.83376" lon="3.16797">
        <ele>243.36563110352</ele>
        <time>2016-02-07T09:12:27.000Z</time>
      </trkpt>
      <trkpt lat="46.83376" lon="3.168">
        <ele>243.28601074219</ele>
        <time>2016-02-07T09:12:29.000Z</time>
      </trkpt>
      <trkpt lat="46.83374" lon="3.16805">
        <ele>243.19186401367</ele>
        <time>2016-02-07T09:12:32.000Z</time>
      </trkpt>
      <trkpt lat="46.83372" lon="3.16808">
        <ele>243.09219360352</ele>
        <time>2016-02-07T09:12:35.000Z</time>
      </trkpt>
      <trkpt lat="46.83369" lon="3.1681">
        <ele>243.00546264648</ele>
        <time>2016-02-07T09:12:38.000Z</time>
      </trkpt>
      <trkpt lat="46.83368" lon="3.16811">
        <ele>242.92922973633</ele>
        <time>2016-02-07T09:12:40.000Z</time>
      </trkpt>
      <trkpt lat="46.83366" lon="3.16813">
        <ele>242.8508605957</ele>
        <time>2016-02-07T09:12:43.000Z</time>
      </trkpt>
      <trkpt lat="46.83363" lon="3.16817">
        <ele>242.78018188477</ele>
        <time>2016-02-07T09:12:46.000Z</time>
      </trkpt>
      <trkpt lat="46.83362" lon="3.16818">
        <ele>242.71585083008</ele>
        <time>2016-02-07T09:12:48.000Z</time>
      </trkpt>
      <trkpt lat="46.83361" lon="3.16819">
        <ele>242.65881347656</ele>
        <time>2016-02-07T09:12:50.000Z</time>
      </trkpt>
      <trkpt lat="46.83361" lon="3.16819">
        <ele>242.65881347656</ele>
        <time>2016-02-07T09:13:10.000Z</time>
      </trkpt>
      <trkpt lat="46.83359" lon="3.1682">
        <ele>242.60111999512</ele>
        <time>2016-02-07T09:13:12.000Z</time>
      </trkpt>
      <trkpt lat="46.83357" lon="3.1682">
        <ele>242.55464172363</ele>
        <time>2016-02-07T09:13:23.000Z</time>
      </trkpt>
      <trkpt lat="46.83357" lon="3.1682">
        <ele>242.55464172363</ele>
        <time>2016-02-07T09:13:43.000Z</time>
      </trkpt>
      <trkpt lat="46.83358" lon="3.16822">
        <ele>242.52426147461</ele>
        <time>2016-02-07T09:14:13.000Z</time>
      </trkpt>
      <trkpt lat="46.83359" lon="3.16823">
        <ele>242.49914550781</ele>
        <time>2016-02-07T09:14:18.000Z</time>
      </trkpt>
      <trkpt lat="46.83359" lon="3.16817">
        <ele>242.49995422363</ele>
        <time>2016-02-07T09:14:30.000Z</time>
      </trkpt>
      <trkpt lat="46.83357" lon="3.16817">
        <ele>242.50605773926</ele>
        <time>2016-02-07T09:14:34.000Z</time>
      </trkpt>
      <trkpt lat="46.83356" lon="3.16817">
        <ele>242.51379394531</ele>
        <time>2016-02-07T09:14:37.000Z</time>
      </trkpt>
      <trkpt lat="46.83355" lon="3.16817">
        <ele>242.51831054688</ele>
        <time>2016-02-07T09:14:40.000Z</time>
      </trkpt>
      <trkpt lat="46.83353" lon="3.16819">
        <ele>242.51664733887</ele>
        <time>2016-02-07T09:14:43.000Z</time>
      </trkpt>
      <trkpt lat="46.83353" lon="3.16816">
        <ele>242.50202941895</ele>
        <time>2016-02-07T09:14:52.000Z</time>
      </trkpt>
      <trkpt lat="46.83354" lon="3.16815">
        <ele>242.49726867676</ele>
        <time>2016-02-07T09:14:58.000Z</time>
      </trkpt>
      <trkpt lat="46.83355" lon="3.16813">
        <ele>242.50427246094</ele>
        <time>2016-02-07T09:15:02.000Z</time>
      </trkpt>
      <trkpt lat="46.83356" lon="3.16812">
        <ele>242.52165222168</ele>
        <time>2016-02-07T09:15:09.000Z</time>
      </trkpt>
      <trkpt lat="46.83357" lon="3.16812">
        <ele>242.55424499512</ele>
        <time>2016-02-07T09:15:11.000Z</time>
      </trkpt>
      <trkpt lat="46.83359" lon="3.1681">
        <ele>242.59231567383</ele>
        <time>2016-02-07T09:15:14.000Z</time>
      </trkpt>
      <trkpt lat="46.8336" lon="3.16808">
        <ele>242.63398742676</ele>
        <time>2016-02-07T09:15:16.000Z</time>
      </trkpt>
      <trkpt lat="46.83363" lon="3.16807">
        <ele>242.67910766602</ele>
        <time>2016-02-07T09:15:19.000Z</time>
      </trkpt>
      <trkpt lat="46.83364" lon="3.16806">
        <ele>242.72631835938</ele>
        <time>2016-02-07T09:15:21.000Z</time>
      </trkpt>
      <trkpt lat="46.83366" lon="3.16805">
        <ele>242.77722167969</ele>
        <time>2016-02-07T09:15:23.000Z</time>
      </trkpt>
      <trkpt lat="46.8337" lon="3.16804">
        <ele>242.83395385742</ele>
        <time>2016-02-07T09:15:26.000Z</time>
      </trkpt>
      <trkpt lat="46.83372" lon="3.16803">
        <ele>242.88969421387</ele>
        <time>2016-02-07T09:15:28.000Z</time>
      </trkpt>
      <trkpt lat="46.83374" lon="3.16801">
        <ele>242.9439239502</ele>
        <time>2016-02-07T09:15:31.000Z</time>
      </trkpt>
      <trkpt lat="46.83375" lon="3.16798">
        <ele>243.0061340332</ele>
        <time>2016-02-07T09:15:34.000Z</time>
      </trkpt>
      <trkpt lat="46.83376" lon="3.16796">
        <ele>243.07229614258</ele>
        <time>2016-02-07T09:15:40.000Z</time>
      </trkpt>
      <trkpt lat="46.83377" lon="3.16792">
        <ele>243.13566589355</ele>
        <time>2016-02-07T09:15:43.000Z</time>
      </trkpt>
      <trkpt lat="46.83377" lon="3.16788">
        <ele>243.20712280273</ele>
        <time>2016-02-07T09:15:46.000Z</time>
      </trkpt>
      <trkpt lat="46.83377" lon="3.16783">
        <ele>243.28349304199</ele>
        <time>2016-02-07T09:15:49.000Z</time>
      </trkpt>
      <trkpt lat="46.83377" lon="3.16781">
        <ele>243.35380554199</ele>
        <time>2016-02-07T09:15:51.000Z</time>
      </trkpt>
      <trkpt lat="46.83376" lon="3.16776">
        <ele>243.42463684082</ele>
        <time>2016-02-07T09:15:54.000Z</time>
      </trkpt>
      <trkpt lat="46.83376" lon="3.16773">
        <ele>243.49226379395</ele>
        <time>2016-02-07T09:15:56.000Z</time>
      </trkpt>
      <trkpt lat="46.83375" lon="3.16767">
        <ele>243.55844116211</ele>
        <time>2016-02-07T09:15:59.000Z</time>
      </trkpt>
      <trkpt lat="46.83374" lon="3.16764">
        <ele>243.61560058594</ele>
        <time>2016-02-07T09:16:01.000Z</time>
      </trkpt>
      <trkpt lat="46.83373" lon="3.1676">
        <ele>243.67195129395</ele>
        <time>2016-02-07T09:16:03.000Z</time>
      </trkpt>
      <trkpt lat="46.83373" lon="3.16754">
        <ele>243.74038696289</ele>
        <time>2016-02-07T09:16:06.000Z</time>
      </trkpt>
      <trkpt lat="46.83372" lon="3.16748">
        <ele>243.7900390625</ele>
        <time>2016-02-07T09:16:09.000Z</time>
      </trkpt>
      <trkpt lat="46.83372" lon="3.16745">
        <ele>243.80448913574</ele>
        <time>2016-02-07T09:16:11.000Z</time>
      </trkpt>
      <trkpt lat="46.83372" lon="3.16739">
        <ele>243.76541137695</ele>
        <time>2016-02-07T09:16:14.000Z</time>
      </trkpt>
      <trkpt lat="46.83373" lon="3.16733">
        <ele>243.68034362793</ele>
        <time>2016-02-07T09:16:17.000Z</time>
      </trkpt>
      <trkpt lat="46.83373" lon="3.16729">
        <ele>243.54374694824</ele>
        <time>2016-02-07T09:16:20.000Z</time>
      </trkpt>
      <trkpt lat="46.83373" lon="3.16727">
        <ele>243.39755249023</ele>
        <time>2016-02-07T09:16:22.000Z</time>
      </trkpt>
      <trkpt lat="46.83373" lon="3.16722">
        <ele>243.23791503906</ele>
        <time>2016-02-07T09:16:25.000Z</time>
      </trkpt>
      <trkpt lat="46.83373" lon="3.16719">
        <ele>243.10160827637</ele>
        <time>2016-02-07T09:16:28.000Z</time>
      </trkpt>
      <trkpt lat="46.83374" lon="3.16717">
        <ele>242.99380493164</ele>
        <time>2016-02-07T09:16:31.000Z</time>
      </trkpt>
      <trkpt lat="46.83374" lon="3.16715">
        <ele>242.89831542969</ele>
        <time>2016-02-07T09:16:33.000Z</time>
      </trkpt>
      <trkpt lat="46.83374" lon="3.16713">
        <ele>242.80229187012</ele>
        <time>2016-02-07T09:16:35.000Z</time>
      </trkpt>
      <trkpt lat="46.83373" lon="3.16706">
        <ele>242.68876647949</ele>
        <time>2016-02-07T09:16:38.000Z</time>
      </trkpt>
      <trkpt lat="46.83374" lon="3.167">
        <ele>242.55786132812</ele>
        <time>2016-02-07T09:16:41.000Z</time>
      </trkpt>
      <trkpt lat="46.83373" lon="3.16697">
        <ele>242.4130859375</ele>
        <time>2016-02-07T09:16:43.000Z</time>
      </trkpt>
      <trkpt lat="46.83374" lon="3.16694">
        <ele>242.26034545898</ele>
        <time>2016-02-07T09:16:45.000Z</time>
      </trkpt>
      <trkpt lat="46.83373" lon="3.16689">
        <ele>242.08926391602</ele>
        <time>2016-02-07T09:16:48.000Z</time>
      </trkpt>
      <trkpt lat="46.83372" lon="3.16684">
        <ele>241.93034362793</ele>
        <time>2016-02-07T09:16:51.000Z</time>
      </trkpt>
      <trkpt lat="46.83372" lon="3.16679">
        <ele>241.77856445312</ele>
        <time>2016-02-07T09:16:54.000Z</time>
      </trkpt>
      <trkpt lat="46.83373" lon="3.16676">
        <ele>241.62548828125</ele>
        <time>2016-02-07T09:16:56.000Z</time>
      </trkpt>
      <trkpt lat="46.83374" lon="3.16671">
        <ele>241.46162414551</ele>
        <time>2016-02-07T09:16:59.000Z</time>
      </trkpt>
      <trkpt lat="46.83374" lon="3.16667">
        <ele>241.30166625977</ele>
        <time>2016-02-07T09:17:01.000Z</time>
      </trkpt>
      <trkpt lat="46.83374" lon="3.1666">
        <ele>241.14291381836</ele>
        <time>2016-02-07T09:17:04.000Z</time>
      </trkpt>
      <trkpt lat="46.83374" lon="3.16657">
        <ele>240.99726867676</ele>
        <time>2016-02-07T09:17:06.000Z</time>
      </trkpt>
      <trkpt lat="46.83374" lon="3.16653">
        <ele>240.85237121582</ele>
        <time>2016-02-07T09:17:08.000Z</time>
      </trkpt>
      <trkpt lat="46.83373" lon="3.16646">
        <ele>240.69807434082</ele>
        <time>2016-02-07T09:17:11.000Z</time>
      </trkpt>
      <trkpt lat="46.83374" lon="3.16641">
        <ele>240.54312133789</ele>
        <time>2016-02-07T09:17:14.000Z</time>
      </trkpt>
      <trkpt lat="46.83374" lon="3.16636">
        <ele>240.39619445801</ele>
        <time>2016-02-07T09:17:17.000Z</time>
      </trkpt>
      <trkpt lat="46.83373" lon="3.16631">
        <ele>240.23886108398</ele>
        <time>2016-02-07T09:17:20.000Z</time>
      </trkpt>
      <trkpt lat="46.83373" lon="3.16627">
        <ele>240.0778503418</ele>
        <time>2016-02-07T09:17:23.000Z</time>
      </trkpt>
      <trkpt lat="46.83372" lon="3.16622">
        <ele>239.93293762207</ele>
        <time>2016-02-07T09:17:25.000Z</time>
      </trkpt>
      <trkpt lat="46.83372" lon="3.16615">
        <ele>239.77416992188</ele>
        <time>2016-02-07T09:17:28.000Z</time>
      </trkpt>
      <trkpt lat="46.83372" lon="3.16611">
        <ele>239.61856079102</ele>
        <time>2016-02-07T09:17:30.000Z</time>
      </trkpt>
      <trkpt lat="46.83372" lon="3.16606">
        <ele>239.46475219727</ele>
        <time>2016-02-07T09:17:33.000Z</time>
      </trkpt>
      <trkpt lat="46.83372" lon="3.16601">
        <ele>239.30776977539</ele>
        <time>2016-02-07T09:17:36.000Z</time>
      </trkpt>
      <trkpt lat="46.83372" lon="3.16598">
        <ele>239.1566619873</ele>
        <time>2016-02-07T09:17:38.000Z</time>
      </trkpt>
      <trkpt lat="46.83372" lon="3.16591">
        <ele>239.01327514648</ele>
        <time>2016-02-07T09:17:41.000Z</time>
      </trkpt>
      <trkpt lat="46.83371" lon="3.16587">
        <ele>238.8646697998</ele>
        <time>2016-02-07T09:17:44.000Z</time>
      </trkpt>
      <trkpt lat="46.83371" lon="3.16582">
        <ele>238.72050476074</ele>
        <time>2016-02-07T09:17:46.000Z</time>
      </trkpt>
      <trkpt lat="46.83372" lon="3.16577">
        <ele>238.58923339844</ele>
        <time>2016-02-07T09:17:49.000Z</time>
      </trkpt>
      <trkpt lat="46.83372" lon="3.16571">
        <ele>238.45718383789</ele>
        <time>2016-02-07T09:17:52.000Z</time>
      </trkpt>
      <trkpt lat="46.83372" lon="3.16566">
        <ele>238.34516906738</ele>
        <time>2016-02-07T09:17:55.000Z</time>
      </trkpt>
      <trkpt lat="46.83371" lon="3.16559">
        <ele>238.2414855957</ele>
        <time>2016-02-07T09:17:58.000Z</time>
      </trkpt>
      <trkpt lat="46.83371" lon="3.16553">
        <ele>238.13859558105</ele>
        <time>2016-02-07T09:18:01.000Z</time>
      </trkpt>
      <trkpt lat="46.83372" lon="3.1655">
        <ele>238.044921875</ele>
        <time>2016-02-07T09:18:03.000Z</time>
      </trkpt>
      <trkpt lat="46.83372" lon="3.16545">
        <ele>237.95462036133</ele>
        <time>2016-02-07T09:18:06.000Z</time>
      </trkpt>
      <trkpt lat="46.83372" lon="3.1654">
        <ele>237.86694335938</ele>
        <time>2016-02-07T09:18:08.000Z</time>
      </trkpt>
      <trkpt lat="46.83372" lon="3.16536">
        <ele>237.78567504883</ele>
        <time>2016-02-07T09:18:11.000Z</time>
      </trkpt>
      <trkpt lat="46.83373" lon="3.16533">
        <ele>237.71682739258</ele>
        <time>2016-02-07T09:18:13.000Z</time>
      </trkpt>
      <trkpt lat="46.83373" lon="3.16529">
        <ele>237.64501953125</ele>
        <time>2016-02-07T09:18:15.000Z</time>
      </trkpt>
      <trkpt lat="46.83373" lon="3.16527">
        <ele>237.58346557617</ele>
        <time>2016-02-07T09:18:17.000Z</time>
      </trkpt>
      <trkpt lat="46.83373" lon="3.16521">
        <ele>237.51388549805</ele>
        <time>2016-02-07T09:18:20.000Z</time>
      </trkpt>
      <trkpt lat="46.83372" lon="3.16515">
        <ele>237.43920898438</ele>
        <time>2016-02-07T09:18:23.000Z</time>
      </trkpt>
      <trkpt lat="46.83371" lon="3.16509">
        <ele>237.35498046875</ele>
        <time>2016-02-07T09:18:26.000Z</time>
      </trkpt>
      <trkpt lat="46.83371" lon="3.16504">
        <ele>237.26516723633</ele>
        <time>2016-02-07T09:18:29.000Z</time>
      </trkpt>
      <trkpt lat="46.83371" lon="3.165">
        <ele>237.16828918457</ele>
        <time>2016-02-07T09:18:31.000Z</time>
      </trkpt>
      <trkpt lat="46.8337" lon="3.16493">
        <ele>237.05422973633</ele>
        <time>2016-02-07T09:18:34.000Z</time>
      </trkpt>
      <trkpt lat="46.8337" lon="3.1649">
        <ele>236.93838500977</ele>
        <time>2016-02-07T09:18:36.000Z</time>
      </trkpt>
      <trkpt lat="46.83369" lon="3.16484">
        <ele>236.81156921387</ele>
        <time>2016-02-07T09:18:39.000Z</time>
      </trkpt>
      <trkpt lat="46.83369" lon="3.16481">
        <ele>236.67753601074</ele>
        <time>2016-02-07T09:18:41.000Z</time>
      </trkpt>
      <trkpt lat="46.83369" lon="3.16474">
        <ele>236.52047729492</ele>
        <time>2016-02-07T09:18:44.000Z</time>
      </trkpt>
      <trkpt lat="46.83369" lon="3.16471">
        <ele>236.38261413574</ele>
        <time>2016-02-07T09:18:46.000Z</time>
      </trkpt>
      <trkpt lat="46.83368" lon="3.16465">
        <ele>236.2318572998</ele>
        <time>2016-02-07T09:18:49.000Z</time>
      </trkpt>
      <trkpt lat="46.83368" lon="3.16461">
        <ele>236.08740234375</ele>
        <time>2016-02-07T09:18:51.000Z</time>
      </trkpt>
      <trkpt lat="46.83367" lon="3.16455">
        <ele>235.92622375488</ele>
        <time>2016-02-07T09:18:54.000Z</time>
      </trkpt>
      <trkpt lat="46.83366" lon="3.1645">
        <ele>235.77249145508</ele>
        <time>2016-02-07T09:18:56.000Z</time>
      </trkpt>
      <trkpt lat="46.83365" lon="3.16445">
        <ele>235.60348510742</ele>
        <time>2016-02-07T09:18:59.000Z</time>
      </trkpt>
      <trkpt lat="46.83365" lon="3.16441">
        <ele>235.45071411133</ele>
        <time>2016-02-07T09:19:01.000Z</time>
      </trkpt>
      <trkpt lat="46.83364" lon="3.16439">
        <ele>235.30949401855</ele>
        <time>2016-02-07T09:19:03.000Z</time>
      </trkpt>
      <trkpt lat="46.83364" lon="3.16434">
        <ele>235.17500305176</ele>
        <time>2016-02-07T09:19:06.000Z</time>
      </trkpt>
      <trkpt lat="46.83363" lon="3.1643">
        <ele>235.04512023926</ele>
        <time>2016-02-07T09:19:08.000Z</time>
      </trkpt>
      <trkpt lat="46.83363" lon="3.16427">
        <ele>234.92929077148</ele>
        <time>2016-02-07T09:19:10.000Z</time>
      </trkpt>
      <trkpt lat="46.83364" lon="3.16423">
        <ele>234.81132507324</ele>
        <time>2016-02-07T09:19:13.000Z</time>
      </trkpt>
      <trkpt lat="46.83364" lon="3.16419">
        <ele>234.68161010742</ele>
        <time>2016-02-07T09:19:15.000Z</time>
      </trkpt>
      <trkpt lat="46.83364" lon="3.16413">
        <ele>234.56645202637</ele>
        <time>2016-02-07T09:19:18.000Z</time>
      </trkpt>
      <trkpt lat="46.83364" lon="3.16405">
        <ele>234.46530151367</ele>
        <time>2016-02-07T09:19:21.000Z</time>
      </trkpt>
      <trkpt lat="46.83364" lon="3.16398">
        <ele>234.37446594238</ele>
        <time>2016-02-07T09:19:24.000Z</time>
      </trkpt>
      <trkpt lat="46.83364" lon="3.16393">
        <ele>234.29898071289</ele>
        <time>2016-02-07T09:19:26.000Z</time>
      </trkpt>
      <trkpt lat="46.83365" lon="3.16386">
        <ele>234.24087524414</ele>
        <time>2016-02-07T09:19:29.000Z</time>
      </trkpt>
      <trkpt lat="46.83366" lon="3.16383">
        <ele>234.19918823242</ele>
        <time>2016-02-07T09:19:31.000Z</time>
      </trkpt>
      <trkpt lat="46.83367" lon="3.16377">
        <ele>234.16488647461</ele>
        <time>2016-02-07T09:19:34.000Z</time>
      </trkpt>
      <trkpt lat="46.83367" lon="3.16372">
        <ele>234.13606262207</ele>
        <time>2016-02-07T09:19:36.000Z</time>
      </trkpt>
      <trkpt lat="46.83367" lon="3.16367">
        <ele>234.10635375977</ele>
        <time>2016-02-07T09:19:39.000Z</time>
      </trkpt>
      <trkpt lat="46.83367" lon="3.16364">
        <ele>234.08158874512</ele>
        <time>2016-02-07T09:19:41.000Z</time>
      </trkpt>
      <trkpt lat="46.83367" lon="3.1636">
        <ele>234.05361938477</ele>
        <time>2016-02-07T09:19:43.000Z</time>
      </trkpt>
      <trkpt lat="46.83368" lon="3.16352">
        <ele>234.02079772949</ele>
        <time>2016-02-07T09:19:46.000Z</time>
      </trkpt>
      <trkpt lat="46.83368" lon="3.16348">
        <ele>233.99028015137</ele>
        <time>2016-02-07T09:19:49.000Z</time>
      </trkpt>
      <trkpt lat="46.83368" lon="3.16342">
        <ele>233.95932006836</ele>
        <time>2016-02-07T09:19:52.000Z</time>
      </trkpt>
      <trkpt lat="46.83367" lon="3.16338">
        <ele>233.92227172852</ele>
        <time>2016-02-07T09:19:54.000Z</time>
      </trkpt>
      <trkpt lat="46.83368" lon="3.16331">
        <ele>233.87239074707</ele>
        <time>2016-02-07T09:19:57.000Z</time>
      </trkpt>
      <trkpt lat="46.83367" lon="3.16325">
        <ele>233.7914276123</ele>
        <time>2016-02-07T09:20:00.000Z</time>
      </trkpt>
      <trkpt lat="46.83367" lon="3.1632">
        <ele>233.6806640625</ele>
        <time>2016-02-07T09:20:03.000Z</time>
      </trkpt>
      <trkpt lat="46.83367" lon="3.16315">
        <ele>233.55221557617</ele>
        <time>2016-02-07T09:20:05.000Z</time>
      </trkpt>
      <trkpt lat="46.83367" lon="3.16309">
        <ele>233.39291381836</ele>
        <time>2016-02-07T09:20:08.000Z</time>
      </trkpt>
      <trkpt lat="46.83366" lon="3.16304">
        <ele>233.2151184082</ele>
        <time>2016-02-07T09:20:11.000Z</time>
      </trkpt>
      <trkpt lat="46.83365" lon="3.16299">
        <ele>233.04418945312</ele>
        <time>2016-02-07T09:20:14.000Z</time>
      </trkpt>
      <trkpt lat="46.83365" lon="3.16294">
        <ele>232.87394714355</ele>
        <time>2016-02-07T09:20:17.000Z</time>
      </trkpt>
      <trkpt lat="46.83365" lon="3.1629">
        <ele>232.70503234863</ele>
        <time>2016-02-07T09:20:19.000Z</time>
      </trkpt>
      <trkpt lat="46.83364" lon="3.16284">
        <ele>232.53369140625</ele>
        <time>2016-02-07T09:20:22.000Z</time>
      </trkpt>
      <trkpt lat="46.83364" lon="3.16278">
        <ele>232.36128234863</ele>
        <time>2016-02-07T09:20:25.000Z</time>
      </trkpt>
      <trkpt lat="46.83364" lon="3.16274">
        <ele>232.19702148438</ele>
        <time>2016-02-07T09:20:27.000Z</time>
      </trkpt>
      <trkpt lat="46.83363" lon="3.16269">
        <ele>232.02792358398</ele>
        <time>2016-02-07T09:20:30.000Z</time>
      </trkpt>
      <trkpt lat="46.83364" lon="3.16262">
        <ele>231.8450012207</ele>
        <time>2016-02-07T09:20:33.000Z</time>
      </trkpt>
      <trkpt lat="46.83364" lon="3.16256">
        <ele>231.67245483398</ele>
        <time>2016-02-07T09:20:36.000Z</time>
      </trkpt>
      <trkpt lat="46.83365" lon="3.1625">
        <ele>231.50137329102</ele>
        <time>2016-02-07T09:20:39.000Z</time>
      </trkpt>
      <trkpt lat="46.83365" lon="3.16245">
        <ele>231.33847045898</ele>
        <time>2016-02-07T09:20:42.000Z</time>
      </trkpt>
      <trkpt lat="46.83364" lon="3.16238">
        <ele>231.18811035156</ele>
        <time>2016-02-07T09:20:45.000Z</time>
      </trkpt>
      <trkpt lat="46.83364" lon="3.16231">
        <ele>231.05375671387</ele>
        <time>2016-02-07T09:20:48.000Z</time>
      </trkpt>
      <trkpt lat="46.83365" lon="3.16224">
        <ele>230.93144226074</ele>
        <time>2016-02-07T09:20:51.000Z</time>
      </trkpt>
      <trkpt lat="46.83365" lon="3.16219">
        <ele>230.82820129395</ele>
        <time>2016-02-07T09:20:54.000Z</time>
      </trkpt>
      <trkpt lat="46.83365" lon="3.16216">
        <ele>230.73286437988</ele>
        <time>2016-02-07T09:20:56.000Z</time>
      </trkpt>
      <trkpt lat="46.83366" lon="3.16211">
        <ele>230.64794921875</ele>
        <time>2016-02-07T09:20:59.000Z</time>
      </trkpt>
      <trkpt lat="46.83366" lon="3.16207">
        <ele>230.57344055176</ele>
        <time>2016-02-07T09:21:01.000Z</time>
      </trkpt>
      <trkpt lat="46.83366" lon="3.16201">
        <ele>230.501953125</ele>
        <time>2016-02-07T09:21:04.000Z</time>
      </trkpt>
      <trkpt lat="46.83366" lon="3.16198">
        <ele>230.43417358398</ele>
        <time>2016-02-07T09:21:06.000Z</time>
      </trkpt>
      <trkpt lat="46.83366" lon="3.16194">
        <ele>230.36437988281</ele>
        <time>2016-02-07T09:21:08.000Z</time>
      </trkpt>
      <trkpt lat="46.83365" lon="3.16189">
        <ele>230.29145812988</ele>
        <time>2016-02-07T09:21:11.000Z</time>
      </trkpt>
      <trkpt lat="46.83365" lon="3.16186">
        <ele>230.21772766113</ele>
        <time>2016-02-07T09:21:13.000Z</time>
      </trkpt>
      <trkpt lat="46.83365" lon="3.16179">
        <ele>230.13940429688</ele>
        <time>2016-02-07T09:21:16.000Z</time>
      </trkpt>
      <trkpt lat="46.83365" lon="3.16175">
        <ele>230.06343078613</ele>
        <time>2016-02-07T09:21:18.000Z</time>
      </trkpt>
      <trkpt lat="46.83366" lon="3.16171">
        <ele>229.98489379883</ele>
        <time>2016-02-07T09:21:20.000Z</time>
      </trkpt>
      <trkpt lat="46.83366" lon="3.16166">
        <ele>229.91415405273</ele>
        <time>2016-02-07T09:21:22.000Z</time>
      </trkpt>
      <trkpt lat="46.83366" lon="3.1616">
        <ele>229.88851928711</ele>
        <time>2016-02-07T09:21:25.000Z</time>
      </trkpt>
      <trkpt lat="46.83366" lon="3.16157">
        <ele>229.89965820312</ele>
        <time>2016-02-07T09:21:27.000Z</time>
      </trkpt>
      <trkpt lat="46.83366" lon="3.1615">
        <ele>229.95565795898</ele>
        <time>2016-02-07T09:21:30.000Z</time>
      </trkpt>
      <trkpt lat="46.83365" lon="3.16144">
        <ele>230.04907226562</ele>
        <time>2016-02-07T09:21:33.000Z</time>
      </trkpt>
      <trkpt lat="46.83365" lon="3.16139">
        <ele>230.1796875</ele>
        <time>2016-02-07T09:21:36.000Z</time>
      </trkpt>
      <trkpt lat="46.83365" lon="3.16134">
        <ele>230.29846191406</ele>
        <time>2016-02-07T09:21:38.000Z</time>
      </trkpt>
      <trkpt lat="46.83365" lon="3.16129">
        <ele>230.42907714844</ele>
        <time>2016-02-07T09:21:41.000Z</time>
      </trkpt>
      <trkpt lat="46.83364" lon="3.16125">
        <ele>230.54406738281</ele>
        <time>2016-02-07T09:21:43.000Z</time>
      </trkpt>
      <trkpt lat="46.83365" lon="3.16119">
        <ele>230.66320800781</ele>
        <time>2016-02-07T09:21:46.000Z</time>
      </trkpt>
      <trkpt lat="46.83365" lon="3.16114">
        <ele>230.7822265625</ele>
        <time>2016-02-07T09:21:49.000Z</time>
      </trkpt>
      <trkpt lat="46.83365" lon="3.1611">
        <ele>230.900390625</ele>
        <time>2016-02-07T09:21:51.000Z</time>
      </trkpt>
      <trkpt lat="46.83365" lon="3.16105">
        <ele>231.01452636719</ele>
        <time>2016-02-07T09:21:53.000Z</time>
      </trkpt>
      <trkpt lat="46.83365" lon="3.16099">
        <ele>231.14025878906</ele>
        <time>2016-02-07T09:21:56.000Z</time>
      </trkpt>
      <trkpt lat="46.83365" lon="3.16095">
        <ele>231.25537109375</ele>
        <time>2016-02-07T09:21:58.000Z</time>
      </trkpt>
      <trkpt lat="46.83365" lon="3.1609">
        <ele>231.36938476562</ele>
        <time>2016-02-07T09:22:01.000Z</time>
      </trkpt>
      <trkpt lat="46.83366" lon="3.16083">
        <ele>231.49775695801</ele>
        <time>2016-02-07T09:22:04.000Z</time>
      </trkpt>
      <trkpt lat="46.83366" lon="3.1608">
        <ele>231.62748718262</ele>
        <time>2016-02-07T09:22:06.000Z</time>
      </trkpt>
      <trkpt lat="46.83366" lon="3.16075">
        <ele>231.77279663086</ele>
        <time>2016-02-07T09:22:11.000Z</time>
      </trkpt>
      <trkpt lat="46.83366" lon="3.16072">
        <ele>231.92587280273</ele>
        <time>2016-02-07T09:22:14.000Z</time>
      </trkpt>
      <trkpt lat="46.83368" lon="3.16067">
        <ele>232.10000610352</ele>
        <time>2016-02-07T09:22:14.000Z</time>
      </trkpt>
      <trkpt lat="46.83368" lon="3.16063">
        <ele>232.28140258789</ele>
        <time>2016-02-07T09:22:18.000Z</time>
      </trkpt>
      <trkpt lat="46.83368" lon="3.16058">
        <ele>232.47587585449</ele>
        <time>2016-02-07T09:22:20.000Z</time>
      </trkpt>
      <trkpt lat="46.83368" lon="3.16051">
        <ele>232.68315124512</ele>
        <time>2016-02-07T09:22:22.000Z</time>
      </trkpt>
      <trkpt lat="46.83369" lon="3.16048">
        <ele>232.89611816406</ele>
        <time>2016-02-07T09:22:27.000Z</time>
      </trkpt>
      <trkpt lat="46.83369" lon="3.16044">
        <ele>233.09359741211</ele>
        <time>2016-02-07T09:22:28.000Z</time>
      </trkpt>
      <trkpt lat="46.83369" lon="3.16041">
        <ele>233.27827453613</ele>
        <time>2016-02-07T09:22:28.000Z</time>
      </trkpt>
      <trkpt lat="46.8337" lon="3.1604">
        <ele>233.43923950195</ele>
        <time>2016-02-07T09:22:32.000Z</time>
      </trkpt>
      <trkpt lat="46.83371" lon="3.16033">
        <ele>233.60815429688</ele>
        <time>2016-02-07T09:22:33.000Z</time>
      </trkpt>
      <trkpt lat="46.83371" lon="3.16029">
        <ele>233.7787322998</ele>
        <time>2016-02-07T09:22:35.000Z</time>
      </trkpt>
      <trkpt lat="46.8337" lon="3.16024">
        <ele>233.95088195801</ele>
        <time>2016-02-07T09:22:37.000Z</time>
      </trkpt>
      <trkpt lat="46.8337" lon="3.16018">
        <ele>234.14750671387</ele>
        <time>2016-02-07T09:22:40.000Z</time>
      </trkpt>
      <trkpt lat="46.8337" lon="3.16014">
        <ele>234.36459350586</ele>
        <time>2016-02-07T09:22:43.000Z</time>
      </trkpt>
      <trkpt lat="46.83371" lon="3.1601">
        <ele>234.5513458252</ele>
        <time>2016-02-07T09:22:45.000Z</time>
      </trkpt>
      <trkpt lat="46.8337" lon="3.16005">
        <ele>234.74014282227</ele>
        <time>2016-02-07T09:22:48.000Z</time>
      </trkpt>
      <trkpt lat="46.83369" lon="3.16">
        <ele>234.93075561523</ele>
        <time>2016-02-07T09:22:51.000Z</time>
      </trkpt>
      <trkpt lat="46.83368" lon="3.15997">
        <ele>235.07353210449</ele>
        <time>2016-02-07T09:22:53.000Z</time>
      </trkpt>
      <trkpt lat="46.83368" lon="3.15991">
        <ele>235.1901550293</ele>
        <time>2016-02-07T09:22:56.000Z</time>
      </trkpt>
      <trkpt lat="46.83367" lon="3.15985">
        <ele>235.28247070312</ele>
        <time>2016-02-07T09:22:58.000Z</time>
      </trkpt>
      <trkpt lat="46.83365" lon="3.15981">
        <ele>235.33630371094</ele>
        <time>2016-02-07T09:23:02.000Z</time>
      </trkpt>
      <trkpt lat="46.83365" lon="3.15977">
        <ele>235.36421203613</ele>
        <time>2016-02-07T09:23:03.000Z</time>
      </trkpt>
      <trkpt lat="46.83365" lon="3.15973">
        <ele>235.39819335938</ele>
        <time>2016-02-07T09:23:06.000Z</time>
      </trkpt>
      <trkpt lat="46.83365" lon="3.15968">
        <ele>235.4365234375</ele>
        <time>2016-02-07T09:23:09.000Z</time>
      </trkpt>
      <trkpt lat="46.83366" lon="3.15963">
        <ele>235.48359680176</ele>
        <time>2016-02-07T09:23:12.000Z</time>
      </trkpt>
      <trkpt lat="46.83366" lon="3.15961">
        <ele>235.53657531738</ele>
        <time>2016-02-07T09:23:14.000Z</time>
      </trkpt>
      <trkpt lat="46.83366" lon="3.15956">
        <ele>235.59045410156</ele>
        <time>2016-02-07T09:23:18.000Z</time>
      </trkpt>
      <trkpt lat="46.83365" lon="3.15952">
        <ele>235.63935852051</ele>
        <time>2016-02-07T09:23:19.000Z</time>
      </trkpt>
      <trkpt lat="46.83364" lon="3.15949">
        <ele>235.68176269531</ele>
        <time>2016-02-07T09:23:21.000Z</time>
      </trkpt>
      <trkpt lat="46.83365" lon="3.15942">
        <ele>235.72375488281</ele>
        <time>2016-02-07T09:23:25.000Z</time>
      </trkpt>
      <trkpt lat="46.83366" lon="3.15938">
        <ele>235.77685546875</ele>
        <time>2016-02-07T09:23:26.000Z</time>
      </trkpt>
      <trkpt lat="46.83366" lon="3.15935">
        <ele>235.82824707031</ele>
        <time>2016-02-07T09:23:28.000Z</time>
      </trkpt>
      <trkpt lat="46.83366" lon="3.1593">
        <ele>235.8876953125</ele>
        <time>2016-02-07T09:23:31.000Z</time>
      </trkpt>
      <trkpt lat="46.83365" lon="3.15925">
        <ele>235.94763183594</ele>
        <time>2016-02-07T09:23:34.000Z</time>
      </trkpt>
      <trkpt lat="46.83365" lon="3.15921">
        <ele>235.99816894531</ele>
        <time>2016-02-07T09:23:36.000Z</time>
      </trkpt>
      <trkpt lat="46.83365" lon="3.15918">
        <ele>236.04235839844</ele>
        <time>2016-02-07T09:23:38.000Z</time>
      </trkpt>
      <trkpt lat="46.83364" lon="3.15914">
        <ele>236.08638000488</ele>
        <time>2016-02-07T09:23:41.000Z</time>
      </trkpt>
      <trkpt lat="46.83365" lon="3.15911">
        <ele>236.12675476074</ele>
        <time>2016-02-07T09:23:43.000Z</time>
      </trkpt>
      <trkpt lat="46.83365" lon="3.15906">
        <ele>236.17272949219</ele>
        <time>2016-02-07T09:23:46.000Z</time>
      </trkpt>
      <trkpt lat="46.83365" lon="3.15904">
        <ele>236.21455383301</ele>
        <time>2016-02-07T09:23:48.000Z</time>
      </trkpt>
      <trkpt lat="46.83364" lon="3.159">
        <ele>236.25556945801</ele>
        <time>2016-02-07T09:23:50.000Z</time>
      </trkpt>
      <trkpt lat="46.83363" lon="3.15896">
        <ele>236.28804016113</ele>
        <time>2016-02-07T09:23:53.000Z</time>
      </trkpt>
      <trkpt lat="46.83363" lon="3.15893">
        <ele>236.31513977051</ele>
        <time>2016-02-07T09:23:55.000Z</time>
      </trkpt>
      <trkpt lat="46.83362" lon="3.15888">
        <ele>236.33752441406</ele>
        <time>2016-02-07T09:23:58.000Z</time>
      </trkpt>
      <trkpt lat="46.83362" lon="3.15884">
        <ele>236.36499023438</ele>
        <time>2016-02-07T09:24:01.000Z</time>
      </trkpt>
      <trkpt lat="46.83363" lon="3.1588">
        <ele>236.39916992188</ele>
        <time>2016-02-07T09:24:04.000Z</time>
      </trkpt>
      <trkpt lat="46.83363" lon="3.15876">
        <ele>236.44421386719</ele>
        <time>2016-02-07T09:24:07.000Z</time>
      </trkpt>
      <trkpt lat="46.83363" lon="3.15871">
        <ele>236.49829101562</ele>
        <time>2016-02-07T09:24:10.000Z</time>
      </trkpt>
      <trkpt lat="46.83364" lon="3.15867">
        <ele>236.56066894531</ele>
        <time>2016-02-07T09:24:12.000Z</time>
      </trkpt>
      <trkpt lat="46.83364" lon="3.15862">
        <ele>236.62944030762</ele>
        <time>2016-02-07T09:24:15.000Z</time>
      </trkpt>
      <trkpt lat="46.83364" lon="3.15856">
        <ele>236.69853210449</ele>
        <time>2016-02-07T09:24:18.000Z</time>
      </trkpt>
      <trkpt lat="46.83364" lon="3.15852">
        <ele>236.76640319824</ele>
        <time>2016-02-07T09:24:21.000Z</time>
      </trkpt>
      <trkpt lat="46.83364" lon="3.15849">
        <ele>236.82832336426</ele>
        <time>2016-02-07T09:24:23.000Z</time>
      </trkpt>
      <trkpt lat="46.83364" lon="3.15842">
        <ele>236.88691711426</ele>
        <time>2016-02-07T09:24:26.000Z</time>
      </trkpt>
      <trkpt lat="46.83364" lon="3.1584">
        <ele>236.93354797363</ele>
        <time>2016-02-07T09:24:28.000Z</time>
      </trkpt>
      <trkpt lat="46.83363" lon="3.15836">
        <ele>236.96903991699</ele>
        <time>2016-02-07T09:24:31.000Z</time>
      </trkpt>
      <trkpt lat="46.83363" lon="3.1583">
        <ele>237.01387023926</ele>
        <time>2016-02-07T09:24:34.000Z</time>
      </trkpt>
      <trkpt lat="46.83363" lon="3.15825">
        <ele>237.06108093262</ele>
        <time>2016-02-07T09:24:36.000Z</time>
      </trkpt>
      <trkpt lat="46.83363" lon="3.15821">
        <ele>237.10827636719</ele>
        <time>2016-02-07T09:24:40.000Z</time>
      </trkpt>
      <trkpt lat="46.83363" lon="3.15815">
        <ele>237.16284179688</ele>
        <time>2016-02-07T09:24:42.000Z</time>
      </trkpt>
      <trkpt lat="46.83363" lon="3.15811">
        <ele>237.22358703613</ele>
        <time>2016-02-07T09:24:45.000Z</time>
      </trkpt>
      <trkpt lat="46.83363" lon="3.15807">
        <ele>237.28120422363</ele>
        <time>2016-02-07T09:24:48.000Z</time>
      </trkpt>
      <trkpt lat="46.83364" lon="3.15804">
        <ele>237.33988952637</ele>
        <time>2016-02-07T09:24:50.000Z</time>
      </trkpt>
      <trkpt lat="46.83364" lon="3.15802">
        <ele>237.39624023438</ele>
        <time>2016-02-07T09:24:53.000Z</time>
      </trkpt>
      <trkpt lat="46.83364" lon="3.158">
        <ele>237.44258117676</ele>
        <time>2016-02-07T09:24:55.000Z</time>
      </trkpt>
      <trkpt lat="46.83364" lon="3.15797">
        <ele>237.48547363281</ele>
        <time>2016-02-07T09:24:57.000Z</time>
      </trkpt>
      <trkpt lat="46.83365" lon="3.15791">
        <ele>237.53471374512</ele>
        <time>2016-02-07T09:25:01.000Z</time>
      </trkpt>
      <trkpt lat="46.83366" lon="3.1579">
        <ele>237.57914733887</ele>
        <time>2016-02-07T09:25:02.000Z</time>
      </trkpt>
      <trkpt lat="46.83367" lon="3.15786">
        <ele>237.63154602051</ele>
        <time>2016-02-07T09:25:05.000Z</time>
      </trkpt>
      <trkpt lat="46.83367" lon="3.15782">
        <ele>237.69506835938</ele>
        <time>2016-02-07T09:25:08.000Z</time>
      </trkpt>
      <trkpt lat="46.83367" lon="3.1578">
        <ele>237.75810241699</ele>
        <time>2016-02-07T09:25:11.000Z</time>
      </trkpt>
      <trkpt lat="46.83366" lon="3.15779">
        <ele>237.79765319824</ele>
        <time>2016-02-07T09:25:13.000Z</time>
      </trkpt>
      <trkpt lat="46.83366" lon="3.15777">
        <ele>237.82763671875</ele>
        <time>2016-02-07T09:25:16.000Z</time>
      </trkpt>
      <trkpt lat="46.83366" lon="3.15774">
        <ele>237.85021972656</ele>
        <time>2016-02-07T09:25:18.000Z</time>
      </trkpt>
      <trkpt lat="46.83367" lon="3.15771">
        <ele>237.87390136719</ele>
        <time>2016-02-07T09:25:21.000Z</time>
      </trkpt>
      <trkpt lat="46.83366" lon="3.15768">
        <ele>237.89286804199</ele>
        <time>2016-02-07T09:25:23.000Z</time>
      </trkpt>
      <trkpt lat="46.83366" lon="3.15765">
        <ele>237.92240905762</ele>
        <time>2016-02-07T09:25:26.000Z</time>
      </trkpt>
      <trkpt lat="46.83367" lon="3.15761">
        <ele>237.96923828125</ele>
        <time>2016-02-07T09:25:29.000Z</time>
      </trkpt>
      <trkpt lat="46.83367" lon="3.15759">
        <ele>238.01347351074</ele>
        <time>2016-02-07T09:25:33.000Z</time>
      </trkpt>
      <trkpt lat="46.83367" lon="3.15755">
        <ele>238.05297851562</ele>
        <time>2016-02-07T09:25:36.000Z</time>
      </trkpt>
      <trkpt lat="46.83366" lon="3.15748">
        <ele>238.09895324707</ele>
        <time>2016-02-07T09:25:39.000Z</time>
      </trkpt>
      <trkpt lat="46.83364" lon="3.15746">
        <ele>238.13603210449</ele>
        <time>2016-02-07T09:25:41.000Z</time>
      </trkpt>
      <trkpt lat="46.83364" lon="3.15744">
        <ele>238.16052246094</ele>
        <time>2016-02-07T09:25:43.000Z</time>
      </trkpt>
      <trkpt lat="46.83364" lon="3.15738">
        <ele>238.19473266602</ele>
        <time>2016-02-07T09:25:46.000Z</time>
      </trkpt>
      <trkpt lat="46.83364" lon="3.15735">
        <ele>238.23086547852</ele>
        <time>2016-02-07T09:25:48.000Z</time>
      </trkpt>
      <trkpt lat="46.83363" lon="3.15732">
        <ele>238.26802062988</ele>
        <time>2016-02-07T09:25:50.000Z</time>
      </trkpt>
      <trkpt lat="46.83362" lon="3.15729">
        <ele>238.30688476562</ele>
        <time>2016-02-07T09:25:53.000Z</time>
      </trkpt>
      <trkpt lat="46.83361" lon="3.15723">
        <ele>238.35586547852</ele>
        <time>2016-02-07T09:25:56.000Z</time>
      </trkpt>
      <trkpt lat="46.8336" lon="3.15719">
        <ele>238.39262390137</ele>
        <time>2016-02-07T09:25:59.000Z</time>
      </trkpt>
      <trkpt lat="46.83358" lon="3.15715">
        <ele>238.42485046387</ele>
        <time>2016-02-07T09:26:01.000Z</time>
      </trkpt>
      <trkpt lat="46.83359" lon="3.15711">
        <ele>238.46322631836</ele>
        <time>2016-02-07T09:26:03.000Z</time>
      </trkpt>
      <trkpt lat="46.83359" lon="3.15708">
        <ele>238.51188659668</ele>
        <time>2016-02-07T09:26:06.000Z</time>
      </trkpt>
      <trkpt lat="46.83359" lon="3.15705">
        <ele>238.5573425293</ele>
        <time>2016-02-07T09:26:09.000Z</time>
      </trkpt>
      <trkpt lat="46.8336" lon="3.157">
        <ele>238.61709594727</ele>
        <time>2016-02-07T09:26:12.000Z</time>
      </trkpt>
      <trkpt lat="46.8336" lon="3.15696">
        <ele>238.68363952637</ele>
        <time>2016-02-07T09:26:15.000Z</time>
      </trkpt>
      <trkpt lat="46.83358" lon="3.15692">
        <ele>238.74459838867</ele>
        <time>2016-02-07T09:26:18.000Z</time>
      </trkpt>
      <trkpt lat="46.83358" lon="3.15688">
        <ele>238.80728149414</ele>
        <time>2016-02-07T09:26:20.000Z</time>
      </trkpt>
      <trkpt lat="46.83359" lon="3.15683">
        <ele>238.88265991211</ele>
        <time>2016-02-07T09:26:23.000Z</time>
      </trkpt>
      <trkpt lat="46.83361" lon="3.15678">
        <ele>238.96369934082</ele>
        <time>2016-02-07T09:26:26.000Z</time>
      </trkpt>
      <trkpt lat="46.83361" lon="3.15674">
        <ele>239.04121398926</ele>
        <time>2016-02-07T09:26:28.000Z</time>
      </trkpt>
      <trkpt lat="46.8336" lon="3.15669">
        <ele>239.12382507324</ele>
        <time>2016-02-07T09:26:31.000Z</time>
      </trkpt>
      <trkpt lat="46.83359" lon="3.15664">
        <ele>239.18486022949</ele>
        <time>2016-02-07T09:26:34.000Z</time>
      </trkpt>
      <trkpt lat="46.83358" lon="3.15656">
        <ele>239.18200683594</ele>
        <time>2016-02-07T09:26:37.000Z</time>
      </trkpt>
      <trkpt lat="46.83357" lon="3.15655">
        <ele>239.14555358887</ele>
        <time>2016-02-07T09:26:39.000Z</time>
      </trkpt>
      <trkpt lat="46.83355" lon="3.15649">
        <ele>239.06120300293</ele>
        <time>2016-02-07T09:26:42.000Z</time>
      </trkpt>
      <trkpt lat="46.83354" lon="3.15647">
        <ele>238.94729614258</ele>
        <time>2016-02-07T09:26:44.000Z</time>
      </trkpt>
      <trkpt lat="46.83355" lon="3.15641">
        <ele>238.81112670898</ele>
        <time>2016-02-07T09:26:47.000Z</time>
      </trkpt>
      <trkpt lat="46.83356" lon="3.15637">
        <ele>238.70205688477</ele>
        <time>2016-02-07T09:26:49.000Z</time>
      </trkpt>
      <trkpt lat="46.83355" lon="3.15633">
        <ele>238.58235168457</ele>
        <time>2016-02-07T09:26:51.000Z</time>
      </trkpt>
      <trkpt lat="46.83356" lon="3.1563">
        <ele>238.48657226562</ele>
        <time>2016-02-07T09:26:54.000Z</time>
      </trkpt>
      <trkpt lat="46.83356" lon="3.15627">
        <ele>238.3941192627</ele>
        <time>2016-02-07T09:26:56.000Z</time>
      </trkpt>
      <trkpt lat="46.83357" lon="3.15622">
        <ele>238.31196594238</ele>
        <time>2016-02-07T09:26:58.000Z</time>
      </trkpt>
      <trkpt lat="46.83358" lon="3.15618">
        <ele>238.22770690918</ele>
        <time>2016-02-07T09:27:01.000Z</time>
      </trkpt>
      <trkpt lat="46.83358" lon="3.15614">
        <ele>238.14643859863</ele>
        <time>2016-02-07T09:27:04.000Z</time>
      </trkpt>
      <trkpt lat="46.83359" lon="3.15609">
        <ele>238.05380249023</ele>
        <time>2016-02-07T09:27:07.000Z</time>
      </trkpt>
      <trkpt lat="46.83358" lon="3.15605">
        <ele>237.95524597168</ele>
        <time>2016-02-07T09:27:10.000Z</time>
      </trkpt>
      <trkpt lat="46.83358" lon="3.15601">
        <ele>237.85124206543</ele>
        <time>2016-02-07T09:27:13.000Z</time>
      </trkpt>
      <trkpt lat="46.83358" lon="3.15598">
        <ele>237.75045776367</ele>
        <time>2016-02-07T09:27:15.000Z</time>
      </trkpt>
      <trkpt lat="46.83359" lon="3.15594">
        <ele>237.65139770508</ele>
        <time>2016-02-07T09:27:17.000Z</time>
      </trkpt>
      <trkpt lat="46.83359" lon="3.1559">
        <ele>237.55461120605</ele>
        <time>2016-02-07T09:27:20.000Z</time>
      </trkpt>
      <trkpt lat="46.83359" lon="3.15584">
        <ele>237.44889831543</ele>
        <time>2016-02-07T09:27:22.000Z</time>
      </trkpt>
      <trkpt lat="46.83359" lon="3.15579">
        <ele>237.36929321289</ele>
        <time>2016-02-07T09:27:24.000Z</time>
      </trkpt>
      <trkpt lat="46.83358" lon="3.15573">
        <ele>237.29782104492</ele>
        <time>2016-02-07T09:27:27.000Z</time>
      </trkpt>
      <trkpt lat="46.83359" lon="3.15566">
        <ele>237.23905944824</ele>
        <time>2016-02-07T09:27:30.000Z</time>
      </trkpt>
      <trkpt lat="46.83359" lon="3.15563">
        <ele>237.20205688477</ele>
        <time>2016-02-07T09:27:32.000Z</time>
      </trkpt>
      <trkpt lat="46.8336" lon="3.15558">
        <ele>237.1960144043</ele>
        <time>2016-02-07T09:27:35.000Z</time>
      </trkpt>
      <trkpt lat="46.8336" lon="3.15554">
        <ele>237.18803405762</ele>
        <time>2016-02-07T09:27:37.000Z</time>
      </trkpt>
      <trkpt lat="46.8336" lon="3.15549">
        <ele>237.18330383301</ele>
        <time>2016-02-07T09:27:40.000Z</time>
      </trkpt>
      <trkpt lat="46.83359" lon="3.15543">
        <ele>237.1767578125</ele>
        <time>2016-02-07T09:27:43.000Z</time>
      </trkpt>
      <trkpt lat="46.8336" lon="3.15538">
        <ele>237.17016601562</ele>
        <time>2016-02-07T09:27:46.000Z</time>
      </trkpt>
      <trkpt lat="46.8336" lon="3.15533">
        <ele>237.15884399414</ele>
        <time>2016-02-07T09:27:49.000Z</time>
      </trkpt>
      <trkpt lat="46.8336" lon="3.15528">
        <ele>237.14682006836</ele>
        <time>2016-02-07T09:27:52.000Z</time>
      </trkpt>
      <trkpt lat="46.8336" lon="3.15525">
        <ele>237.13529968262</ele>
        <time>2016-02-07T09:27:54.000Z</time>
      </trkpt>
      <trkpt lat="46.8336" lon="3.15518">
        <ele>237.12528991699</ele>
        <time>2016-02-07T09:27:57.000Z</time>
      </trkpt>
      <trkpt lat="46.83359" lon="3.15512">
        <ele>237.11538696289</ele>
        <time>2016-02-07T09:28:00.000Z</time>
      </trkpt>
      <trkpt lat="46.83359" lon="3.15509">
        <ele>237.10693359375</ele>
        <time>2016-02-07T09:28:02.000Z</time>
      </trkpt>
      <trkpt lat="46.8336" lon="3.15503">
        <ele>237.09362792969</ele>
        <time>2016-02-07T09:28:05.000Z</time>
      </trkpt>
      <trkpt lat="46.8336" lon="3.15501">
        <ele>237.08354187012</ele>
        <time>2016-02-07T09:28:07.000Z</time>
      </trkpt>
      <trkpt lat="46.8336" lon="3.15496">
        <ele>237.06637573242</ele>
        <time>2016-02-07T09:28:10.000Z</time>
      </trkpt>
      <trkpt lat="46.8336" lon="3.15494">
        <ele>237.04360961914</ele>
        <time>2016-02-07T09:28:12.000Z</time>
      </trkpt>
      <trkpt lat="46.8336" lon="3.15488">
        <ele>237.00253295898</ele>
        <time>2016-02-07T09:28:15.000Z</time>
      </trkpt>
      <trkpt lat="46.8336" lon="3.15481">
        <ele>236.95126342773</ele>
        <time>2016-02-07T09:28:18.000Z</time>
      </trkpt>
      <trkpt lat="46.83361" lon="3.15477">
        <ele>236.88818359375</ele>
        <time>2016-02-07T09:28:20.000Z</time>
      </trkpt>
      <trkpt lat="46.83361" lon="3.15475">
        <ele>236.82450866699</ele>
        <time>2016-02-07T09:28:22.000Z</time>
      </trkpt>
      <trkpt lat="46.83361" lon="3.15467">
        <ele>236.74931335449</ele>
        <time>2016-02-07T09:28:25.000Z</time>
      </trkpt>
      <trkpt lat="46.83361" lon="3.15463">
        <ele>236.68139648438</ele>
        <time>2016-02-07T09:28:27.000Z</time>
      </trkpt>
      <trkpt lat="46.83362" lon="3.15458">
        <ele>236.61576843262</ele>
        <time>2016-02-07T09:28:30.000Z</time>
      </trkpt>
      <trkpt lat="46.83362" lon="3.15454">
        <ele>236.55049133301</ele>
        <time>2016-02-07T09:28:33.000Z</time>
      </trkpt>
      <trkpt lat="46.83362" lon="3.15451">
        <ele>236.48791503906</ele>
        <time>2016-02-07T09:28:35.000Z</time>
      </trkpt>
      <trkpt lat="46.83363" lon="3.15448">
        <ele>236.4306640625</ele>
        <time>2016-02-07T09:28:37.000Z</time>
      </trkpt>
      <trkpt lat="46.83363" lon="3.15443">
        <ele>236.36943054199</ele>
        <time>2016-02-07T09:28:40.000Z</time>
      </trkpt>
      <trkpt lat="46.83363" lon="3.1544">
        <ele>236.31359863281</ele>
        <time>2016-02-07T09:28:42.000Z</time>
      </trkpt>
      <trkpt lat="46.83363" lon="3.15434">
        <ele>236.25512695312</ele>
        <time>2016-02-07T09:28:46.000Z</time>
      </trkpt>
      <trkpt lat="46.83363" lon="3.15431">
        <ele>236.20014953613</ele>
        <time>2016-02-07T09:28:47.000Z</time>
      </trkpt>
      <trkpt lat="46.83363" lon="3.15425">
        <ele>236.14350891113</ele>
        <time>2016-02-07T09:28:50.000Z</time>
      </trkpt>
      <trkpt lat="46.83363" lon="3.15419">
        <ele>236.08984375</ele>
        <time>2016-02-07T09:28:53.000Z</time>
      </trkpt>
      <trkpt lat="46.83364" lon="3.15415">
        <ele>236.02087402344</ele>
        <time>2016-02-07T09:28:56.000Z</time>
      </trkpt>
      <trkpt lat="46.83364" lon="3.15413">
        <ele>235.94839477539</ele>
        <time>2016-02-07T09:28:58.000Z</time>
      </trkpt>
      <trkpt lat="46.83365" lon="3.1541">
        <ele>235.85815429688</ele>
        <time>2016-02-07T09:29:01.000Z</time>
      </trkpt>
      <trkpt lat="46.83366" lon="3.15408">
        <ele>235.76448059082</ele>
        <time>2016-02-07T09:29:03.000Z</time>
      </trkpt>
      <trkpt lat="46.83366" lon="3.15404">
        <ele>235.65412902832</ele>
        <time>2016-02-07T09:29:06.000Z</time>
      </trkpt>
      <trkpt lat="46.83366" lon="3.15398">
        <ele>235.53173828125</ele>
        <time>2016-02-07T09:29:08.000Z</time>
      </trkpt>
      <trkpt lat="46.83366" lon="3.15394">
        <ele>235.39936828613</ele>
        <time>2016-02-07T09:29:11.000Z</time>
      </trkpt>
      <trkpt lat="46.83366" lon="3.15387">
        <ele>235.24565124512</ele>
        <time>2016-02-07T09:29:14.000Z</time>
      </trkpt>
      <trkpt lat="46.83366" lon="3.15381">
        <ele>235.07214355469</ele>
        <time>2016-02-07T09:29:17.000Z</time>
      </trkpt>
      <trkpt lat="46.83366" lon="3.15378">
        <ele>234.91040039062</ele>
        <time>2016-02-07T09:29:19.000Z</time>
      </trkpt>
      <trkpt lat="46.83366" lon="3.15373">
        <ele>234.75080871582</ele>
        <time>2016-02-07T09:29:22.000Z</time>
      </trkpt>
      <trkpt lat="46.83366" lon="3.15367">
        <ele>234.58464050293</ele>
        <time>2016-02-07T09:29:24.000Z</time>
      </trkpt>
      <trkpt lat="46.83366" lon="3.15362">
        <ele>234.42810058594</ele>
        <time>2016-02-07T09:29:27.000Z</time>
      </trkpt>
      <trkpt lat="46.83366" lon="3.15355">
        <ele>234.2688293457</ele>
        <time>2016-02-07T09:29:30.000Z</time>
      </trkpt>
      <trkpt lat="46.83366" lon="3.1535">
        <ele>234.09939575195</ele>
        <time>2016-02-07T09:29:33.000Z</time>
      </trkpt>
      <trkpt lat="46.83366" lon="3.15347">
        <ele>233.94369506836</ele>
        <time>2016-02-07T09:29:35.000Z</time>
      </trkpt>
      <trkpt lat="46.83366" lon="3.15342">
        <ele>233.78695678711</ele>
        <time>2016-02-07T09:29:38.000Z</time>
      </trkpt>
      <trkpt lat="46.83366" lon="3.15335">
        <ele>233.62173461914</ele>
        <time>2016-02-07T09:29:40.000Z</time>
      </trkpt>
      <trkpt lat="46.83366" lon="3.15329">
        <ele>233.47431945801</ele>
        <time>2016-02-07T09:29:43.000Z</time>
      </trkpt>
      <trkpt lat="46.83366" lon="3.15326">
        <ele>233.34814453125</ele>
        <time>2016-02-07T09:29:46.000Z</time>
      </trkpt>
      <trkpt lat="46.83366" lon="3.15323">
        <ele>233.236328125</ele>
        <time>2016-02-07T09:29:49.000Z</time>
      </trkpt>
      <trkpt lat="46.83365" lon="3.1532">
        <ele>233.15312194824</ele>
        <time>2016-02-07T09:29:51.000Z</time>
      </trkpt>
      <trkpt lat="46.83364" lon="3.15314">
        <ele>233.10209655762</ele>
        <time>2016-02-07T09:29:52.000Z</time>
      </trkpt>
      <trkpt lat="46.83364" lon="3.15309">
        <ele>233.06018066406</ele>
        <time>2016-02-07T09:29:55.000Z</time>
      </trkpt>
      <trkpt lat="46.83363" lon="3.15305">
        <ele>233.02124023438</ele>
        <time>2016-02-07T09:29:57.000Z</time>
      </trkpt>
      <trkpt lat="46.83363" lon="3.15301">
        <ele>232.98010253906</ele>
        <time>2016-02-07T09:30:00.000Z</time>
      </trkpt>
      <trkpt lat="46.83364" lon="3.15297">
        <ele>232.93061828613</ele>
        <time>2016-02-07T09:30:03.000Z</time>
      </trkpt>
      <trkpt lat="46.83364" lon="3.15292">
        <ele>232.87768554688</ele>
        <time>2016-02-07T09:30:06.000Z</time>
      </trkpt>
      <trkpt lat="46.83365" lon="3.1529">
        <ele>232.82856750488</ele>
        <time>2016-02-07T09:30:09.000Z</time>
      </trkpt>
      <trkpt lat="46.83364" lon="3.15287">
        <ele>232.78202819824</ele>
        <time>2016-02-07T09:30:12.000Z</time>
      </trkpt>
      <trkpt lat="46.83364" lon="3.15284">
        <ele>232.73881530762</ele>
        <time>2016-02-07T09:30:14.000Z</time>
      </trkpt>
      <trkpt lat="46.83363" lon="3.15282">
        <ele>232.70439147949</ele>
        <time>2016-02-07T09:30:17.000Z</time>
      </trkpt>
      <trkpt lat="46.83362" lon="3.15275">
        <ele>232.67395019531</ele>
        <time>2016-02-07T09:30:20.000Z</time>
      </trkpt>
      <trkpt lat="46.83361" lon="3.1527">
        <ele>232.64375305176</ele>
        <time>2016-02-07T09:30:23.000Z</time>
      </trkpt>
      <trkpt lat="46.8336" lon="3.15265">
        <ele>232.60815429688</ele>
        <time>2016-02-07T09:30:26.000Z</time>
      </trkpt>
      <trkpt lat="46.8336" lon="3.1526">
        <ele>232.56645202637</ele>
        <time>2016-02-07T09:30:29.000Z</time>
      </trkpt>
      <trkpt lat="46.83361" lon="3.15256">
        <ele>232.51982116699</ele>
        <time>2016-02-07T09:30:31.000Z</time>
      </trkpt>
      <trkpt lat="46.83361" lon="3.1525">
        <ele>232.46562194824</ele>
        <time>2016-02-07T09:30:34.000Z</time>
      </trkpt>
      <trkpt lat="46.83361" lon="3.15246">
        <ele>232.42839050293</ele>
        <time>2016-02-07T09:30:37.000Z</time>
      </trkpt>
      <trkpt lat="46.83362" lon="3.1524">
        <ele>232.40808105469</ele>
        <time>2016-02-07T09:30:40.000Z</time>
      </trkpt>
      <trkpt lat="46.83361" lon="3.15235">
        <ele>232.41491699219</ele>
        <time>2016-02-07T09:30:43.000Z</time>
      </trkpt>
      <trkpt lat="46.83362" lon="3.15231">
        <ele>232.4379119873</ele>
        <time>2016-02-07T09:30:46.000Z</time>
      </trkpt>
      <trkpt lat="46.83361" lon="3.15225">
        <ele>232.49722290039</ele>
        <time>2016-02-07T09:30:49.000Z</time>
      </trkpt>
      <trkpt lat="46.83361" lon="3.15218">
        <ele>232.56535339355</ele>
        <time>2016-02-07T09:30:52.000Z</time>
      </trkpt>
      <trkpt lat="46.83361" lon="3.15214">
        <ele>232.63424682617</ele>
        <time>2016-02-07T09:30:54.000Z</time>
      </trkpt>
      <trkpt lat="46.83362" lon="3.15209">
        <ele>232.69058227539</ele>
        <time>2016-02-07T09:30:58.000Z</time>
      </trkpt>
      <trkpt lat="46.83362" lon="3.15206">
        <ele>232.74198913574</ele>
        <time>2016-02-07T09:30:59.000Z</time>
      </trkpt>
      <trkpt lat="46.83361" lon="3.15201">
        <ele>232.80111694336</ele>
        <time>2016-02-07T09:31:01.000Z</time>
      </trkpt>
      <trkpt lat="46.83361" lon="3.15195">
        <ele>232.86422729492</ele>
        <time>2016-02-07T09:31:04.000Z</time>
      </trkpt>
      <trkpt lat="46.8336" lon="3.15189">
        <ele>232.93623352051</ele>
        <time>2016-02-07T09:31:07.000Z</time>
      </trkpt>
      <trkpt lat="46.8336" lon="3.15182">
        <ele>233.03071594238</ele>
        <time>2016-02-07T09:31:10.000Z</time>
      </trkpt>
      <trkpt lat="46.8336" lon="3.15177">
        <ele>233.14326477051</ele>
        <time>2016-02-07T09:31:13.000Z</time>
      </trkpt>
      <trkpt lat="46.83359" lon="3.15174">
        <ele>233.24307250977</ele>
        <time>2016-02-07T09:31:15.000Z</time>
      </trkpt>
      <trkpt lat="46.8336" lon="3.15172">
        <ele>233.30757141113</ele>
        <time>2016-02-07T09:31:17.000Z</time>
      </trkpt>
      <trkpt lat="46.83362" lon="3.15168">
        <ele>233.32424926758</ele>
        <time>2016-02-07T09:31:20.000Z</time>
      </trkpt>
      <trkpt lat="46.83363" lon="3.15165">
        <ele>233.30087280273</ele>
        <time>2016-02-07T09:31:22.000Z</time>
      </trkpt>
      <trkpt lat="46.83363" lon="3.15158">
        <ele>233.25180053711</ele>
        <time>2016-02-07T09:31:26.000Z</time>
      </trkpt>
      <trkpt lat="46.83363" lon="3.15152">
        <ele>233.18229675293</ele>
        <time>2016-02-07T09:31:27.000Z</time>
      </trkpt>
      <trkpt lat="46.83361" lon="3.15145">
        <ele>233.16271972656</ele>
        <time>2016-02-07T09:31:30.000Z</time>
      </trkpt>
      <trkpt lat="46.8336" lon="3.15144">
        <ele>233.18627929688</ele>
        <time>2016-02-07T09:31:32.000Z</time>
      </trkpt>
      <trkpt lat="46.8336" lon="3.15144">
        <ele>233.24105834961</ele>
        <time>2016-02-07T09:31:34.000Z</time>
      </trkpt>
      <trkpt lat="46.83357" lon="3.15145">
        <ele>233.35095214844</ele>
        <time>2016-02-07T09:31:37.000Z</time>
      </trkpt>
      <trkpt lat="46.83356" lon="3.15145">
        <ele>233.49055480957</ele>
        <time>2016-02-07T09:31:40.000Z</time>
      </trkpt>
      <trkpt lat="46.83356" lon="3.15143">
        <ele>233.58601379395</ele>
        <time>2016-02-07T09:31:50.000Z</time>
      </trkpt>
      <trkpt lat="46.83355" lon="3.15144">
        <ele>233.69869995117</ele>
        <time>2016-02-07T09:32:03.000Z</time>
      </trkpt>
      <trkpt lat="46.83355" lon="3.15145">
        <ele>233.77993774414</ele>
        <time>2016-02-07T09:32:06.000Z</time>
      </trkpt>
      <trkpt lat="46.83356" lon="3.15146">
        <ele>233.78842163086</ele>
        <time>2016-02-07T09:32:12.000Z</time>
      </trkpt>
      <trkpt lat="46.83358" lon="3.15145">
        <ele>233.7483215332</ele>
        <time>2016-02-07T09:32:15.000Z</time>
      </trkpt>
      <trkpt lat="46.8336" lon="3.15147">
        <ele>233.67846679688</ele>
        <time>2016-02-07T09:32:22.000Z</time>
      </trkpt>
      <trkpt lat="46.83362" lon="3.15148">
        <ele>233.53625488281</ele>
        <time>2016-02-07T09:32:25.000Z</time>
      </trkpt>
      <trkpt lat="46.83364" lon="3.15148">
        <ele>233.36943054199</ele>
        <time>2016-02-07T09:32:32.000Z</time>
      </trkpt>
      <trkpt lat="46.83361" lon="3.15148">
        <ele>233.27424621582</ele>
        <time>2016-02-07T09:32:44.000Z</time>
      </trkpt>
      <trkpt lat="46.83361" lon="3.15146">
        <ele>233.20219421387</ele>
        <time>2016-02-07T09:32:49.000Z</time>
      </trkpt>
      <trkpt lat="46.83362" lon="3.15145">
        <ele>233.15234375</ele>
        <time>2016-02-07T09:32:51.000Z</time>
      </trkpt>
      <trkpt lat="46.83361" lon="3.15146">
        <ele>233.17504882812</ele>
        <time>2016-02-07T09:32:54.000Z</time>
      </trkpt>
      <trkpt lat="46.83361" lon="3.15146">
        <ele>233.17504882812</ele>
        <time>2016-02-07T09:33:14.000Z</time>
      </trkpt>
      <trkpt lat="46.8336" lon="3.15148">
        <ele>233.24728393555</ele>
        <time>2016-02-07T09:33:22.000Z</time>
      </trkpt>
      <trkpt lat="46.83361" lon="3.15147">
        <ele>233.26260375977</ele>
        <time>2016-02-07T09:33:24.000Z</time>
      </trkpt>
      <trkpt lat="46.83363" lon="3.15146">
        <ele>233.23867797852</ele>
        <time>2016-02-07T09:33:29.000Z</time>
      </trkpt>
      <trkpt lat="46.83363" lon="3.15147">
        <ele>233.21594238281</ele>
        <time>2016-02-07T09:33:32.000Z</time>
      </trkpt>
      <trkpt lat="46.83364" lon="3.15148">
        <ele>233.1372833252</ele>
        <time>2016-02-07T09:33:33.000Z</time>
      </trkpt>
      <trkpt lat="46.83366" lon="3.15152">
        <ele>233.02822875977</ele>
        <time>2016-02-07T09:33:37.000Z</time>
      </trkpt>
      <trkpt lat="46.83366" lon="3.15154">
        <ele>232.92211914062</ele>
        <time>2016-02-07T09:33:38.000Z</time>
      </trkpt>
      <trkpt lat="46.83362" lon="3.15154">
        <ele>232.94497680664</ele>
        <time>2016-02-07T09:33:41.000Z</time>
      </trkpt>
      <trkpt lat="46.83361" lon="3.15153">
        <ele>232.98979187012</ele>
        <time>2016-02-07T09:33:46.000Z</time>
      </trkpt>
      <trkpt lat="46.83361" lon="3.15151">
        <ele>233.06430053711</ele>
        <time>2016-02-07T09:33:54.000Z</time>
      </trkpt>
      <trkpt lat="46.83362" lon="3.1515">
        <ele>233.142578125</ele>
        <time>2016-02-07T09:33:56.000Z</time>
      </trkpt>
      <trkpt lat="46.83363" lon="3.15149">
        <ele>233.20210266113</ele>
        <time>2016-02-07T09:33:59.000Z</time>
      </trkpt>
      <trkpt lat="46.83362" lon="3.15147">
        <ele>233.18818664551</ele>
        <time>2016-02-07T09:34:05.000Z</time>
      </trkpt>
      <trkpt lat="46.83361" lon="3.15145">
        <ele>233.18978881836</ele>
        <time>2016-02-07T09:34:08.000Z</time>
      </trkpt>
      <trkpt lat="46.83359" lon="3.15137">
        <ele>233.2279510498</ele>
        <time>2016-02-07T09:34:11.000Z</time>
      </trkpt>
      <trkpt lat="46.83359" lon="3.15136">
        <ele>233.28189086914</ele>
        <time>2016-02-07T09:34:13.000Z</time>
      </trkpt>
      <trkpt lat="46.83357" lon="3.15133">
        <ele>233.3830871582</ele>
        <time>2016-02-07T09:34:17.000Z</time>
      </trkpt>
      <trkpt lat="46.83358" lon="3.15131">
        <ele>233.4602355957</ele>
        <time>2016-02-07T09:34:18.000Z</time>
      </trkpt>
      <trkpt lat="46.83358" lon="3.15127">
        <ele>233.51261901855</ele>
        <time>2016-02-07T09:34:21.000Z</time>
      </trkpt>
      <trkpt lat="46.83358" lon="3.15123">
        <ele>233.51936340332</ele>
        <time>2016-02-07T09:34:23.000Z</time>
      </trkpt>
      <trkpt lat="46.83358" lon="3.1512">
        <ele>233.51611328125</ele>
        <time>2016-02-07T09:34:25.000Z</time>
      </trkpt>
      <trkpt lat="46.83358" lon="3.15116">
        <ele>233.49594116211</ele>
        <time>2016-02-07T09:34:28.000Z</time>
      </trkpt>
      <trkpt lat="46.83357" lon="3.15114">
        <ele>233.50077819824</ele>
        <time>2016-02-07T09:34:30.000Z</time>
      </trkpt>
      <trkpt lat="46.83355" lon="3.1511">
        <ele>233.53910827637</ele>
        <time>2016-02-07T09:34:34.000Z</time>
      </trkpt>
      <trkpt lat="46.83354" lon="3.15104">
        <ele>233.60250854492</ele>
        <time>2016-02-07T09:34:37.000Z</time>
      </trkpt>
      <trkpt lat="46.83354" lon="3.15103">
        <ele>233.68490600586</ele>
        <time>2016-02-07T09:34:39.000Z</time>
      </trkpt>
      <trkpt lat="46.83354" lon="3.15099">
        <ele>233.75088500977</ele>
        <time>2016-02-07T09:34:41.000Z</time>
      </trkpt>
      <trkpt lat="46.83354" lon="3.15098">
        <ele>233.80876159668</ele>
        <time>2016-02-07T09:34:44.000Z</time>
      </trkpt>
      <trkpt lat="46.83352" lon="3.15092">
        <ele>233.85859680176</ele>
        <time>2016-02-07T09:34:46.000Z</time>
      </trkpt>
      <trkpt lat="46.83352" lon="3.15089">
        <ele>233.90168762207</ele>
        <time>2016-02-07T09:34:48.000Z</time>
      </trkpt>
      <trkpt lat="46.83351" lon="3.15084">
        <ele>233.95217895508</ele>
        <time>2016-02-07T09:34:51.000Z</time>
      </trkpt>
      <trkpt lat="46.8335" lon="3.15083">
        <ele>234.02192687988</ele>
        <time>2016-02-07T09:34:55.000Z</time>
      </trkpt>
      <trkpt lat="46.8335" lon="3.15079">
        <ele>234.10549926758</ele>
        <time>2016-02-07T09:34:56.000Z</time>
      </trkpt>
      <trkpt lat="46.83348" lon="3.15076">
        <ele>234.19482421875</ele>
        <time>2016-02-07T09:34:59.000Z</time>
      </trkpt>
      <trkpt lat="46.83348" lon="3.15073">
        <ele>234.28813171387</ele>
        <time>2016-02-07T09:35:02.000Z</time>
      </trkpt>
      <trkpt lat="46.83348" lon="3.1507">
        <ele>234.36022949219</ele>
        <time>2016-02-07T09:35:03.000Z</time>
      </trkpt>
      <trkpt lat="46.83347" lon="3.15065">
        <ele>234.46186828613</ele>
        <time>2016-02-07T09:35:06.000Z</time>
      </trkpt>
      <trkpt lat="46.83347" lon="3.15057">
        <ele>234.53999328613</ele>
        <time>2016-02-07T09:35:09.000Z</time>
      </trkpt>
      <trkpt lat="46.83347" lon="3.15052">
        <ele>234.59321594238</ele>
        <time>2016-02-07T09:35:11.000Z</time>
      </trkpt>
      <trkpt lat="46.83347" lon="3.15046">
        <ele>234.63114929199</ele>
        <time>2016-02-07T09:35:14.000Z</time>
      </trkpt>
      <trkpt lat="46.83349" lon="3.15041">
        <ele>234.6400604248</ele>
        <time>2016-02-07T09:35:16.000Z</time>
      </trkpt>
      <trkpt lat="46.83351" lon="3.15035">
        <ele>234.57795715332</ele>
        <time>2016-02-07T09:35:20.000Z</time>
      </trkpt>
      <trkpt lat="46.83352" lon="3.15032">
        <ele>234.50541687012</ele>
        <time>2016-02-07T09:35:21.000Z</time>
      </trkpt>
      <trkpt lat="46.83353" lon="3.15028">
        <ele>234.41122436523</ele>
        <time>2016-02-07T09:35:24.000Z</time>
      </trkpt>
      <trkpt lat="46.83353" lon="3.15026">
        <ele>234.31535339355</ele>
        <time>2016-02-07T09:35:27.000Z</time>
      </trkpt>
      <trkpt lat="46.83355" lon="3.15022">
        <ele>234.22988891602</ele>
        <time>2016-02-07T09:35:29.000Z</time>
      </trkpt>
      <trkpt lat="46.83355" lon="3.15019">
        <ele>234.16596984863</ele>
        <time>2016-02-07T09:35:32.000Z</time>
      </trkpt>
      <trkpt lat="46.83356" lon="3.15012">
        <ele>234.10147094727</ele>
        <time>2016-02-07T09:35:35.000Z</time>
      </trkpt>
      <trkpt lat="46.83358" lon="3.15009">
        <ele>234.03861999512</ele>
        <time>2016-02-07T09:35:37.000Z</time>
      </trkpt>
      <trkpt lat="46.8336" lon="3.15005">
        <ele>233.93742370605</ele>
        <time>2016-02-07T09:35:40.000Z</time>
      </trkpt>
      <trkpt lat="46.83361" lon="3.15002">
        <ele>233.85110473633</ele>
        <time>2016-02-07T09:35:43.000Z</time>
      </trkpt>
      <trkpt lat="46.83364" lon="3.15">
        <ele>233.73104858398</ele>
        <time>2016-02-07T09:35:46.000Z</time>
      </trkpt>
      <trkpt lat="46.83366" lon="3.14998">
        <ele>233.59834289551</ele>
        <time>2016-02-07T09:35:48.000Z</time>
      </trkpt>
      <trkpt lat="46.83367" lon="3.14997">
        <ele>233.47207641602</ele>
        <time>2016-02-07T09:35:50.000Z</time>
      </trkpt>
      <trkpt lat="46.83368" lon="3.14995">
        <ele>233.36441040039</ele>
        <time>2016-02-07T09:35:53.000Z</time>
      </trkpt>
      <trkpt lat="46.83372" lon="3.14992">
        <ele>233.21952819824</ele>
        <time>2016-02-07T09:35:55.000Z</time>
      </trkpt>
      <trkpt lat="46.83374" lon="3.14991">
        <ele>233.08757019043</ele>
        <time>2016-02-07T09:35:57.000Z</time>
      </trkpt>
      <trkpt lat="46.83377" lon="3.14987">
        <ele>232.9508972168</ele>
        <time>2016-02-07T09:36:00.000Z</time>
      </trkpt>
      <trkpt lat="46.8338" lon="3.14985">
        <ele>232.78779602051</ele>
        <time>2016-02-07T09:36:03.000Z</time>
      </trkpt>
      <trkpt lat="46.83384" lon="3.14984">
        <ele>232.60000610352</ele>
        <time>2016-02-07T09:36:05.000Z</time>
      </trkpt>
      <trkpt lat="46.83386" lon="3.1498">
        <ele>232.44100952148</ele>
        <time>2016-02-07T09:36:08.000Z</time>
      </trkpt>
      <trkpt lat="46.83388" lon="3.14978">
        <ele>232.29418945312</ele>
        <time>2016-02-07T09:36:11.000Z</time>
      </trkpt>
      <trkpt lat="46.83392" lon="3.14974">
        <ele>232.14184570312</ele>
        <time>2016-02-07T09:36:17.000Z</time>
      </trkpt>
      <trkpt lat="46.83395" lon="3.14973">
        <ele>231.98384094238</ele>
        <time>2016-02-07T09:36:20.000Z</time>
      </trkpt>
      <trkpt lat="46.83396" lon="3.14968">
        <ele>231.87710571289</ele>
        <time>2016-02-07T09:36:23.000Z</time>
      </trkpt>
      <trkpt lat="46.83397" lon="3.14966">
        <ele>231.78540039062</ele>
        <time>2016-02-07T09:36:25.000Z</time>
      </trkpt>
      <trkpt lat="46.83399" lon="3.14962">
        <ele>231.70825195312</ele>
        <time>2016-02-07T09:36:28.000Z</time>
      </trkpt>
      <trkpt lat="46.83403" lon="3.14957">
        <ele>231.63481140137</ele>
        <time>2016-02-07T09:36:34.000Z</time>
      </trkpt>
      <trkpt lat="46.83405" lon="3.14955">
        <ele>231.59408569336</ele>
        <time>2016-02-07T09:36:36.000Z</time>
      </trkpt>
      <trkpt lat="46.83406" lon="3.14954">
        <ele>231.53332519531</ele>
        <time>2016-02-07T09:36:39.000Z</time>
      </trkpt>
      <trkpt lat="46.83411" lon="3.14951">
        <ele>231.43478393555</ele>
        <time>2016-02-07T09:36:43.000Z</time>
      </trkpt>
      <trkpt lat="46.83415" lon="3.14948">
        <ele>231.29861450195</ele>
        <time>2016-02-07T09:36:48.000Z</time>
      </trkpt>
      <trkpt lat="46.83418" lon="3.14946">
        <ele>231.17378234863</ele>
        <time>2016-02-07T09:36:54.000Z</time>
      </trkpt>
      <trkpt lat="46.83422" lon="3.1494">
        <ele>231.05204772949</ele>
        <time>2016-02-07T09:36:59.000Z</time>
      </trkpt>
      <trkpt lat="46.83423" lon="3.14933">
        <ele>230.97456359863</ele>
        <time>2016-02-07T09:37:16.000Z</time>
      </trkpt>
      <trkpt lat="46.83421" lon="3.14925">
        <ele>231.01249694824</ele>
        <time>2016-02-07T09:37:24.000Z</time>
      </trkpt>
      <trkpt lat="46.83419" lon="3.14922">
        <ele>231.13760375977</ele>
        <time>2016-02-07T09:37:27.000Z</time>
      </trkpt>
      <trkpt lat="46.83422" lon="3.14929">
        <ele>231.21276855469</ele>
        <time>2016-02-07T09:37:44.000Z</time>
      </trkpt>
      <trkpt lat="46.83422" lon="3.14934">
        <ele>231.25210571289</ele>
        <time>2016-02-07T09:37:58.000Z</time>
      </trkpt>
      <trkpt lat="46.83422" lon="3.14938">
        <ele>231.22708129883</ele>
        <time>2016-02-07T09:38:04.000Z</time>
      </trkpt>
      <trkpt lat="46.83422" lon="3.14938">
        <ele>231.22708129883</ele>
        <time>2016-02-07T09:38:24.000Z</time>
      </trkpt>
      <trkpt lat="46.83422" lon="3.14933">
        <ele>231.16410827637</ele>
        <time>2016-02-07T09:38:26.000Z</time>
      </trkpt>
      <trkpt lat="46.83425" lon="3.14929">
        <ele>231.04983520508</ele>
        <time>2016-02-07T09:38:29.000Z</time>
      </trkpt>
      <trkpt lat="46.83429" lon="3.1493">
        <ele>230.9528503418</ele>
        <time>2016-02-07T09:38:32.000Z</time>
      </trkpt>
      <trkpt lat="46.83432" lon="3.14931">
        <ele>230.85171508789</ele>
        <time>2016-02-07T09:38:35.000Z</time>
      </trkpt>
      <trkpt lat="46.83434" lon="3.14931">
        <ele>230.75427246094</ele>
        <time>2016-02-07T09:38:38.000Z</time>
      </trkpt>
      <trkpt lat="46.83437" lon="3.14931">
        <ele>230.58174133301</ele>
        <time>2016-02-07T09:38:40.000Z</time>
      </trkpt>
      <trkpt lat="46.83439" lon="3.14932">
        <ele>230.38822937012</ele>
        <time>2016-02-07T09:38:43.000Z</time>
      </trkpt>
      <trkpt lat="46.8344" lon="3.1493">
        <ele>230.23355102539</ele>
        <time>2016-02-07T09:38:46.000Z</time>
      </trkpt>
      <trkpt lat="46.83441" lon="3.14929">
        <ele>230.12309265137</ele>
        <time>2016-02-07T09:38:49.000Z</time>
      </trkpt>
      <trkpt lat="46.83442" lon="3.14927">
        <ele>230.03500366211</ele>
        <time>2016-02-07T09:38:52.000Z</time>
      </trkpt>
      <trkpt lat="46.83443" lon="3.14926">
        <ele>229.97309875488</ele>
        <time>2016-02-07T09:38:54.000Z</time>
      </trkpt>
      <trkpt lat="46.83446" lon="3.14923">
        <ele>229.91484069824</ele>
        <time>2016-02-07T09:39:00.000Z</time>
      </trkpt>
      <trkpt lat="46.83448" lon="3.1492">
        <ele>229.85282897949</ele>
        <time>2016-02-07T09:39:02.000Z</time>
      </trkpt>
      <trkpt lat="46.8345" lon="3.14919">
        <ele>229.76298522949</ele>
        <time>2016-02-07T09:39:04.000Z</time>
      </trkpt>
      <trkpt lat="46.83452" lon="3.14918">
        <ele>229.65811157227</ele>
        <time>2016-02-07T09:39:07.000Z</time>
      </trkpt>
      <trkpt lat="46.83454" lon="3.14917">
        <ele>229.53837585449</ele>
        <time>2016-02-07T09:39:11.000Z</time>
      </trkpt>
      <trkpt lat="46.83457" lon="3.14916">
        <ele>229.40151977539</ele>
        <time>2016-02-07T09:39:12.000Z</time>
      </trkpt>
      <trkpt lat="46.83461" lon="3.14916">
        <ele>229.22041320801</ele>
        <time>2016-02-07T09:39:15.000Z</time>
      </trkpt>
      <trkpt lat="46.83462" lon="3.14914">
        <ele>229.03405761719</ele>
        <time>2016-02-07T09:39:17.000Z</time>
      </trkpt>
      <trkpt lat="46.83466" lon="3.14913">
        <ele>228.8011932373</ele>
        <time>2016-02-07T09:39:20.000Z</time>
      </trkpt>
      <trkpt lat="46.83469" lon="3.14911">
        <ele>228.54040527344</ele>
        <time>2016-02-07T09:39:21.000Z</time>
      </trkpt>
      <trkpt lat="46.83471" lon="3.1491">
        <ele>228.28483581543</ele>
        <time>2016-02-07T09:39:23.000Z</time>
      </trkpt>
      <trkpt lat="46.83474" lon="3.14908">
        <ele>228.03231811523</ele>
        <time>2016-02-07T09:39:26.000Z</time>
      </trkpt>
      <trkpt lat="46.83479" lon="3.14904">
        <ele>227.71406555176</ele>
        <time>2016-02-07T09:39:29.000Z</time>
      </trkpt>
      <trkpt lat="46.83482" lon="3.14902">
        <ele>227.41743469238</ele>
        <time>2016-02-07T09:39:31.000Z</time>
      </trkpt>
      <trkpt lat="46.83485" lon="3.14899">
        <ele>227.11547851562</ele>
        <time>2016-02-07T09:39:34.000Z</time>
      </trkpt>
      <trkpt lat="46.83489" lon="3.14895">
        <ele>226.77124023438</ele>
        <time>2016-02-07T09:39:37.000Z</time>
      </trkpt>
      <trkpt lat="46.83492" lon="3.14892">
        <ele>226.43661499023</ele>
        <time>2016-02-07T09:39:39.000Z</time>
      </trkpt>
      <trkpt lat="46.83496" lon="3.14887">
        <ele>226.13528442383</ele>
        <time>2016-02-07T09:39:42.000Z</time>
      </trkpt>
      <trkpt lat="46.83499" lon="3.14885">
        <ele>225.8342590332</ele>
        <time>2016-02-07T09:39:45.000Z</time>
      </trkpt>
      <trkpt lat="46.83501" lon="3.14881">
        <ele>225.56149291992</ele>
        <time>2016-02-07T09:39:48.000Z</time>
      </trkpt>
      <trkpt lat="46.83503" lon="3.14878">
        <ele>225.34213256836</ele>
        <time>2016-02-07T09:39:50.000Z</time>
      </trkpt>
      <trkpt lat="46.83504" lon="3.14874">
        <ele>225.15002441406</ele>
        <time>2016-02-07T09:39:53.000Z</time>
      </trkpt>
      <trkpt lat="46.83506" lon="3.1487">
        <ele>224.99987792969</ele>
        <time>2016-02-07T09:39:56.000Z</time>
      </trkpt>
      <trkpt lat="46.83508" lon="3.14868">
        <ele>224.87460327148</ele>
        <time>2016-02-07T09:39:58.000Z</time>
      </trkpt>
      <trkpt lat="46.8351" lon="3.14863">
        <ele>224.75178527832</ele>
        <time>2016-02-07T09:40:01.000Z</time>
      </trkpt>
      <trkpt lat="46.83511" lon="3.14861">
        <ele>224.64175415039</ele>
        <time>2016-02-07T09:40:03.000Z</time>
      </trkpt>
      <trkpt lat="46.83513" lon="3.14857">
        <ele>224.529296875</ele>
        <time>2016-02-07T09:40:06.000Z</time>
      </trkpt>
      <trkpt lat="46.83514" lon="3.14854">
        <ele>224.42910766602</ele>
        <time>2016-02-07T09:40:08.000Z</time>
      </trkpt>
      <trkpt lat="46.83516" lon="3.1485">
        <ele>224.3258972168</ele>
        <time>2016-02-07T09:40:11.000Z</time>
      </trkpt>
      <trkpt lat="46.83518" lon="3.14848">
        <ele>224.2366027832</ele>
        <time>2016-02-07T09:40:14.000Z</time>
      </trkpt>
      <trkpt lat="46.8352" lon="3.14845">
        <ele>224.14486694336</ele>
        <time>2016-02-07T09:40:16.000Z</time>
      </trkpt>
      <trkpt lat="46.83522" lon="3.14839">
        <ele>224.04724121094</ele>
        <time>2016-02-07T09:40:19.000Z</time>
      </trkpt>
      <trkpt lat="46.83524" lon="3.14835">
        <ele>223.94418334961</ele>
        <time>2016-02-07T09:40:22.000Z</time>
      </trkpt>
      <trkpt lat="46.83527" lon="3.14828">
        <ele>223.8404083252</ele>
        <time>2016-02-07T09:40:25.000Z</time>
      </trkpt>
      <trkpt lat="46.83528" lon="3.14824">
        <ele>223.74136352539</ele>
        <time>2016-02-07T09:40:28.000Z</time>
      </trkpt>
      <trkpt lat="46.83529" lon="3.14821">
        <ele>223.64872741699</ele>
        <time>2016-02-07T09:40:30.000Z</time>
      </trkpt>
      <trkpt lat="46.83531" lon="3.14818">
        <ele>223.57791137695</ele>
        <time>2016-02-07T09:40:32.000Z</time>
      </trkpt>
      <trkpt lat="46.83533" lon="3.14814">
        <ele>223.51435852051</ele>
        <time>2016-02-07T09:40:35.000Z</time>
      </trkpt>
      <trkpt lat="46.83535" lon="3.1481">
        <ele>223.46557617188</ele>
        <time>2016-02-07T09:40:37.000Z</time>
      </trkpt>
      <trkpt lat="46.83538" lon="3.14805">
        <ele>223.4189453125</ele>
        <time>2016-02-07T09:40:40.000Z</time>
      </trkpt>
      <trkpt lat="46.83539" lon="3.14802">
        <ele>223.37744140625</ele>
        <time>2016-02-07T09:40:42.000Z</time>
      </trkpt>
      <trkpt lat="46.83541" lon="3.14798">
        <ele>223.34045410156</ele>
        <time>2016-02-07T09:40:46.000Z</time>
      </trkpt>
      <trkpt lat="46.83543" lon="3.14794">
        <ele>223.31185913086</ele>
        <time>2016-02-07T09:40:47.000Z</time>
      </trkpt>
      <trkpt lat="46.83545" lon="3.1479">
        <ele>223.29052734375</ele>
        <time>2016-02-07T09:40:49.000Z</time>
      </trkpt>
      <trkpt lat="46.83547" lon="3.14787">
        <ele>223.27861022949</ele>
        <time>2016-02-07T09:40:51.000Z</time>
      </trkpt>
      <trkpt lat="46.83549" lon="3.14783">
        <ele>223.26992797852</ele>
        <time>2016-02-07T09:40:54.000Z</time>
      </trkpt>
      <trkpt lat="46.83549" lon="3.1478">
        <ele>223.2661895752</ele>
        <time>2016-02-07T09:40:56.000Z</time>
      </trkpt>
      <trkpt lat="46.83551" lon="3.14776">
        <ele>223.26718139648</ele>
        <time>2016-02-07T09:40:59.000Z</time>
      </trkpt>
      <trkpt lat="46.83553" lon="3.14771">
        <ele>223.27363586426</ele>
        <time>2016-02-07T09:41:01.000Z</time>
      </trkpt>
      <trkpt lat="46.83556" lon="3.14764">
        <ele>223.28678894043</ele>
        <time>2016-02-07T09:41:04.000Z</time>
      </trkpt>
      <trkpt lat="46.83557" lon="3.14761">
        <ele>223.30505371094</ele>
        <time>2016-02-07T09:41:06.000Z</time>
      </trkpt>
      <trkpt lat="46.83559" lon="3.14756">
        <ele>223.33232116699</ele>
        <time>2016-02-07T09:41:09.000Z</time>
      </trkpt>
      <trkpt lat="46.8356" lon="3.14752">
        <ele>223.3642578125</ele>
        <time>2016-02-07T09:41:12.000Z</time>
      </trkpt>
      <trkpt lat="46.83561" lon="3.14748">
        <ele>223.40629577637</ele>
        <time>2016-02-07T09:41:15.000Z</time>
      </trkpt>
      <trkpt lat="46.83564" lon="3.14742">
        <ele>223.474609375</ele>
        <time>2016-02-07T09:41:18.000Z</time>
      </trkpt>
      <trkpt lat="46.83566" lon="3.14738">
        <ele>223.56587219238</ele>
        <time>2016-02-07T09:41:20.000Z</time>
      </trkpt>
      <trkpt lat="46.83567" lon="3.14733">
        <ele>223.67016601562</ele>
        <time>2016-02-07T09:41:23.000Z</time>
      </trkpt>
      <trkpt lat="46.83569" lon="3.1473">
        <ele>223.7924041748</ele>
        <time>2016-02-07T09:41:26.000Z</time>
      </trkpt>
      <trkpt lat="46.83572" lon="3.14725">
        <ele>223.9388885498</ele>
        <time>2016-02-07T09:41:29.000Z</time>
      </trkpt>
      <trkpt lat="46.83573" lon="3.14721">
        <ele>224.07656860352</ele>
        <time>2016-02-07T09:41:32.000Z</time>
      </trkpt>
      <trkpt lat="46.83575" lon="3.14716">
        <ele>224.2193145752</ele>
        <time>2016-02-07T09:41:35.000Z</time>
      </trkpt>
      <trkpt lat="46.83578" lon="3.14711">
        <ele>224.38725280762</ele>
        <time>2016-02-07T09:41:38.000Z</time>
      </trkpt>
      <trkpt lat="46.83579" lon="3.14709">
        <ele>224.54275512695</ele>
        <time>2016-02-07T09:41:40.000Z</time>
      </trkpt>
      <trkpt lat="46.8358" lon="3.14705">
        <ele>224.68936157227</ele>
        <time>2016-02-07T09:41:43.000Z</time>
      </trkpt>
      <trkpt lat="46.83583" lon="3.147">
        <ele>224.85559082031</ele>
        <time>2016-02-07T09:41:46.000Z</time>
      </trkpt>
      <trkpt lat="46.83585" lon="3.14697">
        <ele>225.01347351074</ele>
        <time>2016-02-07T09:41:48.000Z</time>
      </trkpt>
      <trkpt lat="46.83587" lon="3.14695">
        <ele>225.14834594727</ele>
        <time>2016-02-07T09:41:51.000Z</time>
      </trkpt>
      <trkpt lat="46.8359" lon="3.14692">
        <ele>225.30793762207</ele>
        <time>2016-02-07T09:41:54.000Z</time>
      </trkpt>
      <trkpt lat="46.83593" lon="3.14688">
        <ele>225.47856140137</ele>
        <time>2016-02-07T09:41:57.000Z</time>
      </trkpt>
      <trkpt lat="46.83596" lon="3.14684">
        <ele>225.64079284668</ele>
        <time>2016-02-07T09:42:00.000Z</time>
      </trkpt>
      <trkpt lat="46.836" lon="3.1468">
        <ele>225.81352233887</ele>
        <time>2016-02-07T09:42:03.000Z</time>
      </trkpt>
      <trkpt lat="46.83603" lon="3.14676">
        <ele>225.99076843262</ele>
        <time>2016-02-07T09:42:06.000Z</time>
      </trkpt>
      <trkpt lat="46.83604" lon="3.14674">
        <ele>226.14370727539</ele>
        <time>2016-02-07T09:42:08.000Z</time>
      </trkpt>
      <trkpt lat="46.83607" lon="3.1467">
        <ele>226.28254699707</ele>
        <time>2016-02-07T09:42:11.000Z</time>
      </trkpt>
      <trkpt lat="46.83609" lon="3.14667">
        <ele>226.4027557373</ele>
        <time>2016-02-07T09:42:14.000Z</time>
      </trkpt>
      <trkpt lat="46.8361" lon="3.14665">
        <ele>226.50149536133</ele>
        <time>2016-02-07T09:42:16.000Z</time>
      </trkpt>
      <trkpt lat="46.83614" lon="3.14661">
        <ele>226.60763549805</ele>
        <time>2016-02-07T09:42:19.000Z</time>
      </trkpt>
      <trkpt lat="46.83616" lon="3.1466">
        <ele>226.71101379395</ele>
        <time>2016-02-07T09:42:21.000Z</time>
      </trkpt>
      <trkpt lat="46.83618" lon="3.14656">
        <ele>226.81884765625</ele>
        <time>2016-02-07T09:42:25.000Z</time>
      </trkpt>
      <trkpt lat="46.83619" lon="3.14653">
        <ele>226.92573547363</ele>
        <time>2016-02-07T09:42:26.000Z</time>
      </trkpt>
      <trkpt lat="46.83621" lon="3.14647">
        <ele>227.06079101562</ele>
        <time>2016-02-07T09:42:30.000Z</time>
      </trkpt>
      <trkpt lat="46.83623" lon="3.14644">
        <ele>227.17948913574</ele>
        <time>2016-02-07T09:42:31.000Z</time>
      </trkpt>
      <trkpt lat="46.83624" lon="3.14642">
        <ele>227.30522155762</ele>
        <time>2016-02-07T09:42:35.000Z</time>
      </trkpt>
      <trkpt lat="46.83625" lon="3.1464">
        <ele>227.42024230957</ele>
        <time>2016-02-07T09:42:36.000Z</time>
      </trkpt>
      <trkpt lat="46.83627" lon="3.14636">
        <ele>227.55656433105</ele>
        <time>2016-02-07T09:42:40.000Z</time>
      </trkpt>
      <trkpt lat="46.83628" lon="3.14635">
        <ele>227.66177368164</ele>
        <time>2016-02-07T09:42:41.000Z</time>
      </trkpt>
      <trkpt lat="46.8363" lon="3.14633">
        <ele>227.77938842773</ele>
        <time>2016-02-07T09:42:44.000Z</time>
      </trkpt>
      <trkpt lat="46.83634" lon="3.14628">
        <ele>227.9367980957</ele>
        <time>2016-02-07T09:42:46.000Z</time>
      </trkpt>
      <trkpt lat="46.83636" lon="3.14627">
        <ele>228.1071472168</ele>
        <time>2016-02-07T09:42:48.000Z</time>
      </trkpt>
      <trkpt lat="46.83639" lon="3.14624">
        <ele>228.28303527832</ele>
        <time>2016-02-07T09:42:51.000Z</time>
      </trkpt>
      <trkpt lat="46.83641" lon="3.14623">
        <ele>228.47573852539</ele>
        <time>2016-02-07T09:42:54.000Z</time>
      </trkpt>
      <trkpt lat="46.83643" lon="3.14621">
        <ele>228.67073059082</ele>
        <time>2016-02-07T09:42:56.000Z</time>
      </trkpt>
      <trkpt lat="46.83645" lon="3.14618">
        <ele>228.85502624512</ele>
        <time>2016-02-07T09:42:58.000Z</time>
      </trkpt>
      <trkpt lat="46.83649" lon="3.14615">
        <ele>229.06674194336</ele>
        <time>2016-02-07T09:43:01.000Z</time>
      </trkpt>
      <trkpt lat="46.8365" lon="3.14613">
        <ele>229.26303100586</ele>
        <time>2016-02-07T09:43:03.000Z</time>
      </trkpt>
      <trkpt lat="46.83652" lon="3.14611">
        <ele>229.46035766602</ele>
        <time>2016-02-07T09:43:07.000Z</time>
      </trkpt>
      <trkpt lat="46.83653" lon="3.14609">
        <ele>229.65921020508</ele>
        <time>2016-02-07T09:43:08.000Z</time>
      </trkpt>
      <trkpt lat="46.83656" lon="3.14604">
        <ele>229.88244628906</ele>
        <time>2016-02-07T09:43:11.000Z</time>
      </trkpt>
      <trkpt lat="46.83658" lon="3.14601">
        <ele>230.09733581543</ele>
        <time>2016-02-07T09:43:14.000Z</time>
      </trkpt>
      <trkpt lat="46.83659" lon="3.14599">
        <ele>230.31523132324</ele>
        <time>2016-02-07T09:43:16.000Z</time>
      </trkpt>
      <trkpt lat="46.83662" lon="3.14596">
        <ele>230.56588745117</ele>
        <time>2016-02-07T09:43:19.000Z</time>
      </trkpt>
      <trkpt lat="46.83663" lon="3.14596">
        <ele>230.80094909668</ele>
        <time>2016-02-07T09:43:21.000Z</time>
      </trkpt>
      <trkpt lat="46.83666" lon="3.14594">
        <ele>231.01318359375</ele>
        <time>2016-02-07T09:43:24.000Z</time>
      </trkpt>
      <trkpt lat="46.83668" lon="3.14594">
        <ele>231.20149230957</ele>
        <time>2016-02-07T09:43:26.000Z</time>
      </trkpt>
      <trkpt lat="46.83671" lon="3.14593">
        <ele>231.39228820801</ele>
        <time>2016-02-07T09:43:29.000Z</time>
      </trkpt>
      <trkpt lat="46.83672" lon="3.1459">
        <ele>231.55703735352</ele>
        <time>2016-02-07T09:43:32.000Z</time>
      </trkpt>
      <trkpt lat="46.83674" lon="3.14587">
        <ele>231.73843383789</ele>
        <time>2016-02-07T09:43:35.000Z</time>
      </trkpt>
      <trkpt lat="46.83677" lon="3.14589">
        <ele>231.87948608398</ele>
        <time>2016-02-07T09:43:38.000Z</time>
      </trkpt>
      <trkpt lat="46.8368" lon="3.1459">
        <ele>232.00727844238</ele>
        <time>2016-02-07T09:43:41.000Z</time>
      </trkpt>
      <trkpt lat="46.83681" lon="3.14589">
        <ele>232.11868286133</ele>
        <time>2016-02-07T09:43:43.000Z</time>
      </trkpt>
      <trkpt lat="46.83684" lon="3.14589">
        <ele>232.20780944824</ele>
        <time>2016-02-07T09:43:46.000Z</time>
      </trkpt>
      <trkpt lat="46.83686" lon="3.14589">
        <ele>232.28759765625</ele>
        <time>2016-02-07T09:43:48.000Z</time>
      </trkpt>
      <trkpt lat="46.83691" lon="3.14589">
        <ele>232.38638305664</ele>
        <time>2016-02-07T09:43:52.000Z</time>
      </trkpt>
      <trkpt lat="46.83693" lon="3.14589">
        <ele>232.49003601074</ele>
        <time>2016-02-07T09:43:53.000Z</time>
      </trkpt>
      <trkpt lat="46.83695" lon="3.14588">
        <ele>232.59526062012</ele>
        <time>2016-02-07T09:43:56.000Z</time>
      </trkpt>
      <trkpt lat="46.837" lon="3.14588">
        <ele>232.7290802002</ele>
        <time>2016-02-07T09:43:59.000Z</time>
      </trkpt>
      <trkpt lat="46.83705" lon="3.1459">
        <ele>232.85803222656</ele>
        <time>2016-02-07T09:44:02.000Z</time>
      </trkpt>
      <trkpt lat="46.83709" lon="3.14593">
        <ele>232.97116088867</ele>
        <time>2016-02-07T09:44:05.000Z</time>
      </trkpt>
      <trkpt lat="46.83712" lon="3.14594">
        <ele>233.07543945312</ele>
        <time>2016-02-07T09:44:09.000Z</time>
      </trkpt>
      <trkpt lat="46.83714" lon="3.14595">
        <ele>233.16833496094</ele>
        <time>2016-02-07T09:44:10.000Z</time>
      </trkpt>
      <trkpt lat="46.83717" lon="3.14596">
        <ele>233.24380493164</ele>
        <time>2016-02-07T09:44:13.000Z</time>
      </trkpt>
      <trkpt lat="46.8372" lon="3.14596">
        <ele>233.31802368164</ele>
        <time>2016-02-07T09:44:16.000Z</time>
      </trkpt>
      <trkpt lat="46.83725" lon="3.14599">
        <ele>233.40129089355</ele>
        <time>2016-02-07T09:44:20.000Z</time>
      </trkpt>
      <trkpt lat="46.8373" lon="3.14601">
        <ele>233.5041809082</ele>
        <time>2016-02-07T09:44:23.000Z</time>
      </trkpt>
      <trkpt lat="46.83733" lon="3.14603">
        <ele>233.61502075195</ele>
        <time>2016-02-07T09:44:27.000Z</time>
      </trkpt>
      <trkpt lat="46.83735" lon="3.14604">
        <ele>233.70674133301</ele>
        <time>2016-02-07T09:44:28.000Z</time>
      </trkpt>
      <trkpt lat="46.8374" lon="3.14607">
        <ele>233.80624389648</ele>
        <time>2016-02-07T09:44:31.000Z</time>
      </trkpt>
      <trkpt lat="46.83743" lon="3.1461">
        <ele>233.90420532227</ele>
        <time>2016-02-07T09:44:34.000Z</time>
      </trkpt>
      <trkpt lat="46.83747" lon="3.14613">
        <ele>233.98104858398</ele>
        <time>2016-02-07T09:44:37.000Z</time>
      </trkpt>
      <trkpt lat="46.8375" lon="3.14616">
        <ele>234.05615234375</ele>
        <time>2016-02-07T09:44:40.000Z</time>
      </trkpt>
      <trkpt lat="46.83754" lon="3.14618">
        <ele>234.15173339844</ele>
        <time>2016-02-07T09:44:43.000Z</time>
      </trkpt>
      <trkpt lat="46.83755" lon="3.14619">
        <ele>234.22512817383</ele>
        <time>2016-02-07T09:44:45.000Z</time>
      </trkpt>
      <trkpt lat="46.83759" lon="3.14621">
        <ele>234.29647827148</ele>
        <time>2016-02-07T09:44:47.000Z</time>
      </trkpt>
      <trkpt lat="46.8376" lon="3.14622">
        <ele>234.36764526367</ele>
        <time>2016-02-07T09:44:50.000Z</time>
      </trkpt>
      <trkpt lat="46.83764" lon="3.14622">
        <ele>234.45915222168</ele>
        <time>2016-02-07T09:44:53.000Z</time>
      </trkpt>
      <trkpt lat="46.83768" lon="3.14623">
        <ele>234.55317687988</ele>
        <time>2016-02-07T09:44:56.000Z</time>
      </trkpt>
      <trkpt lat="46.8377" lon="3.14623">
        <ele>234.65266418457</ele>
        <time>2016-02-07T09:44:59.000Z</time>
      </trkpt>
      <trkpt lat="46.83773" lon="3.14622">
        <ele>234.77392578125</ele>
        <time>2016-02-07T09:45:02.000Z</time>
      </trkpt>
      <trkpt lat="46.83776" lon="3.14621">
        <ele>234.90962219238</ele>
        <time>2016-02-07T09:45:04.000Z</time>
      </trkpt>
      <trkpt lat="46.8378" lon="3.14624">
        <ele>235.03620910645</ele>
        <time>2016-02-07T09:45:07.000Z</time>
      </trkpt>
      <trkpt lat="46.83783" lon="3.14624">
        <ele>235.15202331543</ele>
        <time>2016-02-07T09:45:10.000Z</time>
      </trkpt>
      <trkpt lat="46.83785" lon="3.14625">
        <ele>235.27323913574</ele>
        <time>2016-02-07T09:45:13.000Z</time>
      </trkpt>
      <trkpt lat="46.83788" lon="3.14624">
        <ele>235.38346862793</ele>
        <time>2016-02-07T09:45:17.000Z</time>
      </trkpt>
      <trkpt lat="46.8379" lon="3.14622">
        <ele>235.49931335449</ele>
        <time>2016-02-07T09:45:21.000Z</time>
      </trkpt>
      <trkpt lat="46.83792" lon="3.1462">
        <ele>235.61254882812</ele>
        <time>2016-02-07T09:45:22.000Z</time>
      </trkpt>
      <trkpt lat="46.83795" lon="3.14619">
        <ele>235.73625183105</ele>
        <time>2016-02-07T09:45:24.000Z</time>
      </trkpt>
      <trkpt lat="46.83799" lon="3.14619">
        <ele>235.87040710449</ele>
        <time>2016-02-07T09:45:27.000Z</time>
      </trkpt>
      <trkpt lat="46.83801" lon="3.14618">
        <ele>236.00122070312</ele>
        <time>2016-02-07T09:45:31.000Z</time>
      </trkpt>
      <trkpt lat="46.83802" lon="3.14617">
        <ele>236.11929321289</ele>
        <time>2016-02-07T09:45:32.000Z</time>
      </trkpt>
      <trkpt lat="46.83804" lon="3.14615">
        <ele>236.23637390137</ele>
        <time>2016-02-07T09:45:34.000Z</time>
      </trkpt>
      <trkpt lat="46.83807" lon="3.14613">
        <ele>236.35786437988</ele>
        <time>2016-02-07T09:45:37.000Z</time>
      </trkpt>
      <trkpt lat="46.8381" lon="3.1461">
        <ele>236.47668457031</ele>
        <time>2016-02-07T09:45:39.000Z</time>
      </trkpt>
      <trkpt lat="46.83813" lon="3.14608">
        <ele>236.60702514648</ele>
        <time>2016-02-07T09:45:43.000Z</time>
      </trkpt>
      <trkpt lat="46.83815" lon="3.14606">
        <ele>236.74340820312</ele>
        <time>2016-02-07T09:45:44.000Z</time>
      </trkpt>
      <trkpt lat="46.83818" lon="3.14605">
        <ele>236.87789916992</ele>
        <time>2016-02-07T09:45:48.000Z</time>
      </trkpt>
      <trkpt lat="46.83821" lon="3.14603">
        <ele>237.01477050781</ele>
        <time>2016-02-07T09:45:50.000Z</time>
      </trkpt>
      <trkpt lat="46.83823" lon="3.14602">
        <ele>237.1403503418</ele>
        <time>2016-02-07T09:45:52.000Z</time>
      </trkpt>
      <trkpt lat="46.83826" lon="3.146">
        <ele>237.25883483887</ele>
        <time>2016-02-07T09:45:55.000Z</time>
      </trkpt>
      <trkpt lat="46.83829" lon="3.14598">
        <ele>237.38520812988</ele>
        <time>2016-02-07T09:45:57.000Z</time>
      </trkpt>
      <trkpt lat="46.83833" lon="3.14597">
        <ele>237.52351379395</ele>
        <time>2016-02-07T09:46:00.000Z</time>
      </trkpt>
      <trkpt lat="46.83834" lon="3.14596">
        <ele>237.63346862793</ele>
        <time>2016-02-07T09:46:02.000Z</time>
      </trkpt>
      <trkpt lat="46.83838" lon="3.14593">
        <ele>237.72775268555</ele>
        <time>2016-02-07T09:46:05.000Z</time>
      </trkpt>
      <trkpt lat="46.8384" lon="3.14591">
        <ele>237.79487609863</ele>
        <time>2016-02-07T09:46:09.000Z</time>
      </trkpt>
      <trkpt lat="46.83842" lon="3.14589">
        <ele>237.83090209961</ele>
        <time>2016-02-07T09:46:10.000Z</time>
      </trkpt>
      <trkpt lat="46.83845" lon="3.14586">
        <ele>237.83532714844</ele>
        <time>2016-02-07T09:46:13.000Z</time>
      </trkpt>
      <trkpt lat="46.83847" lon="3.14585">
        <ele>237.8316192627</ele>
        <time>2016-02-07T09:46:16.000Z</time>
      </trkpt>
      <trkpt lat="46.8385" lon="3.14583">
        <ele>237.82421875</ele>
        <time>2016-02-07T09:46:18.000Z</time>
      </trkpt>
      <trkpt lat="46.83852" lon="3.14583">
        <ele>237.81018066406</ele>
        <time>2016-02-07T09:46:22.000Z</time>
      </trkpt>
      <trkpt lat="46.83854" lon="3.14581">
        <ele>237.79006958008</ele>
        <time>2016-02-07T09:46:23.000Z</time>
      </trkpt>
      <trkpt lat="46.83855" lon="3.14579">
        <ele>237.76553344727</ele>
        <time>2016-02-07T09:46:25.000Z</time>
      </trkpt>
      <trkpt lat="46.83858" lon="3.14575">
        <ele>237.73416137695</ele>
        <time>2016-02-07T09:46:29.000Z</time>
      </trkpt>
      <trkpt lat="46.83859" lon="3.14573">
        <ele>237.70327758789</ele>
        <time>2016-02-07T09:46:32.000Z</time>
      </trkpt>
      <trkpt lat="46.83861" lon="3.14572">
        <ele>237.67517089844</ele>
        <time>2016-02-07T09:46:33.000Z</time>
      </trkpt>
      <trkpt lat="46.83864" lon="3.1457">
        <ele>237.64624023438</ele>
        <time>2016-02-07T09:46:36.000Z</time>
      </trkpt>
      <trkpt lat="46.83866" lon="3.14568">
        <ele>237.61804199219</ele>
        <time>2016-02-07T09:46:39.000Z</time>
      </trkpt>
      <trkpt lat="46.83871" lon="3.14563">
        <ele>237.58981323242</ele>
        <time>2016-02-07T09:46:43.000Z</time>
      </trkpt>
      <trkpt lat="46.83875" lon="3.14559">
        <ele>237.56156921387</ele>
        <time>2016-02-07T09:46:44.000Z</time>
      </trkpt>
      <trkpt lat="46.83879" lon="3.14555">
        <ele>237.53356933594</ele>
        <time>2016-02-07T09:46:47.000Z</time>
      </trkpt>
      <trkpt lat="46.83882" lon="3.14549">
        <ele>237.51260375977</ele>
        <time>2016-02-07T09:46:50.000Z</time>
      </trkpt>
      <trkpt lat="46.83884" lon="3.14546">
        <ele>237.49674987793</ele>
        <time>2016-02-07T09:46:52.000Z</time>
      </trkpt>
      <trkpt lat="46.83887" lon="3.14543">
        <ele>237.49136352539</ele>
        <time>2016-02-07T09:46:55.000Z</time>
      </trkpt>
      <trkpt lat="46.83889" lon="3.14539">
        <ele>237.49282836914</ele>
        <time>2016-02-07T09:46:57.000Z</time>
      </trkpt>
      <trkpt lat="46.83892" lon="3.14534">
        <ele>237.50297546387</ele>
        <time>2016-02-07T09:47:01.000Z</time>
      </trkpt>
      <trkpt lat="46.83894" lon="3.14531">
        <ele>237.517578125</ele>
        <time>2016-02-07T09:47:02.000Z</time>
      </trkpt>
      <trkpt lat="46.83897" lon="3.14528">
        <ele>237.53662109375</ele>
        <time>2016-02-07T09:47:05.000Z</time>
      </trkpt>
      <trkpt lat="46.839" lon="3.14526">
        <ele>237.56100463867</ele>
        <time>2016-02-07T09:47:08.000Z</time>
      </trkpt>
      <trkpt lat="46.83903" lon="3.14523">
        <ele>237.58854675293</ele>
        <time>2016-02-07T09:47:10.000Z</time>
      </trkpt>
      <trkpt lat="46.83906" lon="3.14519">
        <ele>237.62219238281</ele>
        <time>2016-02-07T09:47:13.000Z</time>
      </trkpt>
      <trkpt lat="46.83908" lon="3.14516">
        <ele>237.6604309082</ele>
        <time>2016-02-07T09:47:16.000Z</time>
      </trkpt>
      <trkpt lat="46.8391" lon="3.14513">
        <ele>237.70072937012</ele>
        <time>2016-02-07T09:47:18.000Z</time>
      </trkpt>
      <trkpt lat="46.83912" lon="3.1451">
        <ele>237.74443054199</ele>
        <time>2016-02-07T09:47:21.000Z</time>
      </trkpt>
      <trkpt lat="46.83915" lon="3.14507">
        <ele>237.79414367676</ele>
        <time>2016-02-07T09:47:24.000Z</time>
      </trkpt>
      <trkpt lat="46.83918" lon="3.14504">
        <ele>237.84057617188</ele>
        <time>2016-02-07T09:47:27.000Z</time>
      </trkpt>
      <trkpt lat="46.83923" lon="3.14502">
        <ele>237.87045288086</ele>
        <time>2016-02-07T09:47:30.000Z</time>
      </trkpt>
      <trkpt lat="46.83925" lon="3.145">
        <ele>237.89311218262</ele>
        <time>2016-02-07T09:47:32.000Z</time>
      </trkpt>
      <trkpt lat="46.83927" lon="3.14499">
        <ele>237.90396118164</ele>
        <time>2016-02-07T09:47:35.000Z</time>
      </trkpt>
      <trkpt lat="46.8393" lon="3.14498">
        <ele>237.89855957031</ele>
        <time>2016-02-07T09:47:38.000Z</time>
      </trkpt>
      <trkpt lat="46.83932" lon="3.14498">
        <ele>237.87841796875</ele>
        <time>2016-02-07T09:47:40.000Z</time>
      </trkpt>
      <trkpt lat="46.83935" lon="3.14499">
        <ele>237.85803222656</ele>
        <time>2016-02-07T09:47:43.000Z</time>
      </trkpt>
      <trkpt lat="46.83938" lon="3.14499">
        <ele>237.82783508301</ele>
        <time>2016-02-07T09:47:46.000Z</time>
      </trkpt>
      <trkpt lat="46.83938" lon="3.14499">
        <ele>237.82783508301</ele>
        <time>2016-02-07T09:48:14.000Z</time>
      </trkpt>
      <trkpt lat="46.83939" lon="3.14498">
        <ele>237.80041503906</ele>
        <time>2016-02-07T09:48:24.000Z</time>
      </trkpt>
      <trkpt lat="46.83939" lon="3.14496">
        <ele>237.78144836426</ele>
        <time>2016-02-07T09:48:27.000Z</time>
      </trkpt>
      <trkpt lat="46.83941" lon="3.14501">
        <ele>237.75190734863</ele>
        <time>2016-02-07T09:48:27.000Z</time>
      </trkpt>
      <trkpt lat="46.83943" lon="3.14503">
        <ele>237.72155761719</ele>
        <time>2016-02-07T09:48:27.000Z</time>
      </trkpt>
      <trkpt lat="46.83945" lon="3.14506">
        <ele>237.68920898438</ele>
        <time>2016-02-07T09:48:28.000Z</time>
      </trkpt>
      <trkpt lat="46.83947" lon="3.14509">
        <ele>237.64497375488</ele>
        <time>2016-02-07T09:48:28.000Z</time>
      </trkpt>
      <trkpt lat="46.83948" lon="3.14511">
        <ele>237.58715820312</ele>
        <time>2016-02-07T09:48:28.000Z</time>
      </trkpt>
      <trkpt lat="46.8395" lon="3.14516">
        <ele>237.53047180176</ele>
        <time>2016-02-07T09:48:28.000Z</time>
      </trkpt>
      <trkpt lat="46.83953" lon="3.14519">
        <ele>237.46772766113</ele>
        <time>2016-02-07T09:48:28.000Z</time>
      </trkpt>
      <trkpt lat="46.83955" lon="3.14523">
        <ele>237.40307617188</ele>
        <time>2016-02-07T09:48:30.000Z</time>
      </trkpt>
      <trkpt lat="46.83957" lon="3.14525">
        <ele>237.34077453613</ele>
        <time>2016-02-07T09:48:31.000Z</time>
      </trkpt>
      <trkpt lat="46.8396" lon="3.14528">
        <ele>237.27070617676</ele>
        <time>2016-02-07T09:48:34.000Z</time>
      </trkpt>
      <trkpt lat="46.83962" lon="3.1453">
        <ele>237.20805358887</ele>
        <time>2016-02-07T09:48:36.000Z</time>
      </trkpt>
      <trkpt lat="46.83965" lon="3.14535">
        <ele>237.14277648926</ele>
        <time>2016-02-07T09:48:41.000Z</time>
      </trkpt>
      <trkpt lat="46.83966" lon="3.14538">
        <ele>237.08052062988</ele>
        <time>2016-02-07T09:48:43.000Z</time>
      </trkpt>
      <trkpt lat="46.83969" lon="3.14539">
        <ele>237.01704406738</ele>
        <time>2016-02-07T09:48:45.000Z</time>
      </trkpt>
      <trkpt lat="46.83972" lon="3.14542">
        <ele>236.95805358887</ele>
        <time>2016-02-07T09:48:49.000Z</time>
      </trkpt>
      <trkpt lat="46.83977" lon="3.14545">
        <ele>236.88671875</ele>
        <time>2016-02-07T09:48:52.000Z</time>
      </trkpt>
      <trkpt lat="46.83978" lon="3.14547">
        <ele>236.82588195801</ele>
        <time>2016-02-07T09:48:55.000Z</time>
      </trkpt>
      <trkpt lat="46.83982" lon="3.14551">
        <ele>236.75581359863</ele>
        <time>2016-02-07T09:48:57.000Z</time>
      </trkpt>
      <trkpt lat="46.83987" lon="3.14555">
        <ele>236.67338562012</ele>
        <time>2016-02-07T09:49:00.000Z</time>
      </trkpt>
      <trkpt lat="46.83991" lon="3.14558">
        <ele>236.58686828613</ele>
        <time>2016-02-07T09:49:03.000Z</time>
      </trkpt>
      <trkpt lat="46.83995" lon="3.14562">
        <ele>236.50239562988</ele>
        <time>2016-02-07T09:49:06.000Z</time>
      </trkpt>
      <trkpt lat="46.83998" lon="3.14564">
        <ele>236.41450500488</ele>
        <time>2016-02-07T09:49:08.000Z</time>
      </trkpt>
      <trkpt lat="46.84002" lon="3.14568">
        <ele>236.32180786133</ele>
        <time>2016-02-07T09:49:11.000Z</time>
      </trkpt>
      <trkpt lat="46.84005" lon="3.14571">
        <ele>236.21691894531</ele>
        <time>2016-02-07T09:49:14.000Z</time>
      </trkpt>
      <trkpt lat="46.84008" lon="3.14575">
        <ele>236.09634399414</ele>
        <time>2016-02-07T09:49:17.000Z</time>
      </trkpt>
      <trkpt lat="46.84011" lon="3.14579">
        <ele>235.96257019043</ele>
        <time>2016-02-07T09:49:20.000Z</time>
      </trkpt>
      <trkpt lat="46.84015" lon="3.14582">
        <ele>235.80270385742</ele>
        <time>2016-02-07T09:49:23.000Z</time>
      </trkpt>
      <trkpt lat="46.84018" lon="3.14587">
        <ele>235.64639282227</ele>
        <time>2016-02-07T09:49:26.000Z</time>
      </trkpt>
      <trkpt lat="46.84022" lon="3.14591">
        <ele>235.49784851074</ele>
        <time>2016-02-07T09:49:29.000Z</time>
      </trkpt>
      <trkpt lat="46.84025" lon="3.14595">
        <ele>235.36491394043</ele>
        <time>2016-02-07T09:49:32.000Z</time>
      </trkpt>
      <trkpt lat="46.84028" lon="3.14599">
        <ele>235.24478149414</ele>
        <time>2016-02-07T09:49:36.000Z</time>
      </trkpt>
      <trkpt lat="46.84031" lon="3.14601">
        <ele>235.14961242676</ele>
        <time>2016-02-07T09:49:37.000Z</time>
      </trkpt>
      <trkpt lat="46.84034" lon="3.14604">
        <ele>235.05688476562</ele>
        <time>2016-02-07T09:49:40.000Z</time>
      </trkpt>
      <trkpt lat="46.84037" lon="3.14609">
        <ele>234.97622680664</ele>
        <time>2016-02-07T09:49:43.000Z</time>
      </trkpt>
      <trkpt lat="46.84039" lon="3.14613">
        <ele>234.89848327637</ele>
        <time>2016-02-07T09:49:46.000Z</time>
      </trkpt>
      <trkpt lat="46.84041" lon="3.14615">
        <ele>234.83027648926</ele>
        <time>2016-02-07T09:49:48.000Z</time>
      </trkpt>
      <trkpt lat="46.84045" lon="3.14618">
        <ele>234.7541809082</ele>
        <time>2016-02-07T09:49:51.000Z</time>
      </trkpt>
      <trkpt lat="46.84048" lon="3.14621">
        <ele>234.67863464355</ele>
        <time>2016-02-07T09:49:54.000Z</time>
      </trkpt>
      <trkpt lat="46.84052" lon="3.14625">
        <ele>234.60263061523</ele>
        <time>2016-02-07T09:49:57.000Z</time>
      </trkpt>
      <trkpt lat="46.84055" lon="3.14628">
        <ele>234.52563476562</ele>
        <time>2016-02-07T09:50:00.000Z</time>
      </trkpt>
      <trkpt lat="46.84059" lon="3.14631">
        <ele>234.44284057617</ele>
        <time>2016-02-07T09:50:03.000Z</time>
      </trkpt>
      <trkpt lat="46.84061" lon="3.14633">
        <ele>234.37133789062</ele>
        <time>2016-02-07T09:50:05.000Z</time>
      </trkpt>
      <trkpt lat="46.84063" lon="3.14635">
        <ele>234.30981445312</ele>
        <time>2016-02-07T09:50:07.000Z</time>
      </trkpt>
      <trkpt lat="46.84065" lon="3.14638">
        <ele>234.25346374512</ele>
        <time>2016-02-07T09:50:09.000Z</time>
      </trkpt>
      <trkpt lat="46.84068" lon="3.1464">
        <ele>234.20024108887</ele>
        <time>2016-02-07T09:50:12.000Z</time>
      </trkpt>
      <trkpt lat="46.84071" lon="3.14642">
        <ele>234.14953613281</ele>
        <time>2016-02-07T09:50:16.000Z</time>
      </trkpt>
      <trkpt lat="46.84074" lon="3.14645">
        <ele>234.10237121582</ele>
        <time>2016-02-07T09:50:17.000Z</time>
      </trkpt>
      <trkpt lat="46.84077" lon="3.14649">
        <ele>234.05123901367</ele>
        <time>2016-02-07T09:50:20.000Z</time>
      </trkpt>
      <trkpt lat="46.84079" lon="3.14651">
        <ele>234.0046081543</ele>
        <time>2016-02-07T09:50:22.000Z</time>
      </trkpt>
      <trkpt lat="46.84083" lon="3.14654">
        <ele>233.95785522461</ele>
        <time>2016-02-07T09:50:25.000Z</time>
      </trkpt>
      <trkpt lat="46.84086" lon="3.14657">
        <ele>233.92297363281</ele>
        <time>2016-02-07T09:50:28.000Z</time>
      </trkpt>
      <trkpt lat="46.84087" lon="3.14659">
        <ele>233.89363098145</ele>
        <time>2016-02-07T09:50:30.000Z</time>
      </trkpt>
      <trkpt lat="46.8409" lon="3.14661">
        <ele>233.87655639648</ele>
        <time>2016-02-07T09:50:33.000Z</time>
      </trkpt>
      <trkpt lat="46.84093" lon="3.14664">
        <ele>233.86428833008</ele>
        <time>2016-02-07T09:50:35.000Z</time>
      </trkpt>
      <trkpt lat="46.84097" lon="3.14667">
        <ele>233.8589630127</ele>
        <time>2016-02-07T09:50:38.000Z</time>
      </trkpt>
      <trkpt lat="46.84099" lon="3.14669">
        <ele>233.85005187988</ele>
        <time>2016-02-07T09:50:40.000Z</time>
      </trkpt>
      <trkpt lat="46.84101" lon="3.14671">
        <ele>233.83432006836</ele>
        <time>2016-02-07T09:50:42.000Z</time>
      </trkpt>
      <trkpt lat="46.84105" lon="3.14674">
        <ele>233.810546875</ele>
        <time>2016-02-07T09:50:45.000Z</time>
      </trkpt>
      <trkpt lat="46.84107" lon="3.14676">
        <ele>233.7802734375</ele>
        <time>2016-02-07T09:50:48.000Z</time>
      </trkpt>
      <trkpt lat="46.84109" lon="3.14677">
        <ele>233.7490234375</ele>
        <time>2016-02-07T09:50:50.000Z</time>
      </trkpt>
      <trkpt lat="46.84113" lon="3.14681">
        <ele>233.7138671875</ele>
        <time>2016-02-07T09:50:53.000Z</time>
      </trkpt>
      <trkpt lat="46.84116" lon="3.14684">
        <ele>233.6787109375</ele>
        <time>2016-02-07T09:50:56.000Z</time>
      </trkpt>
      <trkpt lat="46.84118" lon="3.14685">
        <ele>233.6455078125</ele>
        <time>2016-02-07T09:50:58.000Z</time>
      </trkpt>
      <trkpt lat="46.84121" lon="3.14687">
        <ele>233.6123046875</ele>
        <time>2016-02-07T09:51:00.000Z</time>
      </trkpt>
      <trkpt lat="46.84125" lon="3.1469">
        <ele>233.5751953125</ele>
        <time>2016-02-07T09:51:03.000Z</time>
      </trkpt>
      <trkpt lat="46.8413" lon="3.14693">
        <ele>233.5361328125</ele>
        <time>2016-02-07T09:51:07.000Z</time>
      </trkpt>
      <trkpt lat="46.84132" lon="3.14695">
        <ele>233.4970703125</ele>
        <time>2016-02-07T09:51:08.000Z</time>
      </trkpt>
      <trkpt lat="46.84134" lon="3.14696">
        <ele>233.458984375</ele>
        <time>2016-02-07T09:51:10.000Z</time>
      </trkpt>
      <trkpt lat="46.84138" lon="3.14698">
        <ele>233.4189453125</ele>
        <time>2016-02-07T09:51:13.000Z</time>
      </trkpt>
      <trkpt lat="46.84141" lon="3.147">
        <ele>233.3818359375</ele>
        <time>2016-02-07T09:51:15.000Z</time>
      </trkpt>
      <trkpt lat="46.84144" lon="3.14701">
        <ele>233.34765625</ele>
        <time>2016-02-07T09:51:18.000Z</time>
      </trkpt>
      <trkpt lat="46.84147" lon="3.14703">
        <ele>233.3115234375</ele>
        <time>2016-02-07T09:51:21.000Z</time>
      </trkpt>
      <trkpt lat="46.8415" lon="3.14705">
        <ele>233.2734375</ele>
        <time>2016-02-07T09:51:23.000Z</time>
      </trkpt>
      <trkpt lat="46.84154" lon="3.14707">
        <ele>233.234375</ele>
        <time>2016-02-07T09:51:26.000Z</time>
      </trkpt>
      <trkpt lat="46.84158" lon="3.14711">
        <ele>233.193359375</ele>
        <time>2016-02-07T09:51:29.000Z</time>
      </trkpt>
      <trkpt lat="46.84161" lon="3.14714">
        <ele>233.1513671875</ele>
        <time>2016-02-07T09:51:32.000Z</time>
      </trkpt>
      <trkpt lat="46.84164" lon="3.14716">
        <ele>233.1103515625</ele>
        <time>2016-02-07T09:51:35.000Z</time>
      </trkpt>
      <trkpt lat="46.84168" lon="3.14718">
        <ele>233.0625</ele>
        <time>2016-02-07T09:51:38.000Z</time>
      </trkpt>
      <trkpt lat="46.84171" lon="3.14719">
        <ele>233.0126953125</ele>
        <time>2016-02-07T09:51:40.000Z</time>
      </trkpt>
      <trkpt lat="46.84175" lon="3.14721">
        <ele>232.9521484375</ele>
        <time>2016-02-07T09:51:43.000Z</time>
      </trkpt>
      <trkpt lat="46.84177" lon="3.14723">
        <ele>232.888671875</ele>
        <time>2016-02-07T09:51:46.000Z</time>
      </trkpt>
      <trkpt lat="46.84182" lon="3.14726">
        <ele>232.806640625</ele>
        <time>2016-02-07T09:51:49.000Z</time>
      </trkpt>
      <trkpt lat="46.84185" lon="3.14728">
        <ele>232.7265625</ele>
        <time>2016-02-07T09:51:52.000Z</time>
      </trkpt>
      <trkpt lat="46.84189" lon="3.1473">
        <ele>232.638671875</ele>
        <time>2016-02-07T09:51:54.000Z</time>
      </trkpt>
      <trkpt lat="46.84192" lon="3.14731">
        <ele>232.556640625</ele>
        <time>2016-02-07T09:51:56.000Z</time>
      </trkpt>
      <trkpt lat="46.84195" lon="3.14733">
        <ele>232.470703125</ele>
        <time>2016-02-07T09:51:59.000Z</time>
      </trkpt>
      <trkpt lat="46.84197" lon="3.14735">
        <ele>232.40234375</ele>
        <time>2016-02-07T09:52:01.000Z</time>
      </trkpt>
      <trkpt lat="46.84201" lon="3.14736">
        <ele>232.326171875</ele>
        <time>2016-02-07T09:52:04.000Z</time>
      </trkpt>
      <trkpt lat="46.84204" lon="3.14737">
        <ele>232.251953125</ele>
        <time>2016-02-07T09:52:08.000Z</time>
      </trkpt>
      <trkpt lat="46.84207" lon="3.14737">
        <ele>232.1796875</ele>
        <time>2016-02-07T09:52:09.000Z</time>
      </trkpt>
      <trkpt lat="46.84211" lon="3.14737">
        <ele>232.103515625</ele>
        <time>2016-02-07T09:52:12.000Z</time>
      </trkpt>
      <trkpt lat="46.84215" lon="3.14737">
        <ele>232.017578125</ele>
        <time>2016-02-07T09:52:15.000Z</time>
      </trkpt>
      <trkpt lat="46.84218" lon="3.14736">
        <ele>231.935546875</ele>
        <time>2016-02-07T09:52:17.000Z</time>
      </trkpt>
      <trkpt lat="46.84222" lon="3.14735">
        <ele>231.849609375</ele>
        <time>2016-02-07T09:52:20.000Z</time>
      </trkpt>
      <trkpt lat="46.84225" lon="3.14734">
        <ele>231.76171875</ele>
        <time>2016-02-07T09:52:22.000Z</time>
      </trkpt>
      <trkpt lat="46.8423" lon="3.14734">
        <ele>231.671875</ele>
        <time>2016-02-07T09:52:26.000Z</time>
      </trkpt>
      <trkpt lat="46.84232" lon="3.14734">
        <ele>231.58984375</ele>
        <time>2016-02-07T09:52:27.000Z</time>
      </trkpt>
      <trkpt lat="46.84235" lon="3.14734">
        <ele>231.5078125</ele>
        <time>2016-02-07T09:52:29.000Z</time>
      </trkpt>
      <trkpt lat="46.84239" lon="3.14734">
        <ele>231.427734375</ele>
        <time>2016-02-07T09:52:32.000Z</time>
      </trkpt>
      <trkpt lat="46.84243" lon="3.14734">
        <ele>231.341796875</ele>
        <time>2016-02-07T09:52:35.000Z</time>
      </trkpt>
      <trkpt lat="46.84246" lon="3.14733">
        <ele>231.263671875</ele>
        <time>2016-02-07T09:52:38.000Z</time>
      </trkpt>
      <trkpt lat="46.8425" lon="3.14733">
        <ele>231.177734375</ele>
        <time>2016-02-07T09:52:42.000Z</time>
      </trkpt>
      <trkpt lat="46.84252" lon="3.14732">
        <ele>231.095703125</ele>
        <time>2016-02-07T09:52:43.000Z</time>
      </trkpt>
      <trkpt lat="46.84254" lon="3.14732">
        <ele>231.021484375</ele>
        <time>2016-02-07T09:52:45.000Z</time>
      </trkpt>
      <trkpt lat="46.84259" lon="3.14731">
        <ele>230.943359375</ele>
        <time>2016-02-07T09:52:48.000Z</time>
      </trkpt>
      <trkpt lat="46.84262" lon="3.1473">
        <ele>230.865234375</ele>
        <time>2016-02-07T09:52:50.000Z</time>
      </trkpt>
      <trkpt lat="46.84266" lon="3.14727">
        <ele>230.787109375</ele>
        <time>2016-02-07T09:52:53.000Z</time>
      </trkpt>
      <trkpt lat="46.8427" lon="3.14726">
        <ele>230.703125</ele>
        <time>2016-02-07T09:52:56.000Z</time>
      </trkpt>
      <trkpt lat="46.84272" lon="3.14726">
        <ele>230.6171875</ele>
        <time>2016-02-07T09:52:58.000Z</time>
      </trkpt>
      <trkpt lat="46.84276" lon="3.14725">
        <ele>230.5390625</ele>
        <time>2016-02-07T09:53:01.000Z</time>
      </trkpt>
      <trkpt lat="46.8428" lon="3.14724">
        <ele>230.455078125</ele>
        <time>2016-02-07T09:53:04.000Z</time>
      </trkpt>
      <trkpt lat="46.84282" lon="3.14725">
        <ele>230.376953125</ele>
        <time>2016-02-07T09:53:06.000Z</time>
      </trkpt>
      <trkpt lat="46.84285" lon="3.14726">
        <ele>230.302734375</ele>
        <time>2016-02-07T09:53:09.000Z</time>
      </trkpt>
      <trkpt lat="46.8429" lon="3.14726">
        <ele>230.216796875</ele>
        <time>2016-02-07T09:53:12.000Z</time>
      </trkpt>
      <trkpt lat="46.84292" lon="3.14726">
        <ele>230.13671875</ele>
        <time>2016-02-07T09:53:14.000Z</time>
      </trkpt>
      <trkpt lat="46.84295" lon="3.14725">
        <ele>230.0625</ele>
        <time>2016-02-07T09:53:17.000Z</time>
      </trkpt>
      <trkpt lat="46.84299" lon="3.14726">
        <ele>229.984375</ele>
        <time>2016-02-07T09:53:20.000Z</time>
      </trkpt>
      <trkpt lat="46.84303" lon="3.14727">
        <ele>229.896484375</ele>
        <time>2016-02-07T09:53:23.000Z</time>
      </trkpt>
      <trkpt lat="46.84306" lon="3.14727">
        <ele>229.82421875</ele>
        <time>2016-02-07T09:53:25.000Z</time>
      </trkpt>
      <trkpt lat="46.8431" lon="3.14727">
        <ele>229.740234375</ele>
        <time>2016-02-07T09:53:28.000Z</time>
      </trkpt>
      <trkpt lat="46.84313" lon="3.14727">
        <ele>229.654296875</ele>
        <time>2016-02-07T09:53:31.000Z</time>
      </trkpt>
      <trkpt lat="46.84317" lon="3.14726">
        <ele>229.56640625</ele>
        <time>2016-02-07T09:53:34.000Z</time>
      </trkpt>
      <trkpt lat="46.8432" lon="3.14724">
        <ele>229.484375</ele>
        <time>2016-02-07T09:53:37.000Z</time>
      </trkpt>
      <trkpt lat="46.84323" lon="3.14723">
        <ele>229.400390625</ele>
        <time>2016-02-07T09:53:39.000Z</time>
      </trkpt>
      <trkpt lat="46.84327" lon="3.1472">
        <ele>229.31640625</ele>
        <time>2016-02-07T09:53:42.000Z</time>
      </trkpt>
      <trkpt lat="46.8433" lon="3.1472">
        <ele>229.236328125</ele>
        <time>2016-02-07T09:53:44.000Z</time>
      </trkpt>
      <trkpt lat="46.84334" lon="3.14719">
        <ele>229.15617370605</ele>
        <time>2016-02-07T09:53:48.000Z</time>
      </trkpt>
      <trkpt lat="46.84336" lon="3.14718">
        <ele>229.09057617188</ele>
        <time>2016-02-07T09:53:49.000Z</time>
      </trkpt>
      <trkpt lat="46.84339" lon="3.14718">
        <ele>229.0325012207</ele>
        <time>2016-02-07T09:53:51.000Z</time>
      </trkpt>
      <trkpt lat="46.84341" lon="3.14718">
        <ele>228.99221801758</ele>
        <time>2016-02-07T09:53:53.000Z</time>
      </trkpt>
      <trkpt lat="46.84346" lon="3.14718">
        <ele>228.95657348633</ele>
        <time>2016-02-07T09:53:56.000Z</time>
      </trkpt>
      <trkpt lat="46.84349" lon="3.14717">
        <ele>228.93399047852</ele>
        <time>2016-02-07T09:53:59.000Z</time>
      </trkpt>
      <trkpt lat="46.84353" lon="3.14716">
        <ele>228.90922546387</ele>
        <time>2016-02-07T09:54:02.000Z</time>
      </trkpt>
      <trkpt lat="46.84357" lon="3.14716">
        <ele>228.88314819336</ele>
        <time>2016-02-07T09:54:05.000Z</time>
      </trkpt>
      <trkpt lat="46.8436" lon="3.14715">
        <ele>228.8581237793</ele>
        <time>2016-02-07T09:54:07.000Z</time>
      </trkpt>
      <trkpt lat="46.84363" lon="3.14715">
        <ele>228.83544921875</ele>
        <time>2016-02-07T09:54:10.000Z</time>
      </trkpt>
      <trkpt lat="46.84368" lon="3.14714">
        <ele>228.81201171875</ele>
        <time>2016-02-07T09:54:13.000Z</time>
      </trkpt>
      <trkpt lat="46.84372" lon="3.14712">
        <ele>228.78994750977</ele>
        <time>2016-02-07T09:54:16.000Z</time>
      </trkpt>
      <trkpt lat="46.84376" lon="3.14711">
        <ele>228.76977539062</ele>
        <time>2016-02-07T09:54:19.000Z</time>
      </trkpt>
      <trkpt lat="46.8438" lon="3.14711">
        <ele>228.74809265137</ele>
        <time>2016-02-07T09:54:22.000Z</time>
      </trkpt>
      <trkpt lat="46.84381" lon="3.14711">
        <ele>228.72827148438</ele>
        <time>2016-02-07T09:54:24.000Z</time>
      </trkpt>
      <trkpt lat="46.84385" lon="3.14711">
        <ele>228.70883178711</ele>
        <time>2016-02-07T09:54:27.000Z</time>
      </trkpt>
      <trkpt lat="46.84389" lon="3.14713">
        <ele>228.685546875</ele>
        <time>2016-02-07T09:54:30.000Z</time>
      </trkpt>
      <trkpt lat="46.84392" lon="3.14713">
        <ele>228.66128540039</ele>
        <time>2016-02-07T09:54:33.000Z</time>
      </trkpt>
      <trkpt lat="46.84396" lon="3.14713">
        <ele>228.63642883301</ele>
        <time>2016-02-07T09:54:36.000Z</time>
      </trkpt>
      <trkpt lat="46.84399" lon="3.14712">
        <ele>228.611328125</ele>
        <time>2016-02-07T09:54:38.000Z</time>
      </trkpt>
      <trkpt lat="46.84403" lon="3.14711">
        <ele>228.58865356445</ele>
        <time>2016-02-07T09:54:41.000Z</time>
      </trkpt>
      <trkpt lat="46.84406" lon="3.1471">
        <ele>228.57064819336</ele>
        <time>2016-02-07T09:54:44.000Z</time>
      </trkpt>
      <trkpt lat="46.84408" lon="3.1471">
        <ele>228.5553894043</ele>
        <time>2016-02-07T09:54:46.000Z</time>
      </trkpt>
      <trkpt lat="46.84412" lon="3.1471">
        <ele>228.54028320312</ele>
        <time>2016-02-07T09:54:49.000Z</time>
      </trkpt>
      <trkpt lat="46.84417" lon="3.1471">
        <ele>228.52285766602</ele>
        <time>2016-02-07T09:54:52.000Z</time>
      </trkpt>
      <trkpt lat="46.8442" lon="3.14708">
        <ele>228.51156616211</ele>
        <time>2016-02-07T09:54:55.000Z</time>
      </trkpt>
      <trkpt lat="46.84423" lon="3.14707">
        <ele>228.50595092773</ele>
        <time>2016-02-07T09:54:58.000Z</time>
      </trkpt>
      <trkpt lat="46.84426" lon="3.14706">
        <ele>228.50369262695</ele>
        <time>2016-02-07T09:55:00.000Z</time>
      </trkpt>
      <trkpt lat="46.8443" lon="3.14705">
        <ele>228.50700378418</ele>
        <time>2016-02-07T09:55:03.000Z</time>
      </trkpt>
      <trkpt lat="46.84435" lon="3.14705">
        <ele>228.51591491699</ele>
        <time>2016-02-07T09:55:06.000Z</time>
      </trkpt>
      <trkpt lat="46.84438" lon="3.14703">
        <ele>228.52236938477</ele>
        <time>2016-02-07T09:55:09.000Z</time>
      </trkpt>
      <trkpt lat="46.84442" lon="3.14701">
        <ele>228.52653503418</ele>
        <time>2016-02-07T09:55:12.000Z</time>
      </trkpt>
      <trkpt lat="46.84445" lon="3.14701">
        <ele>228.52807617188</ele>
        <time>2016-02-07T09:55:15.000Z</time>
      </trkpt>
      <trkpt lat="46.84448" lon="3.14701">
        <ele>228.52774047852</ele>
        <time>2016-02-07T09:55:17.000Z</time>
      </trkpt>
      <trkpt lat="46.84451" lon="3.14701">
        <ele>228.52597045898</ele>
        <time>2016-02-07T09:55:19.000Z</time>
      </trkpt>
      <trkpt lat="46.84456" lon="3.147">
        <ele>228.52067565918</ele>
        <time>2016-02-07T09:55:22.000Z</time>
      </trkpt>
      <trkpt lat="46.84459" lon="3.147">
        <ele>228.513671875</ele>
        <time>2016-02-07T09:55:24.000Z</time>
      </trkpt>
      <trkpt lat="46.84463" lon="3.147">
        <ele>228.50593566895</ele>
        <time>2016-02-07T09:55:28.000Z</time>
      </trkpt>
      <trkpt lat="46.84465" lon="3.147">
        <ele>228.49836730957</ele>
        <time>2016-02-07T09:55:29.000Z</time>
      </trkpt>
      <trkpt lat="46.84468" lon="3.14699">
        <ele>228.48999023438</ele>
        <time>2016-02-07T09:55:32.000Z</time>
      </trkpt>
      <trkpt lat="46.8447" lon="3.14699">
        <ele>228.4829864502</ele>
        <time>2016-02-07T09:55:34.000Z</time>
      </trkpt>
      <trkpt lat="46.84475" lon="3.147">
        <ele>228.47529602051</ele>
        <time>2016-02-07T09:55:37.000Z</time>
      </trkpt>
      <trkpt lat="46.84478" lon="3.147">
        <ele>228.46774291992</ele>
        <time>2016-02-07T09:55:39.000Z</time>
      </trkpt>
      <trkpt lat="46.84482" lon="3.14699">
        <ele>228.45767211914</ele>
        <time>2016-02-07T09:55:42.000Z</time>
      </trkpt>
      <trkpt lat="46.84485" lon="3.14698">
        <ele>228.44645690918</ele>
        <time>2016-02-07T09:55:45.000Z</time>
      </trkpt>
      <trkpt lat="46.84489" lon="3.14698">
        <ele>228.43437194824</ele>
        <time>2016-02-07T09:55:48.000Z</time>
      </trkpt>
      <trkpt lat="46.84493" lon="3.14699">
        <ele>228.42402648926</ele>
        <time>2016-02-07T09:55:51.000Z</time>
      </trkpt>
      <trkpt lat="46.84497" lon="3.147">
        <ele>228.41625976562</ele>
        <time>2016-02-07T09:55:54.000Z</time>
      </trkpt>
      <trkpt lat="46.84499" lon="3.14701">
        <ele>228.41223144531</ele>
        <time>2016-02-07T09:55:56.000Z</time>
      </trkpt>
      <trkpt lat="46.84503" lon="3.14703">
        <ele>228.41528320312</ele>
        <time>2016-02-07T09:55:59.000Z</time>
      </trkpt>
      <trkpt lat="46.84507" lon="3.14704">
        <ele>228.42318725586</ele>
        <time>2016-02-07T09:56:02.000Z</time>
      </trkpt>
      <trkpt lat="46.8451" lon="3.14705">
        <ele>228.43281555176</ele>
        <time>2016-02-07T09:56:04.000Z</time>
      </trkpt>
      <trkpt lat="46.84514" lon="3.14706">
        <ele>228.4436340332</ele>
        <time>2016-02-07T09:56:08.000Z</time>
      </trkpt>
      <trkpt lat="46.84516" lon="3.14706">
        <ele>228.4560546875</ele>
        <time>2016-02-07T09:56:09.000Z</time>
      </trkpt>
      <trkpt lat="46.8452" lon="3.14707">
        <ele>228.46728515625</ele>
        <time>2016-02-07T09:56:11.000Z</time>
      </trkpt>
      <trkpt lat="46.84525" lon="3.14709">
        <ele>228.47900390625</ele>
        <time>2016-02-07T09:56:14.000Z</time>
      </trkpt>
      <trkpt lat="46.84528" lon="3.14711">
        <ele>228.49340820312</ele>
        <time>2016-02-07T09:56:16.000Z</time>
      </trkpt>
      <trkpt lat="46.84531" lon="3.14712">
        <ele>228.50785827637</ele>
        <time>2016-02-07T09:56:19.000Z</time>
      </trkpt>
      <trkpt lat="46.84536" lon="3.14713">
        <ele>228.52348327637</ele>
        <time>2016-02-07T09:56:22.000Z</time>
      </trkpt>
      <trkpt lat="46.84539" lon="3.14714">
        <ele>228.53984069824</ele>
        <time>2016-02-07T09:56:25.000Z</time>
      </trkpt>
      <trkpt lat="46.84544" lon="3.14716">
        <ele>228.55619812012</ele>
        <time>2016-02-07T09:56:28.000Z</time>
      </trkpt>
      <trkpt lat="46.84548" lon="3.14718">
        <ele>228.57299804688</ele>
        <time>2016-02-07T09:56:31.000Z</time>
      </trkpt>
      <trkpt lat="46.84551" lon="3.14718">
        <ele>228.58915710449</ele>
        <time>2016-02-07T09:56:33.000Z</time>
      </trkpt>
      <trkpt lat="46.84554" lon="3.14719">
        <ele>228.60424804688</ele>
        <time>2016-02-07T09:56:37.000Z</time>
      </trkpt>
      <trkpt lat="46.84557" lon="3.1472">
        <ele>228.61828613281</ele>
        <time>2016-02-07T09:56:38.000Z</time>
      </trkpt>
      <trkpt lat="46.8456" lon="3.14722">
        <ele>228.63220214844</ele>
        <time>2016-02-07T09:56:41.000Z</time>
      </trkpt>
      <trkpt lat="46.84563" lon="3.14724">
        <ele>228.64721679688</ele>
        <time>2016-02-07T09:56:44.000Z</time>
      </trkpt>
      <trkpt lat="46.84566" lon="3.14725">
        <ele>228.66328430176</ele>
        <time>2016-02-07T09:56:46.000Z</time>
      </trkpt>
      <trkpt lat="46.8457" lon="3.14726">
        <ele>228.67932128906</ele>
        <time>2016-02-07T09:56:49.000Z</time>
      </trkpt>
      <trkpt lat="46.84572" lon="3.14727">
        <ele>228.6953125</ele>
        <time>2016-02-07T09:56:51.000Z</time>
      </trkpt>
      <trkpt lat="46.84576" lon="3.14728">
        <ele>228.71147155762</ele>
        <time>2016-02-07T09:56:54.000Z</time>
      </trkpt>
      <trkpt lat="46.8458" lon="3.14729">
        <ele>228.72399902344</ele>
        <time>2016-02-07T09:56:57.000Z</time>
      </trkpt>
      <trkpt lat="46.84583" lon="3.14729">
        <ele>228.73486328125</ele>
        <time>2016-02-07T09:56:59.000Z</time>
      </trkpt>
      <trkpt lat="46.84587" lon="3.14731">
        <ele>228.72074890137</ele>
        <time>2016-02-07T09:57:02.000Z</time>
      </trkpt>
      <trkpt lat="46.8459" lon="3.14732">
        <ele>228.68574523926</ele>
        <time>2016-02-07T09:57:05.000Z</time>
      </trkpt>
      <trkpt lat="46.84593" lon="3.14732">
        <ele>228.62846374512</ele>
        <time>2016-02-07T09:57:06.000Z</time>
      </trkpt>
      <trkpt lat="46.84596" lon="3.14733">
        <ele>228.54682922363</ele>
        <time>2016-02-07T09:57:09.000Z</time>
      </trkpt>
      <trkpt lat="46.84599" lon="3.14733">
        <ele>228.44136047363</ele>
        <time>2016-02-07T09:57:12.000Z</time>
      </trkpt>
      <trkpt lat="46.84602" lon="3.14735">
        <ele>228.34199523926</ele>
        <time>2016-02-07T09:57:14.000Z</time>
      </trkpt>
      <trkpt lat="46.84605" lon="3.14735">
        <ele>228.24499511719</ele>
        <time>2016-02-07T09:57:16.000Z</time>
      </trkpt>
      <trkpt lat="46.84608" lon="3.14737">
        <ele>228.14091491699</ele>
        <time>2016-02-07T09:57:19.000Z</time>
      </trkpt>
      <trkpt lat="46.84612" lon="3.14739">
        <ele>228.04064941406</ele>
        <time>2016-02-07T09:57:22.000Z</time>
      </trkpt>
      <trkpt lat="46.84614" lon="3.1474">
        <ele>227.94860839844</ele>
        <time>2016-02-07T09:57:24.000Z</time>
      </trkpt>
      <trkpt lat="46.84616" lon="3.14741">
        <ele>227.86137390137</ele>
        <time>2016-02-07T09:57:26.000Z</time>
      </trkpt>
      <trkpt lat="46.84621" lon="3.14743">
        <ele>227.75907897949</ele>
        <time>2016-02-07T09:57:29.000Z</time>
      </trkpt>
      <trkpt lat="46.84624" lon="3.14744">
        <ele>227.66792297363</ele>
        <time>2016-02-07T09:57:31.000Z</time>
      </trkpt>
      <trkpt lat="46.84628" lon="3.14744">
        <ele>227.56713867188</ele>
        <time>2016-02-07T09:57:34.000Z</time>
      </trkpt>
      <trkpt lat="46.84632" lon="3.14745">
        <ele>227.45275878906</ele>
        <time>2016-02-07T09:57:37.000Z</time>
      </trkpt>
      <trkpt lat="46.84634" lon="3.14745">
        <ele>227.33711242676</ele>
        <time>2016-02-07T09:57:39.000Z</time>
      </trkpt>
      <trkpt lat="46.84637" lon="3.14747">
        <ele>227.22937011719</ele>
        <time>2016-02-07T09:57:42.000Z</time>
      </trkpt>
      <trkpt lat="46.84642" lon="3.14748">
        <ele>227.11108398438</ele>
        <time>2016-02-07T09:57:45.000Z</time>
      </trkpt>
      <trkpt lat="46.84645" lon="3.14748">
        <ele>226.99751281738</ele>
        <time>2016-02-07T09:57:47.000Z</time>
      </trkpt>
      <trkpt lat="46.84649" lon="3.14748">
        <ele>226.88256835938</ele>
        <time>2016-02-07T09:57:50.000Z</time>
      </trkpt>
      <trkpt lat="46.84652" lon="3.14749">
        <ele>226.75842285156</ele>
        <time>2016-02-07T09:57:52.000Z</time>
      </trkpt>
      <trkpt lat="46.84656" lon="3.14749">
        <ele>226.62992858887</ele>
        <time>2016-02-07T09:57:55.000Z</time>
      </trkpt>
      <trkpt lat="46.84659" lon="3.14749">
        <ele>226.50634765625</ele>
        <time>2016-02-07T09:57:57.000Z</time>
      </trkpt>
      <trkpt lat="46.84662" lon="3.14749">
        <ele>226.38586425781</ele>
        <time>2016-02-07T09:58:01.000Z</time>
      </trkpt>
      <trkpt lat="46.84665" lon="3.1475">
        <ele>226.27534484863</ele>
        <time>2016-02-07T09:58:02.000Z</time>
      </trkpt>
      <trkpt lat="46.84668" lon="3.14751">
        <ele>226.16337585449</ele>
        <time>2016-02-07T09:58:05.000Z</time>
      </trkpt>
      <trkpt lat="46.84671" lon="3.14752">
        <ele>226.06393432617</ele>
        <time>2016-02-07T09:58:07.000Z</time>
      </trkpt>
      <trkpt lat="46.84676" lon="3.14753">
        <ele>225.95613098145</ele>
        <time>2016-02-07T09:58:10.000Z</time>
      </trkpt>
      <trkpt lat="46.84679" lon="3.14752">
        <ele>225.86006164551</ele>
        <time>2016-02-07T09:58:13.000Z</time>
      </trkpt>
      <trkpt lat="46.84681" lon="3.14752">
        <ele>225.77153015137</ele>
        <time>2016-02-07T09:58:15.000Z</time>
      </trkpt>
      <trkpt lat="46.84686" lon="3.14752">
        <ele>225.68522644043</ele>
        <time>2016-02-07T09:58:18.000Z</time>
      </trkpt>
      <trkpt lat="46.84689" lon="3.14751">
        <ele>225.6012878418</ele>
        <time>2016-02-07T09:58:20.000Z</time>
      </trkpt>
      <trkpt lat="46.84693" lon="3.14751">
        <ele>225.52529907227</ele>
        <time>2016-02-07T09:58:24.000Z</time>
      </trkpt>
      <trkpt lat="46.84695" lon="3.14751">
        <ele>225.44784545898</ele>
        <time>2016-02-07T09:58:25.000Z</time>
      </trkpt>
      <trkpt lat="46.84699" lon="3.14753">
        <ele>225.35713195801</ele>
        <time>2016-02-07T09:58:28.000Z</time>
      </trkpt>
      <trkpt lat="46.84702" lon="3.14754">
        <ele>225.27143859863</ele>
        <time>2016-02-07T09:58:30.000Z</time>
      </trkpt>
      <trkpt lat="46.84706" lon="3.14755">
        <ele>225.17404174805</ele>
        <time>2016-02-07T09:58:33.000Z</time>
      </trkpt>
      <trkpt lat="46.84708" lon="3.14755">
        <ele>225.08891296387</ele>
        <time>2016-02-07T09:58:35.000Z</time>
      </trkpt>
      <trkpt lat="46.84713" lon="3.14756">
        <ele>224.98652648926</ele>
        <time>2016-02-07T09:58:38.000Z</time>
      </trkpt>
      <trkpt lat="46.84716" lon="3.14756">
        <ele>224.8903503418</ele>
        <time>2016-02-07T09:58:41.000Z</time>
      </trkpt>
      <trkpt lat="46.84719" lon="3.14757">
        <ele>224.79414367676</ele>
        <time>2016-02-07T09:58:43.000Z</time>
      </trkpt>
      <trkpt lat="46.84723" lon="3.14757">
        <ele>224.70202636719</ele>
        <time>2016-02-07T09:58:46.000Z</time>
      </trkpt>
      <trkpt lat="46.84726" lon="3.14758">
        <ele>224.59924316406</ele>
        <time>2016-02-07T09:58:48.000Z</time>
      </trkpt>
      <trkpt lat="46.8473" lon="3.14759">
        <ele>224.50051879883</ele>
        <time>2016-02-07T09:58:51.000Z</time>
      </trkpt>
      <trkpt lat="46.84733" lon="3.1476">
        <ele>224.40365600586</ele>
        <time>2016-02-07T09:58:53.000Z</time>
      </trkpt>
      <trkpt lat="46.84737" lon="3.1476">
        <ele>224.29837036133</ele>
        <time>2016-02-07T09:58:57.000Z</time>
      </trkpt>
      <trkpt lat="46.8474" lon="3.14761">
        <ele>224.19648742676</ele>
        <time>2016-02-07T09:58:58.000Z</time>
      </trkpt>
      <trkpt lat="46.84745" lon="3.14761">
        <ele>224.0904083252</ele>
        <time>2016-02-07T09:59:01.000Z</time>
      </trkpt>
      <trkpt lat="46.84747" lon="3.14762">
        <ele>223.99226379395</ele>
        <time>2016-02-07T09:59:03.000Z</time>
      </trkpt>
      <trkpt lat="46.8475" lon="3.14762">
        <ele>223.89408874512</ele>
        <time>2016-02-07T09:59:06.000Z</time>
      </trkpt>
      <trkpt lat="46.84755" lon="3.14763">
        <ele>223.81893920898</ele>
        <time>2016-02-07T09:59:09.000Z</time>
      </trkpt>
      <trkpt lat="46.84757" lon="3.14763">
        <ele>223.76663208008</ele>
        <time>2016-02-07T09:59:12.000Z</time>
      </trkpt>
      <trkpt lat="46.84761" lon="3.14763">
        <ele>223.74038696289</ele>
        <time>2016-02-07T09:59:15.000Z</time>
      </trkpt>
      <trkpt lat="46.84764" lon="3.14764">
        <ele>223.73104858398</ele>
        <time>2016-02-07T09:59:18.000Z</time>
      </trkpt>
      <trkpt lat="46.84767" lon="3.14765">
        <ele>223.73896789551</ele>
        <time>2016-02-07T09:59:20.000Z</time>
      </trkpt>
      <trkpt lat="46.8477" lon="3.14766">
        <ele>223.74809265137</ele>
        <time>2016-02-07T09:59:22.000Z</time>
      </trkpt>
      <trkpt lat="46.84772" lon="3.14767">
        <ele>223.75300598145</ele>
        <time>2016-02-07T09:59:24.000Z</time>
      </trkpt>
      <trkpt lat="46.84776" lon="3.14766">
        <ele>223.7607421875</ele>
        <time>2016-02-07T09:59:27.000Z</time>
      </trkpt>
      <trkpt lat="46.84777" lon="3.14765">
        <ele>223.77307128906</ele>
        <time>2016-02-07T09:59:30.000Z</time>
      </trkpt>
      <trkpt lat="46.84777" lon="3.14765">
        <ele>223.78536987305</ele>
        <time>2016-02-07T09:59:32.000Z</time>
      </trkpt>
      <trkpt lat="46.84777" lon="3.14765">
        <ele>223.78536987305</ele>
        <time>2016-02-07T09:59:55.000Z</time>
      </trkpt>
      <trkpt lat="46.84778" lon="3.14764">
        <ele>223.80281066895</ele>
        <time>2016-02-07T10:00:59.000Z</time>
      </trkpt>
      <trkpt lat="46.84777" lon="3.14762">
        <ele>223.82186889648</ele>
        <time>2016-02-07T10:01:06.000Z</time>
      </trkpt>
      <trkpt lat="46.84777" lon="3.14759">
        <ele>223.84237670898</ele>
        <time>2016-02-07T10:01:09.000Z</time>
      </trkpt>
      <trkpt lat="46.84777" lon="3.14756">
        <ele>223.86502075195</ele>
        <time>2016-02-07T10:01:11.000Z</time>
      </trkpt>
      <trkpt lat="46.84776" lon="3.14753">
        <ele>223.89445495605</ele>
        <time>2016-02-07T10:01:13.000Z</time>
      </trkpt>
      <trkpt lat="46.84775" lon="3.14748">
        <ele>223.9306640625</ele>
        <time>2016-02-07T10:01:17.000Z</time>
      </trkpt>
      <trkpt lat="46.84774" lon="3.14744">
        <ele>223.9700012207</ele>
        <time>2016-02-07T10:01:18.000Z</time>
      </trkpt>
      <trkpt lat="46.84773" lon="3.14739">
        <ele>224.01127624512</ele>
        <time>2016-02-07T10:01:21.000Z</time>
      </trkpt>
      <trkpt lat="46.84773" lon="3.14735">
        <ele>224.05058288574</ele>
        <time>2016-02-07T10:01:23.000Z</time>
      </trkpt>
      <trkpt lat="46.84773" lon="3.14732">
        <ele>224.08842468262</ele>
        <time>2016-02-07T10:01:25.000Z</time>
      </trkpt>
      <trkpt lat="46.84773" lon="3.14731">
        <ele>224.11849975586</ele>
        <time>2016-02-07T10:01:31.000Z</time>
      </trkpt>
      <trkpt lat="46.84773" lon="3.14726">
        <ele>224.15084838867</ele>
        <time>2016-02-07T10:01:34.000Z</time>
      </trkpt>
      <trkpt lat="46.84772" lon="3.14722">
        <ele>224.18159484863</ele>
        <time>2016-02-07T10:01:36.000Z</time>
      </trkpt>
      <trkpt lat="46.84771" lon="3.14718">
        <ele>224.2145690918</ele>
        <time>2016-02-07T10:01:39.000Z</time>
      </trkpt>
      <trkpt lat="46.84771" lon="3.14713">
        <ele>224.25155639648</ele>
        <time>2016-02-07T10:01:42.000Z</time>
      </trkpt>
      <trkpt lat="46.84769" lon="3.14707">
        <ele>224.29789733887</ele>
        <time>2016-02-07T10:01:45.000Z</time>
      </trkpt>
      <trkpt lat="46.84769" lon="3.14704">
        <ele>224.34060668945</ele>
        <time>2016-02-07T10:01:47.000Z</time>
      </trkpt>
      <trkpt lat="46.84769" lon="3.14698">
        <ele>224.3872833252</ele>
        <time>2016-02-07T10:01:50.000Z</time>
      </trkpt>
      <trkpt lat="46.84768" lon="3.14694">
        <ele>224.4341583252</ele>
        <time>2016-02-07T10:01:53.000Z</time>
      </trkpt>
      <trkpt lat="46.84768" lon="3.1469">
        <ele>224.47909545898</ele>
        <time>2016-02-07T10:01:55.000Z</time>
      </trkpt>
      <trkpt lat="46.84768" lon="3.14685">
        <ele>224.52127075195</ele>
        <time>2016-02-07T10:01:58.000Z</time>
      </trkpt>
      <trkpt lat="46.84768" lon="3.14681">
        <ele>224.56680297852</ele>
        <time>2016-02-07T10:02:01.000Z</time>
      </trkpt>
      <trkpt lat="46.84767" lon="3.14675">
        <ele>224.61344909668</ele>
        <time>2016-02-07T10:02:04.000Z</time>
      </trkpt>
      <trkpt lat="46.84766" lon="3.1467">
        <ele>224.66316223145</ele>
        <time>2016-02-07T10:02:08.000Z</time>
      </trkpt>
      <trkpt lat="46.84766" lon="3.14663">
        <ele>224.71508789062</ele>
        <time>2016-02-07T10:02:10.000Z</time>
      </trkpt>
      <trkpt lat="46.84765" lon="3.14659">
        <ele>224.75964355469</ele>
        <time>2016-02-07T10:02:13.000Z</time>
      </trkpt>
      <trkpt lat="46.84765" lon="3.14654">
        <ele>224.79870605469</ele>
        <time>2016-02-07T10:02:15.000Z</time>
      </trkpt>
      <trkpt lat="46.84764" lon="3.1465">
        <ele>224.828125</ele>
        <time>2016-02-07T10:02:20.000Z</time>
      </trkpt>
      <trkpt lat="46.84765" lon="3.14646">
        <ele>224.84651184082</ele>
        <time>2016-02-07T10:02:22.000Z</time>
      </trkpt>
      <trkpt lat="46.84767" lon="3.14642">
        <ele>224.8532409668</ele>
        <time>2016-02-07T10:02:29.000Z</time>
      </trkpt>
      <trkpt lat="46.84769" lon="3.14639">
        <ele>224.85620117188</ele>
        <time>2016-02-07T10:02:29.000Z</time>
      </trkpt>
      <trkpt lat="46.84771" lon="3.14637">
        <ele>224.85397338867</ele>
        <time>2016-02-07T10:02:32.000Z</time>
      </trkpt>
      <trkpt lat="46.84775" lon="3.14635">
        <ele>224.84492492676</ele>
        <time>2016-02-07T10:02:33.000Z</time>
      </trkpt>
      <trkpt lat="46.84778" lon="3.14635">
        <ele>224.83061218262</ele>
        <time>2016-02-07T10:02:33.000Z</time>
      </trkpt>
      <trkpt lat="46.84781" lon="3.14634">
        <ele>224.81460571289</ele>
        <time>2016-02-07T10:02:36.000Z</time>
      </trkpt>
      <trkpt lat="46.84784" lon="3.14632">
        <ele>224.79634094238</ele>
        <time>2016-02-07T10:02:41.000Z</time>
      </trkpt>
      <trkpt lat="46.84786" lon="3.14632">
        <ele>224.77824401855</ele>
        <time>2016-02-07T10:02:45.000Z</time>
      </trkpt>
      <trkpt lat="46.8479" lon="3.1463">
        <ele>224.76138305664</ele>
        <time>2016-02-07T10:02:45.000Z</time>
      </trkpt>
      <trkpt lat="46.84794" lon="3.14629">
        <ele>224.7447052002</ele>
        <time>2016-02-07T10:02:46.000Z</time>
      </trkpt>
      <trkpt lat="46.84797" lon="3.14628">
        <ele>224.72929382324</ele>
        <time>2016-02-07T10:02:47.000Z</time>
      </trkpt>
      <trkpt lat="46.84799" lon="3.14627">
        <ele>224.71633911133</ele>
        <time>2016-02-07T10:02:49.000Z</time>
      </trkpt>
      <trkpt lat="46.84803" lon="3.14625">
        <ele>224.70263671875</ele>
        <time>2016-02-07T10:02:52.000Z</time>
      </trkpt>
      <trkpt lat="46.84806" lon="3.14625">
        <ele>224.68994140625</ele>
        <time>2016-02-07T10:02:54.000Z</time>
      </trkpt>
      <trkpt lat="46.84809" lon="3.14623">
        <ele>224.68002319336</ele>
        <time>2016-02-07T10:02:57.000Z</time>
      </trkpt>
      <trkpt lat="46.84812" lon="3.14622">
        <ele>224.67105102539</ele>
        <time>2016-02-07T10:03:00.000Z</time>
      </trkpt>
      <trkpt lat="46.84817" lon="3.14622">
        <ele>224.65852355957</ele>
        <time>2016-02-07T10:03:03.000Z</time>
      </trkpt>
      <trkpt lat="46.84819" lon="3.1462">
        <ele>224.6498260498</ele>
        <time>2016-02-07T10:03:05.000Z</time>
      </trkpt>
      <trkpt lat="46.84823" lon="3.14617">
        <ele>224.6450958252</ele>
        <time>2016-02-07T10:03:08.000Z</time>
      </trkpt>
      <trkpt lat="46.84824" lon="3.14615">
        <ele>224.64602661133</ele>
        <time>2016-02-07T10:03:10.000Z</time>
      </trkpt>
      <trkpt lat="46.84828" lon="3.14611">
        <ele>224.65242004395</ele>
        <time>2016-02-07T10:03:13.000Z</time>
      </trkpt>
      <trkpt lat="46.84831" lon="3.14608">
        <ele>224.66813659668</ele>
        <time>2016-02-07T10:03:16.000Z</time>
      </trkpt>
      <trkpt lat="46.84833" lon="3.14606">
        <ele>224.6858215332</ele>
        <time>2016-02-07T10:03:18.000Z</time>
      </trkpt>
      <trkpt lat="46.84836" lon="3.14604">
        <ele>224.69340515137</ele>
        <time>2016-02-07T10:03:21.000Z</time>
      </trkpt>
      <trkpt lat="46.8484" lon="3.14603">
        <ele>224.67182922363</ele>
        <time>2016-02-07T10:03:24.000Z</time>
      </trkpt>
      <trkpt lat="46.84843" lon="3.14602">
        <ele>224.63174438477</ele>
        <time>2016-02-07T10:03:26.000Z</time>
      </trkpt>
      <trkpt lat="46.84845" lon="3.146">
        <ele>224.57417297363</ele>
        <time>2016-02-07T10:03:29.000Z</time>
      </trkpt>
      <trkpt lat="46.84849" lon="3.14598">
        <ele>224.49472045898</ele>
        <time>2016-02-07T10:03:32.000Z</time>
      </trkpt>
      <trkpt lat="46.84851" lon="3.14596">
        <ele>224.41226196289</ele>
        <time>2016-02-07T10:03:34.000Z</time>
      </trkpt>
      <trkpt lat="46.84854" lon="3.14596">
        <ele>224.33679199219</ele>
        <time>2016-02-07T10:03:38.000Z</time>
      </trkpt>
      <trkpt lat="46.84856" lon="3.14596">
        <ele>224.26034545898</ele>
        <time>2016-02-07T10:03:39.000Z</time>
      </trkpt>
      <trkpt lat="46.84859" lon="3.14596">
        <ele>224.18051147461</ele>
        <time>2016-02-07T10:03:41.000Z</time>
      </trkpt>
      <trkpt lat="46.84864" lon="3.14596">
        <ele>224.08840942383</ele>
        <time>2016-02-07T10:03:44.000Z</time>
      </trkpt>
      <trkpt lat="46.84869" lon="3.14594">
        <ele>223.97648620605</ele>
        <time>2016-02-07T10:03:47.000Z</time>
      </trkpt>
      <trkpt lat="46.84874" lon="3.14594">
        <ele>223.85041809082</ele>
        <time>2016-02-07T10:03:50.000Z</time>
      </trkpt>
      <trkpt lat="46.84877" lon="3.14595">
        <ele>223.71884155273</ele>
        <time>2016-02-07T10:03:52.000Z</time>
      </trkpt>
      <trkpt lat="46.84881" lon="3.14594">
        <ele>223.57376098633</ele>
        <time>2016-02-07T10:03:55.000Z</time>
      </trkpt>
      <trkpt lat="46.84887" lon="3.14593">
        <ele>223.42395019531</ele>
        <time>2016-02-07T10:03:58.000Z</time>
      </trkpt>
      <trkpt lat="46.84889" lon="3.14592">
        <ele>223.28845214844</ele>
        <time>2016-02-07T10:04:00.000Z</time>
      </trkpt>
      <trkpt lat="46.84893" lon="3.14591">
        <ele>223.15710449219</ele>
        <time>2016-02-07T10:04:03.000Z</time>
      </trkpt>
      <trkpt lat="46.84897" lon="3.14592">
        <ele>223.02359008789</ele>
        <time>2016-02-07T10:04:07.000Z</time>
      </trkpt>
      <trkpt lat="46.84901" lon="3.14592">
        <ele>222.88859558105</ele>
        <time>2016-02-07T10:04:09.000Z</time>
      </trkpt>
      <trkpt lat="46.84904" lon="3.14591">
        <ele>222.77279663086</ele>
        <time>2016-02-07T10:04:11.000Z</time>
      </trkpt>
      <trkpt lat="46.84907" lon="3.14592">
        <ele>222.64926147461</ele>
        <time>2016-02-07T10:04:14.000Z</time>
      </trkpt>
      <trkpt lat="46.8491" lon="3.14592">
        <ele>222.5358581543</ele>
        <time>2016-02-07T10:04:16.000Z</time>
      </trkpt>
      <trkpt lat="46.84915" lon="3.14593">
        <ele>222.41471862793</ele>
        <time>2016-02-07T10:04:19.000Z</time>
      </trkpt>
      <trkpt lat="46.84919" lon="3.14592">
        <ele>222.31001281738</ele>
        <time>2016-02-07T10:04:22.000Z</time>
      </trkpt>
      <trkpt lat="46.84921" lon="3.14592">
        <ele>222.22036743164</ele>
        <time>2016-02-07T10:04:24.000Z</time>
      </trkpt>
      <trkpt lat="46.84925" lon="3.14591">
        <ele>222.15246582031</ele>
        <time>2016-02-07T10:04:29.000Z</time>
      </trkpt>
      <trkpt lat="46.84929" lon="3.1459">
        <ele>222.0990447998</ele>
        <time>2016-02-07T10:04:30.000Z</time>
      </trkpt>
      <trkpt lat="46.84932" lon="3.14589">
        <ele>222.07385253906</ele>
        <time>2016-02-07T10:04:32.000Z</time>
      </trkpt>
      <trkpt lat="46.84935" lon="3.14589">
        <ele>222.06228637695</ele>
        <time>2016-02-07T10:04:35.000Z</time>
      </trkpt>
      <trkpt lat="46.84937" lon="3.1459">
        <ele>222.05195617676</ele>
        <time>2016-02-07T10:04:37.000Z</time>
      </trkpt>
      <trkpt lat="46.8494" lon="3.14589">
        <ele>222.04264831543</ele>
        <time>2016-02-07T10:04:44.000Z</time>
      </trkpt>
      <trkpt lat="46.84945" lon="3.1459">
        <ele>222.03540039062</ele>
        <time>2016-02-07T10:04:46.000Z</time>
      </trkpt>
      <trkpt lat="46.84949" lon="3.14588">
        <ele>222.02900695801</ele>
        <time>2016-02-07T10:04:47.000Z</time>
      </trkpt>
      <trkpt lat="46.84952" lon="3.14588">
        <ele>222.02262878418</ele>
        <time>2016-02-07T10:04:47.000Z</time>
      </trkpt>
      <trkpt lat="46.84955" lon="3.14587">
        <ele>222.01571655273</ele>
        <time>2016-02-07T10:04:48.000Z</time>
      </trkpt>
      <trkpt lat="46.84958" lon="3.14586">
        <ele>222.00979614258</ele>
        <time>2016-02-07T10:04:52.000Z</time>
      </trkpt>
      <trkpt lat="46.8496" lon="3.14585">
        <ele>222.00483703613</ele>
        <time>2016-02-07T10:04:53.000Z</time>
      </trkpt>
      <trkpt lat="46.84964" lon="3.14584">
        <ele>222.001953125</ele>
        <time>2016-02-07T10:05:10.000Z</time>
      </trkpt>
      <trkpt lat="46.84967" lon="3.14583">
        <ele>221.99690246582</ele>
        <time>2016-02-07T10:05:26.000Z</time>
      </trkpt>
      <trkpt lat="46.8497" lon="3.14581">
        <ele>221.97721862793</ele>
        <time>2016-02-07T10:05:26.000Z</time>
      </trkpt>
      <trkpt lat="46.84974" lon="3.1458">
        <ele>221.94277954102</ele>
        <time>2016-02-07T10:05:27.000Z</time>
      </trkpt>
      <trkpt lat="46.84977" lon="3.14578">
        <ele>221.89436340332</ele>
        <time>2016-02-07T10:05:27.000Z</time>
      </trkpt>
      <trkpt lat="46.84979" lon="3.14577">
        <ele>221.83340454102</ele>
        <time>2016-02-07T10:05:27.000Z</time>
      </trkpt>
      <trkpt lat="46.84983" lon="3.14576">
        <ele>221.75846862793</ele>
        <time>2016-02-07T10:05:28.000Z</time>
      </trkpt>
      <trkpt lat="46.84987" lon="3.14573">
        <ele>221.66340637207</ele>
        <time>2016-02-07T10:05:28.000Z</time>
      </trkpt>
      <trkpt lat="46.8499" lon="3.14571">
        <ele>221.55815124512</ele>
        <time>2016-02-07T10:05:28.000Z</time>
      </trkpt>
      <trkpt lat="46.84993" lon="3.14569">
        <ele>221.44650268555</ele>
        <time>2016-02-07T10:05:29.000Z</time>
      </trkpt>
      <trkpt lat="46.84998" lon="3.14567">
        <ele>221.31559753418</ele>
        <time>2016-02-07T10:05:29.000Z</time>
      </trkpt>
      <trkpt lat="46.85002" lon="3.14565">
        <ele>221.16799926758</ele>
        <time>2016-02-07T10:05:31.000Z</time>
      </trkpt>
      <trkpt lat="46.85005" lon="3.14564">
        <ele>221.03129577637</ele>
        <time>2016-02-07T10:05:31.000Z</time>
      </trkpt>
      <trkpt lat="46.85009" lon="3.14562">
        <ele>220.87626647949</ele>
        <time>2016-02-07T10:05:32.000Z</time>
      </trkpt>
      <trkpt lat="46.85011" lon="3.1456">
        <ele>220.71687316895</ele>
        <time>2016-02-07T10:05:33.000Z</time>
      </trkpt>
      <trkpt lat="46.85015" lon="3.14559">
        <ele>220.56332397461</ele>
        <time>2016-02-07T10:05:36.000Z</time>
      </trkpt>
      <trkpt lat="46.85017" lon="3.14558">
        <ele>220.42520141602</ele>
        <time>2016-02-07T10:05:38.000Z</time>
      </trkpt>
      <trkpt lat="46.85022" lon="3.14557">
        <ele>220.28979492188</ele>
        <time>2016-02-07T10:05:41.000Z</time>
      </trkpt>
      <trkpt lat="46.85027" lon="3.14556">
        <ele>220.17361450195</ele>
        <time>2016-02-07T10:05:44.000Z</time>
      </trkpt>
      <trkpt lat="46.8503" lon="3.14556">
        <ele>220.06369018555</ele>
        <time>2016-02-07T10:05:47.000Z</time>
      </trkpt>
      <trkpt lat="46.85034" lon="3.14554">
        <ele>219.95414733887</ele>
        <time>2016-02-07T10:05:50.000Z</time>
      </trkpt>
      <trkpt lat="46.85037" lon="3.14553">
        <ele>219.84858703613</ele>
        <time>2016-02-07T10:05:52.000Z</time>
      </trkpt>
      <trkpt lat="46.8504" lon="3.14552">
        <ele>219.74980163574</ele>
        <time>2016-02-07T10:05:54.000Z</time>
      </trkpt>
      <trkpt lat="46.85043" lon="3.1455">
        <ele>219.65849304199</ele>
        <time>2016-02-07T10:05:56.000Z</time>
      </trkpt>
      <trkpt lat="46.85047" lon="3.14548">
        <ele>219.5627746582</ele>
        <time>2016-02-07T10:05:59.000Z</time>
      </trkpt>
      <trkpt lat="46.85049" lon="3.14546">
        <ele>219.48083496094</ele>
        <time>2016-02-07T10:06:01.000Z</time>
      </trkpt>
      <trkpt lat="46.85054" lon="3.14544">
        <ele>219.39669799805</ele>
        <time>2016-02-07T10:06:04.000Z</time>
      </trkpt>
      <trkpt lat="46.85057" lon="3.14541">
        <ele>219.30990600586</ele>
        <time>2016-02-07T10:06:07.000Z</time>
      </trkpt>
      <trkpt lat="46.8506" lon="3.1454">
        <ele>219.23258972168</ele>
        <time>2016-02-07T10:06:09.000Z</time>
      </trkpt>
      <trkpt lat="46.85064" lon="3.14536">
        <ele>219.1662902832</ele>
        <time>2016-02-07T10:06:12.000Z</time>
      </trkpt>
      <trkpt lat="46.85067" lon="3.14533">
        <ele>219.10209655762</ele>
        <time>2016-02-07T10:06:15.000Z</time>
      </trkpt>
      <trkpt lat="46.85071" lon="3.14529">
        <ele>219.04740905762</ele>
        <time>2016-02-07T10:06:18.000Z</time>
      </trkpt>
      <trkpt lat="46.85074" lon="3.14525">
        <ele>219.00729370117</ele>
        <time>2016-02-07T10:06:21.000Z</time>
      </trkpt>
      <trkpt lat="46.85075" lon="3.14522">
        <ele>218.97354125977</ele>
        <time>2016-02-07T10:06:23.000Z</time>
      </trkpt>
      <trkpt lat="46.85078" lon="3.14518">
        <ele>218.95397949219</ele>
        <time>2016-02-07T10:06:26.000Z</time>
      </trkpt>
      <trkpt lat="46.85081" lon="3.14513">
        <ele>218.94828796387</ele>
        <time>2016-02-07T10:06:29.000Z</time>
      </trkpt>
      <trkpt lat="46.85083" lon="3.14507">
        <ele>218.95571899414</ele>
        <time>2016-02-07T10:06:32.000Z</time>
      </trkpt>
      <trkpt lat="46.85086" lon="3.14503">
        <ele>218.93179321289</ele>
        <time>2016-02-07T10:06:34.000Z</time>
      </trkpt>
      <trkpt lat="46.85088" lon="3.14498">
        <ele>218.86318969727</ele>
        <time>2016-02-07T10:06:38.000Z</time>
      </trkpt>
      <trkpt lat="46.8509" lon="3.14494">
        <ele>218.73815917969</ele>
        <time>2016-02-07T10:06:39.000Z</time>
      </trkpt>
      <trkpt lat="46.85091" lon="3.14491">
        <ele>218.57470703125</ele>
        <time>2016-02-07T10:06:41.000Z</time>
      </trkpt>
      <trkpt lat="46.85093" lon="3.14488">
        <ele>218.365234375</ele>
        <time>2016-02-07T10:06:43.000Z</time>
      </trkpt>
      <trkpt lat="46.85097" lon="3.14484">
        <ele>218.11474609375</ele>
        <time>2016-02-07T10:06:46.000Z</time>
      </trkpt>
      <trkpt lat="46.851" lon="3.1448">
        <ele>217.85266113281</ele>
        <time>2016-02-07T10:06:49.000Z</time>
      </trkpt>
      <trkpt lat="46.85102" lon="3.14477">
        <ele>217.59790039062</ele>
        <time>2016-02-07T10:06:51.000Z</time>
      </trkpt>
      <trkpt lat="46.85106" lon="3.14474">
        <ele>217.32748413086</ele>
        <time>2016-02-07T10:06:54.000Z</time>
      </trkpt>
      <trkpt lat="46.85108" lon="3.14469">
        <ele>217.04537963867</ele>
        <time>2016-02-07T10:06:57.000Z</time>
      </trkpt>
      <trkpt lat="46.8511" lon="3.14465">
        <ele>216.79736328125</ele>
        <time>2016-02-07T10:07:00.000Z</time>
      </trkpt>
      <trkpt lat="46.85112" lon="3.14462">
        <ele>216.58293151855</ele>
        <time>2016-02-07T10:07:02.000Z</time>
      </trkpt>
      <trkpt lat="46.85115" lon="3.14456">
        <ele>216.36311340332</ele>
        <time>2016-02-07T10:07:05.000Z</time>
      </trkpt>
      <trkpt lat="46.85117" lon="3.14453">
        <ele>216.16720581055</ele>
        <time>2016-02-07T10:07:07.000Z</time>
      </trkpt>
      <trkpt lat="46.85118" lon="3.14448">
        <ele>215.99111938477</ele>
        <time>2016-02-07T10:07:10.000Z</time>
      </trkpt>
      <trkpt lat="46.8512" lon="3.14445">
        <ele>215.82958984375</ele>
        <time>2016-02-07T10:07:12.000Z</time>
      </trkpt>
      <trkpt lat="46.85124" lon="3.14443">
        <ele>215.6607208252</ele>
        <time>2016-02-07T10:07:15.000Z</time>
      </trkpt>
      <trkpt lat="46.85126" lon="3.14442">
        <ele>215.51986694336</ele>
        <time>2016-02-07T10:07:17.000Z</time>
      </trkpt>
      <trkpt lat="46.8513" lon="3.14441">
        <ele>215.3755645752</ele>
        <time>2016-02-07T10:07:21.000Z</time>
      </trkpt>
      <trkpt lat="46.85133" lon="3.14441">
        <ele>215.24165344238</ele>
        <time>2016-02-07T10:07:22.000Z</time>
      </trkpt>
      <trkpt lat="46.85135" lon="3.14442">
        <ele>215.1203918457</ele>
        <time>2016-02-07T10:07:24.000Z</time>
      </trkpt>
      <trkpt lat="46.85139" lon="3.14446">
        <ele>215.0051574707</ele>
        <time>2016-02-07T10:07:27.000Z</time>
      </trkpt>
      <trkpt lat="46.85141" lon="3.14448">
        <ele>214.89595031738</ele>
        <time>2016-02-07T10:07:29.000Z</time>
      </trkpt>
      <trkpt lat="46.85145" lon="3.14451">
        <ele>214.78207397461</ele>
        <time>2016-02-07T10:07:32.000Z</time>
      </trkpt>
      <trkpt lat="46.85148" lon="3.14453">
        <ele>214.66415405273</ele>
        <time>2016-02-07T10:07:35.000Z</time>
      </trkpt>
      <trkpt lat="46.85152" lon="3.14456">
        <ele>214.52590942383</ele>
        <time>2016-02-07T10:07:38.000Z</time>
      </trkpt>
      <trkpt lat="46.85154" lon="3.14457">
        <ele>214.39253234863</ele>
        <time>2016-02-07T10:07:40.000Z</time>
      </trkpt>
      <trkpt lat="46.85158" lon="3.14461">
        <ele>214.23442077637</ele>
        <time>2016-02-07T10:07:43.000Z</time>
      </trkpt>
      <trkpt lat="46.85161" lon="3.14464">
        <ele>214.07653808594</ele>
        <time>2016-02-07T10:07:46.000Z</time>
      </trkpt>
      <trkpt lat="46.85164" lon="3.14468">
        <ele>213.90299987793</ele>
        <time>2016-02-07T10:07:49.000Z</time>
      </trkpt>
      <trkpt lat="46.85166" lon="3.1447">
        <ele>213.74113464355</ele>
        <time>2016-02-07T10:07:51.000Z</time>
      </trkpt>
      <trkpt lat="46.85169" lon="3.14474">
        <ele>213.57768249512</ele>
        <time>2016-02-07T10:07:55.000Z</time>
      </trkpt>
      <trkpt lat="46.85172" lon="3.14476">
        <ele>213.45175170898</ele>
        <time>2016-02-07T10:07:56.000Z</time>
      </trkpt>
      <trkpt lat="46.85174" lon="3.14478">
        <ele>213.3561706543</ele>
        <time>2016-02-07T10:07:58.000Z</time>
      </trkpt>
      <trkpt lat="46.85178" lon="3.14482">
        <ele>213.29707336426</ele>
        <time>2016-02-07T10:08:01.000Z</time>
      </trkpt>
      <trkpt lat="46.8518" lon="3.14484">
        <ele>213.26008605957</ele>
        <time>2016-02-07T10:08:04.000Z</time>
      </trkpt>
      <trkpt lat="46.85184" lon="3.14487">
        <ele>213.24653625488</ele>
        <time>2016-02-07T10:08:07.000Z</time>
      </trkpt>
      <trkpt lat="46.85189" lon="3.1449">
        <ele>213.2431640625</ele>
        <time>2016-02-07T10:08:10.000Z</time>
      </trkpt>
      <trkpt lat="46.85191" lon="3.14492">
        <ele>213.24699401855</ele>
        <time>2016-02-07T10:08:12.000Z</time>
      </trkpt>
      <trkpt lat="46.85194" lon="3.14493">
        <ele>213.26091003418</ele>
        <time>2016-02-07T10:08:14.000Z</time>
      </trkpt>
      <trkpt lat="46.85197" lon="3.14496">
        <ele>213.28396606445</ele>
        <time>2016-02-07T10:08:18.000Z</time>
      </trkpt>
      <trkpt lat="46.852" lon="3.14497">
        <ele>213.31176757812</ele>
        <time>2016-02-07T10:08:20.000Z</time>
      </trkpt>
      <trkpt lat="46.85203" lon="3.14498">
        <ele>213.34382629395</ele>
        <time>2016-02-07T10:08:21.000Z</time>
      </trkpt>
      <trkpt lat="46.85207" lon="3.145">
        <ele>213.3879699707</ele>
        <time>2016-02-07T10:08:24.000Z</time>
      </trkpt>
      <trkpt lat="46.85209" lon="3.14502">
        <ele>213.44274902344</ele>
        <time>2016-02-07T10:08:26.000Z</time>
      </trkpt>
      <trkpt lat="46.85213" lon="3.14506">
        <ele>213.51937866211</ele>
        <time>2016-02-07T10:08:29.000Z</time>
      </trkpt>
      <trkpt lat="46.85217" lon="3.14509">
        <ele>213.6175994873</ele>
        <time>2016-02-07T10:08:32.000Z</time>
      </trkpt>
      <trkpt lat="46.85221" lon="3.14511">
        <ele>213.72964477539</ele>
        <time>2016-02-07T10:08:35.000Z</time>
      </trkpt>
      <trkpt lat="46.85225" lon="3.14513">
        <ele>213.84150695801</ele>
        <time>2016-02-07T10:08:44.000Z</time>
      </trkpt>
      <trkpt lat="46.85228" lon="3.14516">
        <ele>213.95687866211</ele>
        <time>2016-02-07T10:08:45.000Z</time>
      </trkpt>
      <trkpt lat="46.85229" lon="3.14518">
        <ele>214.05874633789</ele>
        <time>2016-02-07T10:08:45.000Z</time>
      </trkpt>
      <trkpt lat="46.85232" lon="3.1452">
        <ele>214.14685058594</ele>
        <time>2016-02-07T10:08:46.000Z</time>
      </trkpt>
      <trkpt lat="46.85236" lon="3.14522">
        <ele>214.23066711426</ele>
        <time>2016-02-07T10:08:47.000Z</time>
      </trkpt>
      <trkpt lat="46.8524" lon="3.14524">
        <ele>214.31823730469</ele>
        <time>2016-02-07T10:08:50.000Z</time>
      </trkpt>
      <trkpt lat="46.85246" lon="3.14527">
        <ele>214.4075012207</ele>
        <time>2016-02-07T10:08:53.000Z</time>
      </trkpt>
      <trkpt lat="46.85249" lon="3.14529">
        <ele>214.4970703125</ele>
        <time>2016-02-07T10:08:56.000Z</time>
      </trkpt>
      <trkpt lat="46.85253" lon="3.14531">
        <ele>214.55331420898</ele>
        <time>2016-02-07T10:08:59.000Z</time>
      </trkpt>
      <trkpt lat="46.85256" lon="3.14533">
        <ele>214.55513000488</ele>
        <time>2016-02-07T10:09:02.000Z</time>
      </trkpt>
      <trkpt lat="46.85259" lon="3.14534">
        <ele>214.5092010498</ele>
        <time>2016-02-07T10:09:04.000Z</time>
      </trkpt>
      <trkpt lat="46.85262" lon="3.14535">
        <ele>214.41987609863</ele>
        <time>2016-02-07T10:09:06.000Z</time>
      </trkpt>
      <trkpt lat="46.85265" lon="3.14538">
        <ele>214.28967285156</ele>
        <time>2016-02-07T10:09:10.000Z</time>
      </trkpt>
      <trkpt lat="46.85267" lon="3.14539">
        <ele>214.15844726562</ele>
        <time>2016-02-07T10:09:11.000Z</time>
      </trkpt>
      <trkpt lat="46.8527" lon="3.14542">
        <ele>214.03796386719</ele>
        <time>2016-02-07T10:09:14.000Z</time>
      </trkpt>
      <trkpt lat="46.85273" lon="3.14546">
        <ele>213.92248535156</ele>
        <time>2016-02-07T10:09:17.000Z</time>
      </trkpt>
      <trkpt lat="46.85276" lon="3.14548">
        <ele>213.81823730469</ele>
        <time>2016-02-07T10:09:20.000Z</time>
      </trkpt>
      <trkpt lat="46.85279" lon="3.14551">
        <ele>213.7119140625</ele>
        <time>2016-02-07T10:09:22.000Z</time>
      </trkpt>
      <trkpt lat="46.85283" lon="3.14556">
        <ele>213.59448242188</ele>
        <time>2016-02-07T10:09:25.000Z</time>
      </trkpt>
      <trkpt lat="46.85286" lon="3.14558">
        <ele>213.48083496094</ele>
        <time>2016-02-07T10:09:27.000Z</time>
      </trkpt>
      <trkpt lat="46.8529" lon="3.14561">
        <ele>213.35278320312</ele>
        <time>2016-02-07T10:09:30.000Z</time>
      </trkpt>
      <trkpt lat="46.85293" lon="3.14562">
        <ele>213.20776367188</ele>
        <time>2016-02-07T10:09:32.000Z</time>
      </trkpt>
      <trkpt lat="46.85297" lon="3.14565">
        <ele>213.05737304688</ele>
        <time>2016-02-07T10:09:35.000Z</time>
      </trkpt>
      <trkpt lat="46.853" lon="3.14568">
        <ele>212.91442871094</ele>
        <time>2016-02-07T10:09:38.000Z</time>
      </trkpt>
      <trkpt lat="46.85304" lon="3.1457">
        <ele>212.7548828125</ele>
        <time>2016-02-07T10:09:41.000Z</time>
      </trkpt>
      <trkpt lat="46.85308" lon="3.14569">
        <ele>212.58459472656</ele>
        <time>2016-02-07T10:09:44.000Z</time>
      </trkpt>
      <trkpt lat="46.85312" lon="3.14567">
        <ele>212.380859375</ele>
        <time>2016-02-07T10:09:47.000Z</time>
      </trkpt>
      <trkpt lat="46.85315" lon="3.14567">
        <ele>212.177734375</ele>
        <time>2016-02-07T10:09:49.000Z</time>
      </trkpt>
      <trkpt lat="46.85319" lon="3.14566">
        <ele>211.93981933594</ele>
        <time>2016-02-07T10:09:52.000Z</time>
      </trkpt>
      <trkpt lat="46.85322" lon="3.14565">
        <ele>211.69848632812</ele>
        <time>2016-02-07T10:09:55.000Z</time>
      </trkpt>
      <trkpt lat="46.85325" lon="3.14561">
        <ele>211.45129394531</ele>
        <time>2016-02-07T10:09:58.000Z</time>
      </trkpt>
      <trkpt lat="46.85326" lon="3.1456">
        <ele>211.25427246094</ele>
        <time>2016-02-07T10:10:01.000Z</time>
      </trkpt>
      <trkpt lat="46.85328" lon="3.14554">
        <ele>211.03308105469</ele>
        <time>2016-02-07T10:10:04.000Z</time>
      </trkpt>
      <trkpt lat="46.85331" lon="3.1455">
        <ele>210.81066894531</ele>
        <time>2016-02-07T10:10:07.000Z</time>
      </trkpt>
      <trkpt lat="46.85337" lon="3.14543">
        <ele>210.58883666992</ele>
        <time>2016-02-07T10:10:10.000Z</time>
      </trkpt>
      <trkpt lat="46.8534" lon="3.14539">
        <ele>210.42109680176</ele>
        <time>2016-02-07T10:10:12.000Z</time>
      </trkpt>
      <trkpt lat="46.85341" lon="3.14535">
        <ele>210.24565124512</ele>
        <time>2016-02-07T10:10:14.000Z</time>
      </trkpt>
      <trkpt lat="46.85343" lon="3.1453">
        <ele>210.1067199707</ele>
        <time>2016-02-07T10:10:16.000Z</time>
      </trkpt>
      <trkpt lat="46.85344" lon="3.1452">
        <ele>209.98303222656</ele>
        <time>2016-02-07T10:10:19.000Z</time>
      </trkpt>
      <trkpt lat="46.85342" lon="3.14514">
        <ele>209.86987304688</ele>
        <time>2016-02-07T10:10:21.000Z</time>
      </trkpt>
      <trkpt lat="46.85342" lon="3.14505">
        <ele>209.71142578125</ele>
        <time>2016-02-07T10:10:24.000Z</time>
      </trkpt>
      <trkpt lat="46.85341" lon="3.14499">
        <ele>209.54130554199</ele>
        <time>2016-02-07T10:10:26.000Z</time>
      </trkpt>
      <trkpt lat="46.85341" lon="3.14494">
        <ele>209.35917663574</ele>
        <time>2016-02-07T10:10:29.000Z</time>
      </trkpt>
      <trkpt lat="46.8534" lon="3.14486">
        <ele>209.1800994873</ele>
        <time>2016-02-07T10:10:32.000Z</time>
      </trkpt>
      <trkpt lat="46.8534" lon="3.14484">
        <ele>209.01802062988</ele>
        <time>2016-02-07T10:10:34.000Z</time>
      </trkpt>
      <trkpt lat="46.8534" lon="3.14482">
        <ele>208.88973999023</ele>
        <time>2016-02-07T10:10:37.000Z</time>
      </trkpt>
      <trkpt lat="46.85341" lon="3.1448">
        <ele>208.78598022461</ele>
        <time>2016-02-07T10:10:39.000Z</time>
      </trkpt>
      <trkpt lat="46.85342" lon="3.14477">
        <ele>208.70268249512</ele>
        <time>2016-02-07T10:10:41.000Z</time>
      </trkpt>
      <trkpt lat="46.85344" lon="3.14474">
        <ele>208.64700317383</ele>
        <time>2016-02-07T10:10:45.000Z</time>
      </trkpt>
      <trkpt lat="46.85346" lon="3.1447">
        <ele>208.59199523926</ele>
        <time>2016-02-07T10:10:46.000Z</time>
      </trkpt>
      <trkpt lat="46.8535" lon="3.14464">
        <ele>208.52474975586</ele>
        <time>2016-02-07T10:10:50.000Z</time>
      </trkpt>
      <trkpt lat="46.85352" lon="3.14462">
        <ele>208.45780944824</ele>
        <time>2016-02-07T10:10:51.000Z</time>
      </trkpt>
      <trkpt lat="46.85356" lon="3.1446">
        <ele>208.39840698242</ele>
        <time>2016-02-07T10:10:54.000Z</time>
      </trkpt>
      <trkpt lat="46.85358" lon="3.14458">
        <ele>208.35214233398</ele>
        <time>2016-02-07T10:10:56.000Z</time>
      </trkpt>
      <trkpt lat="46.85363" lon="3.14458">
        <ele>208.32698059082</ele>
        <time>2016-02-07T10:10:59.000Z</time>
      </trkpt>
      <trkpt lat="46.85366" lon="3.14456">
        <ele>208.32173156738</ele>
        <time>2016-02-07T10:11:01.000Z</time>
      </trkpt>
      <trkpt lat="46.85369" lon="3.14456">
        <ele>208.32820129395</ele>
        <time>2016-02-07T10:11:03.000Z</time>
      </trkpt>
      <trkpt lat="46.85371" lon="3.14456">
        <ele>208.33898925781</ele>
        <time>2016-02-07T10:11:05.000Z</time>
      </trkpt>
      <trkpt lat="46.85374" lon="3.14457">
        <ele>208.3685760498</ele>
        <time>2016-02-07T10:11:08.000Z</time>
      </trkpt>
      <trkpt lat="46.85378" lon="3.1446">
        <ele>208.41772460938</ele>
        <time>2016-02-07T10:11:12.000Z</time>
      </trkpt>
      <trkpt lat="46.8538" lon="3.14462">
        <ele>208.49028015137</ele>
        <time>2016-02-07T10:11:13.000Z</time>
      </trkpt>
      <trkpt lat="46.85383" lon="3.14466">
        <ele>208.59671020508</ele>
        <time>2016-02-07T10:11:17.000Z</time>
      </trkpt>
      <trkpt lat="46.85384" lon="3.1447">
        <ele>208.73574829102</ele>
        <time>2016-02-07T10:11:18.000Z</time>
      </trkpt>
      <trkpt lat="46.85386" lon="3.14475">
        <ele>208.90495300293</ele>
        <time>2016-02-07T10:11:21.000Z</time>
      </trkpt>
      <trkpt lat="46.85387" lon="3.14482">
        <ele>209.10012817383</ele>
        <time>2016-02-07T10:11:24.000Z</time>
      </trkpt>
      <trkpt lat="46.85387" lon="3.14486">
        <ele>209.30557250977</ele>
        <time>2016-02-07T10:11:26.000Z</time>
      </trkpt>
      <trkpt lat="46.85385" lon="3.14492">
        <ele>209.51078796387</ele>
        <time>2016-02-07T10:11:30.000Z</time>
      </trkpt>
      <trkpt lat="46.85382" lon="3.14497">
        <ele>209.7087097168</ele>
        <time>2016-02-07T10:11:32.000Z</time>
      </trkpt>
      <trkpt lat="46.8538" lon="3.14503">
        <ele>209.88371276855</ele>
        <time>2016-02-07T10:11:35.000Z</time>
      </trkpt>
      <trkpt lat="46.85378" lon="3.14507">
        <ele>210.0185546875</ele>
        <time>2016-02-07T10:11:38.000Z</time>
      </trkpt>
      <trkpt lat="46.85375" lon="3.14514">
        <ele>210.14233398438</ele>
        <time>2016-02-07T10:11:41.000Z</time>
      </trkpt>
      <trkpt lat="46.85373" lon="3.14519">
        <ele>210.24252319336</ele>
        <time>2016-02-07T10:11:44.000Z</time>
      </trkpt>
      <trkpt lat="46.85371" lon="3.14523">
        <ele>210.32141113281</ele>
        <time>2016-02-07T10:11:47.000Z</time>
      </trkpt>
      <trkpt lat="46.8537" lon="3.14524">
        <ele>210.37854003906</ele>
        <time>2016-02-07T10:11:49.000Z</time>
      </trkpt>
      <trkpt lat="46.85368" lon="3.14528">
        <ele>210.43029785156</ele>
        <time>2016-02-07T10:11:51.000Z</time>
      </trkpt>
      <trkpt lat="46.85366" lon="3.14532">
        <ele>210.47546386719</ele>
        <time>2016-02-07T10:11:54.000Z</time>
      </trkpt>
      <trkpt lat="46.85365" lon="3.14536">
        <ele>210.51611328125</ele>
        <time>2016-02-07T10:11:57.000Z</time>
      </trkpt>
      <trkpt lat="46.85363" lon="3.14541">
        <ele>210.56494140625</ele>
        <time>2016-02-07T10:12:00.000Z</time>
      </trkpt>
      <trkpt lat="46.85362" lon="3.14545">
        <ele>210.62841796875</ele>
        <time>2016-02-07T10:12:03.000Z</time>
      </trkpt>
      <trkpt lat="46.85362" lon="3.14551">
        <ele>210.71118164062</ele>
        <time>2016-02-07T10:12:07.000Z</time>
      </trkpt>
      <trkpt lat="46.85362" lon="3.14559">
        <ele>210.81884765625</ele>
        <time>2016-02-07T10:12:08.000Z</time>
      </trkpt>
      <trkpt lat="46.85361" lon="3.14565">
        <ele>210.93762207031</ele>
        <time>2016-02-07T10:12:11.000Z</time>
      </trkpt>
      <trkpt lat="46.85361" lon="3.14569">
        <ele>211.06433105469</ele>
        <time>2016-02-07T10:12:14.000Z</time>
      </trkpt>
      <trkpt lat="46.85361" lon="3.14575">
        <ele>211.20080566406</ele>
        <time>2016-02-07T10:12:18.000Z</time>
      </trkpt>
      <trkpt lat="46.85361" lon="3.1458">
        <ele>211.33227539062</ele>
        <time>2016-02-07T10:12:19.000Z</time>
      </trkpt>
      <trkpt lat="46.8536" lon="3.14583">
        <ele>211.44274902344</ele>
        <time>2016-02-07T10:12:21.000Z</time>
      </trkpt>
      <trkpt lat="46.85358" lon="3.14589">
        <ele>211.55480957031</ele>
        <time>2016-02-07T10:12:24.000Z</time>
      </trkpt>
      <trkpt lat="46.85357" lon="3.14596">
        <ele>211.67512512207</ele>
        <time>2016-02-07T10:12:27.000Z</time>
      </trkpt>
      <trkpt lat="46.85356" lon="3.14601">
        <ele>211.78742980957</ele>
        <time>2016-02-07T10:12:30.000Z</time>
      </trkpt>
      <trkpt lat="46.85354" lon="3.14607">
        <ele>211.90473937988</ele>
        <time>2016-02-07T10:12:32.000Z</time>
      </trkpt>
      <trkpt lat="46.85353" lon="3.14612">
        <ele>212.02563476562</ele>
        <time>2016-02-07T10:12:35.000Z</time>
      </trkpt>
      <trkpt lat="46.85353" lon="3.14615">
        <ele>212.13388061523</ele>
        <time>2016-02-07T10:12:37.000Z</time>
      </trkpt>
      <trkpt lat="46.8535" lon="3.14621">
        <ele>212.23202514648</ele>
        <time>2016-02-07T10:12:40.000Z</time>
      </trkpt>
      <trkpt lat="46.85349" lon="3.14627">
        <ele>212.33081054688</ele>
        <time>2016-02-07T10:12:43.000Z</time>
      </trkpt>
      <trkpt lat="46.85349" lon="3.14631">
        <ele>212.42109680176</ele>
        <time>2016-02-07T10:12:45.000Z</time>
      </trkpt>
      <trkpt lat="46.85348" lon="3.14636">
        <ele>212.51396179199</ele>
        <time>2016-02-07T10:12:48.000Z</time>
      </trkpt>
      <trkpt lat="46.85347" lon="3.14641">
        <ele>212.61201477051</ele>
        <time>2016-02-07T10:12:51.000Z</time>
      </trkpt>
      <trkpt lat="46.85345" lon="3.14647">
        <ele>212.71406555176</ele>
        <time>2016-02-07T10:12:54.000Z</time>
      </trkpt>
      <trkpt lat="46.85345" lon="3.14651">
        <ele>212.81372070312</ele>
        <time>2016-02-07T10:12:57.000Z</time>
      </trkpt>
      <trkpt lat="46.85344" lon="3.14655">
        <ele>212.9128112793</ele>
        <time>2016-02-07T10:12:59.000Z</time>
      </trkpt>
      <trkpt lat="46.85344" lon="3.14661">
        <ele>213.01078796387</ele>
        <time>2016-02-07T10:13:03.000Z</time>
      </trkpt>
      <trkpt lat="46.85342" lon="3.14665">
        <ele>213.1039276123</ele>
        <time>2016-02-07T10:13:04.000Z</time>
      </trkpt>
      <trkpt lat="46.85341" lon="3.1467">
        <ele>213.19189453125</ele>
        <time>2016-02-07T10:13:07.000Z</time>
      </trkpt>
      <trkpt lat="46.85342" lon="3.14674">
        <ele>213.2865447998</ele>
        <time>2016-02-07T10:13:09.000Z</time>
      </trkpt>
      <trkpt lat="46.85343" lon="3.14681">
        <ele>213.40615844727</ele>
        <time>2016-02-07T10:13:12.000Z</time>
      </trkpt>
      <trkpt lat="46.85342" lon="3.14688">
        <ele>213.53373718262</ele>
        <time>2016-02-07T10:13:15.000Z</time>
      </trkpt>
      <trkpt lat="46.85341" lon="3.14691">
        <ele>213.66088867188</ele>
        <time>2016-02-07T10:13:17.000Z</time>
      </trkpt>
      <trkpt lat="46.8534" lon="3.14696">
        <ele>213.78768920898</ele>
        <time>2016-02-07T10:13:21.000Z</time>
      </trkpt>
      <trkpt lat="46.85339" lon="3.147">
        <ele>213.89912414551</ele>
        <time>2016-02-07T10:13:23.000Z</time>
      </trkpt>
      <trkpt lat="46.85339" lon="3.14703">
        <ele>213.98356628418</ele>
        <time>2016-02-07T10:13:26.000Z</time>
      </trkpt>
      <trkpt lat="46.85338" lon="3.14715">
        <ele>214.08609008789</ele>
        <time>2016-02-07T10:13:29.000Z</time>
      </trkpt>
      <trkpt lat="46.85338" lon="3.14721">
        <ele>214.20854187012</ele>
        <time>2016-02-07T10:13:32.000Z</time>
      </trkpt>
      <trkpt lat="46.85338" lon="3.14727">
        <ele>214.34037780762</ele>
        <time>2016-02-07T10:13:35.000Z</time>
      </trkpt>
      <trkpt lat="46.85337" lon="3.14732">
        <ele>214.48352050781</ele>
        <time>2016-02-07T10:13:38.000Z</time>
      </trkpt>
      <trkpt lat="46.85337" lon="3.14736">
        <ele>214.61860656738</ele>
        <time>2016-02-07T10:13:40.000Z</time>
      </trkpt>
      <trkpt lat="46.85336" lon="3.14741">
        <ele>214.7292175293</ele>
        <time>2016-02-07T10:13:50.000Z</time>
      </trkpt>
      <trkpt lat="46.85336" lon="3.14746">
        <ele>214.83113098145</ele>
        <time>2016-02-07T10:13:54.000Z</time>
      </trkpt>
      <trkpt lat="46.85336" lon="3.14748">
        <ele>214.91059875488</ele>
        <time>2016-02-07T10:13:58.000Z</time>
      </trkpt>
      <trkpt lat="46.85334" lon="3.14756">
        <ele>214.98364257812</ele>
        <time>2016-02-07T10:13:59.000Z</time>
      </trkpt>
      <trkpt lat="46.85332" lon="3.14761">
        <ele>215.0503692627</ele>
        <time>2016-02-07T10:14:10.000Z</time>
      </trkpt>
      <trkpt lat="46.85332" lon="3.14766">
        <ele>215.10466003418</ele>
        <time>2016-02-07T10:14:11.000Z</time>
      </trkpt>
      <trkpt lat="46.85333" lon="3.14771">
        <ele>215.14811706543</ele>
        <time>2016-02-07T10:14:13.000Z</time>
      </trkpt>
      <trkpt lat="46.85334" lon="3.14776">
        <ele>215.20361328125</ele>
        <time>2016-02-07T10:14:14.000Z</time>
      </trkpt>
      <trkpt lat="46.85332" lon="3.14783">
        <ele>215.25595092773</ele>
        <time>2016-02-07T10:14:14.000Z</time>
      </trkpt>
      <trkpt lat="46.85331" lon="3.14788">
        <ele>215.31411743164</ele>
        <time>2016-02-07T10:14:15.000Z</time>
      </trkpt>
      <trkpt lat="46.85331" lon="3.14791">
        <ele>215.36962890625</ele>
        <time>2016-02-07T10:14:15.000Z</time>
      </trkpt>
      <trkpt lat="46.8533" lon="3.14795">
        <ele>215.42073059082</ele>
        <time>2016-02-07T10:14:15.000Z</time>
      </trkpt>
      <trkpt lat="46.85329" lon="3.148">
        <ele>215.46423339844</ele>
        <time>2016-02-07T10:14:15.000Z</time>
      </trkpt>
      <trkpt lat="46.85329" lon="3.14805">
        <ele>215.50680541992</ele>
        <time>2016-02-07T10:14:25.000Z</time>
      </trkpt>
      <trkpt lat="46.85329" lon="3.14812">
        <ele>215.55639648438</ele>
        <time>2016-02-07T10:14:26.000Z</time>
      </trkpt>
      <trkpt lat="46.85329" lon="3.14817">
        <ele>215.60771179199</ele>
        <time>2016-02-07T10:14:26.000Z</time>
      </trkpt>
      <trkpt lat="46.85329" lon="3.14825">
        <ele>215.67231750488</ele>
        <time>2016-02-07T10:14:26.000Z</time>
      </trkpt>
      <trkpt lat="46.85329" lon="3.14832">
        <ele>215.73718261719</ele>
        <time>2016-02-07T10:14:27.000Z</time>
      </trkpt>
      <trkpt lat="46.85327" lon="3.14838">
        <ele>215.79769897461</ele>
        <time>2016-02-07T10:14:30.000Z</time>
      </trkpt>
      <trkpt lat="46.85326" lon="3.14844">
        <ele>215.85012817383</ele>
        <time>2016-02-07T10:14:33.000Z</time>
      </trkpt>
      <trkpt lat="46.85326" lon="3.14847">
        <ele>215.89883422852</ele>
        <time>2016-02-07T10:14:35.000Z</time>
      </trkpt>
      <trkpt lat="46.85325" lon="3.14852">
        <ele>215.93424987793</ele>
        <time>2016-02-07T10:14:38.000Z</time>
      </trkpt>
      <trkpt lat="46.85324" lon="3.14857">
        <ele>215.96670532227</ele>
        <time>2016-02-07T10:14:40.000Z</time>
      </trkpt>
      <trkpt lat="46.85324" lon="3.14861">
        <ele>216.00173950195</ele>
        <time>2016-02-07T10:14:42.000Z</time>
      </trkpt>
      <trkpt lat="46.85324" lon="3.14867">
        <ele>216.04025268555</ele>
        <time>2016-02-07T10:14:46.000Z</time>
      </trkpt>
      <trkpt lat="46.85323" lon="3.14871">
        <ele>216.07807922363</ele>
        <time>2016-02-07T10:14:47.000Z</time>
      </trkpt>
      <trkpt lat="46.85322" lon="3.14875">
        <ele>216.10842895508</ele>
        <time>2016-02-07T10:14:49.000Z</time>
      </trkpt>
      <trkpt lat="46.85319" lon="3.1488">
        <ele>216.12548828125</ele>
        <time>2016-02-07T10:14:52.000Z</time>
      </trkpt>
      <trkpt lat="46.85318" lon="3.14884">
        <ele>216.1374206543</ele>
        <time>2016-02-07T10:14:54.000Z</time>
      </trkpt>
      <trkpt lat="46.85317" lon="3.1489">
        <ele>216.14237976074</ele>
        <time>2016-02-07T10:14:57.000Z</time>
      </trkpt>
      <trkpt lat="46.85315" lon="3.14895">
        <ele>216.13931274414</ele>
        <time>2016-02-07T10:15:00.000Z</time>
      </trkpt>
      <trkpt lat="46.85313" lon="3.14899">
        <ele>216.12686157227</ele>
        <time>2016-02-07T10:15:03.000Z</time>
      </trkpt>
      <trkpt lat="46.85311" lon="3.14903">
        <ele>216.11965942383</ele>
        <time>2016-02-07T10:15:06.000Z</time>
      </trkpt>
      <trkpt lat="46.8531" lon="3.14907">
        <ele>216.10595703125</ele>
        <time>2016-02-07T10:15:09.000Z</time>
      </trkpt>
      <trkpt lat="46.85308" lon="3.14912">
        <ele>216.08210754395</ele>
        <time>2016-02-07T10:15:11.000Z</time>
      </trkpt>
      <trkpt lat="46.85304" lon="3.14916">
        <ele>216.04586791992</ele>
        <time>2016-02-07T10:15:15.000Z</time>
      </trkpt>
      <trkpt lat="46.85302" lon="3.14919">
        <ele>216.03005981445</ele>
        <time>2016-02-07T10:15:16.000Z</time>
      </trkpt>
      <trkpt lat="46.85301" lon="3.14922">
        <ele>216.03091430664</ele>
        <time>2016-02-07T10:15:18.000Z</time>
      </trkpt>
      <trkpt lat="46.85299" lon="3.14928">
        <ele>216.06913757324</ele>
        <time>2016-02-07T10:15:21.000Z</time>
      </trkpt>
      <trkpt lat="46.85297" lon="3.14931">
        <ele>216.13090515137</ele>
        <time>2016-02-07T10:15:23.000Z</time>
      </trkpt>
      <trkpt lat="46.85294" lon="3.14937">
        <ele>216.24528503418</ele>
        <time>2016-02-07T10:15:26.000Z</time>
      </trkpt>
      <trkpt lat="46.85292" lon="3.14939">
        <ele>216.35627746582</ele>
        <time>2016-02-07T10:15:28.000Z</time>
      </trkpt>
      <trkpt lat="46.85291" lon="3.1494">
        <ele>216.45260620117</ele>
        <time>2016-02-07T10:15:30.000Z</time>
      </trkpt>
      <trkpt lat="46.85286" lon="3.14945">
        <ele>216.54016113281</ele>
        <time>2016-02-07T10:15:33.000Z</time>
      </trkpt>
      <trkpt lat="46.85283" lon="3.14947">
        <ele>216.61840820312</ele>
        <time>2016-02-07T10:15:35.000Z</time>
      </trkpt>
      <trkpt lat="46.8528" lon="3.14952">
        <ele>216.69107055664</ele>
        <time>2016-02-07T10:15:38.000Z</time>
      </trkpt>
      <trkpt lat="46.85277" lon="3.14956">
        <ele>216.7858581543</ele>
        <time>2016-02-07T10:15:41.000Z</time>
      </trkpt>
      <trkpt lat="46.85275" lon="3.14959">
        <ele>216.89819335938</ele>
        <time>2016-02-07T10:15:43.000Z</time>
      </trkpt>
      <trkpt lat="46.85271" lon="3.14962">
        <ele>216.99775695801</ele>
        <time>2016-02-07T10:15:46.000Z</time>
      </trkpt>
      <trkpt lat="46.8527" lon="3.14965">
        <ele>217.12051391602</ele>
        <time>2016-02-07T10:15:49.000Z</time>
      </trkpt>
      <trkpt lat="46.85268" lon="3.14971">
        <ele>217.26399230957</ele>
        <time>2016-02-07T10:15:52.000Z</time>
      </trkpt>
      <trkpt lat="46.85265" lon="3.14975">
        <ele>217.4182434082</ele>
        <time>2016-02-07T10:15:56.000Z</time>
      </trkpt>
      <trkpt lat="46.85263" lon="3.14978">
        <ele>217.5735168457</ele>
        <time>2016-02-07T10:15:57.000Z</time>
      </trkpt>
      <trkpt lat="46.85261" lon="3.14984">
        <ele>217.77474975586</ele>
        <time>2016-02-07T10:16:02.000Z</time>
      </trkpt>
      <trkpt lat="46.85258" lon="3.14987">
        <ele>217.97647094727</ele>
        <time>2016-02-07T10:16:03.000Z</time>
      </trkpt>
      <trkpt lat="46.85254" lon="3.14992">
        <ele>218.17265319824</ele>
        <time>2016-02-07T10:16:06.000Z</time>
      </trkpt>
      <trkpt lat="46.85252" lon="3.14996">
        <ele>218.36401367188</ele>
        <time>2016-02-07T10:16:08.000Z</time>
      </trkpt>
      <trkpt lat="46.8525" lon="3.15001">
        <ele>218.58418273926</ele>
        <time>2016-02-07T10:16:11.000Z</time>
      </trkpt>
      <trkpt lat="46.85247" lon="3.15005">
        <ele>218.73303222656</ele>
        <time>2016-02-07T10:16:14.000Z</time>
      </trkpt>
      <trkpt lat="46.85245" lon="3.15008">
        <ele>218.8500213623</ele>
        <time>2016-02-07T10:16:16.000Z</time>
      </trkpt>
      <trkpt lat="46.85243" lon="3.15011">
        <ele>218.91845703125</ele>
        <time>2016-02-07T10:16:18.000Z</time>
      </trkpt>
      <trkpt lat="46.85241" lon="3.15017">
        <ele>218.94990539551</ele>
        <time>2016-02-07T10:16:22.000Z</time>
      </trkpt>
      <trkpt lat="46.85239" lon="3.1502">
        <ele>218.91996765137</ele>
        <time>2016-02-07T10:16:23.000Z</time>
      </trkpt>
      <trkpt lat="46.85236" lon="3.15023">
        <ele>218.89387512207</ele>
        <time>2016-02-07T10:16:27.000Z</time>
      </trkpt>
      <trkpt lat="46.85234" lon="3.15026">
        <ele>218.85684204102</ele>
        <time>2016-02-07T10:16:28.000Z</time>
      </trkpt>
      <trkpt lat="46.85231" lon="3.15031">
        <ele>218.80073547363</ele>
        <time>2016-02-07T10:16:32.000Z</time>
      </trkpt>
      <trkpt lat="46.85229" lon="3.15035">
        <ele>218.73989868164</ele>
        <time>2016-02-07T10:16:44.000Z</time>
      </trkpt>
      <trkpt lat="46.85227" lon="3.15037">
        <ele>218.67660522461</ele>
        <time>2016-02-07T10:16:45.000Z</time>
      </trkpt>
      <trkpt lat="46.85225" lon="3.15041">
        <ele>218.61477661133</ele>
        <time>2016-02-07T10:16:45.000Z</time>
      </trkpt>
      <trkpt lat="46.85223" lon="3.15045">
        <ele>218.544921875</ele>
        <time>2016-02-07T10:16:45.000Z</time>
      </trkpt>
      <trkpt lat="46.8522" lon="3.15049">
        <ele>218.48300170898</ele>
        <time>2016-02-07T10:16:46.000Z</time>
      </trkpt>
      <trkpt lat="46.85217" lon="3.15054">
        <ele>218.40280151367</ele>
        <time>2016-02-07T10:16:46.000Z</time>
      </trkpt>
      <trkpt lat="46.85215" lon="3.15057">
        <ele>218.32096862793</ele>
        <time>2016-02-07T10:16:49.000Z</time>
      </trkpt>
      <trkpt lat="46.85213" lon="3.1506">
        <ele>218.2336730957</ele>
        <time>2016-02-07T10:16:49.000Z</time>
      </trkpt>
      <trkpt lat="46.85212" lon="3.15063">
        <ele>218.15771484375</ele>
        <time>2016-02-07T10:16:51.000Z</time>
      </trkpt>
      <trkpt lat="46.8521" lon="3.15067">
        <ele>218.06799316406</ele>
        <time>2016-02-07T10:16:54.000Z</time>
      </trkpt>
      <trkpt lat="46.85208" lon="3.15071">
        <ele>217.99507141113</ele>
        <time>2016-02-07T10:16:57.000Z</time>
      </trkpt>
      <trkpt lat="46.85206" lon="3.15076">
        <ele>217.91670227051</ele>
        <time>2016-02-07T10:16:59.000Z</time>
      </trkpt>
      <trkpt lat="46.85205" lon="3.15079">
        <ele>217.84103393555</ele>
        <time>2016-02-07T10:17:01.000Z</time>
      </trkpt>
      <trkpt lat="46.85204" lon="3.15086">
        <ele>217.79092407227</ele>
        <time>2016-02-07T10:17:04.000Z</time>
      </trkpt>
      <trkpt lat="46.85202" lon="3.1509">
        <ele>217.77807617188</ele>
        <time>2016-02-07T10:17:07.000Z</time>
      </trkpt>
      <trkpt lat="46.85201" lon="3.15093">
        <ele>217.78190612793</ele>
        <time>2016-02-07T10:17:09.000Z</time>
      </trkpt>
      <trkpt lat="46.85199" lon="3.15098">
        <ele>217.82014465332</ele>
        <time>2016-02-07T10:17:12.000Z</time>
      </trkpt>
      <trkpt lat="46.85196" lon="3.15101">
        <ele>217.8508605957</ele>
        <time>2016-02-07T10:17:15.000Z</time>
      </trkpt>
      <trkpt lat="46.85193" lon="3.15103">
        <ele>217.85791015625</ele>
        <time>2016-02-07T10:17:18.000Z</time>
      </trkpt>
      <trkpt lat="46.85192" lon="3.15109">
        <ele>217.8889465332</ele>
        <time>2016-02-07T10:17:21.000Z</time>
      </trkpt>
      <trkpt lat="46.85191" lon="3.15112">
        <ele>217.92378234863</ele>
        <time>2016-02-07T10:17:22.000Z</time>
      </trkpt>
      <trkpt lat="46.85188" lon="3.15117">
        <ele>217.9697265625</ele>
        <time>2016-02-07T10:17:25.000Z</time>
      </trkpt>
      <trkpt lat="46.85187" lon="3.1512">
        <ele>218.05253601074</ele>
        <time>2016-02-07T10:17:27.000Z</time>
      </trkpt>
      <trkpt lat="46.85187" lon="3.15125">
        <ele>218.17892456055</ele>
        <time>2016-02-07T10:17:30.000Z</time>
      </trkpt>
      <trkpt lat="46.85186" lon="3.15127">
        <ele>218.2834777832</ele>
        <time>2016-02-07T10:17:32.000Z</time>
      </trkpt>
      <trkpt lat="46.85185" lon="3.15129">
        <ele>218.39114379883</ele>
        <time>2016-02-07T10:17:39.000Z</time>
      </trkpt>
      <trkpt lat="46.85183" lon="3.15134">
        <ele>218.50936889648</ele>
        <time>2016-02-07T10:17:40.000Z</time>
      </trkpt>
      <trkpt lat="46.85181" lon="3.15138">
        <ele>218.63513183594</ele>
        <time>2016-02-07T10:17:40.000Z</time>
      </trkpt>
      <trkpt lat="46.85178" lon="3.15143">
        <ele>218.74736022949</ele>
        <time>2016-02-07T10:17:44.000Z</time>
      </trkpt>
      <trkpt lat="46.85175" lon="3.15149">
        <ele>218.89318847656</ele>
        <time>2016-02-07T10:17:45.000Z</time>
      </trkpt>
      <trkpt lat="46.85172" lon="3.15152">
        <ele>219.02946472168</ele>
        <time>2016-02-07T10:17:49.000Z</time>
      </trkpt>
      <trkpt lat="46.8517" lon="3.15154">
        <ele>219.15336608887</ele>
        <time>2016-02-07T10:17:50.000Z</time>
      </trkpt>
      <trkpt lat="46.85168" lon="3.15158">
        <ele>219.27851867676</ele>
        <time>2016-02-07T10:17:52.000Z</time>
      </trkpt>
      <trkpt lat="46.85166" lon="3.15162">
        <ele>219.41458129883</ele>
        <time>2016-02-07T10:17:55.000Z</time>
      </trkpt>
      <trkpt lat="46.85163" lon="3.15167">
        <ele>219.54043579102</ele>
        <time>2016-02-07T10:17:58.000Z</time>
      </trkpt>
      <trkpt lat="46.85162" lon="3.15169">
        <ele>219.66439819336</ele>
        <time>2016-02-07T10:18:01.000Z</time>
      </trkpt>
      <trkpt lat="46.85161" lon="3.15173">
        <ele>219.78218078613</ele>
        <time>2016-02-07T10:18:03.000Z</time>
      </trkpt>
      <trkpt lat="46.85161" lon="3.15175">
        <ele>219.8861541748</ele>
        <time>2016-02-07T10:18:07.000Z</time>
      </trkpt>
      <trkpt lat="46.85161" lon="3.15177">
        <ele>219.96318054199</ele>
        <time>2016-02-07T10:18:27.000Z</time>
      </trkpt>
      <trkpt lat="46.85161" lon="3.15178">
        <ele>220.01322937012</ele>
        <time>2016-02-07T10:18:44.000Z</time>
      </trkpt>
      <trkpt lat="46.8516" lon="3.1518">
        <ele>220.06283569336</ele>
        <time>2016-02-07T10:18:45.000Z</time>
      </trkpt>
      <trkpt lat="46.8516" lon="3.1518">
        <ele>220.06283569336</ele>
        <time>2016-02-07T10:19:05.000Z</time>
      </trkpt>
      <trkpt lat="46.85161" lon="3.15182">
        <ele>220.12219238281</ele>
        <time>2016-02-07T10:20:02.000Z</time>
      </trkpt>
      <trkpt lat="46.85162" lon="3.15185">
        <ele>220.20169067383</ele>
        <time>2016-02-07T10:20:03.000Z</time>
      </trkpt>
      <trkpt lat="46.85163" lon="3.15186">
        <ele>220.29190063477</ele>
        <time>2016-02-07T10:20:03.000Z</time>
      </trkpt>
      <trkpt lat="46.85166" lon="3.15188">
        <ele>220.4114074707</ele>
        <time>2016-02-07T10:20:03.000Z</time>
      </trkpt>
      <trkpt lat="46.85168" lon="3.15188">
        <ele>220.54585266113</ele>
        <time>2016-02-07T10:20:03.000Z</time>
      </trkpt>
      <trkpt lat="46.8517" lon="3.15188">
        <ele>220.66743469238</ele>
        <time>2016-02-07T10:20:03.000Z</time>
      </trkpt>
      <trkpt lat="46.85173" lon="3.15188">
        <ele>220.76460266113</ele>
        <time>2016-02-07T10:20:04.000Z</time>
      </trkpt>
      <trkpt lat="46.85175" lon="3.15189">
        <ele>220.85762023926</ele>
        <time>2016-02-07T10:20:08.000Z</time>
      </trkpt>
      <trkpt lat="46.85176" lon="3.1519">
        <ele>220.92866516113</ele>
        <time>2016-02-07T10:20:09.000Z</time>
      </trkpt>
      <trkpt lat="46.85179" lon="3.15193">
        <ele>221.01298522949</ele>
        <time>2016-02-07T10:20:12.000Z</time>
      </trkpt>
      <trkpt lat="46.85182" lon="3.15194">
        <ele>221.11486816406</ele>
        <time>2016-02-07T10:20:15.000Z</time>
      </trkpt>
      <trkpt lat="46.85185" lon="3.15197">
        <ele>221.24150085449</ele>
        <time>2016-02-07T10:20:18.000Z</time>
      </trkpt>
      <trkpt lat="46.85189" lon="3.152">
        <ele>221.39375305176</ele>
        <time>2016-02-07T10:20:21.000Z</time>
      </trkpt>
      <trkpt lat="46.8519" lon="3.15202">
        <ele>221.54570007324</ele>
        <time>2016-02-07T10:20:23.000Z</time>
      </trkpt>
      <trkpt lat="46.85193" lon="3.15203">
        <ele>221.69152832031</ele>
        <time>2016-02-07T10:20:26.000Z</time>
      </trkpt>
      <trkpt lat="46.85197" lon="3.15204">
        <ele>221.82763671875</ele>
        <time>2016-02-07T10:20:30.000Z</time>
      </trkpt>
      <trkpt lat="46.85201" lon="3.15205">
        <ele>221.95893859863</ele>
        <time>2016-02-07T10:20:32.000Z</time>
      </trkpt>
      <trkpt lat="46.85204" lon="3.15206">
        <ele>222.06677246094</ele>
        <time>2016-02-07T10:20:34.000Z</time>
      </trkpt>
      <trkpt lat="46.85208" lon="3.15208">
        <ele>222.19648742676</ele>
        <time>2016-02-07T10:20:37.000Z</time>
      </trkpt>
      <trkpt lat="46.8521" lon="3.15211">
        <ele>222.33190917969</ele>
        <time>2016-02-07T10:20:40.000Z</time>
      </trkpt>
      <trkpt lat="46.85212" lon="3.15215">
        <ele>222.48612976074</ele>
        <time>2016-02-07T10:20:42.000Z</time>
      </trkpt>
      <trkpt lat="46.85215" lon="3.15218">
        <ele>222.6455078125</ele>
        <time>2016-02-07T10:20:46.000Z</time>
      </trkpt>
      <trkpt lat="46.85218" lon="3.1522">
        <ele>222.81823730469</ele>
        <time>2016-02-07T10:20:47.000Z</time>
      </trkpt>
      <trkpt lat="46.8522" lon="3.15225">
        <ele>222.99694824219</ele>
        <time>2016-02-07T10:20:50.000Z</time>
      </trkpt>
      <trkpt lat="46.85223" lon="3.15228">
        <ele>223.18501281738</ele>
        <time>2016-02-07T10:20:53.000Z</time>
      </trkpt>
      <trkpt lat="46.85227" lon="3.15232">
        <ele>223.37451171875</ele>
        <time>2016-02-07T10:20:57.000Z</time>
      </trkpt>
      <trkpt lat="46.8523" lon="3.15233">
        <ele>223.55834960938</ele>
        <time>2016-02-07T10:20:59.000Z</time>
      </trkpt>
      <trkpt lat="46.85233" lon="3.15235">
        <ele>223.73515319824</ele>
        <time>2016-02-07T10:21:03.000Z</time>
      </trkpt>
      <trkpt lat="46.85237" lon="3.15234">
        <ele>223.88806152344</ele>
        <time>2016-02-07T10:21:04.000Z</time>
      </trkpt>
      <trkpt lat="46.85243" lon="3.15232">
        <ele>224.01196289062</ele>
        <time>2016-02-07T10:21:08.000Z</time>
      </trkpt>
      <trkpt lat="46.85246" lon="3.15232">
        <ele>224.10681152344</ele>
        <time>2016-02-07T10:21:09.000Z</time>
      </trkpt>
      <trkpt lat="46.85249" lon="3.1523">
        <ele>224.17663574219</ele>
        <time>2016-02-07T10:21:11.000Z</time>
      </trkpt>
      <trkpt lat="46.85253" lon="3.15231">
        <ele>224.25224304199</ele>
        <time>2016-02-07T10:21:14.000Z</time>
      </trkpt>
      <trkpt lat="46.85255" lon="3.15231">
        <ele>224.32649230957</ele>
        <time>2016-02-07T10:21:16.000Z</time>
      </trkpt>
      <trkpt lat="46.85259" lon="3.15232">
        <ele>224.42192077637</ele>
        <time>2016-02-07T10:21:19.000Z</time>
      </trkpt>
      <trkpt lat="46.85261" lon="3.15233">
        <ele>224.52847290039</ele>
        <time>2016-02-07T10:21:21.000Z</time>
      </trkpt>
      <trkpt lat="46.85263" lon="3.15235">
        <ele>224.65612792969</ele>
        <time>2016-02-07T10:21:25.000Z</time>
      </trkpt>
      <trkpt lat="46.85266" lon="3.15238">
        <ele>224.80171203613</ele>
        <time>2016-02-07T10:21:26.000Z</time>
      </trkpt>
      <trkpt lat="46.85269" lon="3.15242">
        <ele>224.97619628906</ele>
        <time>2016-02-07T10:21:29.000Z</time>
      </trkpt>
      <trkpt lat="46.85271" lon="3.15244">
        <ele>225.14628601074</ele>
        <time>2016-02-07T10:21:31.000Z</time>
      </trkpt>
      <trkpt lat="46.85273" lon="3.15245">
        <ele>225.31913757324</ele>
        <time>2016-02-07T10:21:33.000Z</time>
      </trkpt>
      <trkpt lat="46.85275" lon="3.15248">
        <ele>225.50370788574</ele>
        <time>2016-02-07T10:21:35.000Z</time>
      </trkpt>
      <trkpt lat="46.85276" lon="3.1525">
        <ele>225.66394042969</ele>
        <time>2016-02-07T10:21:37.000Z</time>
      </trkpt>
      <trkpt lat="46.8528" lon="3.15253">
        <ele>225.81826782227</ele>
        <time>2016-02-07T10:21:40.000Z</time>
      </trkpt>
      <trkpt lat="46.85283" lon="3.15255">
        <ele>225.96708679199</ele>
        <time>2016-02-07T10:21:43.000Z</time>
      </trkpt>
      <trkpt lat="46.85284" lon="3.15256">
        <ele>226.10656738281</ele>
        <time>2016-02-07T10:21:45.000Z</time>
      </trkpt>
      <trkpt lat="46.85288" lon="3.15259">
        <ele>226.24487304688</ele>
        <time>2016-02-07T10:21:49.000Z</time>
      </trkpt>
      <trkpt lat="46.85291" lon="3.15261">
        <ele>226.39144897461</ele>
        <time>2016-02-07T10:21:50.000Z</time>
      </trkpt>
      <trkpt lat="46.85292" lon="3.15265">
        <ele>226.51884460449</ele>
        <time>2016-02-07T10:22:02.000Z</time>
      </trkpt>
      <trkpt lat="46.85295" lon="3.15268">
        <ele>226.65592956543</ele>
        <time>2016-02-07T10:22:06.000Z</time>
      </trkpt>
      <trkpt lat="46.85299" lon="3.15269">
        <ele>226.80187988281</ele>
        <time>2016-02-07T10:22:13.000Z</time>
      </trkpt>
      <trkpt lat="46.85301" lon="3.15269">
        <ele>226.92707824707</ele>
        <time>2016-02-07T10:22:14.000Z</time>
      </trkpt>
      <trkpt lat="46.85305" lon="3.15271">
        <ele>227.0592956543</ele>
        <time>2016-02-07T10:22:15.000Z</time>
      </trkpt>
      <trkpt lat="46.8531" lon="3.15273">
        <ele>227.20845031738</ele>
        <time>2016-02-07T10:22:26.000Z</time>
      </trkpt>
      <trkpt lat="46.85313" lon="3.15274">
        <ele>227.34289550781</ele>
        <time>2016-02-07T10:22:38.000Z</time>
      </trkpt>
      <trkpt lat="46.85316" lon="3.15277">
        <ele>227.48429870605</ele>
        <time>2016-02-07T10:22:57.000Z</time>
      </trkpt>
      <trkpt lat="46.85319" lon="3.15277">
        <ele>227.62841796875</ele>
        <time>2016-02-07T10:22:57.000Z</time>
      </trkpt>
      <trkpt lat="46.85321" lon="3.15278">
        <ele>227.75399780273</ele>
        <time>2016-02-07T10:22:58.000Z</time>
      </trkpt>
      <trkpt lat="46.85325" lon="3.15282">
        <ele>227.87326049805</ele>
        <time>2016-02-07T10:22:59.000Z</time>
      </trkpt>
      <trkpt lat="46.85327" lon="3.15284">
        <ele>227.98860168457</ele>
        <time>2016-02-07T10:22:59.000Z</time>
      </trkpt>
      <trkpt lat="46.85331" lon="3.15285">
        <ele>228.09797668457</ele>
        <time>2016-02-07T10:23:00.000Z</time>
      </trkpt>
      <trkpt lat="46.85333" lon="3.15287">
        <ele>228.21089172363</ele>
        <time>2016-02-07T10:23:01.000Z</time>
      </trkpt>
      <trkpt lat="46.85335" lon="3.1529">
        <ele>228.31929016113</ele>
        <time>2016-02-07T10:23:01.000Z</time>
      </trkpt>
      <trkpt lat="46.85336" lon="3.15294">
        <ele>228.40451049805</ele>
        <time>2016-02-07T10:23:01.000Z</time>
      </trkpt>
      <trkpt lat="46.85336" lon="3.15299">
        <ele>228.48666381836</ele>
        <time>2016-02-07T10:23:01.000Z</time>
      </trkpt>
      <trkpt lat="46.85336" lon="3.15303">
        <ele>228.55310058594</ele>
        <time>2016-02-07T10:23:02.000Z</time>
      </trkpt>
      <trkpt lat="46.85336" lon="3.15306">
        <ele>228.60556030273</ele>
        <time>2016-02-07T10:23:02.000Z</time>
      </trkpt>
      <trkpt lat="46.85335" lon="3.15312">
        <ele>228.6555480957</ele>
        <time>2016-02-07T10:23:02.000Z</time>
      </trkpt>
      <trkpt lat="46.85335" lon="3.15315">
        <ele>228.70161437988</ele>
        <time>2016-02-07T10:23:02.000Z</time>
      </trkpt>
      <trkpt lat="46.85335" lon="3.15321">
        <ele>228.75100708008</ele>
        <time>2016-02-07T10:23:03.000Z</time>
      </trkpt>
      <trkpt lat="46.85334" lon="3.15325">
        <ele>228.79985046387</ele>
        <time>2016-02-07T10:23:04.000Z</time>
      </trkpt>
      <trkpt lat="46.85334" lon="3.15331">
        <ele>228.85432434082</ele>
        <time>2016-02-07T10:23:05.000Z</time>
      </trkpt>
      <trkpt lat="46.85332" lon="3.15336">
        <ele>228.89929199219</ele>
        <time>2016-02-07T10:23:05.000Z</time>
      </trkpt>
      <trkpt lat="46.85332" lon="3.15339">
        <ele>228.93444824219</ele>
        <time>2016-02-07T10:23:05.000Z</time>
      </trkpt>
      <trkpt lat="46.85331" lon="3.15344">
        <ele>228.9514465332</ele>
        <time>2016-02-07T10:23:06.000Z</time>
      </trkpt>
      <trkpt lat="46.8533" lon="3.15347">
        <ele>228.95755004883</ele>
        <time>2016-02-07T10:23:06.000Z</time>
      </trkpt>
      <trkpt lat="46.85329" lon="3.1535">
        <ele>228.94743347168</ele>
        <time>2016-02-07T10:23:06.000Z</time>
      </trkpt>
      <trkpt lat="46.85329" lon="3.15354">
        <ele>228.93246459961</ele>
        <time>2016-02-07T10:23:07.000Z</time>
      </trkpt>
      <trkpt lat="46.85327" lon="3.15359">
        <ele>228.91354370117</ele>
        <time>2016-02-07T10:23:10.000Z</time>
      </trkpt>
      <trkpt lat="46.85326" lon="3.15361">
        <ele>228.89533996582</ele>
        <time>2016-02-07T10:23:12.000Z</time>
      </trkpt>
      <trkpt lat="46.85325" lon="3.15366">
        <ele>228.87666320801</ele>
        <time>2016-02-07T10:23:16.000Z</time>
      </trkpt>
      <trkpt lat="46.85325" lon="3.1537">
        <ele>228.86042785645</ele>
        <time>2016-02-07T10:23:17.000Z</time>
      </trkpt>
      <trkpt lat="46.85324" lon="3.15374">
        <ele>228.84541320801</ele>
        <time>2016-02-07T10:23:20.000Z</time>
      </trkpt>
      <trkpt lat="46.85323" lon="3.15378">
        <ele>228.83474731445</ele>
        <time>2016-02-07T10:23:22.000Z</time>
      </trkpt>
      <trkpt lat="46.85321" lon="3.15384">
        <ele>228.82312011719</ele>
        <time>2016-02-07T10:23:26.000Z</time>
      </trkpt>
      <trkpt lat="46.8532" lon="3.15387">
        <ele>228.81201171875</ele>
        <time>2016-02-07T10:23:27.000Z</time>
      </trkpt>
      <trkpt lat="46.8532" lon="3.1539">
        <ele>228.80041503906</ele>
        <time>2016-02-07T10:23:29.000Z</time>
      </trkpt>
      <trkpt lat="46.85318" lon="3.15395">
        <ele>228.78776550293</ele>
        <time>2016-02-07T10:23:32.000Z</time>
      </trkpt>
      <trkpt lat="46.85316" lon="3.15401">
        <ele>228.77510070801</ele>
        <time>2016-02-07T10:23:35.000Z</time>
      </trkpt>
      <trkpt lat="46.85314" lon="3.15405">
        <ele>228.76391601562</ele>
        <time>2016-02-07T10:23:38.000Z</time>
      </trkpt>
      <trkpt lat="46.85312" lon="3.15412">
        <ele>228.75268554688</ele>
        <time>2016-02-07T10:23:41.000Z</time>
      </trkpt>
      <trkpt lat="46.85311" lon="3.15417">
        <ele>228.74276733398</ele>
        <time>2016-02-07T10:23:44.000Z</time>
      </trkpt>
      <trkpt lat="46.8531" lon="3.15421">
        <ele>228.73593139648</ele>
        <time>2016-02-07T10:23:47.000Z</time>
      </trkpt>
      <trkpt lat="46.85309" lon="3.15425">
        <ele>228.73408508301</ele>
        <time>2016-02-07T10:23:49.000Z</time>
      </trkpt>
      <trkpt lat="46.85308" lon="3.15431">
        <ele>228.73530578613</ele>
        <time>2016-02-07T10:23:52.000Z</time>
      </trkpt>
      <trkpt lat="46.85307" lon="3.15436">
        <ele>228.74145507812</ele>
        <time>2016-02-07T10:23:55.000Z</time>
      </trkpt>
      <trkpt lat="46.85305" lon="3.15442">
        <ele>228.74899291992</ele>
        <time>2016-02-07T10:23:58.000Z</time>
      </trkpt>
      <trkpt lat="46.85304" lon="3.15449">
        <ele>228.75912475586</ele>
        <time>2016-02-07T10:24:01.000Z</time>
      </trkpt>
      <trkpt lat="46.85303" lon="3.15452">
        <ele>228.76936340332</ele>
        <time>2016-02-07T10:24:03.000Z</time>
      </trkpt>
      <trkpt lat="46.85301" lon="3.15456">
        <ele>228.77938842773</ele>
        <time>2016-02-07T10:24:06.000Z</time>
      </trkpt>
      <trkpt lat="46.85298" lon="3.15462">
        <ele>228.78897094727</ele>
        <time>2016-02-07T10:24:09.000Z</time>
      </trkpt>
      <trkpt lat="46.85297" lon="3.15467">
        <ele>228.80065917969</ele>
        <time>2016-02-07T10:24:12.000Z</time>
      </trkpt>
      <trkpt lat="46.85295" lon="3.15472">
        <ele>228.81376647949</ele>
        <time>2016-02-07T10:24:15.000Z</time>
      </trkpt>
      <trkpt lat="46.85294" lon="3.15477">
        <ele>228.82922363281</ele>
        <time>2016-02-07T10:24:18.000Z</time>
      </trkpt>
      <trkpt lat="46.85293" lon="3.15482">
        <ele>228.84951782227</ele>
        <time>2016-02-07T10:24:21.000Z</time>
      </trkpt>
      <trkpt lat="46.85291" lon="3.15488">
        <ele>228.87268066406</ele>
        <time>2016-02-07T10:24:24.000Z</time>
      </trkpt>
      <trkpt lat="46.8529" lon="3.15491">
        <ele>228.89682006836</ele>
        <time>2016-02-07T10:24:27.000Z</time>
      </trkpt>
      <trkpt lat="46.85289" lon="3.15495">
        <ele>228.92050170898</ele>
        <time>2016-02-07T10:24:29.000Z</time>
      </trkpt>
      <trkpt lat="46.85287" lon="3.15499">
        <ele>228.94584655762</ele>
        <time>2016-02-07T10:24:32.000Z</time>
      </trkpt>
      <trkpt lat="46.85286" lon="3.15504">
        <ele>228.97402954102</ele>
        <time>2016-02-07T10:24:35.000Z</time>
      </trkpt>
      <trkpt lat="46.85284" lon="3.15509">
        <ele>229.00703430176</ele>
        <time>2016-02-07T10:24:38.000Z</time>
      </trkpt>
      <trkpt lat="46.85283" lon="3.15512">
        <ele>229.03959655762</ele>
        <time>2016-02-07T10:24:41.000Z</time>
      </trkpt>
      <trkpt lat="46.85281" lon="3.15515">
        <ele>229.07336425781</ele>
        <time>2016-02-07T10:24:42.000Z</time>
      </trkpt>
      <trkpt lat="46.85279" lon="3.1552">
        <ele>229.10847473145</ele>
        <time>2016-02-07T10:24:46.000Z</time>
      </trkpt>
      <trkpt lat="46.85277" lon="3.15524">
        <ele>229.13838195801</ele>
        <time>2016-02-07T10:24:47.000Z</time>
      </trkpt>
      <trkpt lat="46.85275" lon="3.15531">
        <ele>229.16401672363</ele>
        <time>2016-02-07T10:24:50.000Z</time>
      </trkpt>
      <trkpt lat="46.85273" lon="3.15534">
        <ele>229.18676757812</ele>
        <time>2016-02-07T10:24:52.000Z</time>
      </trkpt>
      <trkpt lat="46.85272" lon="3.15538">
        <ele>229.20695495605</ele>
        <time>2016-02-07T10:24:54.000Z</time>
      </trkpt>
      <trkpt lat="46.8527" lon="3.15543">
        <ele>229.22323608398</ele>
        <time>2016-02-07T10:24:57.000Z</time>
      </trkpt>
      <trkpt lat="46.85268" lon="3.15547">
        <ele>229.23637390137</ele>
        <time>2016-02-07T10:24:59.000Z</time>
      </trkpt>
      <trkpt lat="46.85267" lon="3.15552">
        <ele>229.24462890625</ele>
        <time>2016-02-07T10:25:03.000Z</time>
      </trkpt>
      <trkpt lat="46.85266" lon="3.15556">
        <ele>229.25227355957</ele>
        <time>2016-02-07T10:25:04.000Z</time>
      </trkpt>
      <trkpt lat="46.85265" lon="3.15561">
        <ele>229.25859069824</ele>
        <time>2016-02-07T10:25:06.000Z</time>
      </trkpt>
      <trkpt lat="46.85264" lon="3.15567">
        <ele>229.26289367676</ele>
        <time>2016-02-07T10:25:09.000Z</time>
      </trkpt>
      <trkpt lat="46.85262" lon="3.15573">
        <ele>229.2646484375</ele>
        <time>2016-02-07T10:25:12.000Z</time>
      </trkpt>
      <trkpt lat="46.85261" lon="3.15578">
        <ele>229.26350402832</ele>
        <time>2016-02-07T10:25:15.000Z</time>
      </trkpt>
      <trkpt lat="46.8526" lon="3.15585">
        <ele>229.26968383789</ele>
        <time>2016-02-07T10:25:18.000Z</time>
      </trkpt>
      <trkpt lat="46.85257" lon="3.1559">
        <ele>229.29887390137</ele>
        <time>2016-02-07T10:25:21.000Z</time>
      </trkpt>
      <trkpt lat="46.85256" lon="3.15594">
        <ele>229.34838867188</ele>
        <time>2016-02-07T10:25:23.000Z</time>
      </trkpt>
      <trkpt lat="46.85254" lon="3.156">
        <ele>229.43167114258</ele>
        <time>2016-02-07T10:25:27.000Z</time>
      </trkpt>
      <trkpt lat="46.85252" lon="3.15605">
        <ele>229.54418945312</ele>
        <time>2016-02-07T10:25:29.000Z</time>
      </trkpt>
      <trkpt lat="46.85251" lon="3.15611">
        <ele>229.68466186523</ele>
        <time>2016-02-07T10:25:32.000Z</time>
      </trkpt>
      <trkpt lat="46.85249" lon="3.15616">
        <ele>229.83645629883</ele>
        <time>2016-02-07T10:25:35.000Z</time>
      </trkpt>
      <trkpt lat="46.85247" lon="3.1562">
        <ele>229.98974609375</ele>
        <time>2016-02-07T10:25:37.000Z</time>
      </trkpt>
      <trkpt lat="46.85247" lon="3.15623">
        <ele>230.13037109375</ele>
        <time>2016-02-07T10:25:39.000Z</time>
      </trkpt>
      <trkpt lat="46.85245" lon="3.15626">
        <ele>230.26509094238</ele>
        <time>2016-02-07T10:25:41.000Z</time>
      </trkpt>
      <trkpt lat="46.85244" lon="3.15632">
        <ele>230.40490722656</ele>
        <time>2016-02-07T10:25:44.000Z</time>
      </trkpt>
      <trkpt lat="46.85242" lon="3.15636">
        <ele>230.53454589844</ele>
        <time>2016-02-07T10:25:46.000Z</time>
      </trkpt>
      <trkpt lat="46.85241" lon="3.15641">
        <ele>230.67021179199</ele>
        <time>2016-02-07T10:25:49.000Z</time>
      </trkpt>
      <trkpt lat="46.85239" lon="3.15645">
        <ele>230.81425476074</ele>
        <time>2016-02-07T10:25:52.000Z</time>
      </trkpt>
      <trkpt lat="46.85238" lon="3.15648">
        <ele>230.95170593262</ele>
        <time>2016-02-07T10:25:54.000Z</time>
      </trkpt>
      <trkpt lat="46.85236" lon="3.15654">
        <ele>231.08996582031</ele>
        <time>2016-02-07T10:25:57.000Z</time>
      </trkpt>
      <trkpt lat="46.85234" lon="3.1566">
        <ele>231.23979187012</ele>
        <time>2016-02-07T10:26:00.000Z</time>
      </trkpt>
      <trkpt lat="46.85233" lon="3.15664">
        <ele>231.38667297363</ele>
        <time>2016-02-07T10:26:03.000Z</time>
      </trkpt>
      <trkpt lat="46.8523" lon="3.1567">
        <ele>231.51928710938</ele>
        <time>2016-02-07T10:26:06.000Z</time>
      </trkpt>
      <trkpt lat="46.85229" lon="3.15675">
        <ele>231.63272094727</ele>
        <time>2016-02-07T10:26:10.000Z</time>
      </trkpt>
      <trkpt lat="46.85228" lon="3.15679">
        <ele>231.70254516602</ele>
        <time>2016-02-07T10:26:12.000Z</time>
      </trkpt>
      <trkpt lat="46.85227" lon="3.15683">
        <ele>231.732421875</ele>
        <time>2016-02-07T10:26:14.000Z</time>
      </trkpt>
      <trkpt lat="46.85226" lon="3.1569">
        <ele>231.734375</ele>
        <time>2016-02-07T10:26:18.000Z</time>
      </trkpt>
      <trkpt lat="46.85225" lon="3.15696">
        <ele>231.720703125</ele>
        <time>2016-02-07T10:26:20.000Z</time>
      </trkpt>
      <trkpt lat="46.85224" lon="3.157">
        <ele>231.708984375</ele>
        <time>2016-02-07T10:26:22.000Z</time>
      </trkpt>
      <trkpt lat="46.85222" lon="3.15706">
        <ele>231.6953125</ele>
        <time>2016-02-07T10:26:25.000Z</time>
      </trkpt>
      <trkpt lat="46.85222" lon="3.1571">
        <ele>231.68359375</ele>
        <time>2016-02-07T10:26:27.000Z</time>
      </trkpt>
      <trkpt lat="46.85221" lon="3.15713">
        <ele>231.671875</ele>
        <time>2016-02-07T10:26:29.000Z</time>
      </trkpt>
      <trkpt lat="46.8522" lon="3.15719">
        <ele>231.6611328125</ele>
        <time>2016-02-07T10:26:33.000Z</time>
      </trkpt>
      <trkpt lat="46.85219" lon="3.15723">
        <ele>231.6494140625</ele>
        <time>2016-02-07T10:26:34.000Z</time>
      </trkpt>
      <trkpt lat="46.85218" lon="3.15726">
        <ele>231.638671875</ele>
        <time>2016-02-07T10:26:36.000Z</time>
      </trkpt>
      <trkpt lat="46.85217" lon="3.15731">
        <ele>231.6259765625</ele>
        <time>2016-02-07T10:26:40.000Z</time>
      </trkpt>
      <trkpt lat="46.85215" lon="3.15738">
        <ele>231.611328125</ele>
        <time>2016-02-07T10:26:42.000Z</time>
      </trkpt>
      <trkpt lat="46.85214" lon="3.15742">
        <ele>231.5966796875</ele>
        <time>2016-02-07T10:26:44.000Z</time>
      </trkpt>
      <trkpt lat="46.85212" lon="3.15748">
        <ele>231.5791015625</ele>
        <time>2016-02-07T10:26:47.000Z</time>
      </trkpt>
      <trkpt lat="46.85211" lon="3.15753">
        <ele>231.57011413574</ele>
        <time>2016-02-07T10:26:50.000Z</time>
      </trkpt>
      <trkpt lat="46.8521" lon="3.15758">
        <ele>231.57504272461</ele>
        <time>2016-02-07T10:26:53.000Z</time>
      </trkpt>
      <trkpt lat="46.8521" lon="3.15761">
        <ele>231.59053039551</ele>
        <time>2016-02-07T10:26:55.000Z</time>
      </trkpt>
      <trkpt lat="46.85209" lon="3.15765">
        <ele>231.61474609375</ele>
        <time>2016-02-07T10:26:57.000Z</time>
      </trkpt>
      <trkpt lat="46.85208" lon="3.15771">
        <ele>231.65698242188</ele>
        <time>2016-02-07T10:27:00.000Z</time>
      </trkpt>
      <trkpt lat="46.85207" lon="3.15775">
        <ele>231.69999694824</ele>
        <time>2016-02-07T10:27:02.000Z</time>
      </trkpt>
      <trkpt lat="46.85205" lon="3.15782">
        <ele>231.74555969238</ele>
        <time>2016-02-07T10:27:06.000Z</time>
      </trkpt>
      <trkpt lat="46.85204" lon="3.15786">
        <ele>231.79023742676</ele>
        <time>2016-02-07T10:27:07.000Z</time>
      </trkpt>
      <trkpt lat="46.85204" lon="3.15791">
        <ele>231.83955383301</ele>
        <time>2016-02-07T10:27:10.000Z</time>
      </trkpt>
      <trkpt lat="46.85203" lon="3.15798">
        <ele>231.89042663574</ele>
        <time>2016-02-07T10:27:13.000Z</time>
      </trkpt>
      <trkpt lat="46.85201" lon="3.15804">
        <ele>231.94511413574</ele>
        <time>2016-02-07T10:27:17.000Z</time>
      </trkpt>
      <trkpt lat="46.852" lon="3.15808">
        <ele>231.99291992188</ele>
        <time>2016-02-07T10:27:18.000Z</time>
      </trkpt>
      <trkpt lat="46.85199" lon="3.15811">
        <ele>232.04121398926</ele>
        <time>2016-02-07T10:27:20.000Z</time>
      </trkpt>
      <trkpt lat="46.85197" lon="3.15817">
        <ele>232.08744812012</ele>
        <time>2016-02-07T10:27:23.000Z</time>
      </trkpt>
      <trkpt lat="46.85198" lon="3.15822">
        <ele>232.13317871094</ele>
        <time>2016-02-07T10:27:26.000Z</time>
      </trkpt>
      <trkpt lat="46.85198" lon="3.15827">
        <ele>232.18241882324</ele>
        <time>2016-02-07T10:27:29.000Z</time>
      </trkpt>
      <trkpt lat="46.85198" lon="3.15831">
        <ele>232.23449707031</ele>
        <time>2016-02-07T10:27:31.000Z</time>
      </trkpt>
      <trkpt lat="46.85198" lon="3.15837">
        <ele>232.2900390625</ele>
        <time>2016-02-07T10:27:34.000Z</time>
      </trkpt>
      <trkpt lat="46.85197" lon="3.15843">
        <ele>232.34338378906</ele>
        <time>2016-02-07T10:27:37.000Z</time>
      </trkpt>
      <trkpt lat="46.85197" lon="3.15849">
        <ele>232.3929901123</ele>
        <time>2016-02-07T10:27:41.000Z</time>
      </trkpt>
      <trkpt lat="46.85196" lon="3.15855">
        <ele>232.4362487793</ele>
        <time>2016-02-07T10:27:43.000Z</time>
      </trkpt>
      <trkpt lat="46.85196" lon="3.1586">
        <ele>232.47920227051</ele>
        <time>2016-02-07T10:27:46.000Z</time>
      </trkpt>
      <trkpt lat="46.85197" lon="3.15865">
        <ele>232.52133178711</ele>
        <time>2016-02-07T10:27:49.000Z</time>
      </trkpt>
      <trkpt lat="46.85197" lon="3.1587">
        <ele>232.56332397461</ele>
        <time>2016-02-07T10:27:51.000Z</time>
      </trkpt>
      <trkpt lat="46.85197" lon="3.15874">
        <ele>232.60275268555</ele>
        <time>2016-02-07T10:27:53.000Z</time>
      </trkpt>
      <trkpt lat="46.85197" lon="3.15881">
        <ele>232.64437866211</ele>
        <time>2016-02-07T10:27:57.000Z</time>
      </trkpt>
      <trkpt lat="46.85198" lon="3.15884">
        <ele>232.68319702148</ele>
        <time>2016-02-07T10:27:58.000Z</time>
      </trkpt>
      <trkpt lat="46.85198" lon="3.1589">
        <ele>232.72062683105</ele>
        <time>2016-02-07T10:28:02.000Z</time>
      </trkpt>
      <trkpt lat="46.85197" lon="3.15893">
        <ele>232.75662231445</ele>
        <time>2016-02-07T10:28:03.000Z</time>
      </trkpt>
      <trkpt lat="46.85199" lon="3.15899">
        <ele>232.79460144043</ele>
        <time>2016-02-07T10:28:06.000Z</time>
      </trkpt>
      <trkpt lat="46.85201" lon="3.15904">
        <ele>232.83187866211</ele>
        <time>2016-02-07T10:28:09.000Z</time>
      </trkpt>
      <trkpt lat="46.85201" lon="3.15909">
        <ele>232.86892700195</ele>
        <time>2016-02-07T10:28:11.000Z</time>
      </trkpt>
      <trkpt lat="46.85202" lon="3.15914">
        <ele>232.90579223633</ele>
        <time>2016-02-07T10:28:14.000Z</time>
      </trkpt>
      <trkpt lat="46.85202" lon="3.15918">
        <ele>232.93928527832</ele>
        <time>2016-02-07T10:28:16.000Z</time>
      </trkpt>
      <trkpt lat="46.85203" lon="3.15922">
        <ele>232.95832824707</ele>
        <time>2016-02-07T10:28:19.000Z</time>
      </trkpt>
      <trkpt lat="46.85204" lon="3.15928">
        <ele>232.9609375</ele>
        <time>2016-02-07T10:28:21.000Z</time>
      </trkpt>
      <trkpt lat="46.85204" lon="3.15933">
        <ele>232.94995117188</ele>
        <time>2016-02-07T10:28:25.000Z</time>
      </trkpt>
      <trkpt lat="46.85204" lon="3.15936">
        <ele>232.92794799805</ele>
        <time>2016-02-07T10:28:26.000Z</time>
      </trkpt>
      <trkpt lat="46.85205" lon="3.15939">
        <ele>232.90017700195</ele>
        <time>2016-02-07T10:28:28.000Z</time>
      </trkpt>
      <trkpt lat="46.85205" lon="3.15944">
        <ele>232.87228393555</ele>
        <time>2016-02-07T10:28:31.000Z</time>
      </trkpt>
      <trkpt lat="46.85207" lon="3.15946">
        <ele>232.85092163086</ele>
        <time>2016-02-07T10:28:34.000Z</time>
      </trkpt>
      <trkpt lat="46.85206" lon="3.15948">
        <ele>232.83349609375</ele>
        <time>2016-02-07T10:28:41.000Z</time>
      </trkpt>
      <trkpt lat="46.85205" lon="3.15953">
        <ele>232.81307983398</ele>
        <time>2016-02-07T10:28:42.000Z</time>
      </trkpt>
      <trkpt lat="46.85206" lon="3.15958">
        <ele>232.79057312012</ele>
        <time>2016-02-07T10:28:44.000Z</time>
      </trkpt>
      <trkpt lat="46.85205" lon="3.15964">
        <ele>232.76541137695</ele>
        <time>2016-02-07T10:28:48.000Z</time>
      </trkpt>
      <trkpt lat="46.85204" lon="3.15967">
        <ele>232.73458862305</ele>
        <time>2016-02-07T10:28:49.000Z</time>
      </trkpt>
      <trkpt lat="46.85204" lon="3.15972">
        <ele>232.70198059082</ele>
        <time>2016-02-07T10:28:53.000Z</time>
      </trkpt>
      <trkpt lat="46.85205" lon="3.15974">
        <ele>232.67318725586</ele>
        <time>2016-02-07T10:29:10.000Z</time>
      </trkpt>
      <trkpt lat="46.85205" lon="3.15974">
        <ele>232.67318725586</ele>
        <time>2016-02-07T10:29:38.000Z</time>
      </trkpt>
      <trkpt lat="46.85205" lon="3.15976">
        <ele>232.64712524414</ele>
        <time>2016-02-07T10:29:44.000Z</time>
      </trkpt>
      <trkpt lat="46.85204" lon="3.15979">
        <ele>232.6244354248</ele>
        <time>2016-02-07T10:29:45.000Z</time>
      </trkpt>
      <trkpt lat="46.85202" lon="3.15981">
        <ele>232.60237121582</ele>
        <time>2016-02-07T10:29:45.000Z</time>
      </trkpt>
      <trkpt lat="46.85201" lon="3.15982">
        <ele>232.58198547363</ele>
        <time>2016-02-07T10:29:46.000Z</time>
      </trkpt>
      <trkpt lat="46.85197" lon="3.15981">
        <ele>232.55781555176</ele>
        <time>2016-02-07T10:29:46.000Z</time>
      </trkpt>
      <trkpt lat="46.85194" lon="3.15981">
        <ele>232.5327911377</ele>
        <time>2016-02-07T10:29:46.000Z</time>
      </trkpt>
      <trkpt lat="46.85193" lon="3.15978">
        <ele>232.51574707031</ele>
        <time>2016-02-07T10:29:47.000Z</time>
      </trkpt>
      <trkpt lat="46.85192" lon="3.15974">
        <ele>232.50936889648</ele>
        <time>2016-02-07T10:29:49.000Z</time>
      </trkpt>
      <trkpt lat="46.85191" lon="3.15975">
        <ele>232.5032043457</ele>
        <time>2016-02-07T10:29:50.000Z</time>
      </trkpt>
      <trkpt lat="46.85189" lon="3.15976">
        <ele>232.49894714355</ele>
        <time>2016-02-07T10:29:50.000Z</time>
      </trkpt>
      <trkpt lat="46.85186" lon="3.15977">
        <ele>232.49026489258</ele>
        <time>2016-02-07T10:29:50.000Z</time>
      </trkpt>
      <trkpt lat="46.85183" lon="3.15978">
        <ele>232.4723815918</ele>
        <time>2016-02-07T10:29:52.000Z</time>
      </trkpt>
      <trkpt lat="46.85179" lon="3.1598">
        <ele>232.43765258789</ele>
        <time>2016-02-07T10:29:55.000Z</time>
      </trkpt>
      <trkpt lat="46.85176" lon="3.15982">
        <ele>232.39932250977</ele>
        <time>2016-02-07T10:29:57.000Z</time>
      </trkpt>
      <trkpt lat="46.85173" lon="3.15983">
        <ele>232.35470581055</ele>
        <time>2016-02-07T10:30:00.000Z</time>
      </trkpt>
      <trkpt lat="46.85171" lon="3.15983">
        <ele>232.31518554688</ele>
        <time>2016-02-07T10:30:02.000Z</time>
      </trkpt>
      <trkpt lat="46.85168" lon="3.15984">
        <ele>232.27481079102</ele>
        <time>2016-02-07T10:30:05.000Z</time>
      </trkpt>
      <trkpt lat="46.85165" lon="3.15984">
        <ele>232.21755981445</ele>
        <time>2016-02-07T10:30:08.000Z</time>
      </trkpt>
      <trkpt lat="46.85162" lon="3.15987">
        <ele>232.1064453125</ele>
        <time>2016-02-07T10:30:11.000Z</time>
      </trkpt>
      <trkpt lat="46.85158" lon="3.15989">
        <ele>231.94087219238</ele>
        <time>2016-02-07T10:30:14.000Z</time>
      </trkpt>
      <trkpt lat="46.85154" lon="3.15991">
        <ele>231.69795227051</ele>
        <time>2016-02-07T10:30:17.000Z</time>
      </trkpt>
      <trkpt lat="46.85151" lon="3.15993">
        <ele>231.40258789062</ele>
        <time>2016-02-07T10:30:20.000Z</time>
      </trkpt>
      <trkpt lat="46.85148" lon="3.15995">
        <ele>231.08940124512</ele>
        <time>2016-02-07T10:30:23.000Z</time>
      </trkpt>
      <trkpt lat="46.85146" lon="3.15996">
        <ele>230.80810546875</ele>
        <time>2016-02-07T10:30:25.000Z</time>
      </trkpt>
      <trkpt lat="46.85144" lon="3.15998">
        <ele>230.54048156738</ele>
        <time>2016-02-07T10:30:28.000Z</time>
      </trkpt>
      <trkpt lat="46.85142" lon="3.15999">
        <ele>230.31555175781</ele>
        <time>2016-02-07T10:30:30.000Z</time>
      </trkpt>
      <trkpt lat="46.85139" lon="3.16001">
        <ele>230.09048461914</ele>
        <time>2016-02-07T10:30:34.000Z</time>
      </trkpt>
      <trkpt lat="46.85136" lon="3.16003">
        <ele>229.84481811523</ele>
        <time>2016-02-07T10:30:35.000Z</time>
      </trkpt>
      <trkpt lat="46.85133" lon="3.16005">
        <ele>229.5668182373</ele>
        <time>2016-02-07T10:30:39.000Z</time>
      </trkpt>
      <trkpt lat="46.8513" lon="3.16006">
        <ele>229.28202819824</ele>
        <time>2016-02-07T10:30:40.000Z</time>
      </trkpt>
      <trkpt lat="46.85126" lon="3.16008">
        <ele>228.95263671875</ele>
        <time>2016-02-07T10:30:44.000Z</time>
      </trkpt>
      <trkpt lat="46.85123" lon="3.16009">
        <ele>228.63708496094</ele>
        <time>2016-02-07T10:30:45.000Z</time>
      </trkpt>
      <trkpt lat="46.8512" lon="3.16012">
        <ele>228.31283569336</ele>
        <time>2016-02-07T10:30:48.000Z</time>
      </trkpt>
      <trkpt lat="46.85115" lon="3.16013">
        <ele>227.97299194336</ele>
        <time>2016-02-07T10:30:51.000Z</time>
      </trkpt>
      <trkpt lat="46.85114" lon="3.16014">
        <ele>227.66040039062</ele>
        <time>2016-02-07T10:30:53.000Z</time>
      </trkpt>
      <trkpt lat="46.8511" lon="3.16015">
        <ele>227.37051391602</ele>
        <time>2016-02-07T10:30:56.000Z</time>
      </trkpt>
      <trkpt lat="46.85108" lon="3.16017">
        <ele>227.07331848145</ele>
        <time>2016-02-07T10:30:58.000Z</time>
      </trkpt>
      <trkpt lat="46.85104" lon="3.16018">
        <ele>226.78178405762</ele>
        <time>2016-02-07T10:31:02.000Z</time>
      </trkpt>
      <trkpt lat="46.85102" lon="3.16019">
        <ele>226.52737426758</ele>
        <time>2016-02-07T10:31:03.000Z</time>
      </trkpt>
      <trkpt lat="46.85098" lon="3.16021">
        <ele>226.23376464844</ele>
        <time>2016-02-07T10:31:06.000Z</time>
      </trkpt>
      <trkpt lat="46.85094" lon="3.16024">
        <ele>225.92045593262</ele>
        <time>2016-02-07T10:31:09.000Z</time>
      </trkpt>
      <trkpt lat="46.85092" lon="3.16026">
        <ele>225.61703491211</ele>
        <time>2016-02-07T10:31:11.000Z</time>
      </trkpt>
      <trkpt lat="46.85088" lon="3.16031">
        <ele>225.30644226074</ele>
        <time>2016-02-07T10:31:14.000Z</time>
      </trkpt>
      <trkpt lat="46.85085" lon="3.16034">
        <ele>224.97587585449</ele>
        <time>2016-02-07T10:31:17.000Z</time>
      </trkpt>
      <trkpt lat="46.85081" lon="3.16037">
        <ele>224.6634979248</ele>
        <time>2016-02-07T10:31:20.000Z</time>
      </trkpt>
      <trkpt lat="46.85079" lon="3.16039">
        <ele>224.41511535645</ele>
        <time>2016-02-07T10:31:22.000Z</time>
      </trkpt>
      <trkpt lat="46.85075" lon="3.16043">
        <ele>224.18490600586</ele>
        <time>2016-02-07T10:31:25.000Z</time>
      </trkpt>
      <trkpt lat="46.85073" lon="3.16045">
        <ele>224.01937866211</ele>
        <time>2016-02-07T10:31:27.000Z</time>
      </trkpt>
      <trkpt lat="46.85072" lon="3.16048">
        <ele>223.89877319336</ele>
        <time>2016-02-07T10:31:31.000Z</time>
      </trkpt>
      <trkpt lat="46.85069" lon="3.1605">
        <ele>223.81735229492</ele>
        <time>2016-02-07T10:31:32.000Z</time>
      </trkpt>
      <trkpt lat="46.85066" lon="3.16052">
        <ele>223.73706054688</ele>
        <time>2016-02-07T10:31:36.000Z</time>
      </trkpt>
      <trkpt lat="46.85064" lon="3.16053">
        <ele>223.67253112793</ele>
        <time>2016-02-07T10:31:37.000Z</time>
      </trkpt>
      <trkpt lat="46.85061" lon="3.16056">
        <ele>223.60607910156</ele>
        <time>2016-02-07T10:31:40.000Z</time>
      </trkpt>
      <trkpt lat="46.85058" lon="3.16059">
        <ele>223.54061889648</ele>
        <time>2016-02-07T10:31:43.000Z</time>
      </trkpt>
      <trkpt lat="46.85055" lon="3.16061">
        <ele>223.47885131836</ele>
        <time>2016-02-07T10:31:48.000Z</time>
      </trkpt>
      <trkpt lat="46.85053" lon="3.16063">
        <ele>223.42208862305</ele>
        <time>2016-02-07T10:31:48.000Z</time>
      </trkpt>
      <trkpt lat="46.8505" lon="3.16067">
        <ele>223.35847473145</ele>
        <time>2016-02-07T10:31:51.000Z</time>
      </trkpt>
      <trkpt lat="46.85047" lon="3.1607">
        <ele>223.2982635498</ele>
        <time>2016-02-07T10:31:54.000Z</time>
      </trkpt>
      <trkpt lat="46.85044" lon="3.16073">
        <ele>223.2425994873</ele>
        <time>2016-02-07T10:31:58.000Z</time>
      </trkpt>
      <trkpt lat="46.85041" lon="3.16075">
        <ele>223.19006347656</ele>
        <time>2016-02-07T10:31:59.000Z</time>
      </trkpt>
      <trkpt lat="46.85038" lon="3.16079">
        <ele>223.1371307373</ele>
        <time>2016-02-07T10:32:02.000Z</time>
      </trkpt>
      <trkpt lat="46.85035" lon="3.16084">
        <ele>223.08996582031</ele>
        <time>2016-02-07T10:32:05.000Z</time>
      </trkpt>
      <trkpt lat="46.85033" lon="3.16086">
        <ele>223.05041503906</ele>
        <time>2016-02-07T10:32:07.000Z</time>
      </trkpt>
      <trkpt lat="46.8503" lon="3.16091">
        <ele>223.01321411133</ele>
        <time>2016-02-07T10:32:10.000Z</time>
      </trkpt>
      <trkpt lat="46.85028" lon="3.16094">
        <ele>222.97732543945</ele>
        <time>2016-02-07T10:32:12.000Z</time>
      </trkpt>
      <trkpt lat="46.85025" lon="3.16098">
        <ele>222.94319152832</ele>
        <time>2016-02-07T10:32:15.000Z</time>
      </trkpt>
      <trkpt lat="46.85022" lon="3.16101">
        <ele>222.91191101074</ele>
        <time>2016-02-07T10:32:18.000Z</time>
      </trkpt>
      <trkpt lat="46.85019" lon="3.16104">
        <ele>222.87808227539</ele>
        <time>2016-02-07T10:32:20.000Z</time>
      </trkpt>
      <trkpt lat="46.85017" lon="3.16106">
        <ele>222.84704589844</ele>
        <time>2016-02-07T10:32:22.000Z</time>
      </trkpt>
      <trkpt lat="46.85014" lon="3.16109">
        <ele>222.81161499023</ele>
        <time>2016-02-07T10:32:26.000Z</time>
      </trkpt>
      <trkpt lat="46.85012" lon="3.16112">
        <ele>222.77767944336</ele>
        <time>2016-02-07T10:32:27.000Z</time>
      </trkpt>
      <trkpt lat="46.8501" lon="3.16115">
        <ele>222.74374389648</ele>
        <time>2016-02-07T10:32:29.000Z</time>
      </trkpt>
      <trkpt lat="46.85007" lon="3.16119">
        <ele>222.70446777344</ele>
        <time>2016-02-07T10:32:32.000Z</time>
      </trkpt>
      <trkpt lat="46.85005" lon="3.16122">
        <ele>222.66067504883</ele>
        <time>2016-02-07T10:32:34.000Z</time>
      </trkpt>
      <trkpt lat="46.85003" lon="3.16127">
        <ele>222.61169433594</ele>
        <time>2016-02-07T10:32:38.000Z</time>
      </trkpt>
      <trkpt lat="46.85" lon="3.16129">
        <ele>222.5598449707</ele>
        <time>2016-02-07T10:32:39.000Z</time>
      </trkpt>
      <trkpt lat="46.84997" lon="3.16133">
        <ele>222.5277557373</ele>
        <time>2016-02-07T10:32:43.000Z</time>
      </trkpt>
      <trkpt lat="46.84995" lon="3.16135">
        <ele>222.51821899414</ele>
        <time>2016-02-07T10:32:44.000Z</time>
      </trkpt>
      <trkpt lat="46.84992" lon="3.16139">
        <ele>222.53256225586</ele>
        <time>2016-02-07T10:32:47.000Z</time>
      </trkpt>
      <trkpt lat="46.8499" lon="3.16142">
        <ele>222.57963562012</ele>
        <time>2016-02-07T10:32:50.000Z</time>
      </trkpt>
      <trkpt lat="46.84988" lon="3.16143">
        <ele>222.64726257324</ele>
        <time>2016-02-07T10:32:52.000Z</time>
      </trkpt>
      <trkpt lat="46.84985" lon="3.16146">
        <ele>222.72456359863</ele>
        <time>2016-02-07T10:32:55.000Z</time>
      </trkpt>
      <trkpt lat="46.84982" lon="3.16149">
        <ele>222.80781555176</ele>
        <time>2016-02-07T10:32:57.000Z</time>
      </trkpt>
      <trkpt lat="46.84978" lon="3.16152">
        <ele>222.90396118164</ele>
        <time>2016-02-07T10:33:01.000Z</time>
      </trkpt>
      <trkpt lat="46.84977" lon="3.16154">
        <ele>222.99795532227</ele>
        <time>2016-02-07T10:33:02.000Z</time>
      </trkpt>
      <trkpt lat="46.84973" lon="3.16157">
        <ele>223.10615539551</ele>
        <time>2016-02-07T10:33:05.000Z</time>
      </trkpt>
      <trkpt lat="46.84969" lon="3.1616">
        <ele>223.22375488281</ele>
        <time>2016-02-07T10:33:08.000Z</time>
      </trkpt>
      <trkpt lat="46.84968" lon="3.16162">
        <ele>223.33850097656</ele>
        <time>2016-02-07T10:33:10.000Z</time>
      </trkpt>
      <trkpt lat="46.84965" lon="3.16166">
        <ele>223.45059204102</ele>
        <time>2016-02-07T10:33:13.000Z</time>
      </trkpt>
      <trkpt lat="46.84961" lon="3.16168">
        <ele>223.58769226074</ele>
        <time>2016-02-07T10:33:16.000Z</time>
      </trkpt>
      <trkpt lat="46.84958" lon="3.16171">
        <ele>223.7329864502</ele>
        <time>2016-02-07T10:33:19.000Z</time>
      </trkpt>
      <trkpt lat="46.84956" lon="3.16172">
        <ele>223.86401367188</ele>
        <time>2016-02-07T10:33:21.000Z</time>
      </trkpt>
      <trkpt lat="46.84954" lon="3.16175">
        <ele>224.00727844238</ele>
        <time>2016-02-07T10:33:24.000Z</time>
      </trkpt>
      <trkpt lat="46.84951" lon="3.16177">
        <ele>224.15029907227</ele>
        <time>2016-02-07T10:33:26.000Z</time>
      </trkpt>
      <trkpt lat="46.84947" lon="3.1618">
        <ele>224.29281616211</ele>
        <time>2016-02-07T10:33:30.000Z</time>
      </trkpt>
      <trkpt lat="46.84945" lon="3.16182">
        <ele>224.41813659668</ele>
        <time>2016-02-07T10:33:31.000Z</time>
      </trkpt>
      <trkpt lat="46.84941" lon="3.16186">
        <ele>224.56619262695</ele>
        <time>2016-02-07T10:33:34.000Z</time>
      </trkpt>
      <trkpt lat="46.84938" lon="3.16189">
        <ele>224.7155456543</ele>
        <time>2016-02-07T10:33:37.000Z</time>
      </trkpt>
      <trkpt lat="46.84937" lon="3.1619">
        <ele>224.85913085938</ele>
        <time>2016-02-07T10:33:39.000Z</time>
      </trkpt>
      <trkpt lat="46.84933" lon="3.16194">
        <ele>224.99291992188</ele>
        <time>2016-02-07T10:33:42.000Z</time>
      </trkpt>
      <trkpt lat="46.84929" lon="3.16198">
        <ele>225.14726257324</ele>
        <time>2016-02-07T10:33:45.000Z</time>
      </trkpt>
      <trkpt lat="46.84925" lon="3.16201">
        <ele>225.2946472168</ele>
        <time>2016-02-07T10:33:48.000Z</time>
      </trkpt>
      <trkpt lat="46.84924" lon="3.16203">
        <ele>225.4323425293</ele>
        <time>2016-02-07T10:33:50.000Z</time>
      </trkpt>
      <trkpt lat="46.8492" lon="3.16206">
        <ele>225.57914733887</ele>
        <time>2016-02-07T10:33:54.000Z</time>
      </trkpt>
      <trkpt lat="46.84918" lon="3.16208">
        <ele>225.71244812012</ele>
        <time>2016-02-07T10:33:55.000Z</time>
      </trkpt>
      <trkpt lat="46.84915" lon="3.16211">
        <ele>225.82382202148</ele>
        <time>2016-02-07T10:33:58.000Z</time>
      </trkpt>
      <trkpt lat="46.84911" lon="3.16214">
        <ele>225.90812683105</ele>
        <time>2016-02-07T10:34:01.000Z</time>
      </trkpt>
      <trkpt lat="46.84908" lon="3.16216">
        <ele>225.97830200195</ele>
        <time>2016-02-07T10:34:04.000Z</time>
      </trkpt>
      <trkpt lat="46.84906" lon="3.16217">
        <ele>226.02346801758</ele>
        <time>2016-02-07T10:34:06.000Z</time>
      </trkpt>
      <trkpt lat="46.84906" lon="3.16218">
        <ele>226.05282592773</ele>
        <time>2016-02-07T10:34:10.000Z</time>
      </trkpt>
      <trkpt lat="46.84904" lon="3.16219">
        <ele>226.06929016113</ele>
        <time>2016-02-07T10:34:11.000Z</time>
      </trkpt>
      <trkpt lat="46.84902" lon="3.16221">
        <ele>226.083984375</ele>
        <time>2016-02-07T10:34:13.000Z</time>
      </trkpt>
      <trkpt lat="46.84899" lon="3.16224">
        <ele>226.10214233398</ele>
        <time>2016-02-07T10:34:16.000Z</time>
      </trkpt>
      <trkpt lat="46.84895" lon="3.16227">
        <ele>226.12397766113</ele>
        <time>2016-02-07T10:34:19.000Z</time>
      </trkpt>
      <trkpt lat="46.84894" lon="3.16228">
        <ele>226.1480255127</ele>
        <time>2016-02-07T10:34:21.000Z</time>
      </trkpt>
      <trkpt lat="46.84892" lon="3.1623">
        <ele>226.17529296875</ele>
        <time>2016-02-07T10:34:23.000Z</time>
      </trkpt>
      <trkpt lat="46.84888" lon="3.16232">
        <ele>226.20671081543</ele>
        <time>2016-02-07T10:34:26.000Z</time>
      </trkpt>
      <trkpt lat="46.84884" lon="3.16234">
        <ele>226.24067687988</ele>
        <time>2016-02-07T10:34:29.000Z</time>
      </trkpt>
      <trkpt lat="46.8488" lon="3.16236">
        <ele>226.27690124512</ele>
        <time>2016-02-07T10:34:32.000Z</time>
      </trkpt>
      <trkpt lat="46.84877" lon="3.16238">
        <ele>226.31716918945</ele>
        <time>2016-02-07T10:34:35.000Z</time>
      </trkpt>
      <trkpt lat="46.84874" lon="3.16241">
        <ele>226.36364746094</ele>
        <time>2016-02-07T10:34:38.000Z</time>
      </trkpt>
      <trkpt lat="46.84869" lon="3.16242">
        <ele>226.41369628906</ele>
        <time>2016-02-07T10:34:42.000Z</time>
      </trkpt>
      <trkpt lat="46.84867" lon="3.16243">
        <ele>226.45890808105</ele>
        <time>2016-02-07T10:34:43.000Z</time>
      </trkpt>
      <trkpt lat="46.84863" lon="3.16246">
        <ele>226.50788879395</ele>
        <time>2016-02-07T10:34:46.000Z</time>
      </trkpt>
      <trkpt lat="46.84859" lon="3.16248">
        <ele>226.56240844727</ele>
        <time>2016-02-07T10:34:49.000Z</time>
      </trkpt>
      <trkpt lat="46.84857" lon="3.16249">
        <ele>226.61222839355</ele>
        <time>2016-02-07T10:34:51.000Z</time>
      </trkpt>
      <trkpt lat="46.84853" lon="3.16251">
        <ele>226.66311645508</ele>
        <time>2016-02-07T10:34:54.000Z</time>
      </trkpt>
      <trkpt lat="46.84851" lon="3.16253">
        <ele>226.71948242188</ele>
        <time>2016-02-07T10:34:56.000Z</time>
      </trkpt>
      <trkpt lat="46.84847" lon="3.16255">
        <ele>226.77714538574</ele>
        <time>2016-02-07T10:34:59.000Z</time>
      </trkpt>
      <trkpt lat="46.84844" lon="3.16256">
        <ele>226.83171081543</ele>
        <time>2016-02-07T10:35:01.000Z</time>
      </trkpt>
      <trkpt lat="46.84841" lon="3.16257">
        <ele>226.88696289062</ele>
        <time>2016-02-07T10:35:05.000Z</time>
      </trkpt>
      <trkpt lat="46.84839" lon="3.16258">
        <ele>226.93786621094</ele>
        <time>2016-02-07T10:35:06.000Z</time>
      </trkpt>
      <trkpt lat="46.84837" lon="3.16259">
        <ele>226.98530578613</ele>
        <time>2016-02-07T10:35:10.000Z</time>
      </trkpt>
      <trkpt lat="46.84834" lon="3.16259">
        <ele>227.02587890625</ele>
        <time>2016-02-07T10:35:11.000Z</time>
      </trkpt>
      <trkpt lat="46.84833" lon="3.1626">
        <ele>227.06076049805</ele>
        <time>2016-02-07T10:35:13.000Z</time>
      </trkpt>
      <trkpt lat="46.8483" lon="3.1626">
        <ele>227.09603881836</ele>
        <time>2016-02-07T10:35:17.000Z</time>
      </trkpt>
      <trkpt lat="46.84827" lon="3.16261">
        <ele>227.13346862793</ele>
        <time>2016-02-07T10:35:18.000Z</time>
      </trkpt>
      <trkpt lat="46.84825" lon="3.16261">
        <ele>227.169921875</ele>
        <time>2016-02-07T10:35:20.000Z</time>
      </trkpt>
      <trkpt lat="46.84822" lon="3.16262">
        <ele>227.21049499512</ele>
        <time>2016-02-07T10:35:23.000Z</time>
      </trkpt>
      <trkpt lat="46.84818" lon="3.16263">
        <ele>227.25924682617</ele>
        <time>2016-02-07T10:35:26.000Z</time>
      </trkpt>
      <trkpt lat="46.84815" lon="3.16265">
        <ele>227.31259155273</ele>
        <time>2016-02-07T10:35:29.000Z</time>
      </trkpt>
      <trkpt lat="46.84813" lon="3.16266">
        <ele>227.36791992188</ele>
        <time>2016-02-07T10:35:31.000Z</time>
      </trkpt>
      <trkpt lat="46.8481" lon="3.16268">
        <ele>227.43026733398</ele>
        <time>2016-02-07T10:35:34.000Z</time>
      </trkpt>
      <trkpt lat="46.84807" lon="3.16269">
        <ele>227.49435424805</ele>
        <time>2016-02-07T10:35:36.000Z</time>
      </trkpt>
      <trkpt lat="46.84804" lon="3.1627">
        <ele>227.55551147461</ele>
        <time>2016-02-07T10:35:38.000Z</time>
      </trkpt>
      <trkpt lat="46.848" lon="3.16271">
        <ele>227.61906433105</ele>
        <time>2016-02-07T10:35:40.000Z</time>
      </trkpt>
      <trkpt lat="46.84798" lon="3.16274">
        <ele>227.68826293945</ele>
        <time>2016-02-07T10:35:43.000Z</time>
      </trkpt>
      <trkpt lat="46.84793" lon="3.16277">
        <ele>227.76821899414</ele>
        <time>2016-02-07T10:35:46.000Z</time>
      </trkpt>
      <trkpt lat="46.8479" lon="3.16278">
        <ele>227.85110473633</ele>
        <time>2016-02-07T10:35:48.000Z</time>
      </trkpt>
      <trkpt lat="46.84786" lon="3.1628">
        <ele>227.94306945801</ele>
        <time>2016-02-07T10:35:52.000Z</time>
      </trkpt>
      <trkpt lat="46.84784" lon="3.16282">
        <ele>228.03430175781</ele>
        <time>2016-02-07T10:35:53.000Z</time>
      </trkpt>
      <trkpt lat="46.84781" lon="3.16283">
        <ele>228.12094116211</ele>
        <time>2016-02-07T10:35:55.000Z</time>
      </trkpt>
      <trkpt lat="46.84778" lon="3.16285">
        <ele>228.20166015625</ele>
        <time>2016-02-07T10:35:57.000Z</time>
      </trkpt>
      <trkpt lat="46.84774" lon="3.16286">
        <ele>228.28401184082</ele>
        <time>2016-02-07T10:35:59.000Z</time>
      </trkpt>
      <trkpt lat="46.84769" lon="3.16291">
        <ele>228.38772583008</ele>
        <time>2016-02-07T10:36:03.000Z</time>
      </trkpt>
      <trkpt lat="46.84766" lon="3.16293">
        <ele>228.49475097656</ele>
        <time>2016-02-07T10:36:04.000Z</time>
      </trkpt>
      <trkpt lat="46.84763" lon="3.16295">
        <ele>228.6071472168</ele>
        <time>2016-02-07T10:36:08.000Z</time>
      </trkpt>
      <trkpt lat="46.8476" lon="3.16299">
        <ele>228.73359680176</ele>
        <time>2016-02-07T10:36:09.000Z</time>
      </trkpt>
      <trkpt lat="46.84756" lon="3.16301">
        <ele>228.86238098145</ele>
        <time>2016-02-07T10:36:12.000Z</time>
      </trkpt>
      <trkpt lat="46.84755" lon="3.163">
        <ele>228.95175170898</ele>
        <time>2016-02-07T10:36:15.000Z</time>
      </trkpt>
      <trkpt lat="46.84755" lon="3.16298">
        <ele>229.01443481445</ele>
        <time>2016-02-07T10:36:32.000Z</time>
      </trkpt>
      <trkpt lat="46.84755" lon="3.16297">
        <ele>229.05595397949</ele>
        <time>2016-02-07T10:36:43.000Z</time>
      </trkpt>
      <trkpt lat="46.84754" lon="3.16298">
        <ele>229.07534790039</ele>
        <time>2016-02-07T10:36:52.000Z</time>
      </trkpt>
      <trkpt lat="46.84752" lon="3.16299">
        <ele>229.08638000488</ele>
        <time>2016-02-07T10:36:55.000Z</time>
      </trkpt>
      <trkpt lat="46.84751" lon="3.163">
        <ele>229.10237121582</ele>
        <time>2016-02-07T10:36:55.000Z</time>
      </trkpt>
      <trkpt lat="46.8475" lon="3.16301">
        <ele>229.13386535645</ele>
        <time>2016-02-07T10:37:14.000Z</time>
      </trkpt>
      <trkpt lat="46.84747" lon="3.16302">
        <ele>229.16938781738</ele>
        <time>2016-02-07T10:37:19.000Z</time>
      </trkpt>
      <trkpt lat="46.84744" lon="3.16302">
        <ele>229.19186401367</ele>
        <time>2016-02-07T10:37:19.000Z</time>
      </trkpt>
      <trkpt lat="46.84741" lon="3.16302">
        <ele>229.19833374023</ele>
        <time>2016-02-07T10:37:21.000Z</time>
      </trkpt>
      <trkpt lat="46.8474" lon="3.16303">
        <ele>229.20097351074</ele>
        <time>2016-02-07T10:37:23.000Z</time>
      </trkpt>
      <trkpt lat="46.84737" lon="3.16305">
        <ele>229.20138549805</ele>
        <time>2016-02-07T10:37:26.000Z</time>
      </trkpt>
      <trkpt lat="46.84735" lon="3.16305">
        <ele>229.19731140137</ele>
        <time>2016-02-07T10:37:30.000Z</time>
      </trkpt>
      <trkpt lat="46.84735" lon="3.16305">
        <ele>229.19815063477</ele>
        <time>2016-02-07T10:37:35.000Z</time>
      </trkpt>
      <trkpt lat="46.84734" lon="3.16306">
        <ele>229.20356750488</ele>
        <time>2016-02-07T10:37:36.000Z</time>
      </trkpt>
      <trkpt lat="46.84732" lon="3.16307">
        <ele>229.20971679688</ele>
        <time>2016-02-07T10:37:39.000Z</time>
      </trkpt>
      <trkpt lat="46.84732" lon="3.16308">
        <ele>229.21723937988</ele>
        <time>2016-02-07T10:37:41.000Z</time>
      </trkpt>
      <trkpt lat="46.84732" lon="3.16314">
        <ele>229.25019836426</ele>
        <time>2016-02-07T10:37:44.000Z</time>
      </trkpt>
      <trkpt lat="46.84732" lon="3.16316">
        <ele>229.29374694824</ele>
        <time>2016-02-07T10:37:46.000Z</time>
      </trkpt>
      <trkpt lat="46.84732" lon="3.16322">
        <ele>229.35952758789</ele>
        <time>2016-02-07T10:37:49.000Z</time>
      </trkpt>
      <trkpt lat="46.84731" lon="3.16327">
        <ele>229.44506835938</ele>
        <time>2016-02-07T10:37:52.000Z</time>
      </trkpt>
      <trkpt lat="46.84732" lon="3.16331">
        <ele>229.54379272461</ele>
        <time>2016-02-07T10:37:55.000Z</time>
      </trkpt>
      <trkpt lat="46.84733" lon="3.16334">
        <ele>229.62948608398</ele>
        <time>2016-02-07T10:37:58.000Z</time>
      </trkpt>
      <trkpt lat="46.84734" lon="3.16339">
        <ele>229.70593261719</ele>
        <time>2016-02-07T10:38:00.000Z</time>
      </trkpt>
      <trkpt lat="46.84735" lon="3.16343">
        <ele>229.76171875</ele>
        <time>2016-02-07T10:38:02.000Z</time>
      </trkpt>
      <trkpt lat="46.84736" lon="3.16348">
        <ele>229.79794311523</ele>
        <time>2016-02-07T10:38:05.000Z</time>
      </trkpt>
      <trkpt lat="46.84737" lon="3.16352">
        <ele>229.8173828125</ele>
        <time>2016-02-07T10:38:08.000Z</time>
      </trkpt>
      <trkpt lat="46.84737" lon="3.16357">
        <ele>229.8271484375</ele>
        <time>2016-02-07T10:38:11.000Z</time>
      </trkpt>
      <trkpt lat="46.84738" lon="3.16362">
        <ele>229.8369140625</ele>
        <time>2016-02-07T10:38:14.000Z</time>
      </trkpt>
      <trkpt lat="46.84738" lon="3.16365">
        <ele>229.8447265625</ele>
        <time>2016-02-07T10:38:16.000Z</time>
      </trkpt>
      <trkpt lat="46.84739" lon="3.16369">
        <ele>229.8515625</ele>
        <time>2016-02-07T10:38:20.000Z</time>
      </trkpt>
      <trkpt lat="46.84739" lon="3.16372">
        <ele>229.857421875</ele>
        <time>2016-02-07T10:38:21.000Z</time>
      </trkpt>
      <trkpt lat="46.8474" lon="3.16377">
        <ele>229.865234375</ele>
        <time>2016-02-07T10:38:24.000Z</time>
      </trkpt>
      <trkpt lat="46.84742" lon="3.16382">
        <ele>229.8740234375</ele>
        <time>2016-02-07T10:38:27.000Z</time>
      </trkpt>
      <trkpt lat="46.84743" lon="3.16388">
        <ele>229.88671875</ele>
        <time>2016-02-07T10:38:30.000Z</time>
      </trkpt>
      <trkpt lat="46.84743" lon="3.16392">
        <ele>229.8984375</ele>
        <time>2016-02-07T10:38:32.000Z</time>
      </trkpt>
      <trkpt lat="46.84745" lon="3.16396">
        <ele>229.9111328125</ele>
        <time>2016-02-07T10:38:34.000Z</time>
      </trkpt>
      <trkpt lat="46.84745" lon="3.16402">
        <ele>229.921875</ele>
        <time>2016-02-07T10:38:36.000Z</time>
      </trkpt>
      <trkpt lat="46.84745" lon="3.16408">
        <ele>229.9296875</ele>
        <time>2016-02-07T10:38:39.000Z</time>
      </trkpt>
      <trkpt lat="46.84746" lon="3.16411">
        <ele>229.935546875</ele>
        <time>2016-02-07T10:38:41.000Z</time>
      </trkpt>
      <trkpt lat="46.84748" lon="3.16415">
        <ele>229.9462890625</ele>
        <time>2016-02-07T10:38:44.000Z</time>
      </trkpt>
      <trkpt lat="46.84749" lon="3.1642">
        <ele>229.98164367676</ele>
        <time>2016-02-07T10:38:47.000Z</time>
      </trkpt>
      <trkpt lat="46.8475" lon="3.16425">
        <ele>230.05447387695</ele>
        <time>2016-02-07T10:38:50.000Z</time>
      </trkpt>
      <trkpt lat="46.8475" lon="3.1643">
        <ele>230.16474914551</ele>
        <time>2016-02-07T10:38:53.000Z</time>
      </trkpt>
      <trkpt lat="46.8475" lon="3.16433">
        <ele>230.29484558105</ele>
        <time>2016-02-07T10:38:55.000Z</time>
      </trkpt>
      <trkpt lat="46.8475" lon="3.16437">
        <ele>230.44320678711</ele>
        <time>2016-02-07T10:38:57.000Z</time>
      </trkpt>
      <trkpt lat="46.84751" lon="3.16443">
        <ele>230.60903930664</ele>
        <time>2016-02-07T10:39:00.000Z</time>
      </trkpt>
      <trkpt lat="46.84751" lon="3.16448">
        <ele>230.77334594727</ele>
        <time>2016-02-07T10:39:03.000Z</time>
      </trkpt>
      <trkpt lat="46.84752" lon="3.16451">
        <ele>230.9243927002</ele>
        <time>2016-02-07T10:39:06.000Z</time>
      </trkpt>
      <trkpt lat="46.84752" lon="3.16449">
        <ele>231.03413391113</ele>
        <time>2016-02-07T10:39:20.000Z</time>
      </trkpt>
      <trkpt lat="46.84752" lon="3.16449">
        <ele>231.03413391113</ele>
        <time>2016-02-07T10:39:41.000Z</time>
      </trkpt>
      <trkpt lat="46.84752" lon="3.16448">
        <ele>231.11245727539</ele>
        <time>2016-02-07T10:39:45.000Z</time>
      </trkpt>
      <trkpt lat="46.84753" lon="3.1645">
        <ele>231.16325378418</ele>
        <time>2016-02-07T10:39:47.000Z</time>
      </trkpt>
      <trkpt lat="46.84753" lon="3.16452">
        <ele>231.18887329102</ele>
        <time>2016-02-07T10:39:49.000Z</time>
      </trkpt>
      <trkpt lat="46.84754" lon="3.16454">
        <ele>231.20365905762</ele>
        <time>2016-02-07T10:39:56.000Z</time>
      </trkpt>
      <trkpt lat="46.84755" lon="3.16459">
        <ele>231.27182006836</ele>
        <time>2016-02-07T10:39:59.000Z</time>
      </trkpt>
      <trkpt lat="46.84755" lon="3.16465">
        <ele>231.39018249512</ele>
        <time>2016-02-07T10:40:03.000Z</time>
      </trkpt>
      <trkpt lat="46.84756" lon="3.16468">
        <ele>231.51473999023</ele>
        <time>2016-02-07T10:40:04.000Z</time>
      </trkpt>
      <trkpt lat="46.84756" lon="3.16474">
        <ele>231.66401672363</ele>
        <time>2016-02-07T10:40:07.000Z</time>
      </trkpt>
      <trkpt lat="46.84758" lon="3.16478">
        <ele>231.82978820801</ele>
        <time>2016-02-07T10:40:10.000Z</time>
      </trkpt>
      <trkpt lat="46.84758" lon="3.16483">
        <ele>231.99311828613</ele>
        <time>2016-02-07T10:40:13.000Z</time>
      </trkpt>
      <trkpt lat="46.84758" lon="3.16486">
        <ele>232.13557434082</ele>
        <time>2016-02-07T10:40:15.000Z</time>
      </trkpt>
      <trkpt lat="46.84758" lon="3.1649">
        <ele>232.28182983398</ele>
        <time>2016-02-07T10:40:18.000Z</time>
      </trkpt>
      <trkpt lat="46.84758" lon="3.16494">
        <ele>232.4211730957</ele>
        <time>2016-02-07T10:40:21.000Z</time>
      </trkpt>
      <trkpt lat="46.84758" lon="3.16499">
        <ele>232.56460571289</ele>
        <time>2016-02-07T10:40:24.000Z</time>
      </trkpt>
      <trkpt lat="46.84758" lon="3.16503">
        <ele>232.69839477539</ele>
        <time>2016-02-07T10:40:26.000Z</time>
      </trkpt>
      <trkpt lat="46.84759" lon="3.16507">
        <ele>232.82760620117</ele>
        <time>2016-02-07T10:40:29.000Z</time>
      </trkpt>
      <trkpt lat="46.8476" lon="3.1651">
        <ele>232.94079589844</ele>
        <time>2016-02-07T10:40:32.000Z</time>
      </trkpt>
      <trkpt lat="46.8476" lon="3.16513">
        <ele>233.03430175781</ele>
        <time>2016-02-07T10:40:34.000Z</time>
      </trkpt>
      <trkpt lat="46.84762" lon="3.16517">
        <ele>233.10739135742</ele>
        <time>2016-02-07T10:40:38.000Z</time>
      </trkpt>
      <trkpt lat="46.84763" lon="3.16519">
        <ele>233.16865539551</ele>
        <time>2016-02-07T10:40:39.000Z</time>
      </trkpt>
      <trkpt lat="46.84763" lon="3.16523">
        <ele>233.22860717773</ele>
        <time>2016-02-07T10:40:43.000Z</time>
      </trkpt>
      <trkpt lat="46.84764" lon="3.16528">
        <ele>233.29418945312</ele>
        <time>2016-02-07T10:40:44.000Z</time>
      </trkpt>
      <trkpt lat="46.84765" lon="3.16531">
        <ele>233.36279296875</ele>
        <time>2016-02-07T10:40:46.000Z</time>
      </trkpt>
      <trkpt lat="46.84765" lon="3.16535">
        <ele>233.43395996094</ele>
        <time>2016-02-07T10:40:49.000Z</time>
      </trkpt>
      <trkpt lat="46.84767" lon="3.1654">
        <ele>233.51062011719</ele>
        <time>2016-02-07T10:40:52.000Z</time>
      </trkpt>
      <trkpt lat="46.84768" lon="3.16543">
        <ele>233.58195495605</ele>
        <time>2016-02-07T10:40:55.000Z</time>
      </trkpt>
      <trkpt lat="46.84768" lon="3.16547">
        <ele>233.65461730957</ele>
        <time>2016-02-07T10:40:58.000Z</time>
      </trkpt>
      <trkpt lat="46.84768" lon="3.16552">
        <ele>233.73710632324</ele>
        <time>2016-02-07T10:41:01.000Z</time>
      </trkpt>
      <trkpt lat="46.84768" lon="3.16554">
        <ele>233.80888366699</ele>
        <time>2016-02-07T10:41:03.000Z</time>
      </trkpt>
      <trkpt lat="46.84768" lon="3.16555">
        <ele>233.87019348145</ele>
        <time>2016-02-07T10:41:11.000Z</time>
      </trkpt>
      <trkpt lat="46.84768" lon="3.1656">
        <ele>233.94160461426</ele>
        <time>2016-02-07T10:41:15.000Z</time>
      </trkpt>
      <trkpt lat="46.84768" lon="3.16563">
        <ele>234.00703430176</ele>
        <time>2016-02-07T10:41:16.000Z</time>
      </trkpt>
      <trkpt lat="46.84768" lon="3.16565">
        <ele>234.05819702148</ele>
        <time>2016-02-07T10:41:18.000Z</time>
      </trkpt>
      <trkpt lat="46.84767" lon="3.16567">
        <ele>234.11706542969</ele>
        <time>2016-02-07T10:41:21.000Z</time>
      </trkpt>
      <trkpt lat="46.84766" lon="3.16572">
        <ele>234.19580078125</ele>
        <time>2016-02-07T10:41:25.000Z</time>
      </trkpt>
      <trkpt lat="46.84765" lon="3.16576">
        <ele>234.2763671875</ele>
        <time>2016-02-07T10:41:26.000Z</time>
      </trkpt>
      <trkpt lat="46.84764" lon="3.1658">
        <ele>234.36808776855</ele>
        <time>2016-02-07T10:41:29.000Z</time>
      </trkpt>
      <trkpt lat="46.84764" lon="3.16584">
        <ele>234.46926879883</ele>
        <time>2016-02-07T10:41:32.000Z</time>
      </trkpt>
      <trkpt lat="46.84763" lon="3.16588">
        <ele>234.58163452148</ele>
        <time>2016-02-07T10:41:36.000Z</time>
      </trkpt>
      <trkpt lat="46.84763" lon="3.1659">
        <ele>234.68222045898</ele>
        <time>2016-02-07T10:41:37.000Z</time>
      </trkpt>
      <trkpt lat="46.84761" lon="3.16595">
        <ele>234.78796386719</ele>
        <time>2016-02-07T10:41:40.000Z</time>
      </trkpt>
      <trkpt lat="46.8476" lon="3.16599">
        <ele>234.89929199219</ele>
        <time>2016-02-07T10:41:43.000Z</time>
      </trkpt>
      <trkpt lat="46.84759" lon="3.16603">
        <ele>235.01708984375</ele>
        <time>2016-02-07T10:41:45.000Z</time>
      </trkpt>
      <trkpt lat="46.84758" lon="3.16607">
        <ele>235.13464355469</ele>
        <time>2016-02-07T10:41:48.000Z</time>
      </trkpt>
      <trkpt lat="46.84757" lon="3.16611">
        <ele>235.26220703125</ele>
        <time>2016-02-07T10:41:51.000Z</time>
      </trkpt>
      <trkpt lat="46.84757" lon="3.16616">
        <ele>235.38745117188</ele>
        <time>2016-02-07T10:41:53.000Z</time>
      </trkpt>
      <trkpt lat="46.84757" lon="3.1662">
        <ele>235.50024414062</ele>
        <time>2016-02-07T10:41:55.000Z</time>
      </trkpt>
      <trkpt lat="46.84756" lon="3.16624">
        <ele>235.61547851562</ele>
        <time>2016-02-07T10:41:58.000Z</time>
      </trkpt>
      <trkpt lat="46.84755" lon="3.16627">
        <ele>235.72644042969</ele>
        <time>2016-02-07T10:42:00.000Z</time>
      </trkpt>
      <trkpt lat="46.84754" lon="3.16631">
        <ele>235.83642578125</ele>
        <time>2016-02-07T10:42:04.000Z</time>
      </trkpt>
      <trkpt lat="46.84754" lon="3.16633">
        <ele>235.93103027344</ele>
        <time>2016-02-07T10:42:05.000Z</time>
      </trkpt>
      <trkpt lat="46.84754" lon="3.16636">
        <ele>236.02514648438</ele>
        <time>2016-02-07T10:42:08.000Z</time>
      </trkpt>
      <trkpt lat="46.84754" lon="3.1664">
        <ele>236.10900878906</ele>
        <time>2016-02-07T10:42:10.000Z</time>
      </trkpt>
      <trkpt lat="46.84753" lon="3.16646">
        <ele>236.205078125</ele>
        <time>2016-02-07T10:42:13.000Z</time>
      </trkpt>
      <trkpt lat="46.84752" lon="3.16649">
        <ele>236.29992675781</ele>
        <time>2016-02-07T10:42:15.000Z</time>
      </trkpt>
      <trkpt lat="46.84752" lon="3.16653">
        <ele>236.40747070312</ele>
        <time>2016-02-07T10:42:17.000Z</time>
      </trkpt>
      <trkpt lat="46.8475" lon="3.16659">
        <ele>236.53332519531</ele>
        <time>2016-02-07T10:42:20.000Z</time>
      </trkpt>
      <trkpt lat="46.84749" lon="3.16663">
        <ele>236.65841674805</ele>
        <time>2016-02-07T10:42:22.000Z</time>
      </trkpt>
      <trkpt lat="46.84747" lon="3.16669">
        <ele>236.77102661133</ele>
        <time>2016-02-07T10:42:26.000Z</time>
      </trkpt>
      <trkpt lat="46.84746" lon="3.16672">
        <ele>236.87326049805</ele>
        <time>2016-02-07T10:42:27.000Z</time>
      </trkpt>
      <trkpt lat="46.84746" lon="3.16674">
        <ele>236.96174621582</ele>
        <time>2016-02-07T10:42:34.000Z</time>
      </trkpt>
      <trkpt lat="46.84745" lon="3.1668">
        <ele>237.03747558594</ele>
        <time>2016-02-07T10:42:36.000Z</time>
      </trkpt>
      <trkpt lat="46.84743" lon="3.16685">
        <ele>237.11572265625</ele>
        <time>2016-02-07T10:42:39.000Z</time>
      </trkpt>
      <trkpt lat="46.84743" lon="3.16689">
        <ele>237.18872070312</ele>
        <time>2016-02-07T10:42:42.000Z</time>
      </trkpt>
      <trkpt lat="46.84742" lon="3.16693">
        <ele>237.26091003418</ele>
        <time>2016-02-07T10:42:44.000Z</time>
      </trkpt>
      <trkpt lat="46.84741" lon="3.16696">
        <ele>237.33435058594</ele>
        <time>2016-02-07T10:42:46.000Z</time>
      </trkpt>
      <trkpt lat="46.84739" lon="3.16702">
        <ele>237.40153503418</ele>
        <time>2016-02-07T10:42:50.000Z</time>
      </trkpt>
      <trkpt lat="46.84738" lon="3.16707">
        <ele>237.46887207031</ele>
        <time>2016-02-07T10:42:52.000Z</time>
      </trkpt>
      <trkpt lat="46.84736" lon="3.16713">
        <ele>237.53520202637</ele>
        <time>2016-02-07T10:42:55.000Z</time>
      </trkpt>
      <trkpt lat="46.84736" lon="3.16716">
        <ele>237.60383605957</ele>
        <time>2016-02-07T10:42:57.000Z</time>
      </trkpt>
      <trkpt lat="46.84735" lon="3.16719">
        <ele>237.67056274414</ele>
        <time>2016-02-07T10:42:59.000Z</time>
      </trkpt>
      <trkpt lat="46.84734" lon="3.16724">
        <ele>237.73477172852</ele>
        <time>2016-02-07T10:43:02.000Z</time>
      </trkpt>
      <trkpt lat="46.84732" lon="3.16727">
        <ele>237.78779602051</ele>
        <time>2016-02-07T10:43:05.000Z</time>
      </trkpt>
      <trkpt lat="46.84731" lon="3.16732">
        <ele>237.83947753906</ele>
        <time>2016-02-07T10:43:07.000Z</time>
      </trkpt>
      <trkpt lat="46.84731" lon="3.16734">
        <ele>237.88491821289</ele>
        <time>2016-02-07T10:43:09.000Z</time>
      </trkpt>
      <trkpt lat="46.84729" lon="3.16738">
        <ele>237.92932128906</ele>
        <time>2016-02-07T10:43:11.000Z</time>
      </trkpt>
      <trkpt lat="46.84729" lon="3.16741">
        <ele>237.97172546387</ele>
        <time>2016-02-07T10:43:13.000Z</time>
      </trkpt>
      <trkpt lat="46.84727" lon="3.16747">
        <ele>238.01586914062</ele>
        <time>2016-02-07T10:43:16.000Z</time>
      </trkpt>
      <trkpt lat="46.84726" lon="3.16751">
        <ele>238.05436706543</ele>
        <time>2016-02-07T10:43:19.000Z</time>
      </trkpt>
      <trkpt lat="46.84725" lon="3.16757">
        <ele>238.08947753906</ele>
        <time>2016-02-07T10:43:22.000Z</time>
      </trkpt>
      <trkpt lat="46.84723" lon="3.1676">
        <ele>238.11120605469</ele>
        <time>2016-02-07T10:43:25.000Z</time>
      </trkpt>
      <trkpt lat="46.84722" lon="3.16764">
        <ele>238.1205291748</ele>
        <time>2016-02-07T10:43:27.000Z</time>
      </trkpt>
      <trkpt lat="46.84721" lon="3.1677">
        <ele>238.12158203125</ele>
        <time>2016-02-07T10:43:30.000Z</time>
      </trkpt>
      <trkpt lat="46.84719" lon="3.16775">
        <ele>238.11557006836</ele>
        <time>2016-02-07T10:43:33.000Z</time>
      </trkpt>
      <trkpt lat="46.84717" lon="3.16781">
        <ele>238.10791015625</ele>
        <time>2016-02-07T10:43:36.000Z</time>
      </trkpt>
      <trkpt lat="46.84716" lon="3.16784">
        <ele>238.10832214355</ele>
        <time>2016-02-07T10:43:38.000Z</time>
      </trkpt>
      <trkpt lat="46.84715" lon="3.16789">
        <ele>238.11181640625</ele>
        <time>2016-02-07T10:43:41.000Z</time>
      </trkpt>
      <trkpt lat="46.84714" lon="3.16792">
        <ele>238.1178894043</ele>
        <time>2016-02-07T10:43:43.000Z</time>
      </trkpt>
      <trkpt lat="46.84713" lon="3.16797">
        <ele>238.1286315918</ele>
        <time>2016-02-07T10:43:46.000Z</time>
      </trkpt>
      <trkpt lat="46.84712" lon="3.16799">
        <ele>238.14067077637</ele>
        <time>2016-02-07T10:43:48.000Z</time>
      </trkpt>
      <trkpt lat="46.8471" lon="3.16804">
        <ele>238.15295410156</ele>
        <time>2016-02-07T10:43:52.000Z</time>
      </trkpt>
      <trkpt lat="46.84709" lon="3.16807">
        <ele>238.16906738281</ele>
        <time>2016-02-07T10:43:53.000Z</time>
      </trkpt>
      <trkpt lat="46.84708" lon="3.16813">
        <ele>238.19047546387</ele>
        <time>2016-02-07T10:43:57.000Z</time>
      </trkpt>
      <trkpt lat="46.84706" lon="3.16817">
        <ele>238.21264648438</ele>
        <time>2016-02-07T10:43:58.000Z</time>
      </trkpt>
      <trkpt lat="46.84705" lon="3.16821">
        <ele>238.24026489258</ele>
        <time>2016-02-07T10:44:00.000Z</time>
      </trkpt>
      <trkpt lat="46.84703" lon="3.16825">
        <ele>238.26733398438</ele>
        <time>2016-02-07T10:44:03.000Z</time>
      </trkpt>
      <trkpt lat="46.84702" lon="3.16828">
        <ele>238.29565429688</ele>
        <time>2016-02-07T10:44:06.000Z</time>
      </trkpt>
      <trkpt lat="46.84699" lon="3.16833">
        <ele>238.3232421875</ele>
        <time>2016-02-07T10:44:09.000Z</time>
      </trkpt>
      <trkpt lat="46.84698" lon="3.16836">
        <ele>238.35214233398</ele>
        <time>2016-02-07T10:44:11.000Z</time>
      </trkpt>
      <trkpt lat="46.84696" lon="3.16841">
        <ele>238.3853302002</ele>
        <time>2016-02-07T10:44:14.000Z</time>
      </trkpt>
      <trkpt lat="46.84695" lon="3.16844">
        <ele>238.42575073242</ele>
        <time>2016-02-07T10:44:16.000Z</time>
      </trkpt>
      <trkpt lat="46.84693" lon="3.1685">
        <ele>238.47270202637</ele>
        <time>2016-02-07T10:44:19.000Z</time>
      </trkpt>
      <trkpt lat="46.84692" lon="3.16856">
        <ele>238.52836608887</ele>
        <time>2016-02-07T10:44:22.000Z</time>
      </trkpt>
      <trkpt lat="46.84691" lon="3.16864">
        <ele>238.59773254395</ele>
        <time>2016-02-07T10:44:25.000Z</time>
      </trkpt>
      <trkpt lat="46.8469" lon="3.16869">
        <ele>238.66767883301</ele>
        <time>2016-02-07T10:44:28.000Z</time>
      </trkpt>
      <trkpt lat="46.84689" lon="3.16873">
        <ele>238.73843383789</ele>
        <time>2016-02-07T10:44:31.000Z</time>
      </trkpt>
      <trkpt lat="46.84688" lon="3.16877">
        <ele>238.80493164062</ele>
        <time>2016-02-07T10:44:35.000Z</time>
      </trkpt>
      <trkpt lat="46.84687" lon="3.1688">
        <ele>238.8625793457</ele>
        <time>2016-02-07T10:44:36.000Z</time>
      </trkpt>
      <trkpt lat="46.84686" lon="3.16885">
        <ele>238.9068145752</ele>
        <time>2016-02-07T10:44:39.000Z</time>
      </trkpt>
      <trkpt lat="46.84684" lon="3.16887">
        <ele>238.94120788574</ele>
        <time>2016-02-07T10:44:41.000Z</time>
      </trkpt>
      <trkpt lat="46.84682" lon="3.1689">
        <ele>238.96733093262</ele>
        <time>2016-02-07T10:44:44.000Z</time>
      </trkpt>
      <trkpt lat="46.8468" lon="3.16896">
        <ele>238.99111938477</ele>
        <time>2016-02-07T10:44:47.000Z</time>
      </trkpt>
      <trkpt lat="46.84679" lon="3.16899">
        <ele>239.0110168457</ele>
        <time>2016-02-07T10:44:49.000Z</time>
      </trkpt>
      <trkpt lat="46.84677" lon="3.16903">
        <ele>239.02680969238</ele>
        <time>2016-02-07T10:44:52.000Z</time>
      </trkpt>
      <trkpt lat="46.84676" lon="3.16909">
        <ele>239.05178833008</ele>
        <time>2016-02-07T10:44:55.000Z</time>
      </trkpt>
      <trkpt lat="46.84676" lon="3.1691">
        <ele>239.07754516602</ele>
        <time>2016-02-07T10:45:01.000Z</time>
      </trkpt>
      <trkpt lat="46.84674" lon="3.16918">
        <ele>239.12138366699</ele>
        <time>2016-02-07T10:45:04.000Z</time>
      </trkpt>
      <trkpt lat="46.84674" lon="3.16921">
        <ele>239.18814086914</ele>
        <time>2016-02-07T10:45:06.000Z</time>
      </trkpt>
      <trkpt lat="46.84674" lon="3.16925">
        <ele>239.28800964355</ele>
        <time>2016-02-07T10:45:09.000Z</time>
      </trkpt>
      <trkpt lat="46.84674" lon="3.16929">
        <ele>239.40933227539</ele>
        <time>2016-02-07T10:45:11.000Z</time>
      </trkpt>
      <trkpt lat="46.84674" lon="3.16934">
        <ele>239.56637573242</ele>
        <time>2016-02-07T10:45:14.000Z</time>
      </trkpt>
      <trkpt lat="46.84674" lon="3.16939">
        <ele>239.74800109863</ele>
        <time>2016-02-07T10:45:17.000Z</time>
      </trkpt>
      <trkpt lat="46.84674" lon="3.16943">
        <ele>239.93371582031</ele>
        <time>2016-02-07T10:45:19.000Z</time>
      </trkpt>
      <trkpt lat="46.84674" lon="3.16948">
        <ele>240.1283416748</ele>
        <time>2016-02-07T10:45:22.000Z</time>
      </trkpt>
      <trkpt lat="46.84675" lon="3.16953">
        <ele>240.33903503418</ele>
        <time>2016-02-07T10:45:25.000Z</time>
      </trkpt>
      <trkpt lat="46.84675" lon="3.16956">
        <ele>240.53549194336</ele>
        <time>2016-02-07T10:45:27.000Z</time>
      </trkpt>
      <trkpt lat="46.84675" lon="3.16961">
        <ele>240.72445678711</ele>
        <time>2016-02-07T10:45:30.000Z</time>
      </trkpt>
      <trkpt lat="46.84675" lon="3.16963">
        <ele>240.90249633789</ele>
        <time>2016-02-07T10:45:32.000Z</time>
      </trkpt>
      <trkpt lat="46.84676" lon="3.16969">
        <ele>241.09024047852</ele>
        <time>2016-02-07T10:45:36.000Z</time>
      </trkpt>
      <trkpt lat="46.84677" lon="3.16974">
        <ele>241.2622833252</ele>
        <time>2016-02-07T10:45:37.000Z</time>
      </trkpt>
      <trkpt lat="46.84678" lon="3.16977">
        <ele>241.43432617188</ele>
        <time>2016-02-07T10:45:39.000Z</time>
      </trkpt>
      <trkpt lat="46.84681" lon="3.16983">
        <ele>241.60734558105</ele>
        <time>2016-02-07T10:45:42.000Z</time>
      </trkpt>
      <trkpt lat="46.84683" lon="3.16988">
        <ele>241.79357910156</ele>
        <time>2016-02-07T10:45:45.000Z</time>
      </trkpt>
      <trkpt lat="46.84686" lon="3.16991">
        <ele>241.9439239502</ele>
        <time>2016-02-07T10:45:48.000Z</time>
      </trkpt>
      <trkpt lat="46.84689" lon="3.16996">
        <ele>242.08467102051</ele>
        <time>2016-02-07T10:45:52.000Z</time>
      </trkpt>
      <trkpt lat="46.84689" lon="3.16998">
        <ele>242.20785522461</ele>
        <time>2016-02-07T10:45:53.000Z</time>
      </trkpt>
      <trkpt lat="46.84691" lon="3.17001">
        <ele>242.31506347656</ele>
        <time>2016-02-07T10:45:56.000Z</time>
      </trkpt>
      <trkpt lat="46.84694" lon="3.17006">
        <ele>242.43307495117</ele>
        <time>2016-02-07T10:45:59.000Z</time>
      </trkpt>
      <trkpt lat="46.84696" lon="3.1701">
        <ele>242.57162475586</ele>
        <time>2016-02-07T10:46:03.000Z</time>
      </trkpt>
      <trkpt lat="46.84697" lon="3.17012">
        <ele>242.71484375</ele>
        <time>2016-02-07T10:46:04.000Z</time>
      </trkpt>
      <trkpt lat="46.84698" lon="3.17015">
        <ele>242.88139343262</ele>
        <time>2016-02-07T10:46:06.000Z</time>
      </trkpt>
      <trkpt lat="46.847" lon="3.17019">
        <ele>243.05195617676</ele>
        <time>2016-02-07T10:46:09.000Z</time>
      </trkpt>
      <trkpt lat="46.84702" lon="3.17021">
        <ele>243.20536804199</ele>
        <time>2016-02-07T10:46:11.000Z</time>
      </trkpt>
      <trkpt lat="46.84703" lon="3.17024">
        <ele>243.34365844727</ele>
        <time>2016-02-07T10:46:13.000Z</time>
      </trkpt>
      <trkpt lat="46.84707" lon="3.17029">
        <ele>243.4857635498</ele>
        <time>2016-02-07T10:46:16.000Z</time>
      </trkpt>
      <trkpt lat="46.84709" lon="3.17032">
        <ele>243.62649536133</ele>
        <time>2016-02-07T10:46:19.000Z</time>
      </trkpt>
      <trkpt lat="46.8471" lon="3.17034">
        <ele>243.74772644043</ele>
        <time>2016-02-07T10:46:21.000Z</time>
      </trkpt>
      <trkpt lat="46.84713" lon="3.17037">
        <ele>243.85934448242</ele>
        <time>2016-02-07T10:46:24.000Z</time>
      </trkpt>
      <trkpt lat="46.84716" lon="3.17039">
        <ele>243.95381164551</ele>
        <time>2016-02-07T10:46:27.000Z</time>
      </trkpt>
      <trkpt lat="46.84719" lon="3.17041">
        <ele>244.01919555664</ele>
        <time>2016-02-07T10:46:29.000Z</time>
      </trkpt>
      <trkpt lat="46.8472" lon="3.17043">
        <ele>244.0696105957</ele>
        <time>2016-02-07T10:46:31.000Z</time>
      </trkpt>
      <trkpt lat="46.84723" lon="3.17047">
        <ele>244.13008117676</ele>
        <time>2016-02-07T10:46:35.000Z</time>
      </trkpt>
      <trkpt lat="46.84724" lon="3.17047">
        <ele>244.17080688477</ele>
        <time>2016-02-07T10:46:38.000Z</time>
      </trkpt>
      <trkpt lat="46.84726" lon="3.1705">
        <ele>244.21476745605</ele>
        <time>2016-02-07T10:46:41.000Z</time>
      </trkpt>
      <trkpt lat="46.8473" lon="3.17052">
        <ele>244.25473022461</ele>
        <time>2016-02-07T10:46:44.000Z</time>
      </trkpt>
      <trkpt lat="46.84732" lon="3.17054">
        <ele>244.28274536133</ele>
        <time>2016-02-07T10:46:46.000Z</time>
      </trkpt>
      <trkpt lat="46.84734" lon="3.17055">
        <ele>244.28707885742</ele>
        <time>2016-02-07T10:46:48.000Z</time>
      </trkpt>
      <trkpt lat="46.84737" lon="3.17057">
        <ele>244.28544616699</ele>
        <time>2016-02-07T10:46:51.000Z</time>
      </trkpt>
      <trkpt lat="46.84741" lon="3.17059">
        <ele>244.26823425293</ele>
        <time>2016-02-07T10:46:54.000Z</time>
      </trkpt>
      <trkpt lat="46.84743" lon="3.17061">
        <ele>244.2448425293</ele>
        <time>2016-02-07T10:46:57.000Z</time>
      </trkpt>
      <trkpt lat="46.84745" lon="3.17062">
        <ele>244.21801757812</ele>
        <time>2016-02-07T10:47:03.000Z</time>
      </trkpt>
      <trkpt lat="46.84749" lon="3.17064">
        <ele>244.18522644043</ele>
        <time>2016-02-07T10:47:06.000Z</time>
      </trkpt>
      <trkpt lat="46.8475" lon="3.17065">
        <ele>244.16040039062</ele>
        <time>2016-02-07T10:47:08.000Z</time>
      </trkpt>
      <trkpt lat="46.84753" lon="3.17067">
        <ele>244.13215637207</ele>
        <time>2016-02-07T10:47:11.000Z</time>
      </trkpt>
      <trkpt lat="46.84756" lon="3.17071">
        <ele>244.09878540039</ele>
        <time>2016-02-07T10:47:14.000Z</time>
      </trkpt>
      <trkpt lat="46.8476" lon="3.17073">
        <ele>244.05297851562</ele>
        <time>2016-02-07T10:47:16.000Z</time>
      </trkpt>
      <trkpt lat="46.84763" lon="3.17075">
        <ele>244.00015258789</ele>
        <time>2016-02-07T10:47:20.000Z</time>
      </trkpt>
      <trkpt lat="46.84764" lon="3.17076">
        <ele>243.93656921387</ele>
        <time>2016-02-07T10:47:22.000Z</time>
      </trkpt>
      <trkpt lat="46.8477" lon="3.17078">
        <ele>243.83792114258</ele>
        <time>2016-02-07T10:47:24.000Z</time>
      </trkpt>
      <trkpt lat="46.84775" lon="3.17081">
        <ele>243.71565246582</ele>
        <time>2016-02-07T10:47:27.000Z</time>
      </trkpt>
      <trkpt lat="46.84779" lon="3.17082">
        <ele>243.56477355957</ele>
        <time>2016-02-07T10:47:31.000Z</time>
      </trkpt>
      <trkpt lat="46.84782" lon="3.17083">
        <ele>243.41181945801</ele>
        <time>2016-02-07T10:47:32.000Z</time>
      </trkpt>
      <trkpt lat="46.84785" lon="3.17084">
        <ele>243.24130249023</ele>
        <time>2016-02-07T10:47:35.000Z</time>
      </trkpt>
      <trkpt lat="46.84787" lon="3.17085">
        <ele>243.09553527832</ele>
        <time>2016-02-07T10:47:37.000Z</time>
      </trkpt>
      <trkpt lat="46.84791" lon="3.17088">
        <ele>242.94995117188</ele>
        <time>2016-02-07T10:47:40.000Z</time>
      </trkpt>
      <trkpt lat="46.84794" lon="3.1709">
        <ele>242.82247924805</ele>
        <time>2016-02-07T10:47:43.000Z</time>
      </trkpt>
      <trkpt lat="46.84796" lon="3.17091">
        <ele>242.69570922852</ele>
        <time>2016-02-07T10:47:45.000Z</time>
      </trkpt>
      <trkpt lat="46.84799" lon="3.17092">
        <ele>242.57260131836</ele>
        <time>2016-02-07T10:47:48.000Z</time>
      </trkpt>
      <trkpt lat="46.84801" lon="3.17093">
        <ele>242.44445800781</ele>
        <time>2016-02-07T10:47:50.000Z</time>
      </trkpt>
      <trkpt lat="46.84806" lon="3.17094">
        <ele>242.31127929688</ele>
        <time>2016-02-07T10:47:54.000Z</time>
      </trkpt>
      <trkpt lat="46.84809" lon="3.17095">
        <ele>242.17073059082</ele>
        <time>2016-02-07T10:47:55.000Z</time>
      </trkpt>
      <trkpt lat="46.84813" lon="3.17096">
        <ele>242.00114440918</ele>
        <time>2016-02-07T10:47:58.000Z</time>
      </trkpt>
      <trkpt lat="46.84817" lon="3.17097">
        <ele>241.8238067627</ele>
        <time>2016-02-07T10:48:01.000Z</time>
      </trkpt>
      <trkpt lat="46.84821" lon="3.17099">
        <ele>241.64224243164</ele>
        <time>2016-02-07T10:48:05.000Z</time>
      </trkpt>
      <trkpt lat="46.84823" lon="3.17101">
        <ele>241.48587036133</ele>
        <time>2016-02-07T10:48:06.000Z</time>
      </trkpt>
      <trkpt lat="46.84826" lon="3.17102">
        <ele>241.33203125</ele>
        <time>2016-02-07T10:48:09.000Z</time>
      </trkpt>
      <trkpt lat="46.8483" lon="3.17104">
        <ele>241.19931030273</ele>
        <time>2016-02-07T10:48:12.000Z</time>
      </trkpt>
      <trkpt lat="46.84832" lon="3.17105">
        <ele>241.08027648926</ele>
        <time>2016-02-07T10:48:14.000Z</time>
      </trkpt>
      <trkpt lat="46.84836" lon="3.17107">
        <ele>240.98271179199</ele>
        <time>2016-02-07T10:48:17.000Z</time>
      </trkpt>
      <trkpt lat="46.84838" lon="3.17108">
        <ele>240.90434265137</ele>
        <time>2016-02-07T10:48:19.000Z</time>
      </trkpt>
      <trkpt lat="46.84841" lon="3.1711">
        <ele>240.86282348633</ele>
        <time>2016-02-07T10:48:21.000Z</time>
      </trkpt>
      <trkpt lat="46.84846" lon="3.17113">
        <ele>240.85934448242</ele>
        <time>2016-02-07T10:48:24.000Z</time>
      </trkpt>
      <trkpt lat="46.84848" lon="3.17115">
        <ele>240.88203430176</ele>
        <time>2016-02-07T10:48:26.000Z</time>
      </trkpt>
      <trkpt lat="46.84852" lon="3.17117">
        <ele>240.91723632812</ele>
        <time>2016-02-07T10:48:29.000Z</time>
      </trkpt>
      <trkpt lat="46.84856" lon="3.17119">
        <ele>240.95658874512</ele>
        <time>2016-02-07T10:48:31.000Z</time>
      </trkpt>
      <trkpt lat="46.84859" lon="3.17121">
        <ele>240.99536132812</ele>
        <time>2016-02-07T10:48:33.000Z</time>
      </trkpt>
      <trkpt lat="46.84863" lon="3.17125">
        <ele>241.03471374512</ele>
        <time>2016-02-07T10:48:36.000Z</time>
      </trkpt>
      <trkpt lat="46.84866" lon="3.17128">
        <ele>241.08422851562</ele>
        <time>2016-02-07T10:48:39.000Z</time>
      </trkpt>
      <trkpt lat="46.8487" lon="3.1713">
        <ele>241.13781738281</ele>
        <time>2016-02-07T10:48:42.000Z</time>
      </trkpt>
      <trkpt lat="46.84871" lon="3.17131">
        <ele>241.1875</ele>
        <time>2016-02-07T10:48:44.000Z</time>
      </trkpt>
      <trkpt lat="46.84872" lon="3.17133">
        <ele>241.24169921875</ele>
        <time>2016-02-07T10:48:47.000Z</time>
      </trkpt>
      <trkpt lat="46.84874" lon="3.17133">
        <ele>241.27461242676</ele>
        <time>2016-02-07T10:48:59.000Z</time>
      </trkpt>
      <trkpt lat="46.84877" lon="3.17132">
        <ele>241.27954101562</ele>
        <time>2016-02-07T10:49:02.000Z</time>
      </trkpt>
      <trkpt lat="46.8488" lon="3.17135">
        <ele>241.28642272949</ele>
        <time>2016-02-07T10:49:05.000Z</time>
      </trkpt>
      <trkpt lat="46.84882" lon="3.17136">
        <ele>241.29553222656</ele>
        <time>2016-02-07T10:49:07.000Z</time>
      </trkpt>
      <trkpt lat="46.84885" lon="3.17139">
        <ele>241.30981445312</ele>
        <time>2016-02-07T10:49:10.000Z</time>
      </trkpt>
      <trkpt lat="46.84888" lon="3.17142">
        <ele>241.34643554688</ele>
        <time>2016-02-07T10:49:13.000Z</time>
      </trkpt>
      <trkpt lat="46.84889" lon="3.17145">
        <ele>241.40849304199</ele>
        <time>2016-02-07T10:49:17.000Z</time>
      </trkpt>
      <trkpt lat="46.84891" lon="3.17146">
        <ele>241.46398925781</ele>
        <time>2016-02-07T10:49:18.000Z</time>
      </trkpt>
      <trkpt lat="46.84893" lon="3.17148">
        <ele>241.52172851562</ele>
        <time>2016-02-07T10:49:21.000Z</time>
      </trkpt>
      <trkpt lat="46.84895" lon="3.1715">
        <ele>241.57104492188</ele>
        <time>2016-02-07T10:49:24.000Z</time>
      </trkpt>
      <trkpt lat="46.84897" lon="3.17151">
        <ele>241.61108398438</ele>
        <time>2016-02-07T10:49:26.000Z</time>
      </trkpt>
      <trkpt lat="46.84899" lon="3.17153">
        <ele>241.64741516113</ele>
        <time>2016-02-07T10:49:28.000Z</time>
      </trkpt>
      <trkpt lat="46.84903" lon="3.17156">
        <ele>241.69306945801</ele>
        <time>2016-02-07T10:49:31.000Z</time>
      </trkpt>
      <trkpt lat="46.84905" lon="3.1716">
        <ele>241.74633789062</ele>
        <time>2016-02-07T10:49:34.000Z</time>
      </trkpt>
      <trkpt lat="46.84908" lon="3.17163">
        <ele>241.80805969238</ele>
        <time>2016-02-07T10:49:37.000Z</time>
      </trkpt>
      <trkpt lat="46.84911" lon="3.17166">
        <ele>241.87878417969</ele>
        <time>2016-02-07T10:49:40.000Z</time>
      </trkpt>
      <trkpt lat="46.84913" lon="3.17167">
        <ele>241.94917297363</ele>
        <time>2016-02-07T10:49:42.000Z</time>
      </trkpt>
      <trkpt lat="46.84917" lon="3.1717">
        <ele>242.02433776855</ele>
        <time>2016-02-07T10:49:45.000Z</time>
      </trkpt>
      <trkpt lat="46.8492" lon="3.17172">
        <ele>242.08181762695</ele>
        <time>2016-02-07T10:49:48.000Z</time>
      </trkpt>
      <trkpt lat="46.84923" lon="3.17175">
        <ele>242.1318359375</ele>
        <time>2016-02-07T10:49:51.000Z</time>
      </trkpt>
      <trkpt lat="46.84925" lon="3.17177">
        <ele>242.17358398438</ele>
        <time>2016-02-07T10:49:53.000Z</time>
      </trkpt>
      <trkpt lat="46.84929" lon="3.1718">
        <ele>242.20133972168</ele>
        <time>2016-02-07T10:49:56.000Z</time>
      </trkpt>
      <trkpt lat="46.84932" lon="3.17182">
        <ele>242.20503234863</ele>
        <time>2016-02-07T10:49:58.000Z</time>
      </trkpt>
      <trkpt lat="46.84936" lon="3.17184">
        <ele>242.20185852051</ele>
        <time>2016-02-07T10:50:02.000Z</time>
      </trkpt>
      <trkpt lat="46.84939" lon="3.17185">
        <ele>242.1789855957</ele>
        <time>2016-02-07T10:50:03.000Z</time>
      </trkpt>
      <trkpt lat="46.84943" lon="3.17186">
        <ele>242.1266784668</ele>
        <time>2016-02-07T10:50:07.000Z</time>
      </trkpt>
      <trkpt lat="46.84945" lon="3.17188">
        <ele>242.07485961914</ele>
        <time>2016-02-07T10:50:08.000Z</time>
      </trkpt>
      <trkpt lat="46.84949" lon="3.1719">
        <ele>242.025390625</ele>
        <time>2016-02-07T10:50:11.000Z</time>
      </trkpt>
      <trkpt lat="46.84953" lon="3.17193">
        <ele>241.99291992188</ele>
        <time>2016-02-07T10:50:14.000Z</time>
      </trkpt>
      <trkpt lat="46.84956" lon="3.17196">
        <ele>241.97415161133</ele>
        <time>2016-02-07T10:50:17.000Z</time>
      </trkpt>
      <trkpt lat="46.84959" lon="3.17197">
        <ele>241.97689819336</ele>
        <time>2016-02-07T10:50:19.000Z</time>
      </trkpt>
      <trkpt lat="46.84963" lon="3.17201">
        <ele>241.99308776855</ele>
        <time>2016-02-07T10:50:22.000Z</time>
      </trkpt>
      <trkpt lat="46.84967" lon="3.17204">
        <ele>242.02270507812</ele>
        <time>2016-02-07T10:50:25.000Z</time>
      </trkpt>
      <trkpt lat="46.8497" lon="3.17207">
        <ele>242.05302429199</ele>
        <time>2016-02-07T10:50:28.000Z</time>
      </trkpt>
      <trkpt lat="46.84974" lon="3.17209">
        <ele>242.0830078125</ele>
        <time>2016-02-07T10:50:31.000Z</time>
      </trkpt>
      <trkpt lat="46.84976" lon="3.17211">
        <ele>242.12446594238</ele>
        <time>2016-02-07T10:50:33.000Z</time>
      </trkpt>
      <trkpt lat="46.8498" lon="3.17214">
        <ele>242.16377258301</ele>
        <time>2016-02-07T10:50:37.000Z</time>
      </trkpt>
      <trkpt lat="46.84982" lon="3.17216">
        <ele>242.20101928711</ele>
        <time>2016-02-07T10:50:38.000Z</time>
      </trkpt>
      <trkpt lat="46.84985" lon="3.17218">
        <ele>242.23965454102</ele>
        <time>2016-02-07T10:50:40.000Z</time>
      </trkpt>
      <trkpt lat="46.84988" lon="3.17221">
        <ele>242.28979492188</ele>
        <time>2016-02-07T10:50:43.000Z</time>
      </trkpt>
      <trkpt lat="46.84991" lon="3.17225">
        <ele>242.35974121094</ele>
        <time>2016-02-07T10:50:47.000Z</time>
      </trkpt>
      <trkpt lat="46.84994" lon="3.17227">
        <ele>242.4306640625</ele>
        <time>2016-02-07T10:50:48.000Z</time>
      </trkpt>
      <trkpt lat="46.84996" lon="3.1723">
        <ele>242.51679992676</ele>
        <time>2016-02-07T10:50:50.000Z</time>
      </trkpt>
      <trkpt lat="46.84998" lon="3.17232">
        <ele>242.61047363281</ele>
        <time>2016-02-07T10:50:53.000Z</time>
      </trkpt>
      <trkpt lat="46.85002" lon="3.17236">
        <ele>242.70048522949</ele>
        <time>2016-02-07T10:50:56.000Z</time>
      </trkpt>
      <trkpt lat="46.85004" lon="3.17238">
        <ele>242.76631164551</ele>
        <time>2016-02-07T10:50:58.000Z</time>
      </trkpt>
      <trkpt lat="46.85007" lon="3.17243">
        <ele>242.8539276123</ele>
        <time>2016-02-07T10:51:01.000Z</time>
      </trkpt>
      <trkpt lat="46.85009" lon="3.17245">
        <ele>242.92202758789</ele>
        <time>2016-02-07T10:51:04.000Z</time>
      </trkpt>
      <trkpt lat="46.8501" lon="3.17247">
        <ele>242.97978210449</ele>
        <time>2016-02-07T10:51:05.000Z</time>
      </trkpt>
      <trkpt lat="46.85012" lon="3.1725">
        <ele>243.03608703613</ele>
        <time>2016-02-07T10:51:07.000Z</time>
      </trkpt>
      <trkpt lat="46.85015" lon="3.17254">
        <ele>243.08386230469</ele>
        <time>2016-02-07T10:51:10.000Z</time>
      </trkpt>
      <trkpt lat="46.85018" lon="3.17258">
        <ele>243.1067199707</ele>
        <time>2016-02-07T10:51:13.000Z</time>
      </trkpt>
      <trkpt lat="46.8502" lon="3.17261">
        <ele>243.12646484375</ele>
        <time>2016-02-07T10:51:15.000Z</time>
      </trkpt>
      <trkpt lat="46.85022" lon="3.17267">
        <ele>243.17333984375</ele>
        <time>2016-02-07T10:51:18.000Z</time>
      </trkpt>
      <trkpt lat="46.85024" lon="3.1727">
        <ele>243.21862792969</ele>
        <time>2016-02-07T10:51:21.000Z</time>
      </trkpt>
      <trkpt lat="46.85025" lon="3.17272">
        <ele>243.27900695801</ele>
        <time>2016-02-07T10:51:23.000Z</time>
      </trkpt>
      <trkpt lat="46.85027" lon="3.17275">
        <ele>243.3420715332</ele>
        <time>2016-02-07T10:51:25.000Z</time>
      </trkpt>
      <trkpt lat="46.85031" lon="3.17279">
        <ele>243.3987121582</ele>
        <time>2016-02-07T10:51:28.000Z</time>
      </trkpt>
      <trkpt lat="46.85033" lon="3.17284">
        <ele>243.44609069824</ele>
        <time>2016-02-07T10:51:31.000Z</time>
      </trkpt>
      <trkpt lat="46.85036" lon="3.17287">
        <ele>243.48962402344</ele>
        <time>2016-02-07T10:51:33.000Z</time>
      </trkpt>
      <trkpt lat="46.85039" lon="3.1729">
        <ele>243.51928710938</ele>
        <time>2016-02-07T10:51:35.000Z</time>
      </trkpt>
      <trkpt lat="46.85042" lon="3.17293">
        <ele>243.53115844727</ele>
        <time>2016-02-07T10:51:39.000Z</time>
      </trkpt>
      <trkpt lat="46.85045" lon="3.17294">
        <ele>243.53852844238</ele>
        <time>2016-02-07T10:51:42.000Z</time>
      </trkpt>
      <trkpt lat="46.85049" lon="3.17296">
        <ele>243.49356079102</ele>
        <time>2016-02-07T10:51:43.000Z</time>
      </trkpt>
      <trkpt lat="46.85051" lon="3.17297">
        <ele>243.43081665039</ele>
        <time>2016-02-07T10:51:48.000Z</time>
      </trkpt>
      <trkpt lat="46.85052" lon="3.1729">
        <ele>243.27822875977</ele>
        <time>2016-02-07T10:52:19.000Z</time>
      </trkpt>
      <trkpt lat="46.85052" lon="3.1729">
        <ele>243.27822875977</ele>
        <time>2016-02-07T10:52:45.000Z</time>
      </trkpt>
      <trkpt lat="46.85052" lon="3.17287">
        <ele>243.09927368164</ele>
        <time>2016-02-07T10:53:35.000Z</time>
      </trkpt>
      <trkpt lat="46.85054" lon="3.17288">
        <ele>242.91340637207</ele>
        <time>2016-02-07T10:53:36.000Z</time>
      </trkpt>
      <trkpt lat="46.85057" lon="3.17291">
        <ele>242.7626953125</ele>
        <time>2016-02-07T10:53:36.000Z</time>
      </trkpt>
      <trkpt lat="46.8506" lon="3.17296">
        <ele>242.6423034668</ele>
        <time>2016-02-07T10:53:37.000Z</time>
      </trkpt>
      <trkpt lat="46.85063" lon="3.17299">
        <ele>242.62236022949</ele>
        <time>2016-02-07T10:53:37.000Z</time>
      </trkpt>
      <trkpt lat="46.85064" lon="3.173">
        <ele>242.65274047852</ele>
        <time>2016-02-07T10:53:37.000Z</time>
      </trkpt>
      <trkpt lat="46.85064" lon="3.17304">
        <ele>242.74374389648</ele>
        <time>2016-02-07T10:53:37.000Z</time>
      </trkpt>
      <trkpt lat="46.85065" lon="3.17306">
        <ele>242.84655761719</ele>
        <time>2016-02-07T10:53:38.000Z</time>
      </trkpt>
      <trkpt lat="46.85066" lon="3.17308">
        <ele>242.94128417969</ele>
        <time>2016-02-07T10:53:38.000Z</time>
      </trkpt>
      <trkpt lat="46.8507" lon="3.17307">
        <ele>242.97421264648</ele>
        <time>2016-02-07T10:53:39.000Z</time>
      </trkpt>
      <trkpt lat="46.85075" lon="3.17309">
        <ele>242.95719909668</ele>
        <time>2016-02-07T10:53:39.000Z</time>
      </trkpt>
      <trkpt lat="46.85079" lon="3.17311">
        <ele>242.88468933105</ele>
        <time>2016-02-07T10:53:41.000Z</time>
      </trkpt>
      <trkpt lat="46.85083" lon="3.17314">
        <ele>242.79019165039</ele>
        <time>2016-02-07T10:53:41.000Z</time>
      </trkpt>
      <trkpt lat="46.85085" lon="3.17316">
        <ele>242.70332336426</ele>
        <time>2016-02-07T10:53:42.000Z</time>
      </trkpt>
      <trkpt lat="46.85085" lon="3.17318">
        <ele>242.69677734375</ele>
        <time>2016-02-07T10:53:42.000Z</time>
      </trkpt>
      <trkpt lat="46.85088" lon="3.17319">
        <ele>242.73178100586</ele>
        <time>2016-02-07T10:53:46.000Z</time>
      </trkpt>
      <trkpt lat="46.85089" lon="3.1732">
        <ele>242.78215026855</ele>
        <time>2016-02-07T10:53:47.000Z</time>
      </trkpt>
      <trkpt lat="46.8509" lon="3.17322">
        <ele>242.84977722168</ele>
        <time>2016-02-07T10:53:49.000Z</time>
      </trkpt>
      <trkpt lat="46.85093" lon="3.17324">
        <ele>242.9134979248</ele>
        <time>2016-02-07T10:53:52.000Z</time>
      </trkpt>
      <trkpt lat="46.85095" lon="3.17325">
        <ele>242.94900512695</ele>
        <time>2016-02-07T10:53:55.000Z</time>
      </trkpt>
      <trkpt lat="46.85097" lon="3.17326">
        <ele>242.97946166992</ele>
        <time>2016-02-07T10:53:58.000Z</time>
      </trkpt>
      <trkpt lat="46.85099" lon="3.17328">
        <ele>243.02510070801</ele>
        <time>2016-02-07T10:54:01.000Z</time>
      </trkpt>
      <trkpt lat="46.85101" lon="3.1733">
        <ele>243.05725097656</ele>
        <time>2016-02-07T10:54:03.000Z</time>
      </trkpt>
      <trkpt lat="46.85103" lon="3.17332">
        <ele>243.0862121582</ele>
        <time>2016-02-07T10:54:06.000Z</time>
      </trkpt>
      <trkpt lat="46.85106" lon="3.17332">
        <ele>243.10549926758</ele>
        <time>2016-02-07T10:54:09.000Z</time>
      </trkpt>
      <trkpt lat="46.85109" lon="3.17333">
        <ele>243.11889648438</ele>
        <time>2016-02-07T10:54:12.000Z</time>
      </trkpt>
      <trkpt lat="46.85111" lon="3.17335">
        <ele>243.11178588867</ele>
        <time>2016-02-07T10:54:15.000Z</time>
      </trkpt>
      <trkpt lat="46.85112" lon="3.17335">
        <ele>243.1032409668</ele>
        <time>2016-02-07T10:54:18.000Z</time>
      </trkpt>
      <trkpt lat="46.85113" lon="3.17336">
        <ele>243.07690429688</ele>
        <time>2016-02-07T10:54:28.000Z</time>
      </trkpt>
      <trkpt lat="46.85115" lon="3.17336">
        <ele>243.04878234863</ele>
        <time>2016-02-07T10:54:29.000Z</time>
      </trkpt>
      <trkpt lat="46.85119" lon="3.17337">
        <ele>243.01176452637</ele>
        <time>2016-02-07T10:54:32.000Z</time>
      </trkpt>
      <trkpt lat="46.85121" lon="3.17338">
        <ele>242.96740722656</ele>
        <time>2016-02-07T10:54:34.000Z</time>
      </trkpt>
      <trkpt lat="46.85125" lon="3.17337">
        <ele>242.8988494873</ele>
        <time>2016-02-07T10:54:38.000Z</time>
      </trkpt>
      <trkpt lat="46.85126" lon="3.17338">
        <ele>242.83389282227</ele>
        <time>2016-02-07T10:54:39.000Z</time>
      </trkpt>
      <trkpt lat="46.85128" lon="3.17339">
        <ele>242.78178405762</ele>
        <time>2016-02-07T10:54:42.000Z</time>
      </trkpt>
      <trkpt lat="46.85131" lon="3.1734">
        <ele>242.73579406738</ele>
        <time>2016-02-07T10:54:44.000Z</time>
      </trkpt>
      <trkpt lat="46.85135" lon="3.17342">
        <ele>242.69136047363</ele>
        <time>2016-02-07T10:54:48.000Z</time>
      </trkpt>
      <trkpt lat="46.85138" lon="3.17344">
        <ele>242.67294311523</ele>
        <time>2016-02-07T10:54:49.000Z</time>
      </trkpt>
      <trkpt lat="46.85141" lon="3.17345">
        <ele>242.65682983398</ele>
        <time>2016-02-07T10:54:52.000Z</time>
      </trkpt>
      <trkpt lat="46.85144" lon="3.17345">
        <ele>242.6187286377</ele>
        <time>2016-02-07T10:54:55.000Z</time>
      </trkpt>
      <trkpt lat="46.85149" lon="3.17346">
        <ele>242.57392883301</ele>
        <time>2016-02-07T10:54:58.000Z</time>
      </trkpt>
      <trkpt lat="46.85151" lon="3.17348">
        <ele>242.54452514648</ele>
        <time>2016-02-07T10:55:01.000Z</time>
      </trkpt>
      <trkpt lat="46.85153" lon="3.17348">
        <ele>242.51217651367</ele>
        <time>2016-02-07T10:55:03.000Z</time>
      </trkpt>
      <trkpt lat="46.85156" lon="3.17351">
        <ele>242.49711608887</ele>
        <time>2016-02-07T10:55:06.000Z</time>
      </trkpt>
      <trkpt lat="46.85158" lon="3.17352">
        <ele>242.5071105957</ele>
        <time>2016-02-07T10:55:09.000Z</time>
      </trkpt>
      <trkpt lat="46.85161" lon="3.17354">
        <ele>242.53930664062</ele>
        <time>2016-02-07T10:55:12.000Z</time>
      </trkpt>
      <trkpt lat="46.85163" lon="3.17354">
        <ele>242.56210327148</ele>
        <time>2016-02-07T10:55:15.000Z</time>
      </trkpt>
      <trkpt lat="46.85168" lon="3.17356">
        <ele>242.58418273926</ele>
        <time>2016-02-07T10:55:18.000Z</time>
      </trkpt>
      <trkpt lat="46.85173" lon="3.17357">
        <ele>242.56643676758</ele>
        <time>2016-02-07T10:55:21.000Z</time>
      </trkpt>
      <trkpt lat="46.85178" lon="3.1736">
        <ele>242.54907226562</ele>
        <time>2016-02-07T10:55:24.000Z</time>
      </trkpt>
      <trkpt lat="46.85182" lon="3.17362">
        <ele>242.51188659668</ele>
        <time>2016-02-07T10:55:27.000Z</time>
      </trkpt>
      <trkpt lat="46.85186" lon="3.17361">
        <ele>242.44149780273</ele>
        <time>2016-02-07T10:55:30.000Z</time>
      </trkpt>
      <trkpt lat="46.8519" lon="3.17362">
        <ele>242.35087585449</ele>
        <time>2016-02-07T10:55:34.000Z</time>
      </trkpt>
      <trkpt lat="46.85193" lon="3.17362">
        <ele>242.26651000977</ele>
        <time>2016-02-07T10:55:35.000Z</time>
      </trkpt>
      <trkpt lat="46.85195" lon="3.17362">
        <ele>242.16171264648</ele>
        <time>2016-02-07T10:55:37.000Z</time>
      </trkpt>
      <trkpt lat="46.85198" lon="3.17362">
        <ele>242.04032897949</ele>
        <time>2016-02-07T10:55:40.000Z</time>
      </trkpt>
      <trkpt lat="46.85201" lon="3.17362">
        <ele>241.93408203125</ele>
        <time>2016-02-07T10:55:42.000Z</time>
      </trkpt>
      <trkpt lat="46.85206" lon="3.17364">
        <ele>241.83291625977</ele>
        <time>2016-02-07T10:55:47.000Z</time>
      </trkpt>
      <trkpt lat="46.85209" lon="3.17365">
        <ele>241.73788452148</ele>
        <time>2016-02-07T10:55:47.000Z</time>
      </trkpt>
      <trkpt lat="46.85213" lon="3.17366">
        <ele>241.63357543945</ele>
        <time>2016-02-07T10:55:51.000Z</time>
      </trkpt>
      <trkpt lat="46.85215" lon="3.17366">
        <ele>241.55187988281</ele>
        <time>2016-02-07T10:55:52.000Z</time>
      </trkpt>
      <trkpt lat="46.85218" lon="3.17367">
        <ele>241.47924804688</ele>
        <time>2016-02-07T10:55:54.000Z</time>
      </trkpt>
      <trkpt lat="46.85221" lon="3.17369">
        <ele>241.41812133789</ele>
        <time>2016-02-07T10:55:57.000Z</time>
      </trkpt>
      <trkpt lat="46.85225" lon="3.1737">
        <ele>241.34834289551</ele>
        <time>2016-02-07T10:56:00.000Z</time>
      </trkpt>
      <trkpt lat="46.85229" lon="3.17371">
        <ele>241.28132629395</ele>
        <time>2016-02-07T10:56:03.000Z</time>
      </trkpt>
      <trkpt lat="46.85232" lon="3.17373">
        <ele>241.22204589844</ele>
        <time>2016-02-07T10:56:05.000Z</time>
      </trkpt>
      <trkpt lat="46.85234" lon="3.17374">
        <ele>241.17556762695</ele>
        <time>2016-02-07T10:56:08.000Z</time>
      </trkpt>
      <trkpt lat="46.85237" lon="3.17376">
        <ele>241.13508605957</ele>
        <time>2016-02-07T10:56:10.000Z</time>
      </trkpt>
      <trkpt lat="46.85241" lon="3.17379">
        <ele>241.1178894043</ele>
        <time>2016-02-07T10:56:13.000Z</time>
      </trkpt>
      <trkpt lat="46.85243" lon="3.17382">
        <ele>241.14408874512</ele>
        <time>2016-02-07T10:56:16.000Z</time>
      </trkpt>
      <trkpt lat="46.85245" lon="3.17385">
        <ele>241.18266296387</ele>
        <time>2016-02-07T10:56:18.000Z</time>
      </trkpt>
      <trkpt lat="46.85247" lon="3.17388">
        <ele>241.23994445801</ele>
        <time>2016-02-07T10:56:21.000Z</time>
      </trkpt>
      <trkpt lat="46.8525" lon="3.17391">
        <ele>241.30795288086</ele>
        <time>2016-02-07T10:56:23.000Z</time>
      </trkpt>
      <trkpt lat="46.85253" lon="3.17394">
        <ele>241.3980255127</ele>
        <time>2016-02-07T10:56:25.000Z</time>
      </trkpt>
      <trkpt lat="46.85258" lon="3.17398">
        <ele>241.48733520508</ele>
        <time>2016-02-07T10:56:28.000Z</time>
      </trkpt>
      <trkpt lat="46.8526" lon="3.17401">
        <ele>241.58122253418</ele>
        <time>2016-02-07T10:56:31.000Z</time>
      </trkpt>
      <trkpt lat="46.85263" lon="3.17404">
        <ele>241.6682434082</ele>
        <time>2016-02-07T10:56:34.000Z</time>
      </trkpt>
      <trkpt lat="46.85265" lon="3.17406">
        <ele>241.75387573242</ele>
        <time>2016-02-07T10:56:35.000Z</time>
      </trkpt>
      <trkpt lat="46.85268" lon="3.17409">
        <ele>241.82829284668</ele>
        <time>2016-02-07T10:56:38.000Z</time>
      </trkpt>
      <trkpt lat="46.85271" lon="3.17412">
        <ele>241.89443969727</ele>
        <time>2016-02-07T10:56:41.000Z</time>
      </trkpt>
      <trkpt lat="46.85271" lon="3.17414">
        <ele>241.95919799805</ele>
        <time>2016-02-07T10:56:43.000Z</time>
      </trkpt>
      <trkpt lat="46.85274" lon="3.17418">
        <ele>242.0217590332</ele>
        <time>2016-02-07T10:56:46.000Z</time>
      </trkpt>
      <trkpt lat="46.85275" lon="3.1742">
        <ele>242.07368469238</ele>
        <time>2016-02-07T10:56:48.000Z</time>
      </trkpt>
      <trkpt lat="46.85277" lon="3.17422">
        <ele>242.10501098633</ele>
        <time>2016-02-07T10:56:51.000Z</time>
      </trkpt>
      <trkpt lat="46.85279" lon="3.17423">
        <ele>242.11674499512</ele>
        <time>2016-02-07T10:56:53.000Z</time>
      </trkpt>
      <trkpt lat="46.85281" lon="3.17426">
        <ele>242.09782409668</ele>
        <time>2016-02-07T10:56:57.000Z</time>
      </trkpt>
      <trkpt lat="46.85284" lon="3.17427">
        <ele>242.05249023438</ele>
        <time>2016-02-07T10:56:58.000Z</time>
      </trkpt>
      <trkpt lat="46.85289" lon="3.17431">
        <ele>241.98017883301</ele>
        <time>2016-02-07T10:57:02.000Z</time>
      </trkpt>
      <trkpt lat="46.8529" lon="3.17432">
        <ele>241.91093444824</ele>
        <time>2016-02-07T10:57:03.000Z</time>
      </trkpt>
      <trkpt lat="46.85291" lon="3.17434">
        <ele>241.84750366211</ele>
        <time>2016-02-07T10:57:05.000Z</time>
      </trkpt>
      <trkpt lat="46.85292" lon="3.17436">
        <ele>241.78707885742</ele>
        <time>2016-02-07T10:57:08.000Z</time>
      </trkpt>
      <trkpt lat="46.85294" lon="3.17437">
        <ele>241.73222351074</ele>
        <time>2016-02-07T10:57:10.000Z</time>
      </trkpt>
      <trkpt lat="46.85296" lon="3.17439">
        <ele>241.68717956543</ele>
        <time>2016-02-07T10:57:12.000Z</time>
      </trkpt>
      <trkpt lat="46.85299" lon="3.1744">
        <ele>241.62431335449</ele>
        <time>2016-02-07T10:57:15.000Z</time>
      </trkpt>
      <trkpt lat="46.85302" lon="3.17444">
        <ele>241.54682922363</ele>
        <time>2016-02-07T10:57:19.000Z</time>
      </trkpt>
      <trkpt lat="46.85304" lon="3.17448">
        <ele>241.47236633301</ele>
        <time>2016-02-07T10:57:20.000Z</time>
      </trkpt>
      <trkpt lat="46.85307" lon="3.1745">
        <ele>241.38032531738</ele>
        <time>2016-02-07T10:57:22.000Z</time>
      </trkpt>
      <trkpt lat="46.8531" lon="3.17454">
        <ele>241.28764343262</ele>
        <time>2016-02-07T10:57:25.000Z</time>
      </trkpt>
      <trkpt lat="46.85313" lon="3.17458">
        <ele>241.19680786133</ele>
        <time>2016-02-07T10:57:28.000Z</time>
      </trkpt>
      <trkpt lat="46.85316" lon="3.17464">
        <ele>241.09414672852</ele>
        <time>2016-02-07T10:57:31.000Z</time>
      </trkpt>
      <trkpt lat="46.85318" lon="3.17466">
        <ele>240.98574829102</ele>
        <time>2016-02-07T10:57:33.000Z</time>
      </trkpt>
      <trkpt lat="46.8532" lon="3.17469">
        <ele>240.88903808594</ele>
        <time>2016-02-07T10:57:35.000Z</time>
      </trkpt>
      <trkpt lat="46.85321" lon="3.17473">
        <ele>240.80068969727</ele>
        <time>2016-02-07T10:57:38.000Z</time>
      </trkpt>
      <trkpt lat="46.85322" lon="3.17479">
        <ele>240.72489929199</ele>
        <time>2016-02-07T10:57:42.000Z</time>
      </trkpt>
      <trkpt lat="46.85323" lon="3.17481">
        <ele>240.66696166992</ele>
        <time>2016-02-07T10:57:43.000Z</time>
      </trkpt>
      <trkpt lat="46.85326" lon="3.17486">
        <ele>240.59370422363</ele>
        <time>2016-02-07T10:57:46.000Z</time>
      </trkpt>
      <trkpt lat="46.85328" lon="3.17492">
        <ele>240.51342773438</ele>
        <time>2016-02-07T10:57:49.000Z</time>
      </trkpt>
      <trkpt lat="46.85329" lon="3.17496">
        <ele>240.43417358398</ele>
        <time>2016-02-07T10:57:51.000Z</time>
      </trkpt>
      <trkpt lat="46.85329" lon="3.17498">
        <ele>240.36483764648</ele>
        <time>2016-02-07T10:57:53.000Z</time>
      </trkpt>
      <trkpt lat="46.8533" lon="3.17503">
        <ele>240.28491210938</ele>
        <time>2016-02-07T10:57:56.000Z</time>
      </trkpt>
      <trkpt lat="46.85331" lon="3.17506">
        <ele>240.21997070312</ele>
        <time>2016-02-07T10:57:59.000Z</time>
      </trkpt>
      <trkpt lat="46.85332" lon="3.1751">
        <ele>240.15226745605</ele>
        <time>2016-02-07T10:58:00.000Z</time>
      </trkpt>
      <trkpt lat="46.85332" lon="3.17514">
        <ele>240.07991027832</ele>
        <time>2016-02-07T10:58:02.000Z</time>
      </trkpt>
      <trkpt lat="46.85332" lon="3.17519">
        <ele>239.99345397949</ele>
        <time>2016-02-07T10:58:05.000Z</time>
      </trkpt>
      <trkpt lat="46.85332" lon="3.17525">
        <ele>239.91426086426</ele>
        <time>2016-02-07T10:58:08.000Z</time>
      </trkpt>
      <trkpt lat="46.85332" lon="3.17529">
        <ele>239.84004211426</ele>
        <time>2016-02-07T10:58:11.000Z</time>
      </trkpt>
      <trkpt lat="46.85332" lon="3.17531">
        <ele>239.78775024414</ele>
        <time>2016-02-07T10:58:13.000Z</time>
      </trkpt>
      <trkpt lat="46.85331" lon="3.1753">
        <ele>239.76176452637</ele>
        <time>2016-02-07T10:58:30.000Z</time>
      </trkpt>
      <trkpt lat="46.85331" lon="3.1753">
        <ele>239.76176452637</ele>
        <time>2016-02-07T10:58:51.000Z</time>
      </trkpt>
      <trkpt lat="46.85331" lon="3.1753">
        <ele>239.76176452637</ele>
        <time>2016-02-07T10:59:28.000Z</time>
      </trkpt>
    </trkseg>
  </trk>
</gpx>